# Wetter Temperatur Luftdruck Luftfeuchtigkeit Sichtweite Windgeschwindigkeit Windrichtung Zeit
1 Clouds -35 1032 66 10000 3 350 09:40 29.01.2020
2 Clouds -35 1032 66 10000 3 350 09:40 29.01.2020
3 Clouds -35 1032 66 10000 3 350 09:22 29.01.2020
4 Clouds -35 1032 66 10000 2 10 08:59 29.01.2020
5 Clouds -35 1032 66 10000 2 350 08:40 29.01.2020
6 Clouds -35 1032 66 10000 2 350 08:22 29.01.2020
7 Clouds -35 1032 66 10000 2 350 07:45 29.01.2020
8 Clouds -35 1033 66 10000 2 340 07:25 29.01.2020
9 Clouds -35 1033 66 10000 2 320 06:55 29.01.2020
10 Clouds -35 1033 66 10000 2 320 06:55 29.01.2020
11 Mist -36 1033 66 5000 2 10 06:37 29.01.2020
12 Mist -36 1033 66 5000 2 10 06:18 29.01.2020
13 Mist -36 1034 66 3200 1 350 05:46 29.01.2020
14 Mist -37 1034 65 3200 2 360 05:27 29.01.2020
15 Fog -38 1034 65 800 1 340 04:38 29.01.2020
16 Fog -39 1034 58 650 1 10 03:50 29.01.2020
17 Fog -42 1035 64 350 1 350 02:33 29.01.2020
18 Fog -42 1035 64 300 1 330 00:51 29.01.2020
19 Fog -43 1036 64 250 1 360 00:29 29.01.2020
20 Fog -42 1036 57 200 2 10 23:58 28.01.2020
21 Fog -42 1036 64 200 1 310 23:37 28.01.2020
22 Fog -42 1036 64 200 1 310 23:19 28.01.2020
23 Fog -42 1036 57 200 1 360 22:44 28.01.2020
24 Fog -42 1036 57 250 1 10 22:26 28.01.2020
25 Fog -41 1036 57 200 1 320 21:54 28.01.2020
26 Fog -41 1036 57 250 1 310 21:36 28.01.2020
27 Fog -41 1036 57 250 1 310 21:18 28.01.2020
28 Fog -41 1036 57 250 1 310 21:18 28.01.2020
29 Fog -41 1036 57 250 1 310 21:18 28.01.2020
30 Fog -42 1036 64 350 1 20 20:45 28.01.2020
31 Fog -41 1036 57 550 1.53 154 20:25 28.01.2020
32 Fog -41 1036 64 600 1.79 176 19:55 28.01.2020
33 Fog -41 1036 64 1000 1.79 176 19:36 28.01.2020
34 Fog -41 1036 64 1000 1.79 176 19:18 28.01.2020
35 Fog -41 1036 64 1000 1.79 176 19:18 28.01.2020
36 Fog -41 1036 64 400 1 310 18:41 28.01.2020
37 Fog -41 1036 64 400 1 310 18:22 28.01.2020
38 Fog -40 1036 58 400 1 330 17:59 28.01.2020
39 Fog -41 1036 64 700 1.79 176 17:39 28.01.2020
40 Fog -41 1036 64 700 1.48 190 17:21 28.01.2020
41 Fog -40 1036 65 600 1 310 16:57 28.01.2020
42 Mist -40 1036 65 1300 1 280 16:39 28.01.2020
43 Mist -40 1036 65 1300 1 280 16:21 28.01.2020
44 Mist -40 1036 65 1500 1.48 190 15:45 28.01.2020
45 Mist -40 1036 58 5000 1 300 15:19 28.01.2020
46 Clear -40 1036 65 10000 2 280 14:57 28.01.2020
47 Clear -39 1036 58 10000 1.48 190 14:39 28.01.2020
48 Clear -39 1036 58 10000 1.48 190 14:39 28.01.2020
49 Clear -39 1036 58 10000 0.56 208 14:18 28.01.2020
50 Clear -39 1035 65 10000 0.56 208 13:41 28.01.2020
51 Clear -39 1035 65 10000 0.6 208 13:23 28.01.2020
52 Clear -40 1035 65 10000 1 160 12:43 28.01.2020
53 Clear -38 1035 58 10000 1 280 12:24 28.01.2020
54 Clear -38 1035 65 10000 2 290 11:56 28.01.2020
55 Clear -37 1035 65 10000 2 310 11:38 28.01.2020
56 Clear -37 1035 65 10000 2 310 11:19 28.01.2020
57 Clear -36 1034 66 10000 0.79 288 10:41 28.01.2020
58 Clear -36 1034 66 10000 0.79 288 10:23 28.01.2020
59 Clear -36 1034 66 10000 2 160 09:56 28.01.2020
60 Clear -37 1034 65 10000 2 180 09:37 28.01.2020
61 Clear -37 1034 65 10000 2 180 09:19 28.01.2020
62 Clear -34 1033 66 10000 1 170 08:42 28.01.2020
63 Clear -33 1033 74 10000 1 150 08:21 28.01.2020
64 Clear -32 1032 67 10000 2 160 07:39 28.01.2020
65 Clear -32 1032 67 10000 1 140 06:58 28.01.2020
66 Clear -30 1031 67 10000 1.27 295 06:40 28.01.2020
67 Clear -30 1031 67 10000 1.27 295 06:22 28.01.2020
68 Clear -30 1030 67 10000 1 330 05:34 28.01.2020
69 Clear -32 1030 67 10000 1 310 04:40 28.01.2020
70 Clear -34 1029 66 10000 2 290 03:41 28.01.2020
71 Clear -34 1029 66 10000 3 290 02:40 28.01.2020
72 Clouds -34 1029 66 10000 3 290 02:21 28.01.2020
73 Clouds -35 1028 73 10000 2 290 01:48 28.01.2020
74 Clouds -34 1028 66 10000 3 270 00:51 28.01.2020
75 Clouds -34 1027 66 10000 2 260 00:30 28.01.2020
76 Clouds -34 1027 66 10000 2 250 23:59 27.01.2020
77 Clouds -33 1027 67 10000 2 270 23:41 27.01.2020
78 Clouds -33 1027 67 10000 2 270 23:18 27.01.2020
79 Clouds -33 1027 67 10000 1 280 22:44 27.01.2020
80 Clouds -32 1026 67 10000 3 280 22:20 27.01.2020
81 Snow -32 1026 67 10000 2 300 21:57 27.01.2020
82 Snow -32 1026 67 10000 2 300 21:38 27.01.2020
83 Snow -32 1026 67 10000 2 300 21:18 27.01.2020
84 Snow -32 1025 67 10000 2 310 20:55 27.01.2020
85 Snow -32 1025 67 10000 2 300 20:37 27.01.2020
86 Snow -32 1025 67 10000 2 300 20:18 27.01.2020
87 Snow -32 1025 67 10000 2 310 19:41 27.01.2020
88 Snow -33 1025 74 10000 3 300 19:23 27.01.2020
89 Snow -33 1024 67 10000 2 300 18:57 27.01.2020
90 Snow -33 1024 67 10000 2 310 18:39 27.01.2020
91 Snow -33 1024 67 10000 2 310 18:39 27.01.2020
92 Snow -33 1024 67 10000 2 310 18:20 27.01.2020
93 Snow -33 1023 67 10000 2 310 17:55 27.01.2020
94 Clouds -35 1023 73 10000 2 310 17:37 27.01.2020
95 Clouds -35 1023 73 10000 2 310 17:37 27.01.2020
96 Snow -35 1023 73 10000 2 310 17:18 27.01.2020
97 Snow -34 1022 66 10000 2 310 16:42 27.01.2020
98 Snow -34 1022 66 10000 2 310 16:24 27.01.2020
99 Snow -34 1022 66 10000 2 310 16:24 27.01.2020
100 Snow -34 1022 73 10000 2 330 15:55 27.01.2020
101 Snow -33 1021 67 10000 3 330 15:37 27.01.2020
102 Snow -33 1021 67 10000 3 330 15:19 27.01.2020
103 Snow -33 1021 67 10000 3 340 14:55 27.01.2020
104 Snow -33 1021 67 10000 2 360 14:36 27.01.2020
105 Snow -33 1021 67 10000 2 360 14:18 27.01.2020
106 Snow -32 1021 67 5000 3 10 13:42 27.01.2020
107 Snow -32 1020 67 5000 3 360 13:21 27.01.2020
108 Snow -32 1020 67 5000 3 360 13:21 27.01.2020
109 Snow -33 1020 74 5000 2 350 12:56 27.01.2020
110 Snow -33 1020 74 10000 3 360 12:37 27.01.2020
111 Snow -33 1020 74 10000 3 360 12:19 27.01.2020
112 Snow -33 1020 74 10000 2 350 11:41 27.01.2020
113 Snow -33 1020 74 10000 2 350 11:21 27.01.2020
114 Snow -33 1020 74 10000 2 350 11:21 27.01.2020
115 Snow -33 1020 67 10000 3 360 10:44 27.01.2020
116 Snow -33 1020 74 10000 3 360 10:25 27.01.2020
117 Snow -33 1019 74 10000 3 10 09:58 27.01.2020
118 Clouds -32 1019 67 10000 4 360 09:39 27.01.2020
119 Clouds -32 1019 67 10000 4 360 09:18 27.01.2020
120 Clouds -32 1019 67 10000 4 360 08:46 27.01.2020
121 Snow -32 1019 74 10000 4 360 08:22 27.01.2020
122 Snow -31 1018 67 10000 3 350 07:54 27.01.2020
123 Snow -31 1018 74 10000 3 340 07:35 27.01.2020
124 Snow -30 1018 67 10000 3 340 06:55 27.01.2020
125 Snow -30 1018 67 10000 3 20 06:27 27.01.2020
126 Snow -30 1018 67 10000 3 20 06:27 27.01.2020
127 Snow -30 1017 74 10000 4 20 05:28 27.01.2020
128 Snow -30 1017 67 3200 4 30 04:20 27.01.2020
129 Snow -30 1017 67 5000 4 10 03:23 27.01.2020
130 Snow -30 1017 67 2400 3 80 01:32 27.01.2020
131 Snow -30 1017 67 5000 4 80 00:59 27.01.2020
132 Snow -32 1016 74 3200 3 20 00:38 27.01.2020
133 Snow -32 1016 74 3200 3 20 00:19 27.01.2020
134 Snow -33 1017 74 5000 3 360 23:42 26.01.2020
135 Snow -33 1017 74 5000 3 350 23:20 26.01.2020
136 Snow -33 1017 74 5000 4 10 22:57 26.01.2020
137 Snow -34 1017 73 5000 3 360 22:37 26.01.2020
138 Snow -34 1017 73 5000 3 360 22:18 26.01.2020
139 Snow -35 1017 73 5000 4 360 21:56 26.01.2020
140 Snow -35 1017 66 2100 3 350 21:38 26.01.2020
141 Snow -35 1017 66 2100 3 350 21:19 26.01.2020
142 Snow -35 1018 66 3200 4 360 20:55 26.01.2020
143 Mist -35 1018 66 5000 3 360 20:37 26.01.2020
144 Mist -35 1018 66 5000 3 360 20:18 26.01.2020
145 Mist -36 1018 66 5000 3 350 19:56 26.01.2020
146 Mist -36 1019 66 5000 3 350 19:37 26.01.2020
147 Mist -36 1019 66 5000 3 350 19:18 26.01.2020
148 Mist -37 1019 65 3500 3 360 18:41 26.01.2020
149 Mist -37 1019 65 3500 3 360 18:22 26.01.2020
150 Mist -38 1020 65 2100 3 350 17:59 26.01.2020
151 Mist -38 1020 65 2100 3 350 17:59 26.01.2020
152 Mist -39 1019 65 2100 3 360 17:39 26.01.2020
153 Mist -39 1019 65 2100 3 360 17:20 26.01.2020
154 Mist -39 1020 58 1500 3 360 16:58 26.01.2020
155 Mist -40 1020 58 1100 3 350 16:40 26.01.2020
156 Mist -40 1020 58 1100 3 350 16:21 26.01.2020
157 Clouds -34 1025 87 0 3.6 97 15:58 26.01.2020
158 Clouds -34 1025 87 0 3.6 97 15:39 26.01.2020
159 Clouds -34 1025 87 0 3.6 97 15:19 26.01.2020
160 Clouds -34 1025 87 0 3.6 97 14:41 26.01.2020
161 Clear -37 1027 90 0 2.61 100 14:22 26.01.2020
162 Clear -37 1027 90 0 2.61 100 13:57 26.01.2020
163 Clear -37 1027 90 0 2.61 100 13:37 26.01.2020
164 Clear -37 1027 91 0 2.62 99 13:18 26.01.2020
165 Clear -37 1027 91 0 2.62 99 12:42 26.01.2020
166 Clear -37 1027 91 0 2.62 99 12:24 26.01.2020
167 Clear -37 1027 91 0 2.62 99 12:24 26.01.2020
168 Clear -37 1027 91 0 2.62 99 11:58 26.01.2020
169 Clear -37 1027 91 0 2.62 99 11:39 26.01.2020
170 Clear -37 1027 91 0 2.62 99 11:39 26.01.2020
171 Fog -45 1023 56 700 2 350 11:19 26.01.2020
172 Fog -45 1023 56 700 2 350 10:58 26.01.2020
173 Fog -45 1023 56 700 2 350 10:38 26.01.2020
174 Fog -45 1023 56 700 2 350 10:38 26.01.2020
175 Fog -45 1023 56 700 2 350 10:20 26.01.2020
176 Fog -45 1024 56 650 2 340 09:58 26.01.2020
177 Fog -46 1024 56 700 2 10 09:40 26.01.2020
178 Fog -46 1024 56 700 2 10 09:21 26.01.2020
179 Fog -45 1024 56 450 1 360 08:43 26.01.2020
180 Fog -45 1024 56 450 1 340 08:23 26.01.2020
181 Fog -45 1024 56 900 1 350 07:57 26.01.2020
182 Fog -45 1024 56 900 1 360 07:39 26.01.2020
183 Fog -45 1024 56 900 1 360 07:21 26.01.2020
184 Fog -45 1024 56 450 1 20 06:31 26.01.2020
185 Fog -45 1025 56 600 1 330 05:32 26.01.2020
186 Fog -45 1025 56 600 1 330 05:32 26.01.2020
187 Fog -46 1025 63 500 1 360 04:45 26.01.2020
188 Fog -47 1025 49 200 1 20 02:58 26.01.2020
189 Fog -47 1025 55 150 1 350 01:50 26.01.2020
190 Fog -47 1026 49 250 1 310 01:25 26.01.2020
191 Fog -47 1026 55 150 1 310 00:58 26.01.2020
192 Fog -48 1026 55 150 1 330 00:37 26.01.2020
193 Fog -48 1026 55 150 1 330 00:19 26.01.2020
194 Clear -40 1031 97 0 1.16 94 23:37 25.01.2020
195 Clear -41 1030 97 0 1.13 91 23:18 25.01.2020
196 Clear -41 1030 97 0 1.13 91 22:40 25.01.2020
197 Clear -41 1030 97 0 1.13 91 22:19 25.01.2020
198 Clear -41 1030 97 0 1.13 91 21:57 25.01.2020
199 Clear -41 1030 97 0 1.13 91 21:38 25.01.2020
200 Clear -41 1030 97 0 1.13 91 21:20 25.01.2020
201 Clear -41 1030 97 0 1.13 91 20:44 25.01.2020
202 Clear -41 1030 97 0 1.13 91 20:25 25.01.2020
203 Clear -40 1030 97 0 1.43 74 19:56 25.01.2020
204 Clear -40 1031 97 0 1.43 76 19:37 25.01.2020
205 Clear -40 1031 97 0 1.43 76 19:18 25.01.2020
206 Clear -40 1030 97 0 1.43 74 18:43 25.01.2020
207 Clear -40 1031 97 0 1.43 76 18:23 25.01.2020
208 Clear -40 1031 97 0 1.43 76 17:59 25.01.2020
209 Clear -40 1031 97 0 1.43 76 17:39 25.01.2020
210 Clear -40 1031 97 0 1.38 74 17:19 25.01.2020
211 Clear -40 1031 97 0 1.38 74 16:56 25.01.2020
212 Clear -40 1031 97 0 1.37 75 16:36 25.01.2020
213 Clear -40 1031 97 0 1.37 75 16:18 25.01.2020
214 Clear -40 1031 97 0 1.37 75 15:42 25.01.2020
215 Clear -40 1031 97 0 1.37 75 15:23 25.01.2020
216 Clear -40 1031 97 0 1.37 75 14:44 25.01.2020
217 Clear -39 1032 97 0 1.59 73 14:19 25.01.2020
218 Clear -39 1032 97 0 1.59 73 13:56 25.01.2020
219 Clear -39 1032 97 0 1.59 73 13:38 25.01.2020
220 Clear -39 1032 97 0 1.61 70 13:18 25.01.2020
221 Fog -46 1028 56 550 2 340 12:41 25.01.2020
222 Fog -46 1028 56 550 2 340 12:20 25.01.2020
223 Fog -46 1028 56 500 2 340 11:40 25.01.2020
224 Fog -46 1028 56 500 2 340 11:21 25.01.2020
225 Fog -46 1028 56 500 2 340 11:21 25.01.2020
226 Fog -46 1028 56 600 2 350 10:56 25.01.2020
227 Fog -46 1028 56 550 1 350 10:38 25.01.2020
228 Fog -46 1028 56 550 1 350 10:19 25.01.2020
229 Fog -45 1028 56 500 1 350 09:40 25.01.2020
230 Fog -45 1028 56 500 1 350 09:20 25.01.2020
231 Fog -45 1028 56 600 2 340 08:43 25.01.2020
232 Fog -45 1028 63 700 1 340 08:20 25.01.2020
233 Fog -44 1028 57 550 1 330 07:41 25.01.2020
234 Fog -44 1028 57 800 1 360 06:44 25.01.2020
235 Fog -44 1028 57 700 1 10 06:24 25.01.2020
236 Fog -44 1028 57 750 2 10 05:44 25.01.2020
237 Fog -45 1029 56 800 1 360 04:25 25.01.2020
238 Fog -45 1029 56 900 2 360 03:50 25.01.2020
239 Fog -46 1029 56 450 2 340 02:48 25.01.2020
240 Fog -46 1030 56 200 1 340 01:58 25.01.2020
241 Fog -46 1030 56 250 1 320 01:35 25.01.2020
242 Fog -46 1030 56 150 1 330 00:42 25.01.2020
243 Fog -46 1030 56 150 1 330 00:23 25.01.2020
244 Fog -46 1030 56 200 1 340 23:56 24.01.2020
245 Fog -46 1030 56 200 1 330 23:38 24.01.2020
246 Fog -46 1030 56 200 1 330 23:19 24.01.2020
247 Fog -46 1030 56 150 1 320 22:42 24.01.2020
248 Fog -46 1030 63 250 1 350 22:23 24.01.2020
249 Fog -46 1031 63 250 1 310 21:41 24.01.2020
250 Fog -46 1031 63 250 1 310 21:20 24.01.2020
251 Fog -45 1031 56 200 1.02 106 20:55 24.01.2020
252 Fog -45 1030 56 250 1 330 20:37 24.01.2020
253 Fog -45 1030 56 250 1 330 20:18 24.01.2020
254 Fog -45 1031 56 200 1 340 19:55 24.01.2020
255 Fog -45 1031 56 200 1 350 19:37 24.01.2020
256 Fog -45 1031 56 200 1 350 19:19 24.01.2020
257 Fog -45 1031 56 200 1 350 18:42 24.01.2020
258 Fog -45 1031 56 300 1 340 18:22 24.01.2020
259 Fog -45 1031 56 200 1 310 17:45 24.01.2020
260 Fog -45 1031 56 200 1 310 17:45 24.01.2020
261 Fog -44 1031 57 200 2 350 17:22 24.01.2020
262 Fog -44 1031 57 250 1 350 16:57 24.01.2020
263 Fog -44 1031 57 300 1 320 16:38 24.01.2020
264 Fog -44 1031 57 300 1 320 16:19 24.01.2020
265 Fog -44 1031 63 300 1 320 15:42 24.01.2020
266 Fog -44 1031 63 350 1 320 15:21 24.01.2020
267 Fog -43 1031 57 400 1 310 14:55 24.01.2020
268 Fog -43 1031 57 400 1 310 14:55 24.01.2020
269 Fog -43 1031 57 450 0.78 169 14:36 24.01.2020
270 Fog -43 1031 57 450 0.53 205 14:18 24.01.2020
271 Fog -41 1031 57 450 1 290 13:41 24.01.2020
272 Fog -41 1031 57 450 1 290 13:21 24.01.2020
273 Fog -42 1031 57 400 1 310 12:43 24.01.2020
274 Fog -41 1031 64 550 1 310 12:21 24.01.2020
275 Fog -41 1031 64 750 2 300 11:45 24.01.2020
276 Fog -42 1031 64 800 2 290 11:19 24.01.2020
277 Fog -42 1031 64 800 2 290 11:19 24.01.2020
278 Fog -42 1031 64 800 2 290 11:19 24.01.2020
279 Mist -42 1031 57 1100 1 280 10:58 24.01.2020
280 Mist -41 1031 64 3200 0.96 237 10:40 24.01.2020
281 Mist -41 1031 64 3200 0.96 237 10:19 24.01.2020
282 Mist -40 1031 58 1000 2 140 09:41 24.01.2020
283 Mist -40 1031 58 1000 2 140 09:23 24.01.2020
284 Mist -39 1030 65 2000 2 150 08:41 24.01.2020
285 Mist -39 1030 65 2000 2 150 08:21 24.01.2020
286 Clouds -36 1030 66 10000 1 150 07:59 24.01.2020
287 Clouds -34 1030 66 10000 1 170 07:41 24.01.2020
288 Clouds -34 1030 66 10000 0.86 254 06:55 24.01.2020
289 Clouds -34 1030 66 10000 1 140 06:35 24.01.2020
290 Clouds -34 1030 66 10000 1 150 05:59 24.01.2020
291 Mist -35 1030 66 5000 1 140 05:20 24.01.2020
292 Mist -37 1029 65 5000 1 260 02:56 24.01.2020
293 Mist -37 1029 65 5000 1 260 02:38 24.01.2020
294 Mist -37 1029 65 5000 1 260 02:18 24.01.2020
295 Clouds -35 1029 66 10000 1 310 01:37 24.01.2020
296 Clouds -34 1029 66 10000 1 320 00:40 24.01.2020
297 Clouds -34 1029 66 10000 1 320 00:18 24.01.2020
298 Clouds -35 1028 66 10000 1 310 23:41 23.01.2020
299 Clouds -35 1028 66 10000 1 310 23:21 23.01.2020
300 Clouds -36 1028 66 10000 1 330 22:58 23.01.2020
301 Clouds -35 1028 66 10000 1 280 22:36 23.01.2020
302 Clouds -35 1028 66 10000 1 280 22:18 23.01.2020
303 Clouds -35 1028 66 10000 1 280 21:55 23.01.2020
304 Clouds -34 1027 73 10000 1 300 21:37 23.01.2020
305 Clouds -34 1027 73 10000 1 300 21:18 23.01.2020
306 Clouds -33 1027 67 10000 1 300 20:41 23.01.2020
307 Clouds -33 1027 67 10000 1 300 20:22 23.01.2020
308 Clouds -34 1027 73 10000 2 270 19:57 23.01.2020
309 Clouds -33 1027 74 10000 1 270 19:39 23.01.2020
310 Clouds -33 1027 74 10000 1 270 19:21 23.01.2020
311 Clouds -34 1027 66 10000 1 270 18:56 23.01.2020
312 Clouds -34 1026 66 10000 1 270 18:38 23.01.2020
313 Clouds -34 1026 66 10000 1 270 18:19 23.01.2020
314 Clouds -33 1026 74 10000 2 260 17:45 23.01.2020
315 Snow -34 1026 66 10000 2 230 17:21 23.01.2020
316 Snow -34 1026 66 10000 2 240 16:59 23.01.2020
317 Snow -35 1026 66 10000 1 220 16:39 23.01.2020
318 Snow -35 1026 66 10000 1 220 16:19 23.01.2020
319 Snow -35 1026 66 10000 1.75 313 15:58 23.01.2020
320 Snow -35 1025 73 10000 1.75 313 15:38 23.01.2020
321 Snow -35 1025 73 10000 1.75 313 15:19 23.01.2020
322 Snow -35 1025 73 10000 1.75 313 14:58 23.01.2020
323 Snow -34 1025 66 10000 1.75 313 14:40 23.01.2020
324 Clouds -34 1025 66 10000 1.61 329 14:21 23.01.2020
325 Clouds -35 1025 73 10000 1 270 13:54 23.01.2020
326 Clouds -36 1025 73 10000 1 220 13:36 23.01.2020
327 Clouds -36 1025 73 10000 1 220 13:18 23.01.2020
328 Clouds -36 1025 66 10000 1 130 12:40 23.01.2020
329 Clouds -36 1025 66 10000 1 130 12:22 23.01.2020
330 Clouds -37 1024 65 10000 1.23 326 11:55 23.01.2020
331 Clouds -36 1024 66 10000 2 220 11:36 23.01.2020
332 Clouds -36 1024 66 10000 2 220 11:18 23.01.2020
333 Mist -37 1024 65 5000 1 200 10:41 23.01.2020
334 Mist -37 1024 65 5000 1 200 10:19 23.01.2020
335 Mist -36 1023 66 5000 1 150 09:41 23.01.2020
336 Mist -36 1023 66 5000 1 150 09:23 23.01.2020
337 Mist -36 1022 66 5000 1 190 08:57 23.01.2020
338 Mist -36 1022 73 5000 1 180 08:38 23.01.2020
339 Mist -36 1022 73 5000 1 180 08:20 23.01.2020
340 Mist -36 1022 66 5000 1 150 07:42 23.01.2020
341 Mist -36 1021 66 5000 1 160 07:24 23.01.2020
342 Mist -36 1021 66 5000 1 120 06:46 23.01.2020
343 Mist -36 1021 66 5000 1 130 06:19 23.01.2020
344 Clouds -36 1020 66 10000 0.25 352 04:44 23.01.2020
345 Clouds -36 1020 66 10000 0.25 352 04:21 23.01.2020
346 Clouds -36 1018 66 10000 1 340 01:58 23.01.2020
347 Clouds -36 1018 66 10000 1 20 00:47 23.01.2020
348 Clouds -36 1018 66 10000 2 360 00:26 23.01.2020
349 Mist -36 1018 66 5000 2 340 23:47 22.01.2020
350 Mist -36 1018 66 5000 2 340 23:47 22.01.2020
351 Mist -37 1018 65 5000 2 330 23:28 22.01.2020
352 Mist -37 1017 65 5000 2 330 22:55 22.01.2020
353 Mist -37 1017 65 5000 2 360 22:37 22.01.2020
354 Mist -37 1017 65 5000 2 360 22:19 22.01.2020
355 Mist -37 1017 73 3200 2 340 21:39 22.01.2020
356 Mist -37 1017 73 3200 2 340 21:21 22.01.2020
357 Mist -37 1016 65 3200 3 360 20:56 22.01.2020
358 Mist -37 1016 65 3200 3 350 20:36 22.01.2020
359 Mist -37 1016 65 3200 3 350 20:36 22.01.2020
360 Mist -37 1016 65 3200 3 350 20:18 22.01.2020
361 Mist -37 1016 65 1800 2 350 19:55 22.01.2020
362 Mist -38 1016 65 1800 2 340 19:37 22.01.2020
363 Mist -38 1016 65 1800 2 340 19:37 22.01.2020
364 Mist -38 1016 65 1800 2 340 19:18 22.01.2020
365 Mist -38 1016 65 1800 2 350 18:55 22.01.2020
366 Mist -38 1016 65 1800 2 340 18:36 22.01.2020
367 Mist -38 1016 65 1800 2 340 18:18 22.01.2020
368 Mist -38 1016 65 1800 2 340 18:18 22.01.2020
369 Mist -38 1016 65 1800 2 350 17:39 22.01.2020
370 Mist -38 1016 65 1800 2 350 17:21 22.01.2020
371 Mist -39 1016 65 1800 2 350 16:57 22.01.2020
372 Mist -39 1016 65 1200 2 350 16:39 22.01.2020
373 Mist -39 1016 65 1200 2 350 16:20 22.01.2020
374 Fog -39 1016 65 900 2 360 15:55 22.01.2020
375 Fog -38 1016 65 900 2 340 15:37 22.01.2020
376 Fog -38 1016 65 900 2 340 15:18 22.01.2020
377 Fog -39 1016 65 1400 2 330 14:39 22.01.2020
378 Fog -39 1016 65 1400 2 330 14:20 22.01.2020
379 Mist -39 1016 65 1600 2 350 13:58 22.01.2020
380 Mist -39 1016 65 2400 2 340 13:37 22.01.2020
381 Mist -39 1016 65 2400 2 340 13:37 22.01.2020
382 Mist -39 1016 65 2400 2 340 13:19 22.01.2020
383 Mist -38 1016 65 2400 2 340 12:57 22.01.2020
384 Mist -38 1016 65 2400 2 350 12:38 22.01.2020
385 Mist -38 1016 65 2400 2 350 12:19 22.01.2020
386 Mist -38 1016 65 2400 3 340 11:57 22.01.2020
387 Mist -38 1016 65 2400 3 350 11:39 22.01.2020
388 Mist -38 1016 65 2400 3 350 11:19 22.01.2020
389 Mist -38 1016 65 2400 3 350 10:45 22.01.2020
390 Mist -38 1016 65 2400 3 340 10:21 22.01.2020
391 Mist -38 1016 65 2400 3 330 09:58 22.01.2020
392 Mist -38 1016 65 2400 2 340 09:40 22.01.2020
393 Mist -38 1016 65 2400 2 340 09:21 22.01.2020
394 Mist -39 1016 65 2400 2 340 08:55 22.01.2020
395 Mist -39 1016 65 2400 2 340 08:37 22.01.2020
396 Mist -39 1016 65 2400 2 340 08:19 22.01.2020
397 Mist -38 1016 65 2000 2 340 07:44 22.01.2020
398 Mist -38 1016 65 2000 2 330 07:26 22.01.2020
399 Mist -37 1016 65 1500 1 360 06:34 22.01.2020
400 Fog -36 1016 66 800 1 117 05:54 22.01.2020
401 Fog -40 1016 65 350 1 340 04:25 22.01.2020
402 Fog -40 1016 65 300 1 10 03:26 22.01.2020
403 Fog -40 1016 65 350 1 330 02:48 22.01.2020
404 Mist -39 1016 58 3200 1 330 00:47 22.01.2020
405 Mist -39 1016 65 5000 1 310 00:28 22.01.2020
406 Mist -38 1016 65 5000 2 300 23:57 21.01.2020
407 Mist -38 1016 65 5000 2 300 23:57 21.01.2020
408 Mist -37 1016 65 5000 1 300 23:37 21.01.2020
409 Mist -37 1016 65 5000 1 300 23:19 21.01.2020
410 Mist -39 1016 65 5000 1 280 22:40 21.01.2020
411 Mist -39 1016 65 5000 1 280 22:40 21.01.2020
412 Mist -39 1016 65 5000 1 280 22:21 21.01.2020
413 Mist -37 1016 65 5000 0.99 245 21:58 21.01.2020
414 Clouds -38 1016 73 10000 0.99 245 21:39 21.01.2020
415 Clouds -38 1016 73 10000 0.99 245 21:20 21.01.2020
416 Clouds -36 1016 66 10000 1 170 20:57 21.01.2020
417 Clouds -36 1016 66 10000 1 170 20:57 21.01.2020
418 Clouds -35 1015 66 10000 1 140 20:38 21.01.2020
419 Snow -35 1015 66 10000 1 140 20:20 21.01.2020
420 Clouds -34 1015 66 10000 1 160 19:57 21.01.2020
421 Snow -33 1016 67 10000 1 140 19:39 21.01.2020
422 Snow -33 1016 67 10000 1 140 19:20 21.01.2020
423 Snow -33 1016 67 10000 1 130 18:55 21.01.2020
424 Snow -33 1016 67 10000 1 150 18:37 21.01.2020
425 Snow -33 1016 67 10000 1 150 18:19 21.01.2020
426 Snow -33 1015 67 10000 1 150 17:45 21.01.2020
427 Snow -33 1015 74 5000 1 130 17:20 21.01.2020
428 Snow -32 1015 67 5000 1 110 16:59 21.01.2020
429 Snow -32 1015 67 3200 0.6 163 16:37 21.01.2020
430 Snow -32 1015 67 3200 0.6 163 16:19 21.01.2020
431 Snow -33 1015 74 3200 0.6 163 15:56 21.01.2020
432 Clouds -33 1015 74 10000 0.6 163 15:37 21.01.2020
433 Clouds -33 1015 74 10000 0.6 163 15:18 21.01.2020
434 Snow -33 1014 67 10000 0.6 163 14:38 21.01.2020
435 Snow -33 1014 67 10000 0.56 216 14:20 21.01.2020
436 Snow -33 1014 74 10000 2 30 13:41 21.01.2020
437 Snow -33 1014 74 10000 2 30 13:19 21.01.2020
438 Snow -32 1014 74 10000 1 50 12:56 21.01.2020
439 Snow -32 1014 74 10000 1 30 12:38 21.01.2020
440 Snow -32 1014 74 10000 1 30 12:19 21.01.2020
441 Snow -32 1014 74 10000 2 30 11:40 21.01.2020
442 Snow -32 1014 74 10000 2 30 11:21 21.01.2020
443 Snow -32 1014 74 10000 2 360 10:59 21.01.2020
444 Snow -32 1014 74 10000 1 350 10:40 21.01.2020
445 Snow -32 1014 74 10000 1 350 10:21 21.01.2020
446 Snow -32 1013 67 10000 1 340 09:42 21.01.2020
447 Clouds -33 1013 74 10000 2 350 09:23 21.01.2020
448 Clouds -33 1013 67 10000 2 350 08:54 21.01.2020
449 Clouds -33 1013 67 10000 2 10 08:36 21.01.2020
450 Clouds -33 1013 67 10000 2 10 08:18 21.01.2020
451 Clouds -34 1013 73 10000 2 10 07:41 21.01.2020
452 Clouds -34 1013 73 10000 2 10 07:22 21.01.2020
453 Clouds -34 1013 66 10000 3 10 06:49 21.01.2020
454 Clouds -35 1013 66 10000 2 360 06:29 21.01.2020
455 Clear -35 1013 66 10000 2 10 05:43 21.01.2020
456 Snow -35 1013 66 5000 2 350 04:40 21.01.2020
457 Snow -35 1013 66 3200 2 360 02:57 21.01.2020
458 Mist -36 1013 73 3200 2 360 01:56 21.01.2020
459 Mist -36 1013 66 3200 2 360 01:26 21.01.2020
460 Snow -37 1013 73 2100 1 10 00:37 21.01.2020
461 Snow -37 1013 65 3200 2 10 23:59 20.01.2020
462 Snow -37 1013 65 3200 2 20 23:41 20.01.2020
463 Snow -37 1013 65 3200 2 20 23:19 20.01.2020
464 Snow -37 1013 65 2100 1 40 22:58 20.01.2020
465 Snow -37 1013 65 2100 1 30 22:38 20.01.2020
466 Snow -37 1013 65 2100 1 30 22:20 20.01.2020
467 Snow -37 1013 65 2100 1 30 22:20 20.01.2020
468 Snow -37 1013 65 1400 1 20 21:58 20.01.2020
469 Mist -38 1013 65 1300 1 10 21:37 20.01.2020
470 Mist -38 1013 65 1300 1 10 21:19 20.01.2020
471 Mist -38 1013 65 1300 0.73 110 20:56 20.01.2020
472 Mist -39 1013 65 1100 0.73 110 20:38 20.01.2020
473 Mist -39 1013 65 1100 0.26 163 20:18 20.01.2020
474 Mist -39 1013 65 1300 1 60 19:56 20.01.2020
475 Mist -39 1013 65 1200 1 60 19:38 20.01.2020
476 Mist -39 1013 65 1200 1 60 19:18 20.01.2020
477 Mist -39 1013 65 1000 0.26 163 18:44 20.01.2020
478 Clouds -38 1013 65 10000 0.26 163 18:22 20.01.2020
479 Clouds -36 1014 66 10000 0.26 163 17:42 20.01.2020
480 Clouds -36 1014 66 10000 0.28 319 17:20 20.01.2020
481 Clouds -37 1014 73 10000 1 300 16:59 20.01.2020
482 Clouds -36 1014 66 10000 0.28 319 16:39 20.01.2020
483 Clouds -36 1014 66 10000 0.28 319 16:19 20.01.2020
484 Clouds -37 1014 73 10000 1 320 15:57 20.01.2020
485 Clouds -36 1014 66 10000 0.28 319 15:39 20.01.2020
486 Clouds -36 1014 66 10000 0.28 319 15:20 20.01.2020
487 Clouds -38 1014 65 10000 1 320 14:41 20.01.2020
488 Clouds -38 1014 65 10000 1 320 14:23 20.01.2020
489 Clouds -38 1014 65 10000 0.79 323 13:58 20.01.2020
490 Clouds -38 1014 65 10000 1 300 13:40 20.01.2020
491 Clouds -38 1014 65 10000 1 300 13:22 20.01.2020
492 Clouds -38 1014 65 10000 1 310 12:47 20.01.2020
493 Clouds -37 1014 65 10000 1 290 12:28 20.01.2020
494 Clouds -36 1014 73 10000 2 300 11:59 20.01.2020
495 Clouds -37 1014 65 10000 1 300 11:40 20.01.2020
496 Clouds -37 1014 65 10000 1 300 11:21 20.01.2020
497 Clouds -37 1014 65 10000 1 220 10:55 20.01.2020
498 Clouds -37 1014 65 10000 1 200 10:37 20.01.2020
499 Clouds -37 1014 65 10000 1 200 10:18 20.01.2020
500 Clouds -35 1014 66 10000 0.56 350 09:40 20.01.2020
501 Clouds -35 1014 66 10000 0.56 350 09:20 20.01.2020
502 Clouds -34 1013 66 10000 1 160 08:46 20.01.2020
503 Clouds -34 1013 73 10000 0.56 350 08:28 20.01.2020
504 Clouds -32 1013 67 10000 1 280 07:45 20.01.2020
505 Clouds -32 1013 67 10000 1.13 357 07:25 20.01.2020
506 Clouds -31 1013 67 10000 1 220 06:54 20.01.2020
507 Clouds -32 1013 74 10000 1 170 06:28 20.01.2020
508 Clouds -30 1013 67 10000 1 260 05:43 20.01.2020
509 Clouds -30 1013 67 10000 1 260 05:43 20.01.2020
510 Clouds -31 1013 74 10000 1 260 05:22 20.01.2020
511 Clouds -31 1013 67 10000 2 290 04:47 20.01.2020
512 Clouds -33 1013 67 10000 1 350 02:58 20.01.2020
513 Snow -33 1012 67 10000 0.37 3 01:57 20.01.2020
514 Snow -34 1012 73 10000 0.37 3 01:37 20.01.2020
515 Snow -33 1012 67 10000 0.36 354 00:45 20.01.2020
516 Snow -33 1012 74 10000 0.36 354 00:25 20.01.2020
517 Snow -34 1012 66 10000 0.36 354 23:40 19.01.2020
518 Clouds -34 1012 66 10000 0.84 317 23:20 19.01.2020
519 Clouds -34 1012 66 10000 0.84 317 22:57 19.01.2020
520 Clouds -33 1012 67 10000 1 330 22:39 19.01.2020
521 Clouds -33 1012 67 10000 1 330 22:21 19.01.2020
522 Clouds -34 1011 66 10000 1 320 21:57 19.01.2020
523 Clouds -34 1011 73 10000 1 320 21:39 19.01.2020
524 Clouds -34 1011 73 10000 1 320 21:20 19.01.2020
525 Clouds -33 1011 67 10000 1 360 20:57 19.01.2020
526 Clouds -33 1011 67 10000 1 320 20:39 19.01.2020
527 Clouds -33 1011 67 10000 1 320 20:21 19.01.2020
528 -273 0 0 0 0 0 19:57 19.01.2020
529 Snow -33 1011 74 10000 1 330 19:39 19.01.2020
530 Snow -33 1011 74 10000 1 330 19:21 19.01.2020
531 Snow -33 1011 74 10000 1 10 18:59 19.01.2020
532 -273 0 0 0 0 0 18:41 19.01.2020
533 Snow -32 1011 67 10000 1 10 18:21 19.01.2020
534 Snow -32 1011 67 10000 2 350 17:59 19.01.2020
535 Snow -32 1011 67 10000 2 340 17:40 19.01.2020
536 Snow -32 1011 67 10000 2 340 17:22 19.01.2020
537 Snow -33 1011 74 10000 1 330 17:00 19.01.2020
538 Snow -33 1011 74 10000 1 350 16:40 19.01.2020
539 Snow -33 1011 74 10000 1 350 16:40 19.01.2020
540 Snow -33 1011 74 10000 1 350 16:22 19.01.2020
541 Snow -33 1011 74 10000 1 20 15:59 19.01.2020
542 Snow -33 1011 74 10000 2 10 15:40 19.01.2020
543 Snow -33 1011 74 10000 2 10 15:21 19.01.2020
544 Snow -32 1011 74 10000 1 350 14:59 19.01.2020
545 Snow -33 1012 74 10000 1 320 14:39 19.01.2020
546 Snow -33 1012 74 10000 1 320 14:19 19.01.2020
547 Snow -34 1012 73 10000 1 350 13:58 19.01.2020
548 Clouds -33 1012 67 10000 1 360 13:38 19.01.2020
549 Clouds -33 1012 67 10000 1 360 13:38 19.01.2020
550 Clouds -33 1012 67 10000 1 360 13:20 19.01.2020
551 Clouds -34 1011 73 10000 1 360 12:56 19.01.2020
552 Clouds -34 1012 66 10000 1 340 12:37 19.01.2020
553 Clouds -34 1012 66 10000 1 340 12:19 19.01.2020
554 Clouds -34 1012 66 10000 2 330 11:56 19.01.2020
555 Clouds -34 1012 66 10000 2 330 11:37 19.01.2020
556 Clouds -34 1012 66 10000 2 330 11:18 19.01.2020
557 Clouds -34 1012 73 10000 2 330 10:39 19.01.2020
558 Clouds -34 1012 73 10000 2 330 10:19 19.01.2020
559 Clouds -34 1012 66 10000 2 330 09:56 19.01.2020
560 Snow -34 1012 66 10000 2 330 09:38 19.01.2020
561 Snow -34 1012 66 10000 2 330 09:19 19.01.2020
562 Snow -34 1012 66 10000 2 350 08:54 19.01.2020
563 Snow -34 1012 66 10000 3 350 08:31 19.01.2020
564 Snow -34 1012 66 10000 2 350 07:49 19.01.2020
565 Snow -34 1012 66 10000 2 340 07:28 19.01.2020
566 Snow -34 1012 66 10000 2 360 06:54 19.01.2020
567 Snow -34 1012 73 10000 3 360 06:21 19.01.2020
568 Snow -35 1012 66 10000 2 20 03:52 19.01.2020
569 Snow -35 1013 66 10000 3 10 02:32 19.01.2020
570 Snow -35 1013 66 10000 2 360 01:39 19.01.2020
571 Snow -35 1013 66 10000 2 360 01:18 19.01.2020
572 Snow -36 1013 73 10000 2 360 00:44 19.01.2020
573 Snow -36 1013 66 10000 3 10 00:19 19.01.2020
574 Snow -36 1013 66 10000 3 10 23:45 18.01.2020
575 Snow -36 1013 66 10000 4 10 23:25 18.01.2020
576 Snow -36 1013 66 10000 2 360 22:58 18.01.2020
577 Snow -36 1013 66 10000 1 20 22:40 18.01.2020
578 Snow -36 1013 66 10000 1 20 22:21 18.01.2020
579 Snow -37 1013 73 10000 3 10 21:58 18.01.2020
580 Snow -36 1013 66 10000 2 20 21:38 18.01.2020
581 Snow -36 1013 66 10000 2 20 21:20 18.01.2020
582 Snow -36 1013 66 10000 3 10 20:55 18.01.2020
583 Snow -35 1013 66 10000 3 20 20:36 18.01.2020
584 Snow -35 1013 66 10000 3 20 20:18 18.01.2020
585 Snow -35 1013 66 10000 3 20 19:42 18.01.2020
586 Snow -35 1013 73 10000 2 20 19:24 18.01.2020
587 Snow -34 1013 66 10000 2 40 18:43 18.01.2020
588 Snow -34 1013 66 10000 3 10 18:24 18.01.2020
589 Snow -34 1013 73 10000 3 20 17:58 18.01.2020
590 Snow -34 1013 73 10000 4 20 17:40 18.01.2020
591 Snow -34 1013 73 10000 4 20 17:20 18.01.2020
592 Snow -33 1013 67 10000 3 10 16:56 18.01.2020
593 Snow -33 1013 67 10000 4 10 16:37 18.01.2020
594 Snow -33 1013 67 10000 4 10 16:19 18.01.2020
595 Snow -34 1013 73 10000 2 10 15:44 18.01.2020
596 Snow -34 1013 73 10000 2 360 15:25 18.01.2020
597 Snow -34 1013 66 10000 2 360 14:59 18.01.2020
598 Snow -34 1013 66 10000 2 350 14:40 18.01.2020
599 Snow -34 1013 66 10000 2 350 14:19 18.01.2020
600 Snow -35 1013 73 10000 2 350 13:55 18.01.2020
601 Snow -35 1013 73 10000 1 360 13:36 18.01.2020
602 Snow -35 1013 73 10000 1 360 13:18 18.01.2020
603 Snow -35 1013 66 10000 1 350 12:40 18.01.2020
604 Snow -35 1013 66 10000 1 350 12:21 18.01.2020
605 Snow -35 1013 66 10000 2 340 11:45 18.01.2020
606 Snow -36 1013 73 10000 1 340 11:24 18.01.2020
607 Snow -36 1013 73 10000 2 360 10:58 18.01.2020
608 Snow -36 1013 66 10000 2 330 10:39 18.01.2020
609 Snow -36 1013 66 10000 2 330 10:20 18.01.2020
610 Snow -36 1013 66 10000 2 350 09:49 18.01.2020
611 Snow -36 1013 66 5000 2 350 09:31 18.01.2020
612 Snow -36 1013 66 5000 2 350 08:58 18.01.2020
613 Snow -37 1013 73 5000 2 350 08:39 18.01.2020
614 Snow -37 1013 73 5000 2 350 08:19 18.01.2020
615 Snow -37 1013 65 5000 2 350 07:52 18.01.2020
616 Snow -37 1013 65 3200 3 360 07:32 18.01.2020
617 Snow -37 1013 65 3200 3 360 06:48 18.01.2020
618 Snow -36 1013 66 3200 2 360 06:18 18.01.2020
619 Snow -37 1013 65 3200 2 360 05:25 18.01.2020
620 Snow -38 1013 65 2000 2 360 03:25 18.01.2020
621 Snow -39 1013 58 2000 1 350 01:59 18.01.2020
622 Snow -39 1013 65 2100 2 350 01:35 18.01.2020
623 Snow -39 1013 65 1300 2 350 00:37 18.01.2020
624 Snow -39 1013 65 1300 2 350 00:19 18.01.2020
625 Snow -39 1013 58 2400 2 350 23:44 17.01.2020
626 Snow -39 1013 65 3200 3 360 23:20 17.01.2020
627 Mist -39 1013 65 3200 2 350 22:59 17.01.2020
628 Mist -39 1013 58 3200 3 10 22:40 17.01.2020
629 Mist -39 1013 58 3200 3 10 22:18 17.01.2020
630 Fog -39 1013 58 600 2 350 21:41 17.01.2020
631 Fog -39 1013 58 600 2 350 21:22 17.01.2020
632 Fog -39 1013 65 1400 2 350 20:58 17.01.2020
633 Fog -39 1013 65 1500 1 10 20:40 17.01.2020
634 Fog -39 1013 65 1500 1 10 20:20 17.01.2020
635 Fog -39 1013 58 1100 2 10 19:56 17.01.2020
636 Fog -39 1013 58 1200 2 360 19:37 17.01.2020
637 Fog -39 1013 58 1200 2 360 19:19 17.01.2020
638 Fog -39 1013 65 1100 2 340 18:56 17.01.2020
639 Fog -39 1013 65 1100 2 340 18:56 17.01.2020
640 Fog -39 1013 58 900 2 340 18:36 17.01.2020
641 Fog -39 1013 58 900 2 340 18:18 17.01.2020
642 Fog -39 1013 58 900 2 340 17:39 17.01.2020
643 Fog -39 1013 58 900 2 340 17:20 17.01.2020
644 -273 0 0 0 0 0 16:44 17.01.2020
645 Fog -39 1013 65 700 2 350 16:21 17.01.2020
646 Fog -39 1013 65 700 2 350 16:21 17.01.2020
647 Fog -38 1013 65 600 2 350 15:58 17.01.2020
648 Fog -38 1013 65 600 2 350 15:58 17.01.2020
649 Fog -40 1013 65 400 1 340 15:39 17.01.2020
650 Fog -40 1013 65 400 1 340 15:20 17.01.2020
651 Fog -40 1013 65 350 2 330 14:43 17.01.2020
652 Fog -40 1013 65 450 1 350 14:24 17.01.2020
653 Fog -39 1013 65 450 2 340 13:43 17.01.2020
654 Fog -39 1013 65 650 2 320 13:23 17.01.2020
655 Fog -39 1013 65 900 1 330 12:47 17.01.2020
656 Fog -39 1013 65 1000 2 320 12:23 17.01.2020
657 Mist -39 1013 65 1000 1 330 11:43 17.01.2020
658 Mist -38 1013 65 1500 2 340 11:20 17.01.2020
659 Mist -38 1013 65 1500 2 340 11:20 17.01.2020
660 Mist -39 1013 72 3200 3 340 10:58 17.01.2020
661 Mist -39 1012 65 5000 1 30 10:40 17.01.2020
662 Mist -39 1012 65 5000 1 30 10:21 17.01.2020
663 Mist -38 1013 65 5000 1 70 09:56 17.01.2020
664 Clouds -38 1012 65 10000 1.09 45 09:37 17.01.2020
665 Clouds -38 1012 65 10000 1.09 45 09:18 17.01.2020
666 Clouds -37 1012 65 10000 1 350 08:42 17.01.2020
667 Clouds -37 1012 65 10000 1 300 08:23 17.01.2020
668 Clouds -36 1012 66 10000 1 340 07:49 17.01.2020
669 Clouds -36 1012 73 10000 1 350 07:30 17.01.2020
670 Clouds -35 1012 66 10000 1.12 27 06:56 17.01.2020
671 Clouds -35 1012 66 10000 1 350 06:37 17.01.2020
672 Mist -35 1012 66 5000 1 20 05:27 17.01.2020
673 Clouds -26 1014 98 0 1.03 17 03:38 17.01.2020
674 Clouds -26 1014 98 0 1.03 17 02:44 17.01.2020
675 Snow -26 1014 98 0 1.2 14 01:46 17.01.2020
676 Clouds -26 1014 98 0 1.26 18 01:27 17.01.2020
677 Clouds -26 1014 98 0 1.26 18 00:43 17.01.2020
678 Snow -36 1012 73 10000 1 350 00:20 17.01.2020
679 Snow -36 1012 73 10000 1 350 23:42 16.01.2020
680 Snow -36 1012 73 10000 1 350 23:24 16.01.2020
681 Snow -35 1011 66 10000 1 350 22:43 16.01.2020
682 Snow -35 1011 73 10000 1 330 22:22 16.01.2020
683 Snow -35 1011 73 10000 1 330 21:57 16.01.2020
684 Snow -35 1011 73 10000 1 360 21:39 16.01.2020
685 Snow -35 1011 73 10000 1 360 21:19 16.01.2020
686 Snow -35 1011 73 10000 1 350 20:58 16.01.2020
687 Snow -35 1011 66 10000 1.14 43 20:39 16.01.2020
688 Snow -35 1011 66 10000 1.38 30 20:20 16.01.2020
689 Snow -35 1011 66 10000 1 30 19:56 16.01.2020
690 Snow -35 1011 66 10000 1 30 19:56 16.01.2020
691 Snow -35 1011 73 10000 1 30 19:38 16.01.2020
692 Snow -35 1011 73 10000 1 30 19:38 16.01.2020
693 Snow -35 1011 73 10000 1 30 19:20 16.01.2020
694 Snow -35 1011 73 10000 1 360 18:55 16.01.2020
695 Snow -35 1011 66 10000 2 10 18:37 16.01.2020
696 Snow -35 1011 66 10000 2 10 18:37 16.01.2020
697 Snow -35 1011 66 10000 2 10 18:18 16.01.2020
698 Snow -35 1011 66 10000 1 20 17:42 16.01.2020
699 Snow -36 1011 73 10000 1 10 17:23 16.01.2020
700 Snow -35 1011 73 10000 2 40 16:57 16.01.2020
701 Snow -34 1011 66 10000 1 20 16:39 16.01.2020
702 Snow -34 1011 66 10000 1 20 16:20 16.01.2020
703 Snow -35 1011 73 10000 1 330 15:44 16.01.2020
704 Snow -35 1011 73 10000 1 330 15:44 16.01.2020
705 Snow -34 1011 66 10000 1 320 15:24 16.01.2020
706 Snow -34 1011 66 10000 1 320 15:24 16.01.2020
707 Snow -34 1011 66 10000 2 10 14:59 16.01.2020
708 Snow -34 1011 66 10000 2 10 14:41 16.01.2020
709 Snow -34 1011 66 10000 2 10 14:22 16.01.2020
710 Snow -33 1011 67 10000 2 10 13:45 16.01.2020
711 Snow -32 1011 67 10000 2 20 13:26 16.01.2020
712 Snow -32 1011 74 10000 2 10 12:57 16.01.2020
713 Snow -31 1011 74 10000 2 360 12:38 16.01.2020
714 Snow -31 1011 74 10000 2 360 12:20 16.01.2020
715 Snow -31 1011 74 10000 3 350 11:41 16.01.2020
716 Snow -31 1011 74 10000 3 350 11:41 16.01.2020
717 Snow -31 1011 74 10000 3 350 11:23 16.01.2020
718 Snow -31 1012 74 10000 2 350 10:55 16.01.2020
719 Snow -30 1012 67 10000 3 350 10:37 16.01.2020
720 Snow -30 1012 67 10000 3 350 10:19 16.01.2020
721 Snow -30 1012 74 10000 3 350 09:43 16.01.2020
722 Snow -30 1012 74 10000 2 350 09:24 16.01.2020
723 Snow -30 1012 74 10000 3 350 08:58 16.01.2020
724 Snow -30 1012 74 10000 2 350 08:40 16.01.2020
725 Snow -30 1012 74 10000 2 350 08:19 16.01.2020
726 Snow -30 1012 74 3200 2 350 07:42 16.01.2020
727 Clouds -30 1012 74 10000 2 360 07:23 16.01.2020
728 Snow -30 1012 74 10000 1 10 06:52 16.01.2020
729 Snow -30 1012 74 10000 1 310 06:34 16.01.2020
730 Snow -31 1012 74 10000 1 350 05:49 16.01.2020
731 Snow -31 1012 74 10000 1 10 04:50 16.01.2020
732 Snow -31 1013 74 10000 1 350 03:57 16.01.2020
733 Snow -31 1014 67 5000 1 20 02:47 16.01.2020
734 Snow -32 1014 74 10000 1 20 01:34 16.01.2020
735 Snow -32 1014 67 5000 0.81 248 00:43 16.01.2020
736 Snow -32 1014 67 3200 1 20 00:23 16.01.2020
737 Snow -32 1015 67 10000 1 40 23:44 15.01.2020
738 Snow -32 1015 74 10000 1 340 23:22 15.01.2020
739 Snow -33 1015 74 10000 1 250 22:56 15.01.2020
740 Snow -33 1015 74 10000 1 250 22:38 15.01.2020
741 Snow -33 1015 74 10000 1 250 22:18 15.01.2020
742 Snow -33 1015 74 10000 1 20 21:56 15.01.2020
743 Snow -33 1015 74 10000 1 20 21:56 15.01.2020
744 Snow -33 1016 74 10000 1 250 21:37 15.01.2020
745 Snow -33 1016 74 10000 1 250 21:18 15.01.2020
746 Snow -33 1016 74 10000 1 10 20:55 15.01.2020
747 Snow -33 1016 67 10000 1 340 20:37 15.01.2020
748 Snow -33 1016 67 10000 1 340 20:18 15.01.2020
749 Snow -34 1017 73 10000 2 20 19:54 15.01.2020
750 Snow -34 1016 73 10000 1 80 19:36 15.01.2020
751 Snow -34 1016 73 10000 1 80 19:18 15.01.2020
752 Clouds -34 1017 73 10000 0.42 217 18:55 15.01.2020
753 Clouds -34 1017 66 10000 0.42 217 18:37 15.01.2020
754 Clouds -34 1017 66 10000 0.42 217 18:19 15.01.2020
755 Clouds -35 1017 73 10000 0.42 217 17:41 15.01.2020
756 Clouds -35 1017 73 10000 0.3 269 17:22 15.01.2020
757 Clouds -35 1017 66 10000 1 30 16:57 15.01.2020
758 Clouds -35 1017 66 10000 0.3 269 16:38 15.01.2020
759 Clouds -35 1017 66 10000 0.3 269 16:20 15.01.2020
760 Clouds -35 1017 66 10000 0.3 269 16:20 15.01.2020
761 Clouds -35 1017 66 10000 0.3 269 16:20 15.01.2020
762 Clouds -35 1017 66 10000 0.3 269 16:20 15.01.2020
763 Clouds -36 1017 73 10000 0.3 269 15:43 15.01.2020
764 Clouds -37 1018 65 10000 0.3 269 15:21 15.01.2020
765 Clouds -36 1018 66 10000 0.3 269 14:57 15.01.2020
766 Clouds -36 1018 66 10000 0.3 269 14:39 15.01.2020
767 Snow -36 1018 66 10000 0.41 94 14:18 15.01.2020
768 Snow -36 1018 66 10000 0.41 94 13:44 15.01.2020
769 Snow -36 1018 66 10000 0.47 99 13:24 15.01.2020
770 Snow -36 1018 73 10000 1 50 12:57 15.01.2020
771 Snow -35 1018 66 10000 0.47 99 12:39 15.01.2020
772 Snow -35 1018 66 10000 0.47 99 12:19 15.01.2020
773 Snow -35 1019 66 10000 0.47 99 11:56 15.01.2020
774 Snow -35 1019 66 10000 0.47 99 11:36 15.01.2020
775 Clouds -35 1019 66 10000 0.54 23 11:18 15.01.2020
776 Clouds -34 1019 66 10000 0.54 23 10:41 15.01.2020
777 Clouds -34 1019 66 10000 0.54 23 10:23 15.01.2020
778 Clouds -34 1019 66 10000 1 350 09:42 15.01.2020
779 Clouds -34 1019 66 10000 1 350 09:22 15.01.2020
780 Clouds -34 1019 66 10000 1 350 08:55 15.01.2020
781 Clouds -35 1019 73 10000 1 40 08:37 15.01.2020
782 Clouds -35 1019 73 10000 1 40 08:19 15.01.2020
783 Clouds -34 1019 66 10000 0.36 91 07:43 15.01.2020
784 Clouds -34 1019 73 10000 1 90 07:24 15.01.2020
785 Clouds -33 1019 67 10000 1 90 06:44 15.01.2020
786 Clouds -33 1019 67 10000 1 40 05:57 15.01.2020
787 Snow -34 1020 73 10000 1 70 04:34 15.01.2020
788 Snow -34 1020 66 10000 1 10 02:30 15.01.2020
789 Clouds -35 1021 73 10000 1 350 01:25 15.01.2020
790 Clouds -35 1021 66 10000 1 310 00:45 15.01.2020
791 Clouds -35 1021 66 10000 1 330 00:26 15.01.2020
792 Clouds -36 1021 73 10000 1 350 23:47 14.01.2020
793 Clouds -36 1021 73 10000 1 350 23:29 14.01.2020
794 Clouds -35 1021 66 10000 2 350 22:59 14.01.2020
795 Snow -35 1021 66 10000 1 360 22:40 14.01.2020
796 Snow -35 1021 66 10000 1 360 22:19 14.01.2020
797 Snow -35 1021 66 10000 1 350 21:58 14.01.2020
798 Snow -35 1021 66 10000 1 300 21:39 14.01.2020
799 Snow -35 1021 66 10000 1 300 21:20 14.01.2020
800 Clouds -36 1021 73 10000 1 310 20:57 14.01.2020
801 Snow -36 1022 66 10000 1 350 20:39 14.01.2020
802 Snow -36 1022 66 10000 1 350 20:19 14.01.2020
803 Snow -36 1022 66 10000 1 350 19:55 14.01.2020
804 Snow -36 1021 73 10000 1 30 19:37 14.01.2020
805 Snow -36 1021 73 10000 1 30 19:18 14.01.2020
806 Snow -35 1021 66 10000 1.38 34 18:41 14.01.2020
807 Snow -35 1021 66 10000 1.38 34 18:20 14.01.2020
808 Snow -35 1021 66 10000 1.38 34 17:59 14.01.2020
809 Clouds -35 1021 66 10000 1.38 34 17:37 14.01.2020
810 Clouds -35 1021 66 10000 1.14 30 17:18 14.01.2020
811 Clouds -35 1021 66 10000 1.14 30 17:18 14.01.2020
812 Snow -35 1022 66 10000 1 320 16:54 14.01.2020
813 Snow -35 1022 73 10000 1 340 16:36 14.01.2020
814 Snow -35 1022 73 10000 1 340 16:18 14.01.2020
815 Clouds -35 1022 73 10000 2 350 15:42 14.01.2020
816 Clouds -35 1022 73 10000 2 350 15:19 14.01.2020
817 Clouds -35 1022 66 10000 2 360 14:46 14.01.2020
818 Clouds -36 1022 73 10000 1 340 14:23 14.01.2020
819 Clouds -36 1022 73 10000 1 340 13:58 14.01.2020
820 Clouds -35 1022 66 10000 1 320 13:39 14.01.2020
821 Clouds -35 1022 66 10000 1 320 13:19 14.01.2020
822 Clouds -35 1022 66 10000 1 320 13:19 14.01.2020
823 Clouds -36 1021 73 10000 1 350 12:42 14.01.2020
824 Clouds -36 1021 73 10000 1 350 12:23 14.01.2020
825 Clouds -36 1021 66 10000 1 360 11:57 14.01.2020
826 Clouds -35 1021 66 10000 2 350 11:38 14.01.2020
827 Clouds -35 1021 66 10000 2 350 11:20 14.01.2020
828 Clouds -35 1021 73 10000 1 360 10:55 14.01.2020
829 Clouds -34 1021 66 10000 2 330 10:36 14.01.2020
830 Clouds -34 1021 66 10000 2 330 10:18 14.01.2020
831 Clouds -34 1021 66 10000 2 330 10:18 14.01.2020
832 Clouds -34 1021 66 10000 2 350 09:42 14.01.2020
833 Clouds -34 1021 66 10000 2 360 09:21 14.01.2020
834 Clouds -34 1021 73 10000 2 10 08:57 14.01.2020
835 Clouds -33 1021 67 10000 1 360 08:39 14.01.2020
836 Snow -33 1021 67 10000 1 360 08:20 14.01.2020
837 Snow -33 1020 74 10000 2 330 07:38 14.01.2020
838 Snow -32 1020 74 10000 1 340 06:59 14.01.2020
839 Snow -32 1020 74 10000 2 10 06:40 14.01.2020
840 Snow -32 1020 74 10000 2 20 05:35 14.01.2020
841 Clouds -32 1020 74 10000 2 30 04:23 14.01.2020
842 Snow -32 1020 74 10000 2 20 03:43 14.01.2020
843 Snow -31 1020 67 10000 2 10 02:30 14.01.2020
844 Snow -32 1020 74 10000 1 10 01:18 14.01.2020
845 Snow -31 1019 74 10000 2 20 00:42 14.01.2020
846 Snow -31 1019 74 10000 2 20 00:21 14.01.2020
847 Snow -31 1019 74 10000 2 360 23:38 13.01.2020
848 Snow -31 1019 74 10000 2 360 23:18 13.01.2020
849 Snow -31 1019 74 3200 2 10 22:55 13.01.2020
850 Snow -31 1019 74 10000 2 10 22:37 13.01.2020
851 Snow -31 1019 74 10000 2 10 22:19 13.01.2020
852 Snow -31 1019 74 10000 2 360 21:54 13.01.2020
853 Snow -31 1019 74 10000 1 340 21:36 13.01.2020
854 Snow -31 1019 74 10000 1 340 21:18 13.01.2020
855 Snow -31 1019 67 10000 2 350 20:42 13.01.2020
856 Snow -31 1019 67 10000 2 350 20:23 13.01.2020
857 Snow -32 1019 74 10000 2 340 19:59 13.01.2020
858 Snow -32 1019 67 10000 2 340 19:41 13.01.2020
859 Snow -32 1019 67 10000 2 340 19:20 13.01.2020
860 Snow -33 1019 74 10000 1 340 18:58 13.01.2020
861 Snow -33 1019 74 10000 1 340 18:58 13.01.2020
862 Snow -32 1019 67 10000 2 350 18:38 13.01.2020
863 Snow -32 1019 67 10000 2 350 18:38 13.01.2020
864 Snow -32 1019 67 10000 2 350 18:19 13.01.2020
865 Snow -32 1018 67 10000 2 340 17:57 13.01.2020
866 Snow -32 1018 67 10000 2 350 17:38 13.01.2020
867 Clouds -32 1018 67 10000 2 350 17:20 13.01.2020
868 Clouds -26 1021 98 0 0.91 29 16:41 13.01.2020
869 Clouds -26 1021 98 0 0.91 29 16:22 13.01.2020
870 Clouds -26 1021 98 0 0.91 29 15:56 13.01.2020
871 Clouds -26 1021 98 0 0.91 29 15:38 13.01.2020
872 Clouds -26 1021 98 0 0.91 29 15:19 13.01.2020
873 Clouds -26 1021 98 0 0.91 29 14:42 13.01.2020
874 Clouds -26 1021 98 0 0.91 29 14:24 13.01.2020
875 Snow -26 1021 98 0 0.97 65 13:58 13.01.2020
876 Snow -26 1021 98 0 0.97 65 13:39 13.01.2020
877 Snow -26 1021 98 0 0.91 61 13:21 13.01.2020
878 Snow -34 1018 66 10000 2 330 12:55 13.01.2020
879 Snow -34 1018 66 10000 2 330 12:36 13.01.2020
880 Snow -34 1018 66 10000 2 330 12:18 13.01.2020
881 Snow -34 1018 66 10000 1 330 11:39 13.01.2020
882 Snow -34 1018 66 10000 1 330 11:20 13.01.2020
883 Snow -34 1018 73 10000 2 330 10:57 13.01.2020
884 Snow -33 1018 67 10000 2 350 10:39 13.01.2020
885 Snow -33 1018 67 10000 2 350 10:20 13.01.2020
886 Snow -33 1018 74 10000 2 340 09:56 13.01.2020
887 Snow -33 1018 74 5000 2 360 09:38 13.01.2020
888 Snow -33 1018 74 5000 2 360 09:19 13.01.2020
889 Snow -33 1018 74 5000 2 360 09:19 13.01.2020
890 Snow -33 1018 74 5000 1 10 08:39 13.01.2020
891 Snow -33 1018 74 5000 1 10 08:20 13.01.2020
892 Snow -33 1018 67 5000 1 10 07:47 13.01.2020
893 Snow -33 1017 67 5000 0.88 106 07:27 13.01.2020
894 Snow -34 1017 73 10000 1 40 06:43 13.01.2020
895 Snow -34 1017 66 5000 1 30 06:20 13.01.2020
896 Mist -35 1017 66 2400 1 10 05:23 13.01.2020
897 Fog -37 1017 65 900 1 20 03:54 13.01.2020
898 Mist -38 1017 65 1500 1 30 03:22 13.01.2020
899 Fog -38 1017 65 900 0.94 131 02:44 13.01.2020
900 Fog -39 1017 65 550 1 360 02:24 13.01.2020
901 Fog -40 1017 65 600 1 10 01:18 13.01.2020
902 Fog -39 1017 65 350 1.34 139 00:41 13.01.2020
903 Fog -39 1017 65 350 1.34 139 00:22 13.01.2020
904 Fog -40 1016 65 400 1.34 139 23:42 12.01.2020
905 Fog -40 1016 65 400 1.34 139 23:23 12.01.2020
906 Fog -40 1016 65 550 1.31 167 22:58 12.01.2020
907 Fog -40 1016 65 550 1.31 167 22:58 12.01.2020
908 Fog -40 1016 65 600 1 30 22:39 12.01.2020
909 Fog -40 1016 65 600 1 30 22:21 12.01.2020
910 Fog -39 1016 65 700 1.31 167 21:56 12.01.2020
911 Fog -39 1016 65 800 1.31 167 21:38 12.01.2020
912 Fog -39 1016 65 800 1.31 167 21:19 12.01.2020
913 Fog -39 1016 65 750 1.31 167 20:56 12.01.2020
914 Fog -39 1016 65 750 1.31 167 20:38 12.01.2020
915 Fog -39 1016 65 750 0.98 152 20:19 12.01.2020
916 Fog -39 1016 65 650 1.16 169 19:56 12.01.2020
917 Fog -40 1015 65 650 1.16 169 19:37 12.01.2020
918 Fog -40 1015 65 650 1.16 169 19:18 12.01.2020
919 Fog -39 1015 58 650 1 110 18:57 12.01.2020
920 Fog -39 1015 65 800 1.16 169 18:39 12.01.2020
921 Fog -39 1015 65 800 1.16 169 18:21 12.01.2020
922 Mist -39 1015 65 1200 1 290 17:43 12.01.2020
923 Mist -38 1015 65 1200 1.16 169 17:23 12.01.2020
924 Mist -38 1015 65 1200 1.16 169 17:23 12.01.2020
925 Mist -38 1015 65 1200 0.63 197 16:59 12.01.2020
926 Mist -38 1015 65 1200 1 290 16:39 12.01.2020
927 Mist -38 1015 65 1200 1 290 16:21 12.01.2020
928 Mist -37 1014 65 2400 1 270 15:58 12.01.2020
929 Mist -38 1014 65 2400 0.63 197 15:39 12.01.2020
930 Mist -38 1014 65 2400 0.63 197 15:21 12.01.2020
931 Clear -39 1014 65 10000 0.63 197 14:43 12.01.2020
932 Clear -37 1014 65 10000 0.63 197 14:25 12.01.2020
933 Clouds -37 1014 65 10000 1 290 13:57 12.01.2020
934 Clouds -37 1014 65 10000 1 290 13:57 12.01.2020
935 Clouds -37 1014 65 10000 1 290 13:57 12.01.2020
936 Clouds -38 1014 65 10000 1 250 13:39 12.01.2020
937 Clear -38 1014 65 10000 1 250 13:20 12.01.2020
938 Clear -38 1014 65 10000 0.52 303 12:57 12.01.2020
939 Clear -36 1013 66 10000 1 310 12:38 12.01.2020
940 Clear -36 1013 66 10000 1 310 12:19 12.01.2020
941 Clear -37 1013 65 10000 1 280 11:42 12.01.2020
942 Clear -37 1013 65 10000 1 280 11:22 12.01.2020
943 Clear -37 1013 65 10000 0.94 353 10:59 12.01.2020
944 Clear -37 1013 65 10000 1 290 10:40 12.01.2020
945 Clear -37 1013 65 10000 1 290 10:21 12.01.2020
946 Clear -37 1012 65 10000 1 290 09:44 12.01.2020
947 Clear -36 1012 73 10000 1 280 09:24 12.01.2020
948 Clear -35 1012 73 10000 3 290 08:57 12.01.2020
949 Clear -37 1012 73 10000 1 280 08:38 12.01.2020
950 Clouds -37 1012 73 10000 1 280 08:19 12.01.2020
951 Clouds -33 1011 74 10000 1.67 340 07:38 12.01.2020
952 Clouds -33 1011 74 10000 1.67 340 07:19 12.01.2020
953 Clouds -32 1011 67 10000 1.67 340 06:42 12.01.2020
954 Clouds -33 1010 67 10000 1 80 06:18 12.01.2020
955 Clouds -32 1010 67 10000 1 340 05:21 12.01.2020
956 Clouds -33 1009 67 10000 2 300 03:45 12.01.2020
957 Clouds -34 1009 73 10000 1 320 02:59 12.01.2020
958 Clouds -34 1009 66 10000 2 300 02:30 12.01.2020
959 Clouds -33 1008 67 10000 2 300 01:42 12.01.2020
960 Clouds -33 1008 67 10000 2 300 01:21 12.01.2020
961 Clouds -33 1008 74 10000 2 300 00:40 12.01.2020
962 Clouds -33 1008 74 10000 2 300 00:19 12.01.2020
963 Clouds -32 1007 74 10000 3 320 23:42 11.01.2020
964 Clouds -32 1007 74 10000 3 320 23:19 11.01.2020
965 Clouds -31 1007 67 10000 3 330 22:57 11.01.2020
966 Clouds -31 1007 74 10000 3 330 22:39 11.01.2020
967 Clouds -31 1007 74 10000 3 330 22:20 11.01.2020
968 Snow -30 1006 74 10000 3 330 21:55 11.01.2020
969 Clouds -30 1006 74 10000 3 350 21:37 11.01.2020
970 Clouds -30 1006 74 10000 3 350 21:18 11.01.2020
971 Clouds -29 1006 75 10000 3 350 20:40 11.01.2020
972 Snow -29 1006 75 10000 3 350 20:22 11.01.2020
973 Snow -29 1006 75 10000 3 340 19:58 11.01.2020
974 Snow -29 1006 82 10000 3 350 19:38 11.01.2020
975 Snow -29 1006 82 10000 3 350 19:38 11.01.2020
976 Snow -29 1006 82 10000 3 350 19:20 11.01.2020
977 Snow -28 1005 75 10000 4 350 18:58 11.01.2020
978 Snow -28 1005 75 10000 2 10 18:38 11.01.2020
979 Snow -28 1005 75 10000 2 10 18:19 11.01.2020
980 Snow -28 1005 75 10000 3 10 17:57 11.01.2020
981 Snow -28 1005 75 10000 3 10 17:57 11.01.2020
982 Snow -28 1005 75 10000 3 10 17:39 11.01.2020
983 Snow -28 1005 75 10000 3 10 17:19 11.01.2020
984 Snow -28 1005 75 10000 4 10 16:45 11.01.2020
985 Snow -28 1005 82 10000 4 360 16:27 11.01.2020
986 Snow -28 1005 75 10000 3 10 15:58 11.01.2020
987 Snow -28 1005 75 5000 3 360 15:40 11.01.2020
988 Snow -28 1005 75 5000 3 360 15:20 11.01.2020
989 Snow -28 1005 75 5000 3 350 14:56 11.01.2020
990 Snow -28 1006 75 5000 4 350 14:38 11.01.2020
991 Snow -28 1006 75 5000 4 350 14:19 11.01.2020
992 Snow -28 1006 82 3200 3 350 13:39 11.01.2020
993 Snow -28 1006 82 3200 3 350 13:20 11.01.2020
994 Snow -28 1006 82 3200 3 350 13:20 11.01.2020
995 Snow -28 1006 75 5000 3 340 12:57 11.01.2020
996 Snow -28 1006 75 5000 3 360 12:38 11.01.2020
997 Snow -28 1006 75 5000 3 360 12:20 11.01.2020
998 Snow -28 1007 75 5000 3 350 11:46 11.01.2020
999 Snow -28 1007 75 5000 3 350 11:25 11.01.2020
1000 Snow -28 1007 75 10000 3 350 10:50 11.01.2020
1001 Snow -28 1007 75 10000 3 350 10:30 11.01.2020
1002 Snow -28 1008 75 10000 2 350 09:55 11.01.2020
1003 Snow -29 1008 82 10000 3 350 09:37 11.01.2020
1004 Snow -29 1008 82 10000 3 350 09:18 11.01.2020
1005 Snow -28 1009 75 10000 2 350 08:41 11.01.2020
1006 Snow -28 1009 75 10000 2 350 08:21 11.01.2020
1007 Snow -27 1009 75 10000 2 350 07:44 11.01.2020
1008 Snow -27 1009 75 3200 2 360 07:25 11.01.2020
1009 Snow -27 1009 75 2400 2 350 06:48 11.01.2020
1010 Snow -27 1010 75 10000 2 350 05:34 11.01.2020
1011 Snow -27 1011 75 3200 2 360 04:46 11.01.2020
1012 Snow -28 1011 82 3200 2 360 04:27 11.01.2020
1013 Snow -28 1012 82 10000 2 350 02:49 11.01.2020
1014 Snow -27 1012 82 10000 2 300 01:57 11.01.2020
1015 Snow -28 1013 82 10000 1 310 01:38 11.01.2020
1016 Snow -28 1013 82 10000 1 310 01:18 11.01.2020
1017 Snow -27 1013 75 10000 2 290 00:38 11.01.2020
1018 Snow -27 1013 75 10000 2 290 23:59 10.01.2020
1019 Snow -27 1013 75 10000 1.05 231 23:40 10.01.2020
1020 Snow -27 1013 75 10000 0.96 230 23:21 10.01.2020
1021 Snow -27 1013 82 10000 0.96 230 22:56 10.01.2020
1022 Snow -25 1013 83 10000 1 210 22:38 10.01.2020
1023 Snow -25 1013 83 10000 1 210 22:19 10.01.2020
1024 Snow -23 1014 83 10000 1 230 21:55 10.01.2020
1025 Snow -22 1014 76 10000 1 230 21:36 10.01.2020
1026 Snow -22 1014 76 10000 1 230 21:18 10.01.2020
1027 Snow -22 1015 83 10000 2 230 20:42 10.01.2020
1028 Snow -22 1015 83 10000 2 230 20:24 10.01.2020
1029 Snow -22 1015 83 10000 2 230 20:24 10.01.2020
1030 Snow -21 1015 83 10000 3 210 19:55 10.01.2020
1031 Snow -21 1015 83 10000 3 220 19:37 10.01.2020
1032 Snow -21 1015 83 10000 3 220 19:19 10.01.2020
1033 Snow -21 1015 83 10000 3 220 18:41 10.01.2020
1034 Snow -21 1015 83 10000 3 220 18:19 10.01.2020
1035 Snow -21 1015 83 10000 3 220 18:19 10.01.2020
1036 Snow -21 1015 83 10000 3 230 17:57 10.01.2020
1037 Snow -21 1015 83 10000 3 240 17:39 10.01.2020
1038 Snow -21 1015 83 10000 3 240 17:20 10.01.2020
1039 Snow -21 1015 83 10000 3 250 16:56 10.01.2020
1040 Snow -21 1016 83 10000 4 240 16:37 10.01.2020
1041 Snow -21 1016 83 10000 4 240 16:19 10.01.2020
1042 Snow -25 1016 83 10000 2 260 15:55 10.01.2020
1043 Snow -25 1016 83 10000 1 170 15:36 10.01.2020
1044 Snow -25 1016 83 10000 1 170 15:18 10.01.2020
1045 Snow -25 1017 75 10000 1 210 14:54 10.01.2020
1046 Snow -26 1017 75 10000 2.06 259 14:36 10.01.2020
1047 Snow -26 1017 75 10000 0.94 229 14:18 10.01.2020
1048 Snow -27 1017 75 10000 0.94 229 13:42 10.01.2020
1049 Snow -27 1017 75 10000 1.18 238 13:23 10.01.2020
1050 Snow -29 1017 75 10000 1.18 238 12:58 10.01.2020
1051 Snow -29 1017 75 10000 1.18 238 12:39 10.01.2020
1052 Snow -29 1017 75 10000 1.18 238 12:19 10.01.2020
1053 Snow -28 1017 75 10000 1.18 238 11:55 10.01.2020
1054 Snow -28 1017 75 10000 1.18 238 11:37 10.01.2020
1055 Snow -28 1017 75 10000 0.34 274 11:18 10.01.2020
1056 Snow -28 1017 75 10000 0.34 274 11:18 10.01.2020
1057 Snow -29 1017 75 10000 1 310 10:44 10.01.2020
1058 Snow -31 1017 67 10000 1 330 10:24 10.01.2020
1059 Snow -32 1017 67 10000 1 360 09:59 10.01.2020
1060 Snow -31 1017 74 10000 0.34 274 09:40 10.01.2020
1061 Snow -31 1017 74 10000 0.34 274 09:22 10.01.2020
1062 Snow -30 1017 74 10000 1 320 08:43 10.01.2020
1063 Snow -29 1017 75 10000 1 330 08:24 10.01.2020
1064 Snow -28 1017 82 10000 0.59 344 07:47 10.01.2020
1065 Snow -27 1017 75 10000 1 320 07:28 10.01.2020
1066 Snow -27 1017 75 5000 0.59 344 06:55 10.01.2020
1067 Snow -27 1017 75 5000 1 360 06:27 10.01.2020
1068 Snow -26 1017 75 5000 1 70 05:52 10.01.2020
1069 Snow -25 1017 75 10000 0.22 228 03:47 10.01.2020
1070 Snow -27 1017 75 10000 1 310 03:28 10.01.2020
1071 Snow -27 1017 75 10000 0.22 228 02:51 10.01.2020
1072 Snow -27 1018 75 10000 0.69 165 01:49 10.01.2020
1073 Snow -28 1018 82 10000 0.69 191 01:28 10.01.2020
1074 Snow -28 1018 82 10000 0.69 191 00:47 10.01.2020
1075 Snow -27 1018 75 10000 0.69 191 00:29 10.01.2020
1076 Snow -26 1018 75 10000 0.69 191 23:39 09.01.2020
1077 Snow -26 1018 75 10000 0.69 191 23:39 09.01.2020
1078 Snow -26 1018 75 10000 0.69 191 23:39 09.01.2020
1079 Snow -26 1018 75 10000 0.69 191 23:39 09.01.2020
1080 Snow -26 1018 75 10000 0.69 191 23:39 09.01.2020
1081 Snow -26 1018 75 10000 0.99 206 23:21 09.01.2020
1082 Snow -26 1018 83 10000 1 290 22:58 09.01.2020
1083 Snow -26 1018 83 10000 1 290 22:58 09.01.2020
1084 Snow -26 1018 83 10000 0.99 206 22:39 09.01.2020
1085 Snow -26 1018 83 10000 0.99 206 22:19 09.01.2020
1086 Clouds -27 1018 82 10000 0.99 206 21:57 09.01.2020
1087 Clouds -27 1018 82 10000 0.99 206 21:57 09.01.2020
1088 Clouds -27 1018 75 10000 0.99 206 21:38 09.01.2020
1089 Clouds -27 1018 75 10000 0.99 206 21:20 09.01.2020
1090 Snow -27 1018 75 10000 0.99 206 20:58 09.01.2020
1091 Snow -28 1018 82 10000 1 280 20:39 09.01.2020
1092 Snow -28 1018 82 10000 1 280 20:20 09.01.2020
1093 Snow -28 1018 82 10000 1 280 20:20 09.01.2020
1094 Clouds -27 1018 75 10000 1 310 19:59 09.01.2020
1095 Clouds -27 1018 75 10000 1 310 19:39 09.01.2020
1096 Snow -27 1019 75 10000 1 310 19:20 09.01.2020
1097 Snow -27 1019 75 10000 0.96 191 18:56 09.01.2020
1098 Snow -27 1019 75 10000 0.96 191 18:38 09.01.2020
1099 Snow -25 1019 75 10000 0.96 191 18:20 09.01.2020
1100 Snow -25 1019 83 10000 2 310 17:41 09.01.2020
1101 Snow -25 1019 83 10000 1 300 17:19 09.01.2020
1102 Clouds -25 1019 83 10000 0.74 214 16:58 09.01.2020
1103 Snow -24 1019 76 10000 0.74 214 16:39 09.01.2020
1104 Snow -24 1019 76 10000 0.74 214 16:20 09.01.2020
1105 Clouds -24 1019 76 10000 0.74 214 15:43 09.01.2020
1106 Clouds -25 1019 75 10000 0.74 214 15:22 09.01.2020
1107 Clouds -25 1019 75 10000 0.74 214 14:58 09.01.2020
1108 Clouds -24 1019 76 10000 1 250 14:40 09.01.2020
1109 Clouds -24 1019 76 10000 1 250 14:19 09.01.2020
1110 Clouds -25 1019 83 10000 1.07 278 13:55 09.01.2020
1111 Clouds -24 1019 76 10000 2 230 13:37 09.01.2020
1112 Clouds -24 1019 76 10000 2 230 13:18 09.01.2020
1113 Clouds -23 1019 76 10000 1 270 12:55 09.01.2020
1114 Clouds -23 1019 76 10000 2 280 12:37 09.01.2020
1115 Clouds -23 1019 76 10000 2 280 12:18 09.01.2020
1116 Clouds -23 1019 83 10000 1 210 11:42 09.01.2020
1117 Clouds -21 1018 83 10000 2 230 11:24 09.01.2020
1118 Clouds -21 1018 83 10000 1 250 10:57 09.01.2020
1119 Clouds -21 1018 83 10000 1 250 10:57 09.01.2020
1120 Clouds -21 1018 83 10000 1 250 10:39 09.01.2020
1121 Clouds -21 1018 83 10000 1 230 10:20 09.01.2020
1122 Snow -19 1018 84 5000 1 210 09:41 09.01.2020
1123 Snow -19 1018 84 5000 1 200 09:23 09.01.2020
1124 Snow -19 1018 84 5000 1.47 270 08:57 09.01.2020
1125 Snow -19 1018 84 5000 1.47 270 08:38 09.01.2020
1126 Snow -20 1018 83 10000 1 150 08:20 09.01.2020
1127 Snow -20 1018 83 10000 1 140 07:46 09.01.2020
1128 Snow -19 1018 84 10000 1 120 07:28 09.01.2020
1129 Snow -19 1018 84 10000 1 210 06:40 09.01.2020
1130 Snow -20 1017 83 10000 1 170 06:21 09.01.2020
1131 Snow -20 1017 83 10000 2 150 05:51 09.01.2020
1132 Snow -20 1017 83 10000 1 150 04:54 09.01.2020
1133 Snow -21 1017 83 10000 1.05 328 04:36 09.01.2020
1134 Snow -22 1017 76 10000 1.05 328 03:26 09.01.2020
1135 Snow -22 1016 83 10000 1.05 328 02:46 09.01.2020
1136 Snow -21 1016 76 10000 1 340 01:41 09.01.2020
1137 Snow -21 1016 83 10000 1 70 00:57 09.01.2020
1138 Snow -21 1016 83 10000 1 50 00:37 09.01.2020
1139 Snow -21 1016 83 10000 1 50 00:19 09.01.2020
1140 Snow -21 1015 76 10000 1 340 23:39 08.01.2020
1141 Snow -21 1015 83 10000 1 30 23:20 08.01.2020
1142 Snow -21 1014 83 10000 1 30 22:40 08.01.2020
1143 Snow -21 1014 83 10000 1 340 22:22 08.01.2020
1144 Snow -21 1014 83 5000 1 350 21:59 08.01.2020
1145 Snow -21 1014 83 5000 1 350 21:40 08.01.2020
1146 Snow -21 1014 83 5000 1 360 21:21 08.01.2020
1147 Snow -21 1014 83 5000 2 350 20:59 08.01.2020
1148 Snow -21 1014 83 5000 2 350 20:59 08.01.2020
1149 Snow -21 1014 83 5000 2 350 20:41 08.01.2020
1150 Snow -21 1014 83 10000 1 340 20:21 08.01.2020
1151 Snow -21 1014 83 10000 1 360 19:58 08.01.2020
1152 Snow -21 1014 83 10000 1 350 19:38 08.01.2020
1153 Snow -21 1014 83 10000 1 350 19:19 08.01.2020
1154 Snow -20 1013 83 10000 2 10 18:58 08.01.2020
1155 Snow -20 1013 83 10000 2 10 18:39 08.01.2020
1156 Snow -20 1013 83 10000 2 10 18:39 08.01.2020
1157 Snow -20 1013 83 10000 2 350 18:19 08.01.2020
1158 Snow -20 1013 83 10000 2 350 17:57 08.01.2020
1159 Snow -20 1013 83 10000 2 330 17:38 08.01.2020
1160 Snow -20 1013 83 10000 2 330 17:19 08.01.2020
1161 Snow -20 1013 83 10000 2 330 17:19 08.01.2020
1162 Snow -20 1013 83 10000 2 340 16:55 08.01.2020
1163 Snow -20 1013 83 10000 2 340 16:37 08.01.2020
1164 Snow -20 1013 83 10000 2 340 16:18 08.01.2020
1165 Snow -20 1013 83 10000 2 350 15:44 08.01.2020
1166 Snow -20 1013 83 10000 2 350 15:44 08.01.2020
1167 Snow -20 1013 83 10000 2 350 15:44 08.01.2020
1168 Snow -21 1013 83 10000 2 360 15:21 08.01.2020
1169 Snow -21 1013 83 10000 1 330 14:58 08.01.2020
1170 Snow -21 1013 83 10000 1 330 14:40 08.01.2020
1171 Snow -21 1013 83 10000 1 340 14:21 08.01.2020
1172 Snow -20 1013 76 10000 2 340 13:41 08.01.2020
1173 Snow -21 1013 83 10000 1 340 13:21 08.01.2020
1174 Snow -21 1013 83 10000 2 10 12:55 08.01.2020
1175 Snow -22 1013 83 10000 2 340 12:36 08.01.2020
1176 Snow -22 1013 83 10000 2 340 12:18 08.01.2020
1177 Snow -24 1013 83 10000 2 350 11:47 08.01.2020
1178 Snow -24 1013 83 10000 2 340 11:19 08.01.2020
1179 Snow -24 1013 83 10000 2 340 11:19 08.01.2020
1180 Snow -23 1013 83 10000 1 340 10:58 08.01.2020
1181 Snow -23 1013 83 10000 1 340 10:40 08.01.2020
1182 Snow -23 1013 83 10000 1 340 10:40 08.01.2020
1183 Snow -23 1013 83 10000 1 20 10:20 08.01.2020
1184 Snow -22 1013 83 10000 1 30 09:43 08.01.2020
1185 Snow -20 1013 83 5000 1 40 09:20 08.01.2020
1186 Snow -19 1013 84 5000 1 70 08:58 08.01.2020
1187 Snow -19 1013 84 5000 1 70 08:40 08.01.2020
1188 Snow -19 1013 84 5000 1 80 08:21 08.01.2020
1189 Snow -19 1013 84 5000 2 50 07:52 08.01.2020
1190 Snow -19 1013 84 5000 1 100 07:33 08.01.2020
1191 Snow -19 1013 84 5000 1 120 06:58 08.01.2020
1192 Snow -19 1013 84 5000 1 120 06:40 08.01.2020
1193 Snow -19 1013 84 5000 2 140 05:55 08.01.2020
1194 Snow -20 1013 83 5000 2 160 05:25 08.01.2020
1195 Snow -19 1013 84 5000 1 150 04:36 08.01.2020
1196 Snow -20 1014 83 5000 1 160 02:46 08.01.2020
1197 Snow -20 1013 83 10000 1 150 02:28 08.01.2020
1198 Snow -20 1014 83 10000 1 170 01:56 08.01.2020
1199 Snow -21 1014 83 10000 1 180 01:30 08.01.2020
1200 Snow -21 1014 83 10000 1 150 00:51 08.01.2020
1201 Snow -21 1014 83 10000 1 130 00:22 08.01.2020
1202 Snow -21 1013 83 10000 1 150 23:46 07.01.2020
1203 Snow -20 1013 76 10000 0.55 309 23:21 07.01.2020
1204 Snow -20 1013 83 10000 0.55 309 22:41 07.01.2020
1205 Snow -20 1013 76 10000 1 280 22:21 07.01.2020
1206 Snow -21 1013 83 10000 1 250 21:59 07.01.2020
1207 Snow -21 1013 83 10000 1 250 21:59 07.01.2020
1208 Snow -21 1013 83 10000 1 250 21:41 07.01.2020
1209 Snow -21 1013 83 10000 0.55 309 21:21 07.01.2020
1210 Snow -21 1013 83 10000 0.55 309 20:57 07.01.2020
1211 Snow -21 1013 83 10000 0.55 309 20:39 07.01.2020
1212 Snow -21 1013 83 10000 0.55 309 20:39 07.01.2020
1213 Snow -21 1013 76 10000 1.07 348 20:21 07.01.2020
1214 Snow -22 1013 83 10000 1 290 19:57 07.01.2020
1215 Snow -22 1013 83 10000 1 290 19:37 07.01.2020
1216 Snow -22 1013 83 10000 1 290 19:19 07.01.2020
1217 Snow -22 1013 83 10000 1 290 19:19 07.01.2020
1218 Snow -22 1013 83 10000 1 290 19:19 07.01.2020
1219 Snow -23 1013 83 10000 2 280 18:56 07.01.2020
1220 Snow -23 1013 83 10000 2 290 18:37 07.01.2020
1221 Snow -23 1013 83 10000 2 290 18:18 07.01.2020
1222 Snow -23 1013 76 10000 2 290 17:42 07.01.2020
1223 Snow -25 1013 83 10000 3 270 17:23 07.01.2020
1224 Snow -25 1013 83 10000 3 270 17:23 07.01.2020
1225 Clouds -25 1013 75 10000 3 280 16:58 07.01.2020
1226 Clouds -25 1013 75 10000 3 280 16:39 07.01.2020
1227 Clouds -24 1012 83 10000 2 280 16:20 07.01.2020
1228 Clouds -24 1012 83 10000 2 280 15:59 07.01.2020
1229 Clouds -24 1012 83 10000 2 280 15:41 07.01.2020
1230 Clouds -23 1012 83 10000 2 290 15:23 07.01.2020
1231 Snow -23 1012 83 10000 2 300 14:58 07.01.2020
1232 Snow -23 1012 83 10000 2 300 14:38 07.01.2020
1233 Snow -22 1012 83 10000 2 310 14:19 07.01.2020
1234 Snow -21 1011 83 10000 2 330 13:44 07.01.2020
1235 Snow -20 1011 76 5000 2 320 13:20 07.01.2020
1236 Snow -21 1011 83 5000 2 340 12:55 07.01.2020
1237 Snow -21 1011 83 5000 2 350 12:36 07.01.2020
1238 Snow -21 1011 83 5000 2 350 12:18 07.01.2020
1239 Snow -21 1010 83 5000 2 340 11:41 07.01.2020
1240 Snow -21 1010 83 5000 2 350 11:22 07.01.2020
1241 Snow -21 1011 83 5000 2 350 10:55 07.01.2020
1242 Snow -21 1011 76 5000 2 350 10:37 07.01.2020
1243 Snow -21 1011 76 5000 2 350 10:19 07.01.2020
1244 Snow -22 1010 83 3200 2 350 09:39 07.01.2020
1245 Snow -22 1010 83 3200 2 340 09:20 07.01.2020
1246 Snow -22 1011 76 2400 2 340 08:57 07.01.2020
1247 Snow -23 1011 83 2400 2 330 08:37 07.01.2020
1248 Snow -23 1011 83 2400 2 330 08:37 07.01.2020
1249 Snow -23 1011 83 2400 2 330 08:18 07.01.2020
1250 Snow -23 1011 83 2100 2 340 07:42 07.01.2020
1251 Snow -23 1011 83 2100 2 340 07:42 07.01.2020
1252 Snow -24 1011 83 2100 1 350 06:57 07.01.2020
1253 Snow -24 1011 83 3200 2 350 06:35 07.01.2020
1254 Snow -24 1012 76 3200 2 10 05:59 07.01.2020
1255 Snow -24 1012 76 3200 2 10 05:40 07.01.2020
1256 Snow -25 1013 75 2400 1 360 03:45 07.01.2020
1257 Snow -26 1014 83 2100 1 360 03:24 07.01.2020
1258 Snow -26 1015 75 2400 1 360 02:18 07.01.2020
1259 Snow -27 1015 82 2400 1 360 01:40 07.01.2020
1260 Snow -27 1016 75 5000 1 10 00:58 07.01.2020
1261 Snow -27 1016 75 3200 2 360 00:21 07.01.2020
1262 Snow -28 1017 75 3200 1 20 23:57 06.01.2020
1263 Snow -28 1017 75 2400 1 20 23:37 06.01.2020
1264 Snow -28 1017 75 2400 1 20 23:19 06.01.2020
1265 Snow -28 1017 75 3200 1 360 22:44 06.01.2020
1266 Snow -29 1018 75 2400 1.06 137 22:25 06.01.2020
1267 Snow -29 1018 75 2400 1 60 21:59 06.01.2020
1268 Snow -29 1018 75 2400 1 60 21:40 06.01.2020
1269 Snow -29 1018 75 3200 1 40 21:20 06.01.2020
1270 Snow -29 1019 75 10000 1.06 137 20:57 06.01.2020
1271 Snow -29 1019 68 10000 1.06 137 20:39 06.01.2020
1272 Snow -29 1019 68 10000 0.32 187 20:20 06.01.2020
1273 Clouds -30 1019 74 10000 0.32 187 19:57 06.01.2020
1274 Clouds -30 1019 74 10000 0.32 187 19:39 06.01.2020
1275 Clouds -30 1019 74 10000 1 270 19:20 06.01.2020
1276 Snow -31 1019 74 10000 0.32 187 18:48 06.01.2020
1277 Snow -31 1019 74 10000 0.32 187 18:48 06.01.2020
1278 Snow -31 1020 67 10000 0.32 187 18:23 06.01.2020
1279 Clouds -32 1020 74 10000 2 280 17:59 06.01.2020
1280 Clouds -32 1020 67 10000 1 310 17:39 06.01.2020
1281 Clouds -32 1020 67 10000 1 310 17:19 06.01.2020
1282 Clouds -32 1020 67 10000 1 290 16:47 06.01.2020
1283 Clouds -32 1020 74 10000 1 310 16:27 06.01.2020
1284 Clouds -32 1020 74 10000 2 310 15:59 06.01.2020
1285 Clouds -32 1020 74 10000 2 310 15:41 06.01.2020
1286 Clouds -31 1020 67 10000 3 300 15:20 06.01.2020
1287 Clouds -31 1020 74 10000 3 300 14:59 06.01.2020
1288 Clouds -31 1020 74 10000 3 300 14:40 06.01.2020
1289 Snow -31 1020 74 10000 3 290 14:20 06.01.2020
1290 Snow -31 1020 74 10000 3 300 13:57 06.01.2020
1291 Snow -31 1020 74 10000 3 300 13:57 06.01.2020
1292 Snow -30 1020 74 10000 3 300 13:37 06.01.2020
1293 Snow -30 1020 74 10000 3 300 13:19 06.01.2020
1294 Clouds -30 1020 74 10000 2 300 12:43 06.01.2020
1295 Clouds -30 1020 74 10000 2 310 12:21 06.01.2020
1296 Snow -28 1020 75 10000 2 340 11:58 06.01.2020
1297 Snow -28 1020 75 10000 3 350 11:39 06.01.2020
1298 Snow -28 1020 75 10000 3 350 11:20 06.01.2020
1299 Snow -28 1020 82 10000 3 340 10:54 06.01.2020
1300 Snow -28 1019 75 10000 2 340 10:36 06.01.2020
1301 Snow -28 1019 75 10000 2 340 10:18 06.01.2020
1302 Snow -26 1019 75 10000 3 350 09:37 06.01.2020
1303 Snow -26 1019 75 10000 3 350 09:19 06.01.2020
1304 Snow -25 1019 83 5000 3 350 08:43 06.01.2020
1305 Snow -25 1019 75 5000 3 350 08:25 06.01.2020
1306 Snow -25 1019 75 5000 3 350 07:51 06.01.2020
1307 Snow -25 1019 75 5000 2 340 07:26 06.01.2020
1308 Snow -25 1019 75 5000 2 340 06:45 06.01.2020
1309 Snow -26 1019 75 5000 2 360 06:19 06.01.2020
1310 Snow -26 1019 75 5000 2 350 05:42 06.01.2020
1311 Snow -28 1020 75 10000 2 10 04:33 06.01.2020
1312 Snow -28 1020 75 10000 2 360 03:59 06.01.2020
1313 Snow -30 1021 74 10000 2 350 02:46 06.01.2020
1314 Snow -31 1021 74 10000 2 330 02:23 06.01.2020
1315 Snow -31 1021 67 10000 2 340 01:44 06.01.2020
1316 Snow -32 1022 74 10000 2 340 01:24 06.01.2020
1317 Snow -32 1022 74 10000 2 340 00:41 06.01.2020
1318 Snow -31 1022 74 10000 2 340 00:20 06.01.2020
1319 Snow -30 1022 67 10000 1 340 23:41 05.01.2020
1320 Snow -30 1022 74 10000 2 20 23:22 05.01.2020
1321 Snow -30 1022 74 10000 0.49 165 22:56 05.01.2020
1322 Snow -30 1022 74 10000 1 110 22:37 05.01.2020
1323 Snow -30 1022 74 10000 1 110 22:19 05.01.2020
1324 Snow -30 1022 67 10000 1 110 21:54 05.01.2020
1325 Snow -30 1023 67 10000 1 130 21:36 05.01.2020
1326 Snow -30 1023 67 10000 1 130 21:18 05.01.2020
1327 Snow -30 1023 67 10000 1 100 20:55 05.01.2020
1328 Snow -31 1023 74 10000 0.49 165 20:36 05.01.2020
1329 Snow -31 1023 74 10000 0.45 200 20:18 05.01.2020
1330 Snow -31 1023 67 10000 1 100 19:54 05.01.2020
1331 Snow -32 1023 74 10000 1 80 19:36 05.01.2020
1332 Snow -32 1023 74 10000 1 80 19:18 05.01.2020
1333 Snow -32 1023 74 10000 0.47 233 18:54 05.01.2020
1334 Snow -32 1023 67 10000 0.47 233 18:36 05.01.2020
1335 Snow -32 1023 67 10000 0.47 233 18:18 05.01.2020
1336 Snow -32 1023 74 10000 0.47 233 17:39 05.01.2020
1337 Snow -32 1023 74 10000 0.46 97 17:20 05.01.2020
1338 Snow -32 1023 67 10000 0.46 97 16:57 05.01.2020
1339 Snow -32 1023 67 10000 0.46 97 16:39 05.01.2020
1340 Snow -32 1023 67 10000 0.46 97 16:20 05.01.2020
1341 Snow -32 1023 67 10000 1 10 15:41 05.01.2020
1342 Snow -33 1023 74 10000 1 340 15:22 05.01.2020
1343 Snow -33 1023 67 10000 0.46 97 14:58 05.01.2020
1344 Snow -33 1023 67 10000 0.46 97 14:40 05.01.2020
1345 Snow -34 1023 66 10000 0.81 88 14:22 05.01.2020
1346 Snow -34 1023 66 10000 1 330 13:59 05.01.2020
1347 Snow -34 1023 66 10000 1 330 13:39 05.01.2020
1348 Snow -34 1023 73 10000 0.85 64 13:20 05.01.2020
1349 Snow -33 1023 67 10000 0.85 64 12:57 05.01.2020
1350 Snow -34 1023 73 10000 0.85 64 12:38 05.01.2020
1351 Snow -34 1023 73 10000 0.85 64 12:20 05.01.2020
1352 Snow -35 1023 66 10000 1 310 11:55 05.01.2020
1353 Snow -34 1023 66 10000 1 320 11:36 05.01.2020
1354 Snow -34 1023 66 10000 1 320 11:36 05.01.2020
1355 Snow -34 1023 66 10000 1 320 11:18 05.01.2020
1356 Snow -34 1023 66 10000 1 290 10:41 05.01.2020
1357 Snow -35 1023 73 10000 1 310 10:20 05.01.2020
1358 Snow -34 1022 66 10000 1 330 09:57 05.01.2020
1359 Snow -34 1022 66 10000 1 310 09:38 05.01.2020
1360 Snow -34 1022 66 10000 1 310 09:38 05.01.2020
1361 Snow -34 1022 66 10000 1 310 09:20 05.01.2020
1362 Snow -33 1022 67 10000 1 320 08:45 05.01.2020
1363 Snow -32 1022 67 10000 1 360 08:21 05.01.2020
1364 Snow -32 1022 74 10000 1 340 07:47 05.01.2020
1365 Snow -32 1022 74 10000 1 350 07:29 05.01.2020
1366 Snow -31 1022 67 10000 2 340 06:56 05.01.2020
1367 Snow -32 1021 74 10000 2 350 05:52 05.01.2020
1368 Snow -32 1021 67 10000 2 350 04:57 05.01.2020
1369 Snow -33 1020 67 10000 2 360 04:19 05.01.2020
1370 Snow -33 1020 67 10000 2 360 04:19 05.01.2020
1371 Snow -33 1020 67 10000 2 10 03:40 05.01.2020
1372 Snow -34 1020 73 10000 2 360 02:36 05.01.2020
1373 Snow -34 1020 73 10000 2 360 02:36 05.01.2020
1374 Snow -34 1020 73 10000 2 360 02:18 05.01.2020
1375 Snow -35 1020 66 10000 2 350 01:36 05.01.2020
1376 Snow -35 1020 66 10000 2 350 01:18 05.01.2020
1377 Snow -35 1020 66 10000 2 340 00:39 05.01.2020
1378 Clouds -35 1019 66 10000 2 340 00:21 05.01.2020
1379 Clouds -35 1019 66 10000 2 340 23:58 04.01.2020
1380 Snow -35 1019 66 10000 2 340 23:38 04.01.2020
1381 Snow -35 1019 66 10000 2 340 23:18 04.01.2020
1382 Snow -34 1018 66 10000 2 350 22:39 04.01.2020
1383 Snow -34 1018 66 10000 2 340 22:20 04.01.2020
1384 Snow -34 1018 66 10000 2 10 21:56 04.01.2020
1385 Snow -34 1018 66 10000 2 360 21:37 04.01.2020
1386 Snow -34 1018 66 10000 2 360 21:19 04.01.2020
1387 Snow -34 1018 66 10000 2 360 21:19 04.01.2020
1388 Snow -34 1018 66 10000 2 350 20:56 04.01.2020
1389 Snow -34 1018 66 10000 1 350 20:37 04.01.2020
1390 Snow -34 1018 66 10000 1 350 20:18 04.01.2020
1391 Snow -35 1018 66 10000 2 350 19:41 04.01.2020
1392 Snow -35 1018 66 10000 2 350 19:41 04.01.2020
1393 Snow -35 1018 66 10000 2 350 19:41 04.01.2020
1394 Snow -35 1017 66 10000 2 360 19:23 04.01.2020
1395 Snow -36 1017 66 10000 1 350 18:58 04.01.2020
1396 Snow -36 1017 66 10000 1 350 18:39 04.01.2020
1397 Clouds -36 1017 66 10000 1 350 18:20 04.01.2020
1398 Clouds -37 1017 65 10000 1 340 17:57 04.01.2020
1399 Clouds -37 1017 65 10000 1 340 17:39 04.01.2020
1400 Clouds -37 1017 65 10000 1 340 17:21 04.01.2020
1401 Clouds -37 1017 65 10000 1 350 16:42 04.01.2020
1402 Clouds -37 1017 65 10000 2 360 16:24 04.01.2020
1403 Clouds -37 1017 65 10000 1 350 15:57 04.01.2020
1404 Clouds -37 1017 65 10000 1 350 15:39 04.01.2020
1405 Clouds -37 1017 65 10000 2 360 15:19 04.01.2020
1406 Clouds -37 1017 65 10000 1 360 14:57 04.01.2020
1407 Clouds -37 1017 65 10000 1 360 14:39 04.01.2020
1408 Clouds -36 1017 66 10000 2 350 14:19 04.01.2020
1409 Clouds -36 1017 66 10000 2 350 14:19 04.01.2020
1410 Clouds -36 1017 66 10000 2 350 14:19 04.01.2020
1411 Clouds -36 1017 66 10000 1 340 13:55 04.01.2020
1412 Clouds -36 1017 66 10000 1 350 13:36 04.01.2020
1413 Clouds -36 1017 66 10000 1 350 13:18 04.01.2020
1414 Clouds -36 1017 66 10000 2 350 12:41 04.01.2020
1415 Clouds -36 1017 66 10000 2 360 12:20 04.01.2020
1416 Clouds -36 1017 66 10000 2 350 11:58 04.01.2020
1417 Clouds -36 1017 66 10000 2 350 11:39 04.01.2020
1418 Clouds -36 1017 66 10000 2 350 11:19 04.01.2020
1419 Clouds -36 1017 73 10000 2 360 10:55 04.01.2020
1420 Clouds -35 1017 66 10000 1 340 10:36 04.01.2020
1421 Clouds -35 1017 66 10000 1 340 10:18 04.01.2020
1422 Clouds -35 1017 66 10000 1 350 09:41 04.01.2020
1423 Clouds -35 1017 66 10000 2 10 09:22 04.01.2020
1424 Clouds -34 1017 66 10000 2 360 08:42 04.01.2020
1425 Snow -34 1018 66 10000 2 350 08:21 04.01.2020
1426 Snow -33 1017 67 10000 2 350 07:44 04.01.2020
1427 Snow -34 1017 73 10000 2 350 07:21 04.01.2020
1428 Snow -34 1017 66 10000 2 340 06:33 04.01.2020
1429 Snow -34 1017 66 10000 1 360 05:45 04.01.2020
1430 Clouds -35 1017 73 10000 2 360 04:44 04.01.2020
1431 Snow -35 1018 66 10000 2 350 04:26 04.01.2020
1432 Snow -36 1018 66 10000 2 360 03:19 04.01.2020
1433 Snow -36 1018 66 10000 1 360 02:23 04.01.2020
1434 Snow -36 1018 66 10000 1 360 02:23 04.01.2020
1435 Snow -37 1018 65 10000 2 10 01:57 04.01.2020
1436 Snow -37 1018 65 10000 2 10 01:32 04.01.2020
1437 Snow -36 1018 66 10000 2 360 00:50 04.01.2020
1438 Snow -36 1018 66 10000 2 10 00:28 04.01.2020
1439 Snow -36 1018 66 10000 2 10 23:52 03.01.2020
1440 Mist -37 1019 65 5000 2 10 23:27 03.01.2020
1441 Mist -38 1019 65 5000 1 360 22:55 03.01.2020
1442 Mist -38 1019 65 5000 1 360 22:36 03.01.2020
1443 Mist -38 1019 65 5000 1 360 22:18 03.01.2020
1444 Mist -38 1019 65 5000 1 360 21:55 03.01.2020
1445 Mist -39 1019 65 5000 2 350 21:37 03.01.2020
1446 Mist -39 1019 65 5000 2 350 21:18 03.01.2020
1447 Mist -38 1019 58 5000 2 360 20:43 03.01.2020
1448 Mist -38 1019 58 5000 2 10 20:19 03.01.2020
1449 Mist -38 1019 58 5000 2 360 19:59 03.01.2020
1450 Mist -38 1019 58 5000 2 360 19:40 03.01.2020
1451 Mist -38 1019 58 5000 2 360 19:22 03.01.2020
1452 Mist -38 1019 58 5000 2 360 18:46 03.01.2020
1453 Mist -38 1019 58 5000 2 360 18:26 03.01.2020
1454 Mist -39 1019 65 3200 1 350 17:57 03.01.2020
1455 Mist -39 1019 65 3200 1 350 17:39 03.01.2020
1456 Mist -39 1019 65 3200 1 350 17:19 03.01.2020
1457 Mist -39 1019 65 3200 1 360 16:43 03.01.2020
1458 Mist -39 1019 65 3200 1 360 16:24 03.01.2020
1459 Mist -39 1019 65 3200 1 350 15:58 03.01.2020
1460 Mist -39 1019 65 3200 1 350 15:40 03.01.2020
1461 Mist -39 1019 65 3200 1 350 15:18 03.01.2020
1462 Mist -39 1019 65 5000 2 360 14:39 03.01.2020
1463 Mist -39 1019 65 5000 1 360 14:20 03.01.2020
1464 Mist -39 1019 65 3200 1 360 13:56 03.01.2020
1465 Mist -39 1019 65 3200 1 360 13:37 03.01.2020
1466 Mist -39 1019 65 3200 1 360 13:19 03.01.2020
1467 Mist -39 1019 65 3200 1 360 12:40 03.01.2020
1468 Mist -39 1019 65 3200 1 350 12:21 03.01.2020
1469 Mist -39 1019 65 3200 1 350 11:49 03.01.2020
1470 Mist -39 1019 65 3200 1 350 11:30 03.01.2020
1471 Mist -39 1019 65 3200 1 350 10:47 03.01.2020
1472 Mist -39 1019 65 3200 1 360 10:28 03.01.2020
1473 Mist -39 1019 65 3200 1 360 09:59 03.01.2020
1474 Mist -39 1019 65 3200 1 360 09:41 03.01.2020
1475 Mist -38 1019 58 5000 1 350 09:22 03.01.2020
1476 Clouds -38 1019 65 10000 1 350 08:57 03.01.2020
1477 Clouds -38 1019 65 10000 1 350 08:39 03.01.2020
1478 Clouds -38 1019 65 10000 1 350 08:20 03.01.2020
1479 Clouds -37 1019 65 10000 1 340 07:41 03.01.2020
1480 Clouds -37 1019 65 10000 1 340 07:19 03.01.2020
1481 Clouds -37 1019 65 10000 1 360 06:54 03.01.2020
1482 Clouds -36 1019 73 10000 1 350 06:35 03.01.2020
1483 Clouds -35 1019 66 10000 1 360 05:48 03.01.2020
1484 Mist -35 1019 73 5000 1 330 04:31 03.01.2020
1485 Mist -35 1020 73 5000 1.15 104 03:18 03.01.2020
1486 Mist -35 1020 66 5000 1 10 02:45 03.01.2020
1487 Snow -35 1020 66 5000 1 20 01:47 03.01.2020
1488 Snow -34 1020 66 10000 1.26 149 00:57 03.01.2020
1489 Snow -34 1021 66 10000 1.26 149 00:33 03.01.2020
1490 Clouds -34 1021 66 10000 1 10 23:58 02.01.2020
1491 Clouds -33 1020 67 10000 1.26 149 23:39 02.01.2020
1492 Clouds -33 1020 67 10000 1.45 188 23:19 02.01.2020
1493 Clouds -33 1021 67 10000 1.45 188 22:58 02.01.2020
1494 Clouds -33 1021 67 10000 1.45 188 22:58 02.01.2020
1495 Clouds -34 1021 73 10000 1.45 188 22:39 02.01.2020
1496 Clouds -34 1021 73 10000 1.45 188 22:19 02.01.2020
1497 Clouds -34 1021 66 10000 1.45 188 21:54 02.01.2020
1498 Clouds -34 1021 66 10000 1 160 21:36 02.01.2020
1499 Clouds -34 1021 66 10000 1 160 21:36 02.01.2020
1500 Clouds -34 1021 66 10000 1 160 21:18 02.01.2020
1501 Clouds -34 1021 66 10000 1 170 20:40 02.01.2020
1502 Clouds -34 1021 66 10000 1 140 20:21 02.01.2020
1503 Clouds -34 1021 66 10000 1 150 19:56 02.01.2020
1504 Clouds -34 1021 66 10000 1 150 19:56 02.01.2020
1505 Clouds -33 1021 67 10000 1 150 19:38 02.01.2020
1506 Clouds -33 1021 67 10000 1 150 19:19 02.01.2020
1507 Clouds -33 1021 67 10000 1 150 18:59 02.01.2020
1508 Clouds -33 1021 67 10000 1 150 18:40 02.01.2020
1509 Clouds -33 1020 67 10000 1.67 222 18:22 02.01.2020
1510 Clouds -33 1020 67 10000 1.67 222 17:57 02.01.2020
1511 Clouds -34 1020 73 10000 1.67 222 17:38 02.01.2020
1512 Clouds -34 1020 73 10000 2.05 251 17:19 02.01.2020
1513 Clouds -34 1020 66 10000 2.05 251 16:57 02.01.2020
1514 Clouds -34 1020 73 10000 2.05 251 16:39 02.01.2020
1515 Clouds -34 1020 73 10000 2.05 251 16:20 02.01.2020
1516 Clouds -34 1020 73 10000 1 220 15:57 02.01.2020
1517 Clouds -34 1020 73 10000 1 240 15:37 02.01.2020
1518 Clouds -33 1020 67 10000 1 220 15:19 02.01.2020
1519 Clouds -33 1020 67 10000 1 220 14:55 02.01.2020
1520 Clouds -34 1020 66 10000 1 230 14:36 02.01.2020
1521 Clouds -34 1020 66 10000 2.09 258 14:18 02.01.2020
1522 Clouds -34 1020 66 10000 2.09 258 13:47 02.01.2020
1523 Clouds -34 1020 66 10000 2.26 263 13:29 02.01.2020
1524 Mist -34 1021 66 5000 2.26 263 12:45 02.01.2020
1525 Mist -35 1020 73 5000 2.26 263 12:25 02.01.2020
1526 Mist -35 1020 66 3200 2.26 263 11:44 02.01.2020
1527 Mist -35 1020 66 3200 2.26 263 11:26 02.01.2020
1528 Mist -36 1020 66 2100 2.18 286 10:58 02.01.2020
1529 Mist -37 1020 65 2100 2.18 286 10:39 02.01.2020
1530 Mist -37 1020 65 2100 2.18 286 10:19 02.01.2020
1531 Mist -37 1020 65 2400 2.18 286 09:42 02.01.2020
1532 Mist -38 1020 65 2400 2.18 286 09:24 02.01.2020
1533 Mist -39 1020 65 2400 2.18 286 08:45 02.01.2020
1534 Mist -40 1020 65 1600 2.18 286 08:27 02.01.2020
1535 Mist -39 1019 58 1000 2.12 266 07:50 02.01.2020
1536 Fog -39 1019 65 900 2.12 266 07:30 02.01.2020
1537 Fog -39 1018 65 900 2.12 266 06:44 02.01.2020
1538 Fog -38 1018 58 500 2.12 266 06:26 02.01.2020
1539 Fog -39 1017 65 300 1.8 278 04:41 02.01.2020
1540 Fog -40 1017 65 300 1.8 278 04:21 02.01.2020
1541 Fog -41 1017 57 350 1.8 278 02:28 02.01.2020
1542 Fog -41 1016 57 550 1.64 292 01:58 02.01.2020
1543 Fog -41 1016 64 700 1.55 288 01:32 02.01.2020
1544 Fog -41 1016 64 450 1.55 288 00:57 02.01.2020
1545 Fog -41 1016 64 350 1.55 288 00:33 02.01.2020
1546 Fog -41 1016 64 350 1.55 288 00:33 02.01.2020
1547 Fog -41 1016 64 300 1 140 23:49 01.01.2020
1548 Fog -41 1016 64 300 1.55 288 23:26 01.01.2020
1549 Fog -41 1015 64 450 1.35 307 22:56 01.01.2020
1550 Fog -42 1015 64 700 1.35 307 22:37 01.01.2020
1551 Fog -42 1015 64 700 1.35 307 22:19 01.01.2020
1552 Mist -42 1015 57 3200 1.35 307 21:55 01.01.2020
1553 Mist -42 1015 57 3200 1.35 307 21:37 01.01.2020
1554 Mist -42 1015 57 3200 1.35 307 21:18 01.01.2020
1555 Mist -42 1015 57 1900 1.35 307 20:42 01.01.2020
1556 Mist -42 1015 64 1900 1.47 310 20:22 01.01.2020
1557 Snow -41 1014 57 1400 1 70 19:58 01.01.2020
1558 Snow -41 1014 57 1400 1 70 19:40 01.01.2020
1559 Snow -41 1013 64 1500 1.47 310 19:21 01.01.2020
1560 Snow -41 1013 64 3200 1 320 18:59 01.01.2020
1561 Snow -41 1013 64 3200 1 320 18:39 01.01.2020
1562 Snow -40 1014 58 3200 1 20 18:20 01.01.2020
1563 Snow -40 1013 65 3200 1 50 17:59 01.01.2020
1564 Snow -40 1013 65 3200 1 50 17:40 01.01.2020
1565 Snow -39 1013 58 2100 1 70 17:20 01.01.2020
1566 Snow -38 1013 65 2100 1 80 16:59 01.01.2020
1567 Snow -38 1013 65 2100 1 80 16:59 01.01.2020
1568 Snow -38 1013 65 2100 1 80 16:38 01.01.2020
1569 Snow -38 1013 65 2100 0.87 20 16:20 01.01.2020
1570 Snow -39 1013 65 2100 0.87 20 15:57 01.01.2020
1571 Snow -39 1013 65 2100 0.87 20 15:38 01.01.2020
1572 Snow -40 1013 65 2100 1 330 15:20 01.01.2020
1573 Snow -40 1013 65 2100 1 340 14:56 01.01.2020
1574 Snow -40 1013 58 2100 1 360 14:38 01.01.2020
1575 Snow -40 1013 58 2100 1 360 14:19 01.01.2020
1576 Snow -41 1014 64 3200 0.43 56 13:55 01.01.2020
1577 Snow -41 1014 64 3200 0.43 56 13:55 01.01.2020
1578 Snow -41 1013 64 3200 1 40 13:37 01.01.2020
1579 Snow -41 1013 64 3200 1 40 13:18 01.01.2020
1580 Snow -40 1013 58 1100 1 40 12:55 01.01.2020
1581 Snow -41 1013 64 1100 1 320 12:36 01.01.2020
1582 Snow -41 1013 64 1100 1 320 12:18 01.01.2020
1583 Snow -41 1013 64 1400 1 340 11:42 01.01.2020
1584 Snow -42 1014 64 1500 1.23 119 11:21 01.01.2020
1585 Mist -42 1014 64 1100 1 10 10:57 01.01.2020
1586 Mist -42 1014 64 1000 1.23 119 10:38 01.01.2020
1587 Mist -42 1014 64 1000 1.23 119 10:19 01.01.2020
1588 Fog -42 1014 64 900 1.23 119 09:42 01.01.2020
1589 Fog -42 1014 64 550 1.23 119 09:23 01.01.2020
1590 Fog -42 1015 57 500 1.23 119 08:57 01.01.2020
1591 Fog -42 1015 57 500 1.23 119 08:39 01.01.2020
1592 Fog -42 1015 57 450 0.92 148 08:20 01.01.2020
1593 Fog -42 1015 57 450 0.59 182 07:59 01.01.2020
1594 Fog -42 1015 57 450 0.59 182 07:41 01.01.2020
1595 Fog -43 1015 64 700 0.59 182 07:20 01.01.2020
1596 Fog -43 1015 57 750 0.59 182 06:40 01.01.2020
1597 Fog -42 1015 57 450 0.59 182 06:18 01.01.2020
1598 Fog -43 1016 64 450 1.56 157 04:36 01.01.2020
1599 Fog -43 1016 57 500 1.56 157 03:40 01.01.2020
1600 Fog -43 1017 64 300 1.56 157 03:21 01.01.2020
1601 Fog -43 1017 64 350 1.56 157 02:43 01.01.2020
1602 Fog -43 1018 64 250 1.56 157 02:24 01.01.2020
1603 Fog -43 1018 57 250 1.29 189 01:45 01.01.2020
1604 Fog -43 1018 57 250 1.38 189 01:23 01.01.2020
1605 Fog -43 1018 57 250 1.38 189 00:45 01.01.2020
1606 Fog -43 1018 57 250 1.38 189 00:26 01.01.2020
1607 Fog -43 1019 57 250 1.38 189 23:58 31.12.2019
1608 Fog -43 1019 64 150 1.38 189 23:38 31.12.2019
1609 Fog -43 1019 64 150 1.68 191 23:18 31.12.2019
1610 Fog -43 1019 64 150 1.68 191 22:56 31.12.2019
1611 Fog -43 1020 57 250 1.68 191 22:37 31.12.2019
1612 Fog -43 1020 57 250 1.68 191 22:18 31.12.2019
1613 Fog -43 1020 64 150 1.68 191 21:43 31.12.2019
1614 Fog -43 1020 57 150 1.68 191 21:25 31.12.2019
1615 Fog -43 1020 57 150 1.68 191 20:57 31.12.2019
1616 Fog -43 1020 57 150 1.68 191 20:39 31.12.2019
1617 Fog -43 1020 64 150 1.23 206 20:21 31.12.2019
1618 Fog -43 1021 64 200 1.23 206 19:58 31.12.2019
1619 Fog -43 1021 64 200 1.23 206 19:40 31.12.2019
1620 Fog -43 1021 57 250 1.23 206 19:22 31.12.2019
1621 Fog -43 1021 64 250 1.23 206 18:57 31.12.2019
1622 Fog -43 1021 64 300 1.23 206 18:38 31.12.2019
1623 Fog -43 1021 64 300 1.23 206 18:19 31.12.2019
1624 Fog -42 1021 57 350 1.23 206 17:56 31.12.2019
1625 Fog -42 1021 64 500 1.23 206 17:37 31.12.2019
1626 Fog -42 1021 64 500 1.43 244 17:18 31.12.2019
1627 Fog -42 1021 64 500 1.43 244 16:56 31.12.2019
1628 Fog -41 1022 57 250 1.43 244 16:37 31.12.2019
1629 Fog -41 1022 57 250 1.43 244 16:19 31.12.2019
1630 Fog -41 1022 64 250 1.43 244 15:56 31.12.2019
1631 Fog -41 1022 64 250 1.43 244 15:38 31.12.2019
1632 Fog -41 1022 64 300 1.43 244 15:19 31.12.2019
1633 Fog -40 1022 65 500 1.43 244 14:55 31.12.2019
1634 Fog -40 1022 65 500 1.43 244 14:37 31.12.2019
1635 Fog -40 1022 65 500 1.56 235 14:19 31.12.2019
1636 Fog -39 1022 58 500 1.56 235 13:56 31.12.2019
1637 Fog -39 1022 58 350 1.56 235 13:38 31.12.2019
1638 Fog -39 1022 58 350 1.58 236 13:20 31.12.2019
1639 Fog -39 1022 65 400 1.58 236 12:55 31.12.2019
1640 Fog -39 1022 58 500 1.58 236 12:37 31.12.2019
1641 Fog -39 1022 58 500 1.58 236 12:19 31.12.2019
1642 Fog -39 1022 58 600 1.58 236 11:55 31.12.2019
1643 Fog -39 1022 58 400 1.58 236 11:37 31.12.2019
1644 Fog -39 1022 58 400 1.64 205 11:19 31.12.2019
1645 Fog -40 1022 65 300 1.64 205 10:56 31.12.2019
1646 Fog -40 1022 65 400 1.64 205 10:37 31.12.2019
1647 Fog -40 1022 65 400 1.64 205 10:19 31.12.2019
1648 Fog -40 1022 65 450 1.64 205 09:57 31.12.2019
1649 Fog -40 1022 65 450 1.64 205 09:57 31.12.2019
1650 Fog -40 1023 65 500 1.64 205 09:38 31.12.2019
1651 Fog -40 1023 65 500 1.64 205 09:19 31.12.2019
1652 Mist -40 1023 65 1200 1.64 205 08:43 31.12.2019
1653 Snow -40 1022 65 1700 1.66 204 08:23 31.12.2019
1654 Snow -40 1022 65 1800 0.98 167 07:59 31.12.2019
1655 Snow -40 1022 65 1800 0.98 167 07:41 31.12.2019
1656 Snow -40 1022 65 1500 0.98 167 07:19 31.12.2019
1657 Snow -40 1023 65 1300 0.98 167 06:42 31.12.2019
1658 Fog -40 1023 65 800 0.98 167 05:45 31.12.2019
1659 Fog -41 1023 64 400 0.79 185 04:27 31.12.2019
1660 Fog -41 1024 57 700 0.79 185 03:27 31.12.2019
1661 Fog -42 1024 64 800 0.79 185 02:39 31.12.2019
1662 Fog -42 1024 64 550 0.49 127 01:53 31.12.2019
1663 Fog -42 1025 57 550 0.49 127 01:34 31.12.2019
1664 Fog -42 1025 57 450 0.62 136 00:56 31.12.2019
1665 Fog -43 1025 64 500 0.62 136 00:37 31.12.2019
1666 Fog -43 1025 64 500 0.62 136 00:18 31.12.2019
1667 Fog -43 1025 57 400 0.62 136 23:55 30.12.2019
1668 Fog -43 1025 57 500 0.62 136 23:37 30.12.2019
1669 Fog -43 1025 57 500 0.84 149 23:18 30.12.2019
1670 Fog -43 1025 57 800 0.84 149 22:56 30.12.2019
1671 Fog -43 1025 57 600 0.84 149 22:37 30.12.2019
1672 Fog -43 1025 57 600 0.84 149 22:18 30.12.2019
1673 Fog -43 1026 57 550 0.84 149 21:55 30.12.2019
1674 Fog -43 1026 57 350 0.84 149 21:37 30.12.2019
1675 Fog -43 1026 57 350 0.84 149 21:18 30.12.2019
1676 Fog -43 1026 57 350 0.84 149 20:56 30.12.2019
1677 Fog -43 1026 57 500 0.84 149 20:37 30.12.2019
1678 Fog -43 1026 57 500 1.08 169 20:19 30.12.2019
1679 Fog -43 1026 57 450 1.08 169 19:55 30.12.2019
1680 Fog -43 1027 57 500 1.08 169 19:37 30.12.2019
1681 Fog -43 1027 57 500 1.08 169 19:18 30.12.2019
1682 Fog -43 1027 57 500 1.08 169 18:56 30.12.2019
1683 Fog -43 1027 57 350 1.08 169 18:36 30.12.2019
1684 Fog -43 1027 57 350 1.08 169 18:18 30.12.2019
1685 Fog -43 1027 57 350 1.08 169 17:54 30.12.2019
1686 Fog -43 1027 57 600 1.08 169 17:36 30.12.2019
1687 Fog -43 1027 57 600 1.06 158 17:18 30.12.2019
1688 Fog -43 1028 57 650 1.06 158 16:41 30.12.2019
1689 Fog -43 1028 57 700 1.06 158 16:20 30.12.2019
1690 Fog -43 1028 57 800 1.06 158 15:57 30.12.2019
1691 Fog -43 1028 57 800 1.06 158 15:39 30.12.2019
1692 Fog -43 1028 57 800 1.06 158 15:19 30.12.2019
1693 Fog -43 1028 57 800 1.06 158 15:19 30.12.2019
1694 Fog -43 1029 57 650 1.06 158 14:55 30.12.2019
1695 Fog -43 1029 57 800 1 350 14:37 30.12.2019
1696 Fog -43 1029 57 800 1 350 14:37 30.12.2019
1697 Fog -43 1029 57 800 1 350 14:18 30.12.2019
1698 Fog -43 1030 57 600 1.02 171 13:42 30.12.2019
1699 Fog -43 1030 57 600 1 350 13:24 30.12.2019
1700 Fog -43 1030 57 450 1.08 166 12:59 30.12.2019
1701 Fog -43 1030 57 450 1.08 166 12:41 30.12.2019
1702 Fog -44 1031 63 400 1.08 166 12:19 30.12.2019
1703 Fog -43 1031 57 400 1.08 166 11:58 30.12.2019
1704 Fog -43 1031 57 400 1.08 166 11:39 30.12.2019
1705 Fog -44 1031 57 450 1 360 11:18 30.12.2019
1706 Fog -44 1031 63 650 1 360 10:43 30.12.2019
1707 Fog -44 1032 63 450 1 10 10:21 30.12.2019
1708 Fog -43 1032 57 450 1.53 180 09:55 30.12.2019
1709 Fog -43 1032 57 400 1 350 09:37 30.12.2019
1710 Fog -43 1032 57 400 1 350 09:18 30.12.2019
1711 Fog -43 1032 57 900 1.53 180 08:46 30.12.2019
1712 Fog -43 1033 57 800 1.61 182 08:23 30.12.2019
1713 Fog -43 1033 57 800 1.41 179 07:53 30.12.2019
1714 Fog -43 1033 57 750 1.41 179 07:33 30.12.2019
1715 Fog -43 1033 57 350 1.41 179 06:50 30.12.2019
1716 Fog -43 1035 57 350 1.11 190 04:50 30.12.2019
1717 Fog -43 1035 64 400 1.11 190 03:52 30.12.2019
1718 Fog -43 1036 57 250 1.11 190 02:47 30.12.2019
1719 Fog -43 1036 57 150 1.11 190 02:29 30.12.2019
1720 Fog -44 1036 63 150 1.62 199 01:47 30.12.2019
1721 Fog -43 1037 57 150 1.62 199 01:19 30.12.2019
1722 Fog -43 1037 57 150 1.62 201 00:42 30.12.2019
1723 Fog -43 1037 57 200 1.62 201 23:59 29.12.2019
1724 Fog -43 1037 57 200 1.62 201 23:38 29.12.2019
1725 Fog -43 1037 57 200 1.47 196 23:20 29.12.2019
1726 Fog -43 1038 57 250 1.47 196 22:42 29.12.2019
1727 Fog -43 1038 64 300 1.47 196 22:22 29.12.2019
1728 Fog -43 1038 64 300 1.47 196 22:22 29.12.2019
1729 Fog -42 1038 57 450 1.47 196 21:57 29.12.2019
1730 Fog -42 1038 57 450 1.47 196 21:39 29.12.2019
1731 Fog -42 1038 57 800 1.47 196 21:20 29.12.2019
1732 Fog -42 1039 64 600 1.47 196 20:57 29.12.2019
1733 Fog -42 1039 64 600 1.47 196 20:38 29.12.2019
1734 Fog -42 1039 64 600 1 150 20:20 29.12.2019
1735 Fog -43 1039 64 200 1.39 196 19:58 29.12.2019
1736 Fog -43 1039 64 200 1.39 196 19:39 29.12.2019
1737 Fog -43 1039 64 200 1.39 196 19:20 29.12.2019
1738 Fog -43 1039 64 200 1.39 196 18:56 29.12.2019
1739 Fog -42 1039 57 150 1.39 196 18:38 29.12.2019
1740 Fog -42 1039 57 150 1.39 196 18:19 29.12.2019
1741 Fog -42 1040 57 150 1.39 196 17:57 29.12.2019
1742 Fog -42 1040 64 150 1.39 196 17:39 29.12.2019
1743 Fog -42 1040 64 150 1.56 208 17:20 29.12.2019
1744 Fog -41 1040 57 450 1 200 16:56 29.12.2019
1745 Fog -42 1040 64 400 1 170 16:37 29.12.2019
1746 Fog -42 1040 64 400 1 170 16:19 29.12.2019
1747 Fog -42 1040 64 700 1 120 15:56 29.12.2019
1748 Fog -42 1040 64 700 1 120 15:38 29.12.2019
1749 Fog -41 1040 57 350 1.56 208 15:19 29.12.2019
1750 Fog -41 1041 57 500 1.56 208 14:56 29.12.2019
1751 Fog -42 1041 64 550 1 170 14:37 29.12.2019
1752 Fog -42 1041 64 550 1 170 14:18 29.12.2019
1753 Fog -42 1041 64 700 1 150 13:55 29.12.2019
1754 Fog -42 1041 64 700 1 150 13:55 29.12.2019
1755 Fog -42 1041 64 500 1.2 233 13:37 29.12.2019
1756 Fog -42 1041 64 500 1.25 228 13:18 29.12.2019
1757 Fog -42 1041 64 500 1.25 228 13:18 29.12.2019
1758 Fog -42 1041 64 150 1.25 228 12:43 29.12.2019
1759 Fog -41 1041 57 750 1.25 228 12:25 29.12.2019
1760 Fog -41 1041 57 750 1.25 228 12:25 29.12.2019
1761 Fog -41 1041 57 400 1 160 11:56 29.12.2019
1762 Fog -42 1041 64 550 1 150 11:38 29.12.2019
1763 Fog -42 1041 64 550 1 150 11:20 29.12.2019
1764 Fog -42 1041 64 500 1.41 215 10:42 29.12.2019
1765 Fog -42 1041 57 500 1.41 215 10:23 29.12.2019
1766 Fog -42 1041 64 200 1.41 215 09:57 29.12.2019
1767 Fog -42 1041 64 200 1.41 215 09:38 29.12.2019
1768 Fog -42 1041 64 450 1.41 215 09:20 29.12.2019
1769 Fog -42 1041 57 200 1 140 08:47 29.12.2019
1770 Fog -42 1041 64 450 1.41 215 08:24 29.12.2019
1771 Fog -42 1040 57 600 1 160 07:55 29.12.2019
1772 Fog -42 1040 57 500 1 150 07:28 29.12.2019
1773 Fog -42 1040 57 400 1 160 06:55 29.12.2019
1774 Fog -42 1040 57 350 1.3 222 06:25 29.12.2019
1775 Fog -42 1040 57 500 1 160 05:51 29.12.2019
1776 Fog -43 1040 64 350 1 180 04:36 29.12.2019
1777 Fog -43 1040 57 450 1 160 03:54 29.12.2019
1778 Fog -43 1040 57 300 1 160 03:20 29.12.2019
1779 Fog -44 1040 57 500 1 150 02:20 29.12.2019
1780 Fog -44 1039 57 300 1.29 223 01:31 29.12.2019
1781 Fog -44 1039 57 300 1.29 223 01:31 29.12.2019
1782 Fog -44 1039 57 400 1.29 223 00:58 29.12.2019
1783 Fog -44 1039 63 150 1.29 223 00:40 29.12.2019
1784 Fog -44 1039 63 150 1.29 223 00:21 29.12.2019
1785 Fog -44 1039 57 300 1 220 23:43 28.12.2019
1786 Fog -44 1039 57 550 1 180 23:18 28.12.2019
1787 Fog -45 1038 56 900 1 160 22:39 28.12.2019
1788 Fog -45 1038 56 250 1 150 22:20 28.12.2019
1789 Fog -45 1038 56 650 1 120 21:58 28.12.2019
1790 Fog -45 1038 56 650 1 120 21:39 28.12.2019
1791 Fog -44 1038 57 150 1 160 21:21 28.12.2019
1792 Fog -44 1038 57 400 1 220 20:57 28.12.2019
1793 Fog -45 1038 56 1300 1 180 20:37 28.12.2019
1794 Fog -45 1038 56 1300 1 180 20:37 28.12.2019
1795 Fog -45 1038 56 1300 1 180 20:19 28.12.2019
1796 Fog -45 1037 56 450 2 150 19:57 28.12.2019
1797 Fog -45 1037 56 450 2 150 19:39 28.12.2019
1798 Fog -45 1037 56 450 1 150 19:20 28.12.2019
1799 Fog -45 1037 56 550 1 170 18:57 28.12.2019
1800 Fog -45 1037 63 500 1 150 18:39 28.12.2019
1801 Fog -45 1037 63 500 1 150 18:18 28.12.2019
1802 Fog -45 1037 63 450 1 180 17:54 28.12.2019
1803 Fog -45 1036 56 900 1 170 17:36 28.12.2019
1804 Fog -45 1036 56 900 1 170 17:18 28.12.2019
1805 Fog -45 1036 56 400 1 130 16:46 28.12.2019
1806 Fog -45 1036 56 450 1 150 16:25 28.12.2019
1807 Fog -45 1036 56 600 1 160 15:46 28.12.2019
1808 Fog -45 1036 56 550 1 170 15:24 28.12.2019
1809 Fog -45 1036 56 600 1 170 14:59 28.12.2019
1810 Fog -45 1036 56 600 1 170 14:39 28.12.2019
1811 Fog -45 1036 56 350 2 160 14:20 28.12.2019
1812 Fog -45 1035 56 500 1 160 13:56 28.12.2019
1813 Fog -45 1035 56 300 1 150 13:37 28.12.2019
1814 Fog -45 1035 56 300 1 150 13:18 28.12.2019
1815 Fog -45 1035 56 400 1 190 12:42 28.12.2019
1816 Fog -46 1035 56 350 1 160 12:23 28.12.2019
1817 Fog -46 1034 56 400 2 150 11:56 28.12.2019
1818 Fog -46 1034 63 250 2 150 11:38 28.12.2019
1819 Fog -46 1034 63 250 2 150 11:18 28.12.2019
1820 Fog -46 1034 56 300 1 180 10:44 28.12.2019
1821 Fog -46 1034 56 350 1 160 10:22 28.12.2019
1822 Fog -46 1033 56 350 1 150 09:57 28.12.2019
1823 Fog -46 1033 56 350 1 150 09:39 28.12.2019
1824 Fog -45 1033 56 250 2 160 09:19 28.12.2019
1825 Fog -45 1033 56 550 2 170 08:44 28.12.2019
1826 Fog -45 1033 56 600 2 160 08:26 28.12.2019
1827 Fog -45 1033 56 450 1 150 07:49 28.12.2019
1828 Fog -45 1032 56 300 1 140 07:30 28.12.2019
1829 Fog -45 1032 63 300 1 140 06:27 28.12.2019
1830 Fog -45 1031 56 400 0.68 278 04:36 28.12.2019
1831 Fog -45 1031 56 350 0.68 278 03:39 28.12.2019
1832 Fog -46 1031 56 300 0.68 278 02:48 28.12.2019
1833 Fog -47 1031 55 300 1 110 01:59 28.12.2019
1834 Fog -46 1030 56 400 0.79 331 01:30 28.12.2019
1835 Fog -47 1030 55 250 0.84 326 00:55 28.12.2019
1836 Fog -47 1030 55 300 0.84 326 00:37 28.12.2019
1837 Fog -47 1030 55 300 0.84 326 00:19 28.12.2019
1838 Fog -47 1030 55 350 0.84 326 23:43 27.12.2019
1839 Fog -47 1030 49 450 0.7 1 23:19 27.12.2019
1840 Fog -47 1030 49 450 0.7 1 23:19 27.12.2019
1841 Fog -47 1030 49 500 0.7 1 22:57 27.12.2019
1842 Fog -47 1030 49 500 0.7 1 22:38 27.12.2019
1843 Fog -47 1029 55 600 0.7 1 22:20 27.12.2019
1844 Fog -47 1029 55 350 0.7 1 21:55 27.12.2019
1845 Fog -47 1029 55 300 0.7 1 21:36 27.12.2019
1846 Fog -47 1029 55 300 0.7 1 21:18 27.12.2019
1847 Fog -47 1029 55 350 2 310 20:41 27.12.2019
1848 Fog -47 1029 55 750 1 300 20:22 27.12.2019
1849 Fog -46 1029 56 600 1.08 31 19:42 27.12.2019
1850 Fog -46 1029 56 600 1.08 31 19:21 27.12.2019
1851 Fog -47 1029 55 550 1 300 18:59 27.12.2019
1852 Fog -47 1029 55 550 1 300 18:39 27.12.2019
1853 Fog -46 1028 56 450 1 310 18:20 27.12.2019
1854 Fog -46 1028 56 700 1 310 17:57 27.12.2019
1855 Fog -46 1028 56 350 1 310 17:39 27.12.2019
1856 Fog -46 1028 56 350 1 310 17:19 27.12.2019
1857 Fog -46 1028 56 550 1 300 16:58 27.12.2019
1858 Fog -46 1028 56 300 1 310 16:38 27.12.2019
1859 Fog -46 1028 56 300 1 310 16:19 27.12.2019
1860 Fog -46 1028 56 400 1 300 15:44 27.12.2019
1861 Fog -46 1028 56 400 1.13 33 15:22 27.12.2019
1862 Fog -46 1028 56 500 1 300 14:57 27.12.2019
1863 Fog -46 1028 56 500 1 300 14:39 27.12.2019
1864 Fog -46 1028 56 200 1 300 14:20 27.12.2019
1865 Fog -46 1028 56 200 1 300 14:20 27.12.2019
1866 Fog -46 1028 56 200 1 330 13:48 27.12.2019
1867 Fog -47 1028 55 450 1 340 13:25 27.12.2019
1868 Fog -47 1028 55 500 1 360 12:58 27.12.2019
1869 Fog -47 1028 55 500 1 360 12:40 27.12.2019
1870 Fog -46 1028 56 450 1 360 12:21 27.12.2019
1871 Fog -46 1028 56 550 1 330 11:45 27.12.2019
1872 Fog -46 1027 56 450 1 330 11:26 27.12.2019
1873 Fog -46 1027 56 600 1 350 10:58 27.12.2019
1874 Fog -46 1027 56 600 1 350 10:39 27.12.2019
1875 Fog -46 1027 56 750 2 360 10:21 27.12.2019
1876 Fog -46 1027 56 650 1 350 09:44 27.12.2019
1877 Fog -46 1027 56 450 1 340 09:22 27.12.2019
1878 Fog -47 1027 55 500 2 340 08:59 27.12.2019
1879 Fog -46 1027 56 500 1 340 08:36 27.12.2019
1880 Fog -46 1027 56 300 1 340 07:52 27.12.2019
1881 Fog -46 1027 56 450 1 340 07:33 27.12.2019
1882 Fog -46 1026 56 900 1 360 06:38 27.12.2019
1883 Fog -47 1027 55 550 2 360 05:38 27.12.2019
1884 Fog -47 1027 49 300 2 330 03:47 27.12.2019
1885 Fog -48 1027 55 350 1 360 02:23 27.12.2019
1886 Fog -48 1027 55 300 2 350 01:42 27.12.2019
1887 Fog -48 1027 55 300 1 350 01:20 27.12.2019
1888 Fog -48 1027 55 300 1 330 00:44 27.12.2019
1889 Fog -48 1026 55 400 1 330 00:24 27.12.2019
1890 Fog -48 1026 55 400 1 360 23:42 26.12.2019
1891 Fog -48 1026 55 400 1 360 23:23 26.12.2019
1892 Fog -48 1026 55 450 1 340 22:57 26.12.2019
1893 Fog -48 1026 55 450 2 340 22:37 26.12.2019
1894 Fog -48 1026 55 450 2 340 22:18 26.12.2019
1895 Fog -48 1026 55 400 2 350 21:39 26.12.2019
1896 Fog -48 1026 55 500 2 350 21:21 26.12.2019
1897 Fog -48 1026 55 500 1 350 20:47 26.12.2019
1898 Fog -48 1026 55 600 2 360 20:24 26.12.2019
1899 Fog -48 1026 55 400 2 350 19:59 26.12.2019
1900 Fog -48 1026 55 400 2 350 19:40 26.12.2019
1901 Fog -48 1026 55 400 1 350 19:22 26.12.2019
1902 Fog -48 1026 55 250 1 350 18:59 26.12.2019
1903 Fog -48 1026 55 250 1 350 18:40 26.12.2019
1904 Fog -48 1025 55 300 1 330 18:20 26.12.2019
1905 Fog -48 1026 55 250 1 340 17:58 26.12.2019
1906 Fog -48 1026 55 250 1 340 17:40 26.12.2019
1907 Fog -48 1026 55 250 1 330 17:19 26.12.2019
1908 Fog -48 1026 55 250 1 320 16:46 26.12.2019
1909 Fog -48 1026 55 200 1 340 16:26 26.12.2019
1910 Fog -48 1026 55 150 1 340 15:56 26.12.2019
1911 Fog -48 1026 55 150 1 340 15:38 26.12.2019
1912 Fog -48 1026 55 150 1 340 15:18 26.12.2019
1913 Fog -48 1026 55 150 1 340 15:18 26.12.2019
1914 Fog -48 1026 55 400 1 10 14:41 26.12.2019
1915 Fog -48 1026 55 600 1 20 14:23 26.12.2019
1916 Fog -48 1026 55 600 1 30 13:45 26.12.2019
1917 Fog -48 1026 55 450 1 20 13:24 26.12.2019
1918 Fog -48 1026 55 450 1 10 12:59 26.12.2019
1919 Fog -48 1026 55 450 1 10 12:41 26.12.2019
1920 Fog -47 1025 49 300 1 350 12:23 26.12.2019
1921 Fog -47 1025 49 300 1 350 11:58 26.12.2019
1922 Fog -47 1025 49 300 1 350 11:58 26.12.2019
1923 Fog -47 1025 49 300 1 350 11:40 26.12.2019
1924 Fog -47 1025 55 300 1 330 11:21 26.12.2019
1925 Fog -47 1025 55 350 1 360 10:50 26.12.2019
1926 Fog -47 1025 55 300 1 350 10:25 26.12.2019
1927 Fog -47 1025 55 250 1 350 09:54 26.12.2019
1928 Fog -47 1025 55 300 1 340 09:33 26.12.2019
1929 Fog -47 1025 49 200 1 320 08:58 26.12.2019
1930 Fog -47 1025 49 200 1 320 08:39 26.12.2019
1931 Fog -48 1025 55 200 1 320 08:20 26.12.2019
1932 Fog -48 1025 55 250 1 340 07:35 26.12.2019
1933 Fog -48 1025 55 600 1 10 06:57 26.12.2019
1934 Fog -48 1025 55 450 2 30 06:37 26.12.2019
1935 Fog -48 1025 55 450 2 30 06:19 26.12.2019
1936 Fog -47 1025 55 350 1.46 50 05:40 26.12.2019
1937 Fog -48 1025 55 350 1.41 33 04:32 26.12.2019
1938 Fog -48 1025 55 300 1.41 33 03:31 26.12.2019
1939 Fog -48 1025 55 100 1.41 33 02:46 26.12.2019
1940 Fog -48 1025 49 500 1 350 02:25 26.12.2019
1941 Fog -48 1025 49 500 1 350 02:25 26.12.2019
1942 Fog -49 1025 55 500 1 10 01:44 26.12.2019
1943 Fog -48 1026 55 200 1 30 01:24 26.12.2019
1944 Fog -48 1025 55 200 1.22 16 00:43 26.12.2019
1945 Fog -48 1025 49 200 1.22 16 00:22 26.12.2019
1946 Fog -48 1025 55 400 1 320 23:57 25.12.2019
1947 Fog -48 1025 49 200 1 320 23:36 25.12.2019
1948 Fog -48 1025 49 200 1 320 23:18 25.12.2019
1949 Fog -48 1025 49 150 1 310 22:55 25.12.2019
1950 Fog -49 1025 55 150 1 350 22:37 25.12.2019
1951 Fog -49 1025 55 150 1 350 22:37 25.12.2019
1952 Fog -49 1025 55 150 1 350 22:18 25.12.2019
1953 Fog -49 1025 55 150 0.97 30 21:55 25.12.2019
1954 Fog -49 1025 55 150 0.97 30 21:37 25.12.2019
1955 Fog -49 1025 55 150 0.97 30 21:18 25.12.2019
1956 Fog -49 1025 55 300 1 340 20:40 25.12.2019
1957 Fog -49 1025 55 350 1 320 20:20 25.12.2019
1958 Fog -49 1025 55 150 1 310 19:59 25.12.2019
1959 Fog -49 1025 55 150 1 310 19:40 25.12.2019
1960 Fog -49 1025 55 350 1 350 19:21 25.12.2019
1961 Fog -49 1025 55 300 1 10 18:40 25.12.2019
1962 Fog -49 1025 55 400 0.95 30 18:21 25.12.2019
1963 Fog -49 1025 55 400 0.95 30 18:21 25.12.2019
1964 Fog -48 1025 49 300 1 300 17:57 25.12.2019
1965 Fog -48 1025 49 300 1 300 17:39 25.12.2019
1966 Fog -48 1025 49 200 1.07 31 17:18 25.12.2019
1967 Fog -49 1026 55 300 1 350 16:39 25.12.2019
1968 Fog -48 1026 55 450 1.07 31 16:20 25.12.2019
1969 Fog -48 1026 55 200 1 340 15:59 25.12.2019
1970 Fog -48 1026 55 200 1 340 15:40 25.12.2019
1971 Fog -48 1026 55 200 1 350 15:22 25.12.2019
1972 Fog -48 1026 55 250 1.07 31 14:59 25.12.2019
1973 Fog -48 1026 55 250 1.07 31 14:41 25.12.2019
1974 Fog -48 1026 55 100 1 350 14:23 25.12.2019
1975 Fog -49 1026 55 150 2 10 13:58 25.12.2019
1976 Fog -49 1026 55 150 2 10 13:39 25.12.2019
1977 Fog -48 1026 49 200 1 360 13:19 25.12.2019
1978 Fog -48 1026 55 300 1 340 12:43 25.12.2019
1979 Fog -48 1026 55 300 1.18 9 12:21 25.12.2019
1980 Fog -47 1026 55 450 1 310 11:57 25.12.2019
1981 Fog -47 1026 55 450 1 310 11:39 25.12.2019
1982 Fog -47 1026 49 450 1 350 11:20 25.12.2019
1983 Fog -47 1026 55 500 2 340 10:39 25.12.2019
1984 Fog -47 1026 55 500 2 340 10:39 25.12.2019
1985 Fog -47 1026 55 550 2 330 10:21 25.12.2019
1986 Fog -47 1026 55 500 2 350 09:51 25.12.2019
1987 Fog -47 1026 55 650 2 360 09:33 25.12.2019
1988 Fog -47 1027 55 700 2 340 08:56 25.12.2019
1989 Fog -47 1027 55 650 2 340 08:38 25.12.2019
1990 Fog -47 1027 55 650 2 340 08:19 25.12.2019
1991 Fog -47 1027 55 600 2 350 07:40 25.12.2019
1992 Mist -47 1027 55 1000 3 360 07:21 25.12.2019
1993 Fog -47 1026 55 700 2 350 06:24 25.12.2019
1994 Fog -46 1027 56 800 2 350 05:44 25.12.2019
1995 Mist -46 1027 56 1000 3 350 04:42 25.12.2019
1996 Mist -46 1027 56 1000 2 350 04:24 25.12.2019
1997 Mist -47 1027 55 1000 2 360 03:43 25.12.2019
1998 Mist -47 1027 55 1000 2 350 02:58 25.12.2019
1999 Fog -46 1027 56 800 2 340 02:29 25.12.2019
2000 Mist -46 1027 56 1000 2 350 01:43 25.12.2019
2001 Mist -46 1027 56 1000 2 10 01:18 25.12.2019
2002 Mist -46 1027 56 1000 2 360 00:41 25.12.2019
2003 Mist -46 1027 56 1000 3 360 00:23 25.12.2019
2004 Mist -46 1027 56 1000 3 360 00:23 25.12.2019
2005 Mist -45 1027 56 1000 2 360 23:39 24.12.2019
2006 Mist -45 1026 56 1000 2 350 23:20 24.12.2019
2007 Mist -45 1026 56 1200 2 350 22:42 24.12.2019
2008 Mist -45 1026 63 1500 2 350 22:24 24.12.2019
2009 Mist -44 1026 57 1500 2 360 21:59 24.12.2019
2010 Mist -44 1026 57 3200 2 10 21:41 24.12.2019
2011 Mist -44 1026 57 3200 2 10 21:20 24.12.2019
2012 Mist -43 1026 57 5000 2 20 20:42 24.12.2019
2013 Clouds -43 1026 64 10000 3 20 20:23 24.12.2019
2014 Clouds -43 1026 64 10000 4 10 19:55 24.12.2019
2015 Snow -42 1026 57 10000 3 10 19:37 24.12.2019
2016 Snow -42 1026 57 10000 3 10 19:18 24.12.2019
2017 Snow -42 1026 57 10000 3 10 19:18 24.12.2019
2018 Snow -42 1026 64 10000 3 20 18:42 24.12.2019
2019 Snow -41 1026 57 10000 3 10 18:19 24.12.2019
2020 Snow -41 1026 64 2400 4 30 17:44 24.12.2019
2021 Snow -40 1026 65 1500 2 360 17:22 24.12.2019
2022 Snow -40 1026 65 1500 2 360 17:22 24.12.2019
2023 Snow -40 1026 65 1500 2 350 16:58 24.12.2019
2024 Snow -40 1026 65 1500 2 350 16:40 24.12.2019
2025 Snow -40 1026 58 1500 2 360 16:21 24.12.2019
2026 Snow -41 1026 64 10000 2 10 15:58 24.12.2019
2027 Snow -40 1026 58 10000 2 20 15:37 24.12.2019
2028 Snow -40 1026 58 10000 2 20 15:19 24.12.2019
2029 Snow -39 1025 58 10000 2 20 14:58 24.12.2019
2030 Snow -39 1025 58 10000 2 20 14:40 24.12.2019
2031 Snow -39 1025 58 10000 2 20 14:40 24.12.2019
2032 Snow -39 1025 58 10000 2 20 14:21 24.12.2019
2033 Snow -39 1025 58 10000 2 30 13:56 24.12.2019
2034 Snow -39 1025 58 10000 2 30 13:38 24.12.2019
2035 Snow -39 1025 65 10000 2 30 13:20 24.12.2019
2036 Snow -39 1025 65 5000 2 30 12:56 24.12.2019
2037 Snow -39 1025 65 5000 2 30 12:56 24.12.2019
2038 Snow -39 1025 65 5000 2 30 12:38 24.12.2019
2039 Snow -39 1025 65 5000 2 30 12:19 24.12.2019
2040 Snow -39 1025 65 5000 2 30 12:19 24.12.2019
2041 Snow -39 1025 65 10000 2 20 11:56 24.12.2019
2042 Snow -39 1025 65 10000 3 10 11:37 24.12.2019
2043 Snow -39 1025 65 10000 3 10 11:19 24.12.2019
2044 Snow -39 1025 65 10000 3 20 10:56 24.12.2019
2045 Snow -39 1025 65 10000 3 20 10:56 24.12.2019
2046 Snow -39 1025 65 10000 3 30 10:38 24.12.2019
2047 Snow -39 1025 65 10000 3 30 10:38 24.12.2019
2048 Snow -39 1025 65 10000 3 30 10:19 24.12.2019
2049 Snow -39 1024 65 10000 3 20 09:55 24.12.2019
2050 Snow -38 1024 58 10000 3 20 09:37 24.12.2019
2051 Snow -38 1024 58 10000 3 20 09:19 24.12.2019
2052 Snow -38 1024 58 10000 3 20 08:46 24.12.2019
2053 Clouds -38 1024 58 10000 3 30 08:24 24.12.2019
2054 Snow -38 1024 58 10000 3 30 07:46 24.12.2019
2055 Snow -39 1024 65 10000 3 20 07:28 24.12.2019
2056 Snow -39 1023 65 10000 3 20 06:59 24.12.2019
2057 Snow -39 1023 65 10000 3 20 06:39 24.12.2019
2058 Snow -38 1023 58 10000 2 30 06:19 24.12.2019
2059 Snow -38 1023 65 10000 3 30 05:49 24.12.2019
2060 Snow -37 1023 59 10000 2 20 05:18 24.12.2019
2061 Snow -37 1023 59 10000 3 30 03:55 24.12.2019
2062 Snow -38 1023 65 5000 3 20 03:33 24.12.2019
2063 Snow -37 1023 65 5000 3 20 02:28 24.12.2019
2064 Snow -37 1023 65 5000 3 30 01:53 24.12.2019
2065 Snow -37 1023 65 5000 3 30 01:23 24.12.2019
2066 Snow -37 1022 65 5000 3 20 00:55 24.12.2019
2067 Snow -36 1022 66 5000 2 20 00:37 24.12.2019
2068 Snow -36 1022 66 5000 2 20 00:19 24.12.2019
2069 Snow -36 1022 66 5000 2 40 23:41 23.12.2019
2070 Snow -36 1022 73 5000 2 30 23:23 23.12.2019
2071 Snow -35 1022 66 5000 2 20 22:56 23.12.2019
2072 Snow -34 1022 66 3200 2 320 22:37 23.12.2019
2073 Snow -34 1022 66 3200 2 320 22:19 23.12.2019
2074 Snow -34 1022 66 5000 2 290 21:55 23.12.2019
2075 Snow -34 1022 66 5000 1 300 21:36 23.12.2019
2076 Snow -34 1022 66 5000 1 300 21:36 23.12.2019
2077 Snow -34 1022 66 5000 1 300 21:18 23.12.2019
2078 Snow -34 1022 66 5000 1 300 21:18 23.12.2019
2079 Snow -34 1022 66 3200 1 300 20:57 23.12.2019
2080 Snow -34 1022 66 3200 1 300 20:39 23.12.2019
2081 Snow -34 1022 66 5000 1 250 20:18 23.12.2019
2082 Snow -34 1022 66 5000 2 240 19:56 23.12.2019
2083 Snow -34 1022 66 5000 2 220 19:38 23.12.2019
2084 Snow -34 1022 66 5000 2 220 19:19 23.12.2019
2085 Snow -35 1022 73 5000 1 220 18:58 23.12.2019
2086 Snow -36 1022 73 5000 1 230 18:39 23.12.2019
2087 Snow -36 1022 73 5000 1 230 18:20 23.12.2019
2088 Mist -38 1022 65 1500 1 220 17:57 23.12.2019
2089 Fog -39 1022 65 450 1.38 245 17:39 23.12.2019
2090 Fog -39 1022 65 450 1.36 235 17:19 23.12.2019
2091 Fog -39 1022 65 400 1.36 235 16:55 23.12.2019
2092 Fog -39 1022 58 350 1.36 235 16:37 23.12.2019
2093 Fog -39 1022 58 350 1.36 235 16:18 23.12.2019
2094 Fog -40 1022 65 300 1.36 235 15:55 23.12.2019
2095 Fog -40 1022 65 250 1.36 235 15:36 23.12.2019
2096 Fog -40 1022 65 250 1.36 235 15:18 23.12.2019
2097 Fog -40 1022 65 300 1.36 235 14:55 23.12.2019
2098 Fog -41 1022 64 250 1.36 235 14:36 23.12.2019
2099 Fog -41 1022 64 250 1.31 261 14:18 23.12.2019
2100 Fog -41 1022 57 200 1.31 261 13:55 23.12.2019
2101 Fog -42 1022 64 250 1.31 261 13:37 23.12.2019
2102 Fog -42 1022 64 250 1.26 259 13:19 23.12.2019
2103 Fog -41 1022 57 200 1.26 259 12:41 23.12.2019
2104 Fog -41 1022 57 200 1.26 259 12:21 23.12.2019
2105 Fog -42 1022 64 150 1.26 259 11:59 23.12.2019
2106 Fog -42 1022 64 150 1.26 259 11:41 23.12.2019
2107 Fog -42 1022 64 150 1.64 276 11:22 23.12.2019
2108 Fog -41 1022 57 150 1.64 276 10:55 23.12.2019
2109 Fog -41 1022 64 100 1 260 10:37 23.12.2019
2110 Fog -41 1022 64 100 1 260 10:37 23.12.2019
2111 Fog -41 1022 64 100 1 260 10:18 23.12.2019
2112 Fog -41 1022 64 250 1.64 276 09:56 23.12.2019
2113 Fog -41 1022 64 250 1.64 276 09:37 23.12.2019
2114 Fog -41 1022 64 250 1.64 276 09:19 23.12.2019
2115 Fog -41 1022 57 300 1.64 276 08:41 23.12.2019
2116 Fog -41 1022 57 300 1.15 278 08:22 23.12.2019
2117 Fog -41 1022 64 250 1.15 278 07:56 23.12.2019
2118 Fog -41 1022 64 250 1.15 278 07:38 23.12.2019
2119 Fog -41 1022 64 250 1.15 278 07:18 23.12.2019
2120 Fog -41 1022 64 250 1.15 278 06:39 23.12.2019
2121 Fog -41 1022 64 300 1.15 278 06:21 23.12.2019
2122 Fog -41 1021 64 300 1.15 278 05:44 23.12.2019
2123 Fog -41 1022 57 250 1.63 281 04:44 23.12.2019
2124 Fog -41 1022 57 200 1.63 281 03:58 23.12.2019
2125 Fog -42 1022 57 150 1.63 281 02:47 23.12.2019
2126 Fog -42 1022 57 150 1.39 277 02:20 23.12.2019
2127 Fog -42 1021 57 150 1.39 277 01:50 23.12.2019
2128 Fog -42 1021 57 200 1.39 277 01:31 23.12.2019
2129 Fog -42 1021 57 300 1.36 273 00:48 23.12.2019
2130 Fog -43 1021 64 400 1.36 273 00:27 23.12.2019
2131 Fog -42 1021 57 400 1.36 273 23:57 22.12.2019
2132 Fog -42 1021 57 400 1.36 273 23:57 22.12.2019
2133 Fog -42 1020 64 400 1.36 273 23:37 22.12.2019
2134 Fog -42 1020 64 400 1.12 273 23:19 22.12.2019
2135 Fog -41 1020 57 500 1 290 22:56 22.12.2019
2136 Fog -41 1020 57 900 1 280 22:38 22.12.2019
2137 Fog -41 1020 57 900 1 280 22:19 22.12.2019
2138 Fog -41 1020 57 900 1.12 273 21:56 22.12.2019
2139 Fog -41 1020 57 500 1.12 273 21:38 22.12.2019
2140 Fog -41 1020 57 500 1.12 273 21:20 22.12.2019
2141 Fog -41 1020 57 900 1.12 273 20:41 22.12.2019
2142 Fog -41 1020 64 450 1.01 282 20:19 22.12.2019
2143 Fog -41 1020 64 450 0.66 309 19:58 22.12.2019
2144 Fog -41 1020 64 450 0.66 309 19:39 22.12.2019
2145 Fog -41 1020 57 450 0.66 309 19:20 22.12.2019
2146 Fog -41 1020 57 400 0.66 309 18:55 22.12.2019
2147 Fog -41 1019 57 450 1 280 18:37 22.12.2019
2148 Fog -41 1019 57 450 1 280 18:18 22.12.2019
2149 Fog -41 1020 64 450 0.66 309 17:54 22.12.2019
2150 Mist -41 1020 64 1100 1 300 17:36 22.12.2019
2151 Mist -41 1020 64 1100 1 300 17:18 22.12.2019
2152 Mist -41 1020 64 1800 1 340 16:42 22.12.2019
2153 Mist -41 1020 64 1800 0.41 9 16:23 22.12.2019
2154 Fog -41 1019 64 900 0.41 9 15:57 22.12.2019
2155 Fog -41 1019 64 900 0.41 9 15:39 22.12.2019
2156 Fog -41 1019 64 650 1 20 15:21 22.12.2019
2157 Clouds -40 1019 58 10000 0.41 9 14:57 22.12.2019
2158 Clouds -40 1019 58 10000 0.41 9 14:38 22.12.2019
2159 Clouds -40 1019 58 10000 1 20 14:19 22.12.2019
2160 Clouds -40 1019 58 10000 1 350 13:56 22.12.2019
2161 Clouds -40 1019 65 10000 1 10 13:38 22.12.2019
2162 Clouds -40 1019 65 10000 1 10 13:19 22.12.2019
2163 Mist -39 1019 58 2100 1 20 12:57 22.12.2019
2164 Mist -38 1019 58 2100 1 10 12:38 22.12.2019
2165 Mist -38 1019 58 2100 1 10 12:19 22.12.2019
2166 Mist -38 1019 58 5000 1 10 11:56 22.12.2019
2167 Snow -38 1019 65 5000 1 10 11:38 22.12.2019
2168 Snow -38 1019 65 5000 1 10 11:19 22.12.2019
2169 Snow -37 1019 65 5000 0.69 340 10:56 22.12.2019
2170 Snow -37 1019 65 5000 0.69 340 10:38 22.12.2019
2171 Snow -37 1018 65 3200 1 40 10:19 22.12.2019
2172 Mist -37 1018 65 2400 0.69 340 09:57 22.12.2019
2173 Mist -37 1018 65 2400 0.69 340 09:39 22.12.2019
2174 Mist -37 1018 65 2400 0.69 340 09:20 22.12.2019
2175 Mist -38 1018 65 2400 0.69 340 08:42 22.12.2019
2176 Mist -38 1018 65 2400 1 360 08:22 22.12.2019
2177 Snow -38 1018 65 3200 1 20 07:44 22.12.2019
2178 Snow -38 1018 65 3200 0.86 7 07:21 22.12.2019
2179 Snow -38 1018 65 1200 0.86 7 06:53 22.12.2019
2180 Fog -38 1018 65 900 1 60 06:26 22.12.2019
2181 Fog -38 1018 65 800 1 20 05:33 22.12.2019
2182 Mist -39 1018 65 1000 0.66 31 04:55 22.12.2019
2183 Mist -39 1018 65 1500 0.66 31 04:25 22.12.2019
2184 Snow -39 1018 65 1000 0.66 31 02:46 22.12.2019
2185 Snow -39 1018 65 1000 0.66 31 02:46 22.12.2019
2186 Snow -39 1018 65 2100 0.7 53 02:21 22.12.2019
2187 Snow -39 1018 58 3200 0.7 53 01:31 22.12.2019
2188 Snow -39 1017 58 3200 1 40 00:56 22.12.2019
2189 Snow -39 1017 65 2100 0.72 53 00:36 22.12.2019
2190 Snow -39 1017 65 2100 0.72 53 00:18 22.12.2019
2191 Snow -39 1017 65 2100 0.72 53 23:40 21.12.2019
2192 Snow -39 1017 58 2100 1 350 23:21 21.12.2019
2193 Snow -39 1017 58 2100 1 350 22:56 21.12.2019
2194 Snow -39 1017 58 2100 0.75 49 22:37 21.12.2019
2195 Snow -39 1017 58 2100 0.75 49 22:18 21.12.2019
2196 Snow -40 1017 65 2100 1 10 21:54 21.12.2019
2197 Snow -40 1017 65 2100 1 30 21:36 21.12.2019
2198 Snow -40 1017 65 2100 1 30 21:18 21.12.2019
2199 Snow -40 1017 65 2100 1 360 20:55 21.12.2019
2200 Snow -40 1017 65 2100 1 350 20:37 21.12.2019
2201 Snow -40 1017 65 2100 1 350 20:18 21.12.2019
2202 Snow -40 1017 58 2100 1 330 19:55 21.12.2019
2203 Snow -40 1017 58 2100 1 350 19:36 21.12.2019
2204 Snow -40 1017 58 2100 1 350 19:18 21.12.2019
2205 Snow -40 1017 58 2100 1 360 18:40 21.12.2019
2206 Snow -40 1017 58 2100 1 10 18:22 21.12.2019
2207 Snow -40 1017 58 2100 1 350 17:55 21.12.2019
2208 Snow -41 1017 64 2100 1 350 17:37 21.12.2019
2209 Snow -41 1017 64 2100 1 350 17:18 21.12.2019
2210 Snow -41 1017 64 2100 1 360 16:54 21.12.2019
2211 Mist -41 1017 64 2100 1 360 16:36 21.12.2019
2212 Mist -41 1017 64 2100 1 360 16:36 21.12.2019
2213 Mist -41 1017 64 2100 1 360 16:18 21.12.2019
2214 Mist -41 1017 64 2100 1 350 15:55 21.12.2019
2215 Mist -41 1017 64 2100 1 340 15:36 21.12.2019
2216 Mist -41 1017 64 2100 1 340 15:18 21.12.2019
2217 Mist -41 1017 57 2100 1 360 14:41 21.12.2019
2218 Snow -41 1017 57 2100 1 360 14:22 21.12.2019
2219 Snow -41 1017 57 2100 1 330 13:58 21.12.2019
2220 Snow -41 1017 57 2100 1 330 13:39 21.12.2019
2221 Snow -41 1017 57 2100 1 350 13:19 21.12.2019
2222 Snow -41 1017 57 2100 2 350 12:56 21.12.2019
2223 Snow -41 1017 64 2100 1 350 12:38 21.12.2019
2224 Snow -41 1017 64 2100 1 350 12:19 21.12.2019
2225 Snow -41 1016 64 2100 1 350 11:46 21.12.2019
2226 Snow -41 1016 64 3200 1 360 11:27 21.12.2019
2227 Snow -41 1016 64 3200 1 360 10:58 21.12.2019
2228 Snow -41 1016 64 3200 1 360 10:39 21.12.2019
2229 Snow -40 1016 58 3200 1 360 10:21 21.12.2019
2230 Snow -40 1016 58 3200 1 20 09:57 21.12.2019
2231 Snow -40 1016 58 3200 1 20 09:39 21.12.2019
2232 Snow -40 1016 65 2400 1 20 09:19 21.12.2019
2233 Snow -40 1016 65 2100 1 10 08:47 21.12.2019
2234 Mist -40 1016 65 2000 1 360 08:26 21.12.2019
2235 Mist -40 1016 65 1500 1 10 07:47 21.12.2019
2236 Mist -40 1016 65 1000 0.3 3 07:23 21.12.2019
2237 Mist -40 1016 58 1300 0.3 3 06:49 21.12.2019
2238 Mist -40 1015 58 1200 0.3 3 06:31 21.12.2019
2239 Fog -41 1015 64 550 1 40 05:59 21.12.2019
2240 Fog -41 1015 64 750 1.05 273 04:59 21.12.2019
2241 Fog -41 1015 64 550 1.05 273 04:34 21.12.2019
2242 Fog -41 1015 64 500 1 330 03:56 21.12.2019
2243 Fog -40 1015 58 1000 1.05 273 02:25 21.12.2019
2244 Mist -40 1016 65 1500 1 350 01:43 21.12.2019
2245 Mist -39 1015 65 1500 1 20 01:24 21.12.2019
2246 Mist -39 1015 65 1500 1 20 00:40 21.12.2019
2247 Mist -39 1015 65 1500 1.62 248 00:21 21.12.2019
2248 Mist -39 1015 65 1500 1 360 23:39 20.12.2019
2249 Fog -38 1015 65 900 1 350 23:20 20.12.2019
2250 Mist -38 1015 65 3200 1 10 22:57 20.12.2019
2251 Mist -38 1015 65 3200 1 10 22:38 20.12.2019
2252 Mist -37 1015 65 3200 1 20 22:18 20.12.2019
2253 Mist -36 1015 66 3200 1.5 251 21:41 20.12.2019
2254 Mist -36 1015 66 3200 1.5 251 21:21 20.12.2019
2255 Mist -36 1015 66 1100 1.5 251 20:59 20.12.2019
2256 Mist -36 1015 66 1100 1.5 251 20:38 20.12.2019
2257 Fog -37 1015 65 900 1.71 244 20:19 20.12.2019
2258 Fog -37 1015 65 500 1.71 244 19:56 20.12.2019
2259 Fog -38 1015 65 350 1.71 244 19:38 20.12.2019
2260 Fog -38 1015 65 350 1.71 244 19:18 20.12.2019
2261 Fog -38 1015 65 250 1.71 244 18:41 20.12.2019
2262 Fog -39 1015 65 200 1.71 244 18:22 20.12.2019
2263 Fog -40 1015 65 250 1.71 244 17:57 20.12.2019
2264 Fog -40 1015 65 250 1.71 244 17:39 20.12.2019
2265 Fog -40 1015 65 250 1.71 244 17:39 20.12.2019
2266 Fog -40 1015 65 250 1.8 245 17:20 20.12.2019
2267 Fog -41 1015 64 350 1.8 245 16:56 20.12.2019
2268 Fog -41 1015 64 250 1.8 245 16:38 20.12.2019
2269 Fog -41 1015 64 250 1.8 245 16:38 20.12.2019
2270 Fog -41 1015 64 250 1.8 245 16:19 20.12.2019
2271 Fog -42 1015 64 200 1.8 245 15:54 20.12.2019
2272 Fog -42 1015 57 200 1.8 245 15:36 20.12.2019
2273 Fog -42 1015 57 200 1.8 245 15:18 20.12.2019
2274 Fog -43 1015 64 150 1.8 245 14:42 20.12.2019
2275 Fog -43 1015 64 150 1.8 245 14:24 20.12.2019
2276 Fog -43 1015 64 150 1.99 255 13:57 20.12.2019
2277 Fog -42 1014 57 150 1.99 255 13:37 20.12.2019
2278 Fog -42 1014 57 150 1.94 250 13:18 20.12.2019
2279 Fog -42 1014 57 150 1.94 250 13:18 20.12.2019
2280 Fog -42 1014 57 100 1.94 250 12:55 20.12.2019
2281 Fog -42 1014 57 200 1.94 250 12:36 20.12.2019
2282 Fog -42 1014 57 200 1.94 250 12:18 20.12.2019
2283 Fog -42 1014 64 200 1 210 11:57 20.12.2019
2284 Fog -42 1014 64 150 1 220 11:38 20.12.2019
2285 Fog -42 1014 64 150 1 220 11:18 20.12.2019
2286 Fog -42 1014 57 200 1 220 10:55 20.12.2019
2287 Fog -42 1014 57 200 1 230 10:37 20.12.2019
2288 Fog -42 1014 57 200 1 230 10:19 20.12.2019
2289 Fog -43 1014 64 300 1.49 260 09:42 20.12.2019
2290 Fog -43 1014 64 300 1.49 260 09:21 20.12.2019
2291 Fog -43 1014 64 450 1.49 260 08:55 20.12.2019
2292 Fog -43 1014 64 450 1.49 260 08:37 20.12.2019
2293 Fog -43 1014 64 450 2.05 279 08:19 20.12.2019
2294 Fog -43 1014 57 550 1 170 07:55 20.12.2019
2295 Fog -43 1014 57 650 1 190 07:36 20.12.2019
2296 Fog -43 1014 57 650 1 190 07:18 20.12.2019
2297 Fog -43 1014 57 300 1.96 275 06:43 20.12.2019
2298 Fog -43 1014 57 300 1.96 275 06:25 20.12.2019
2299 Fog -43 1014 57 100 1.96 275 05:47 20.12.2019
2300 Fog -43 1013 57 150 2.14 277 04:57 20.12.2019
2301 Fog -43 1013 57 150 2.14 277 03:48 20.12.2019
2302 Fog -43 1013 57 250 1 350 02:46 20.12.2019
2303 Fog -43 1013 64 400 1.93 283 01:59 20.12.2019
2304 Fog -42 1013 64 450 1 340 01:35 20.12.2019
2305 Fog -41 1013 57 450 1 340 00:54 20.12.2019
2306 Fog -41 1013 64 700 1 350 00:35 20.12.2019
2307 Mist -39 1013 58 1600 1 30 23:58 19.12.2019
2308 Fog -39 1012 65 900 1.93 281 23:39 19.12.2019
2309 Fog -39 1012 65 900 2.02 288 23:19 19.12.2019
2310 Fog -39 1012 65 650 2.02 288 22:40 19.12.2019
2311 Fog -39 1012 65 650 2.02 288 22:22 19.12.2019
2312 Fog -39 1012 65 650 2.02 288 21:57 19.12.2019
2313 Fog -39 1012 65 650 2.02 288 21:57 19.12.2019
2314 Fog -39 1013 58 550 2.02 288 21:38 19.12.2019
2315 Fog -39 1013 58 550 2.02 288 21:19 19.12.2019
2316 Fog -40 1013 65 500 2.02 288 20:57 19.12.2019
2317 Fog -40 1013 65 500 2.02 288 20:37 19.12.2019
2318 Fog -40 1013 65 500 2.19 291 20:19 19.12.2019
2319 Fog -40 1013 65 450 1.81 290 19:58 19.12.2019
2320 Fog -40 1013 65 450 1.81 290 19:58 19.12.2019
2321 Fog -41 1013 64 400 1.81 290 19:39 19.12.2019
2322 Fog -41 1013 64 400 1.81 290 19:19 19.12.2019
2323 Fog -41 1013 64 400 1.81 290 19:19 19.12.2019
2324 Fog -41 1013 64 400 1.81 290 19:19 19.12.2019
2325 Fog -41 1013 64 400 1.81 290 19:19 19.12.2019
2326 Fog -41 1013 57 400 1.81 290 18:57 19.12.2019
2327 Fog -42 1013 64 400 1.81 290 18:39 19.12.2019
2328 Fog -42 1013 64 400 1.81 290 18:19 19.12.2019
2329 Fog -43 1013 64 250 1 150 17:55 19.12.2019
2330 Fog -43 1014 57 300 1.81 290 17:37 19.12.2019
2331 Fog -43 1014 57 300 2.29 288 17:18 19.12.2019
2332 Fog -43 1014 57 250 1 150 16:55 19.12.2019
2333 Fog -43 1014 57 250 1 150 16:55 19.12.2019
2334 Fog -43 1014 57 300 1 170 16:37 19.12.2019
2335 Fog -43 1014 57 300 1 170 16:19 19.12.2019
2336 Fog -43 1014 57 350 1 180 15:55 19.12.2019
2337 Fog -43 1015 64 250 1 150 15:37 19.12.2019
2338 Fog -43 1015 64 250 1 150 15:18 19.12.2019
2339 Fog -44 1015 63 200 1 120 14:42 19.12.2019
2340 Fog -44 1015 63 200 1 120 14:20 19.12.2019
2341 Fog -44 1015 63 200 2.01 288 13:59 19.12.2019
2342 Fog -44 1015 63 200 1 150 13:38 19.12.2019
2343 Fog -44 1015 63 200 1 150 13:19 19.12.2019
2344 Fog -44 1015 63 250 1 140 12:57 19.12.2019
2345 Fog -43 1016 57 200 1 150 12:39 19.12.2019
2346 Fog -43 1016 57 200 1 150 12:19 19.12.2019
2347 Fog -43 1016 57 200 1 150 12:19 19.12.2019
2348 Fog -43 1016 57 200 1 140 11:58 19.12.2019
2349 Fog -43 1016 57 200 1 170 11:40 19.12.2019
2350 Fog -43 1016 57 200 1 170 11:18 19.12.2019
2351 Fog -43 1016 57 350 1 160 10:58 19.12.2019
2352 Fog -43 1016 57 400 1 160 10:38 19.12.2019
2353 Fog -43 1016 57 400 1 160 10:20 19.12.2019
2354 Fog -43 1016 57 400 1 170 09:54 19.12.2019
2355 Fog -43 1016 64 300 1 150 09:36 19.12.2019
2356 Fog -43 1016 64 300 1 150 09:18 19.12.2019
2357 Fog -42 1016 64 200 1 170 08:41 19.12.2019
2358 Fog -42 1016 64 200 1 170 08:20 19.12.2019
2359 Fog -42 1016 64 250 1 170 07:59 19.12.2019
2360 Fog -42 1017 64 250 1 160 07:38 19.12.2019
2361 Fog -42 1017 64 250 1 160 07:20 19.12.2019
2362 Fog -42 1017 57 300 1 160 06:50 19.12.2019
2363 Fog -42 1017 57 450 1 140 06:32 19.12.2019
2364 Fog -42 1017 57 350 1 150 05:57 19.12.2019
2365 Fog -42 1017 57 400 1 140 05:39 19.12.2019
2366 Fog -42 1017 57 300 1 130 04:56 19.12.2019
2367 Fog -43 1017 57 250 0.72 280 03:45 19.12.2019
2368 Fog -44 1018 57 250 0.72 280 02:24 19.12.2019
2369 Fog -45 1018 56 250 0.44 257 01:23 19.12.2019
2370 Fog -46 1018 56 200 0.44 257 00:44 19.12.2019
2371 Fog -46 1018 56 200 0.44 257 00:24 19.12.2019
2372 Fog -46 1018 63 250 0.44 257 23:58 18.12.2019
2373 Fog -46 1019 56 350 0.44 257 23:38 18.12.2019
2374 Fog -46 1019 56 350 0.37 275 23:19 18.12.2019
2375 Fog -45 1018 56 400 0.37 275 22:56 18.12.2019
2376 Fog -46 1019 56 350 0.37 275 22:37 18.12.2019
2377 Fog -46 1019 56 350 0.37 275 22:19 18.12.2019
2378 Fog -46 1019 56 400 0.37 275 21:57 18.12.2019
2379 Fog -47 1019 63 400 0.37 275 21:39 18.12.2019
2380 Fog -47 1019 63 400 0.37 275 21:19 18.12.2019
2381 Fog -47 1019 55 350 0.37 275 20:55 18.12.2019
2382 Fog -47 1019 55 200 0.37 275 20:37 18.12.2019
2383 Fog -47 1019 55 200 0.37 275 20:37 18.12.2019
2384 Fog -47 1019 55 200 0.51 334 20:19 18.12.2019
2385 Fog -47 1019 55 200 1 30 19:55 18.12.2019
2386 Fog -48 1020 62 200 0.51 334 19:37 18.12.2019
2387 Fog -48 1020 62 200 0.51 334 19:18 18.12.2019
2388 Fog -48 1020 62 200 0.51 334 19:18 18.12.2019
2389 Fog -48 1020 55 200 1 360 18:44 18.12.2019
2390 Fog -48 1020 55 200 1 360 18:25 18.12.2019
2391 Fog -47 1020 55 200 0.51 334 17:57 18.12.2019
2392 Fog -48 1020 62 200 0.51 334 17:39 18.12.2019
2393 Fog -48 1020 62 200 0.19 2 17:19 18.12.2019
2394 Fog -47 1020 55 200 1 40 16:57 18.12.2019
2395 Fog -47 1020 55 200 1 40 16:57 18.12.2019
2396 Fog -47 1020 55 200 1 40 16:38 18.12.2019
2397 Fog -47 1020 55 200 0.19 2 16:20 18.12.2019
2398 Fog -47 1020 55 200 1 50 15:55 18.12.2019
2399 Fog -47 1020 55 150 0.19 2 15:37 18.12.2019
2400 Fog -47 1020 55 150 0.19 2 15:37 18.12.2019
2401 Fog -47 1020 55 150 0.19 2 15:19 18.12.2019
2402 Fog -47 1021 55 200 0.19 2 14:42 18.12.2019
2403 Fog -47 1021 55 350 0.5 25 14:22 18.12.2019
2404 Fog -47 1021 55 150 0.5 25 13:57 18.12.2019
2405 Fog -47 1021 55 200 1 10 13:39 18.12.2019
2406 Fog -47 1021 55 200 1 10 13:39 18.12.2019
2407 Fog -47 1021 55 200 1 10 13:20 18.12.2019
2408 Fog -47 1021 55 150 1 10 12:59 18.12.2019
2409 Fog -47 1021 55 150 1 10 12:59 18.12.2019
2410 Fog -47 1021 55 100 1 10 12:38 18.12.2019
2411 Fog -47 1021 55 100 1 10 12:20 18.12.2019
2412 Fog -47 1022 55 100 1 10 11:56 18.12.2019
2413 Fog -47 1022 55 100 1 330 11:38 18.12.2019
2414 Fog -47 1022 55 100 1 330 11:19 18.12.2019
2415 Fog -47 1022 55 100 1 30 10:56 18.12.2019
2416 Fog -47 1022 55 100 0.27 60 10:38 18.12.2019
2417 Fog -47 1022 55 100 0.27 60 10:20 18.12.2019
2418 Fog -47 1022 55 100 1 340 09:50 18.12.2019
2419 Fog -47 1022 55 100 1 340 09:50 18.12.2019
2420 Fog -47 1022 55 150 1 320 09:18 18.12.2019
2421 Fog -47 1022 55 300 1 360 08:41 18.12.2019
2422 Fog -47 1022 55 250 1 10 08:23 18.12.2019
2423 Fog -47 1022 55 300 1 360 07:55 18.12.2019
2424 Fog -47 1022 55 400 1 10 07:36 18.12.2019
2425 Fog -47 1022 55 400 1 10 07:18 18.12.2019
2426 Fog -47 1022 55 550 0.63 68 06:49 18.12.2019
2427 Fog -47 1022 55 450 1 20 06:22 18.12.2019
2428 Fog -46 1022 56 900 1 20 05:22 18.12.2019
2429 Fog -47 1022 55 250 1 10 03:31 18.12.2019
2430 Fog -47 1022 63 200 0.47 96 02:38 18.12.2019
2431 Fog -47 1022 63 200 0.21 82 02:20 18.12.2019
2432 Fog -47 1023 55 100 1 20 01:42 18.12.2019
2433 Fog -46 1023 56 100 1 350 01:23 18.12.2019
2434 Fog -47 1023 55 150 1 10 00:42 18.12.2019
2435 Fog -46 1023 56 150 1 350 00:23 18.12.2019
2436 Fog -46 1022 63 300 0.1 173 23:58 17.12.2019
2437 Fog -45 1022 56 200 0.1 173 23:39 17.12.2019
2438 Fog -45 1022 56 200 0.31 207 23:20 17.12.2019
2439 Fog -45 1022 56 200 1 330 22:56 17.12.2019
2440 Fog -45 1022 56 250 1 330 22:38 17.12.2019
2441 Fog -45 1022 56 250 1 330 22:19 17.12.2019
2442 Fog -45 1022 56 200 1 340 21:56 17.12.2019
2443 Fog -45 1022 56 200 1 340 21:56 17.12.2019
2444 Fog -45 1022 63 300 1 310 21:38 17.12.2019
2445 Fog -45 1022 63 300 1 310 21:19 17.12.2019
2446 Fog -45 1022 56 150 0.31 207 20:57 17.12.2019
2447 Fog -44 1022 63 300 0.31 207 20:38 17.12.2019
2448 Fog -44 1022 63 300 1.19 276 20:18 17.12.2019
2449 Fog -44 1022 63 700 1 310 19:56 17.12.2019
2450 Fog -43 1023 57 400 1 320 19:38 17.12.2019
2451 Fog -43 1023 57 400 1 320 19:18 17.12.2019
2452 Fog -44 1023 63 200 1 300 18:54 17.12.2019
2453 Fog -44 1023 57 250 1.19 276 18:36 17.12.2019
2454 Fog -44 1023 57 250 1.19 276 18:18 17.12.2019
2455 Fog -43 1023 57 300 1.19 276 17:42 17.12.2019
2456 Fog -43 1023 57 300 1.19 276 17:42 17.12.2019
2457 Fog -43 1023 57 300 0.98 246 17:21 17.12.2019
2458 Fog -42 1023 57 350 1 300 16:57 17.12.2019
2459 Fog -43 1023 57 250 1 350 16:38 17.12.2019
2460 Fog -43 1023 57 250 1 350 16:19 17.12.2019
2461 Fog -42 1023 57 350 1 300 15:58 17.12.2019
2462 Fog -42 1023 57 300 1 320 15:37 17.12.2019
2463 Fog -42 1023 57 300 1 320 15:19 17.12.2019
2464 Fog -42 1023 64 250 0.98 246 14:56 17.12.2019
2465 Fog -41 1023 57 200 1 300 14:37 17.12.2019
2466 Fog -41 1023 57 200 1 300 14:18 17.12.2019
2467 Fog -41 1023 57 200 1 300 14:18 17.12.2019
2468 Fog -41 1023 64 200 1 290 13:56 17.12.2019
2469 Fog -41 1023 57 350 1.2 247 13:38 17.12.2019
2470 Fog -41 1023 57 350 1.3 238 13:19 17.12.2019
2471 Fog -42 1023 64 400 1.3 238 12:55 17.12.2019
2472 Fog -41 1023 64 900 1.3 238 12:37 17.12.2019
2473 Fog -41 1023 64 900 1.3 238 12:18 17.12.2019
2474 Mist -39 1023 65 3200 2 270 11:55 17.12.2019
2475 Clouds -41 1023 64 10000 1 240 11:36 17.12.2019
2476 Clouds -41 1023 64 10000 1 240 11:18 17.12.2019
2477 Clouds -41 1023 64 10000 1 240 11:18 17.12.2019
2478 Clouds -38 1023 65 10000 1 270 10:55 17.12.2019
2479 Clouds -37 1023 65 10000 1 270 10:36 17.12.2019
2480 Clouds -37 1023 65 10000 1 270 10:18 17.12.2019
2481 Clouds -37 1023 65 10000 2 270 09:42 17.12.2019
2482 Clouds -38 1023 73 10000 1 270 09:21 17.12.2019
2483 Clouds -38 1022 65 10000 2 260 08:58 17.12.2019
2484 Clouds -37 1022 73 10000 3 260 08:39 17.12.2019
2485 Clouds -37 1022 73 10000 3 260 08:21 17.12.2019
2486 Clouds -36 1022 66 10000 2 260 07:57 17.12.2019
2487 Clouds -35 1022 66 10000 2 270 07:39 17.12.2019
2488 Clouds -35 1022 66 10000 2 270 07:19 17.12.2019
2489 Clouds -34 1022 66 10000 2 260 06:36 17.12.2019
2490 Clouds -34 1022 66 10000 2 260 06:18 17.12.2019
2491 Clouds -34 1021 66 10000 3 240 05:38 17.12.2019
2492 Clouds -34 1021 66 10000 3 240 04:46 17.12.2019
2493 Snow -33 1021 67 10000 1 250 03:31 17.12.2019
2494 Snow -32 1021 67 10000 2 260 01:58 17.12.2019
2495 Snow -32 1021 74 10000 2 230 01:21 17.12.2019
2496 Clouds -32 1021 67 10000 1 270 00:39 17.12.2019
2497 Clouds -32 1021 67 10000 1 270 00:21 17.12.2019
2498 Clouds -32 1020 74 10000 2 270 23:43 16.12.2019
2499 Clouds -33 1020 74 10000 2 260 23:19 16.12.2019
2500 Snow -33 1020 74 10000 2 230 22:58 16.12.2019
2501 Snow -32 1020 74 10000 3 210 22:38 16.12.2019
2502 Snow -32 1020 74 10000 3 210 22:20 16.12.2019
2503 Snow -32 1020 74 10000 2 210 21:57 16.12.2019
2504 Snow -31 1020 67 10000 2 200 21:38 16.12.2019
2505 Snow -31 1020 67 10000 2 200 21:20 16.12.2019
2506 Clouds -31 1020 74 10000 1 230 20:58 16.12.2019
2507 Clouds -30 1020 67 10000 2 250 20:39 16.12.2019
2508 Clouds -30 1020 67 10000 2 250 20:19 16.12.2019
2509 Clouds -30 1019 67 10000 1 290 19:56 16.12.2019
2510 Clouds -30 1019 74 10000 2 300 19:37 16.12.2019
2511 Clouds -30 1019 74 10000 2 300 19:19 16.12.2019
2512 Clouds -30 1019 67 10000 2 290 18:58 16.12.2019
2513 Clouds -30 1019 67 10000 2 290 18:58 16.12.2019
2514 Clouds -30 1019 74 10000 2 290 18:40 16.12.2019
2515 Clouds -30 1019 74 10000 2 290 18:40 16.12.2019
2516 Clouds -30 1019 74 10000 2 290 18:20 16.12.2019
2517 Clouds -30 1019 74 10000 3 290 17:57 16.12.2019
2518 Clouds -30 1019 74 10000 3 290 17:57 16.12.2019
2519 Clouds -30 1019 74 10000 3 290 17:57 16.12.2019
2520 Clouds -30 1019 74 10000 3 290 17:39 16.12.2019
2521 Clouds -30 1019 74 10000 3 290 17:21 16.12.2019
2522 Clouds -29 1019 68 10000 3 280 16:57 16.12.2019
2523 Clouds -29 1019 75 10000 2 280 16:38 16.12.2019
2524 Clouds -29 1019 75 10000 2 280 16:19 16.12.2019
2525 Clouds -29 1019 75 10000 2 280 15:58 16.12.2019
2526 Clouds -29 1018 75 10000 3 280 15:38 16.12.2019
2527 Clouds -29 1018 75 10000 3 280 15:20 16.12.2019
2528 Clouds -29 1018 75 10000 3 280 14:55 16.12.2019
2529 Clouds -29 1018 75 10000 3 270 14:37 16.12.2019
2530 Clouds -29 1018 75 10000 3 270 14:19 16.12.2019
2531 Clouds -29 1017 75 10000 2 290 13:56 16.12.2019
2532 Clouds -29 1017 75 10000 2 290 13:56 16.12.2019
2533 Clouds -29 1017 75 10000 2 290 13:56 16.12.2019
2534 Clouds -29 1017 68 10000 2 300 13:37 16.12.2019
2535 Clouds -29 1017 68 10000 2 300 13:37 16.12.2019
2536 Clouds -29 1017 68 10000 2 300 13:19 16.12.2019
2537 Clouds -29 1017 75 10000 3 300 12:57 16.12.2019
2538 Clouds -29 1017 75 10000 3 300 12:57 16.12.2019
2539 Clouds -28 1017 68 10000 2 310 12:39 16.12.2019
2540 Clouds -28 1017 68 10000 2 310 12:18 16.12.2019
2541 Clouds -28 1016 75 10000 2 320 11:58 16.12.2019
2542 Clouds -28 1016 68 10000 2 300 11:40 16.12.2019
2543 Clouds -28 1016 68 10000 2 300 11:20 16.12.2019
2544 Clouds -28 1016 68 10000 2 300 11:20 16.12.2019
2545 Clouds -28 1016 82 10000 2 290 10:56 16.12.2019
2546 Clouds -28 1015 75 10000 2 280 10:36 16.12.2019
2547 Clouds -28 1015 75 10000 2 280 10:18 16.12.2019
2548 Clouds -30 1015 67 10000 1 280 09:44 16.12.2019
2549 Clouds -30 1015 67 10000 1 280 09:44 16.12.2019
2550 Clouds -29 1015 75 10000 1 280 09:26 16.12.2019
2551 Clouds -30 1015 74 10000 2 180 08:41 16.12.2019
2552 Snow -31 1014 74 10000 2 240 08:21 16.12.2019
2553 Snow -32 1014 67 10000 2 220 07:57 16.12.2019
2554 Snow -31 1014 74 10000 2 190 07:38 16.12.2019
2555 Snow -31 1014 74 10000 2 190 07:19 16.12.2019
2556 Snow -31 1013 74 10000 2 150 06:40 16.12.2019
2557 Snow -31 1013 74 10000 2 150 06:22 16.12.2019
2558 Snow -31 1012 67 10000 1 190 05:47 16.12.2019
2559 Snow -31 1012 74 10000 2 150 05:29 16.12.2019
2560 Snow -31 1011 74 10000 1 60 03:41 16.12.2019
2561 Snow -31 1010 74 5000 1 320 01:58 16.12.2019
2562 Snow -31 1010 74 10000 2 330 01:39 16.12.2019
2563 Snow -32 1009 67 10000 2 320 00:41 16.12.2019
2564 Snow -32 1009 67 10000 2 320 00:23 16.12.2019
2565 Snow -33 1009 74 10000 2 280 23:58 15.12.2019
2566 Snow -33 1009 74 10000 2 300 23:38 15.12.2019
2567 Clouds -33 1009 74 10000 2 300 23:19 15.12.2019
2568 Snow -33 1008 74 10000 1 310 22:55 15.12.2019
2569 Snow -32 1008 67 10000 2 300 22:37 15.12.2019
2570 Snow -32 1008 67 10000 2 300 22:18 15.12.2019
2571 Snow -33 1008 74 10000 1 290 21:55 15.12.2019
2572 Snow -33 1008 74 10000 1 300 21:37 15.12.2019
2573 Snow -33 1008 74 10000 1 300 21:37 15.12.2019
2574 Snow -33 1008 74 10000 1 300 21:18 15.12.2019
2575 Snow -32 1008 67 10000 1 350 20:54 15.12.2019
2576 Snow -32 1008 74 5000 2 300 20:36 15.12.2019
2577 Snow -32 1008 74 5000 2 300 20:36 15.12.2019
2578 Snow -32 1008 74 5000 2 300 20:18 15.12.2019
2579 Snow -32 1008 74 5000 1 340 19:54 15.12.2019
2580 Snow -31 1007 74 5000 2 340 19:36 15.12.2019
2581 Snow -31 1007 74 5000 2 340 19:18 15.12.2019
2582 Snow -31 1007 74 5000 0.5 0 18:54 15.12.2019
2583 Snow -31 1007 74 5000 0.5 0 18:36 15.12.2019
2584 Snow -31 1007 74 5000 0.5 0 18:18 15.12.2019
2585 Snow -31 1007 74 5000 1 40 17:55 15.12.2019
2586 Snow -32 1007 74 10000 1 40 17:36 15.12.2019
2587 Snow -32 1007 74 10000 1 40 17:18 15.12.2019
2588 Snow -31 1007 74 5000 0.98 11 16:42 15.12.2019
2589 Snow -29 1007 75 5000 0.98 11 16:22 15.12.2019
2590 Snow -27 1007 75 5000 1.04 2 15:57 15.12.2019
2591 Snow -27 1007 75 3200 1.04 2 15:39 15.12.2019
2592 Snow -27 1007 75 3200 1.04 2 15:19 15.12.2019
2593 Snow -27 1006 75 10000 1 340 14:56 15.12.2019
2594 Snow -27 1006 75 10000 1 10 14:37 15.12.2019
2595 Snow -27 1006 75 10000 1 10 14:19 15.12.2019
2596 Snow -28 1006 75 3200 1 340 13:58 15.12.2019
2597 Snow -27 1006 75 3200 1 350 13:38 15.12.2019
2598 Snow -27 1006 75 3200 1 350 13:19 15.12.2019
2599 Snow -27 1006 75 2100 1 10 12:57 15.12.2019
2600 Snow -27 1006 75 2100 2 330 12:39 15.12.2019
2601 Snow -27 1006 75 2100 2 330 12:21 15.12.2019
2602 Snow -28 1006 75 2100 2 320 11:59 15.12.2019
2603 Snow -28 1006 75 2400 2 350 11:37 15.12.2019
2604 Snow -28 1006 75 2400 2 350 11:19 15.12.2019
2605 Snow -28 1006 75 5000 2 350 10:55 15.12.2019
2606 Snow -28 1006 75 2100 2 350 10:37 15.12.2019
2607 Snow -28 1006 75 2100 2 350 10:19 15.12.2019
2608 Snow -28 1006 75 3200 2 350 09:41 15.12.2019
2609 Snow -29 1006 75 3200 2 350 09:20 15.12.2019
2610 Snow -29 1006 75 3200 2 350 08:59 15.12.2019
2611 Snow -29 1006 75 3200 2 350 08:41 15.12.2019
2612 Snow -29 1006 75 3200 2 360 08:22 15.12.2019
2613 Snow -29 1006 75 3200 2 360 08:22 15.12.2019
2614 Snow -28 1006 68 3200 2 10 07:56 15.12.2019
2615 Snow -28 1006 75 5000 1 360 07:36 15.12.2019
2616 Snow -28 1006 68 5000 1 20 06:56 15.12.2019
2617 Snow -29 1006 75 3200 1 20 06:21 15.12.2019
2618 Snow -29 1006 75 10000 2 20 05:37 15.12.2019
2619 Snow -29 1006 75 10000 2 20 05:18 15.12.2019
2620 Snow -29 1006 75 5000 1 30 03:56 15.12.2019
2621 Snow -29 1007 75 5000 1 350 02:35 15.12.2019
2622 Snow -29 1007 68 10000 1 350 01:55 15.12.2019
2623 Snow -30 1007 74 10000 1 10 01:37 15.12.2019
2624 Snow -30 1007 74 10000 1 10 01:18 15.12.2019
2625 Snow -31 1007 74 10000 1 320 00:42 15.12.2019
2626 Snow -31 1007 74 10000 1 320 00:23 15.12.2019
2627 Snow -31 1006 74 10000 2 340 23:40 14.12.2019
2628 Snow -31 1006 74 10000 2 340 23:21 14.12.2019
2629 Clouds -32 1006 74 10000 1 310 22:59 14.12.2019
2630 Clouds -33 1006 74 10000 2 320 22:41 14.12.2019
2631 Clouds -33 1006 74 10000 2 320 22:21 14.12.2019
2632 Clouds -32 1006 74 10000 2 330 21:56 14.12.2019
2633 Clouds -31 1006 74 10000 3 330 21:38 14.12.2019
2634 Clouds -31 1006 74 10000 3 330 21:19 14.12.2019
2635 Clouds -31 1006 74 10000 3 340 20:57 14.12.2019
2636 Clouds -31 1006 74 10000 3 330 20:39 14.12.2019
2637 Snow -31 1006 74 10000 3 330 20:19 14.12.2019
2638 Snow -31 1006 74 10000 3 340 19:57 14.12.2019
2639 Snow -31 1006 74 10000 3 340 19:37 14.12.2019
2640 Snow -31 1006 74 10000 3 340 19:19 14.12.2019
2641 Snow -30 1005 67 10000 3 340 18:56 14.12.2019
2642 Snow -30 1005 74 10000 4 350 18:37 14.12.2019
2643 Snow -30 1005 74 10000 4 350 18:19 14.12.2019
2644 Snow -30 1005 74 10000 4 350 17:43 14.12.2019
2645 Snow -30 1005 74 10000 4 350 17:24 14.12.2019
2646 Snow -30 1005 74 10000 4 350 16:58 14.12.2019
2647 Snow -30 1005 74 10000 4 350 16:39 14.12.2019
2648 Snow -30 1005 74 10000 4 350 16:39 14.12.2019
2649 Snow -30 1005 74 10000 4 350 16:39 14.12.2019
2650 Snow -30 1005 74 10000 4 350 16:18 14.12.2019
2651 Snow -29 1005 75 10000 4 360 15:43 14.12.2019
2652 Snow -29 1004 75 10000 4 360 15:22 14.12.2019
2653 Snow -29 1004 75 10000 4 10 14:59 14.12.2019
2654 Snow -29 1004 75 10000 4 10 14:38 14.12.2019
2655 Snow -29 1004 75 10000 4 10 14:19 14.12.2019
2656 Snow -28 1004 75 2100 3 20 13:55 14.12.2019
2657 Snow -28 1004 75 2100 3 20 13:37 14.12.2019
2658 Snow -28 1004 75 2100 3 20 13:18 14.12.2019
2659 Snow -28 1005 75 1600 3 40 12:54 14.12.2019
2660 Snow -28 1005 68 2100 3 60 12:36 14.12.2019
2661 Snow -28 1005 68 2100 3 60 12:18 14.12.2019
2662 Snow -29 1005 75 3200 3 50 11:54 14.12.2019
2663 Snow -29 1005 68 3200 3 60 11:36 14.12.2019
2664 Snow -29 1005 68 3200 3 60 11:18 14.12.2019
2665 Snow -30 1006 74 5000 3 60 10:55 14.12.2019
2666 Snow -30 1006 74 5000 4 70 10:36 14.12.2019
2667 Snow -30 1006 74 5000 4 70 10:18 14.12.2019
2668 Snow -30 1007 67 5000 3 60 09:40 14.12.2019
2669 Snow -31 1007 74 2400 3 30 09:20 14.12.2019
2670 Snow -33 1008 74 2400 3 10 08:44 14.12.2019
2671 Snow -33 1008 74 2400 3 10 08:44 14.12.2019
2672 Snow -33 1008 74 2400 3 10 08:20 14.12.2019
2673 Snow -34 1009 66 2400 3 10 07:57 14.12.2019
2674 Snow -35 1009 66 2400 2 340 07:38 14.12.2019
2675 Snow -35 1009 66 2400 2 340 07:19 14.12.2019
2676 Snow -35 1009 66 2400 2 340 07:19 14.12.2019
2677 Snow -36 1010 66 2400 3 10 06:39 14.12.2019
2678 Snow -36 1010 66 2400 3 10 06:20 14.12.2019
2679 Snow -38 1011 65 2100 2 360 05:22 14.12.2019
2680 Mist -39 1014 65 2100 2 10 02:49 14.12.2019
2681 Mist -40 1015 65 2100 2 360 02:22 14.12.2019
2682 Mist -40 1015 65 2100 2 350 01:43 14.12.2019
2683 Mist -41 1015 64 2100 2 360 00:54 14.12.2019
2684 Mist -41 1015 64 2100 2 360 00:54 14.12.2019
2685 Mist -41 1016 64 2100 2 360 00:36 14.12.2019
2686 Mist -41 1016 64 2100 2 360 00:18 14.12.2019
2687 Mist -40 1016 58 2400 2 360 23:39 13.12.2019
2688 Mist -40 1016 58 2400 2 360 23:19 13.12.2019
2689 Mist -40 1016 58 2400 2 360 23:19 13.12.2019
2690 Mist -41 1017 64 2400 1 10 22:55 13.12.2019
2691 Mist -41 1017 64 2400 1 30 22:36 13.12.2019
2692 Mist -41 1017 64 2400 1 30 22:18 13.12.2019
2693 Mist -41 1017 64 1500 1 20 21:42 13.12.2019
2694 Mist -41 1017 64 1000 1 10 21:21 13.12.2019
2695 Fog -41 1017 64 900 1 20 20:57 13.12.2019
2696 Fog -40 1018 58 900 1 40 20:39 13.12.2019
2697 Fog -40 1018 58 900 1 40 20:19 13.12.2019
2698 Fog -40 1018 58 900 1 40 19:56 13.12.2019
2699 Fog -40 1018 58 800 1 20 19:38 13.12.2019
2700 Fog -40 1018 58 800 1 20 19:18 13.12.2019
2701 Fog -40 1018 65 700 1 80 18:42 13.12.2019
2702 Fog -40 1018 65 700 1 80 18:20 13.12.2019
2703 Fog -40 1018 65 650 0.99 100 17:59 13.12.2019
2704 Fog -40 1018 65 700 0.99 100 17:39 13.12.2019
2705 Fog -40 1018 65 700 0.2 138 17:18 13.12.2019
2706 Fog -40 1018 58 700 1 80 16:56 13.12.2019
2707 Fog -40 1018 58 700 0.2 138 16:38 13.12.2019
2708 Fog -40 1018 58 700 0.2 138 16:19 13.12.2019
2709 Fog -40 1019 58 750 0.2 138 15:42 13.12.2019
2710 Fog -40 1019 58 750 0.2 138 15:21 13.12.2019
2711 Fog -40 1018 58 900 1 80 14:57 13.12.2019
2712 Fog -41 1019 64 900 1 30 14:37 13.12.2019
2713 Fog -41 1019 64 900 1 30 14:19 13.12.2019
2714 Fog -40 1019 58 900 0.79 46 13:43 13.12.2019
2715 Fog -40 1019 58 900 0.84 51 13:24 13.12.2019
2716 Fog -41 1018 64 900 0.84 51 12:58 13.12.2019
2717 Fog -41 1019 64 600 0.84 51 12:40 13.12.2019
2718 Fog -41 1019 64 600 0.84 51 12:18 13.12.2019
2719 Fog -41 1019 57 350 1 340 11:44 13.12.2019
2720 Fog -41 1019 57 500 0.84 51 11:26 13.12.2019
2721 Fog -41 1019 57 650 0.92 28 10:57 13.12.2019
2722 Fog -41 1018 64 500 0.92 28 10:39 13.12.2019
2723 Fog -41 1018 64 500 0.92 28 10:21 13.12.2019
2724 Fog -41 1018 64 650 1 320 09:42 13.12.2019
2725 Fog -41 1018 64 650 1 320 09:21 13.12.2019
2726 Mist -41 1018 64 1200 1 330 08:55 13.12.2019
2727 Mist -41 1018 64 1500 1 350 08:36 13.12.2019
2728 Mist -41 1018 64 1500 1 350 08:18 13.12.2019
2729 Mist -40 1018 58 2400 1 10 07:42 13.12.2019
2730 Mist -40 1018 58 2400 1 10 07:19 13.12.2019
2731 Mist -40 1018 58 2000 1 350 06:39 13.12.2019
2732 Mist -40 1018 58 2000 1 350 06:20 13.12.2019
2733 Mist -41 1017 64 1300 2 10 05:37 13.12.2019
2734 Mist -41 1017 64 1300 2 10 05:19 13.12.2019
2735 Fog -41 1017 57 900 1 340 03:55 13.12.2019
2736 Fog -42 1017 57 800 2 330 02:35 13.12.2019
2737 Fog -42 1017 57 1000 2 360 01:54 13.12.2019
2738 Fog -42 1017 64 600 1 350 01:27 13.12.2019
2739 Fog -42 1016 64 600 1 340 00:47 13.12.2019
2740 Fog -42 1016 64 700 1 330 00:26 13.12.2019
2741 Fog -42 1016 57 800 1 360 23:42 12.12.2019
2742 Fog -42 1016 57 800 1 360 23:24 12.12.2019
2743 Mist -42 1016 57 1200 2 360 22:56 12.12.2019
2744 Mist -42 1016 64 1600 2 360 22:38 12.12.2019
2745 Mist -42 1016 64 1600 2 360 22:38 12.12.2019
2746 Mist -42 1016 64 1600 2 360 22:20 12.12.2019
2747 Mist -42 1016 64 1400 2 350 21:56 12.12.2019
2748 Fog -42 1016 57 900 2 340 21:37 12.12.2019
2749 Fog -42 1016 57 900 2 340 21:19 12.12.2019
2750 Fog -42 1016 57 900 2 350 20:58 12.12.2019
2751 Fog -42 1016 64 900 2 340 20:40 12.12.2019
2752 Fog -42 1016 64 900 2 340 20:21 12.12.2019
2753 Fog -42 1015 57 800 2 350 19:56 12.12.2019
2754 Fog -42 1015 57 900 1 350 19:37 12.12.2019
2755 Fog -42 1015 57 900 1 350 19:18 12.12.2019
2756 Mist -42 1015 57 1100 2 350 18:55 12.12.2019
2757 Mist -42 1015 64 1100 2 350 18:37 12.12.2019
2758 Mist -42 1015 64 1100 2 350 18:19 12.12.2019
2759 Mist -42 1015 64 1200 2 360 17:56 12.12.2019
2760 Mist -42 1015 64 1200 2 350 17:38 12.12.2019
2761 Mist -42 1015 64 1200 2 350 17:19 12.12.2019
2762 Mist -42 1015 64 1100 2 350 16:54 12.12.2019
2763 Mist -42 1015 64 1500 2 360 16:36 12.12.2019
2764 Mist -42 1015 64 1500 2 360 16:18 12.12.2019
2765 Fog -42 1015 64 900 2 360 15:42 12.12.2019
2766 Fog -42 1015 64 900 2 360 15:20 12.12.2019
2767 Mist -42 1015 64 1100 2 340 14:57 12.12.2019
2768 Snow -42 1015 64 1200 2 340 14:37 12.12.2019
2769 Snow -42 1015 64 1200 2 340 14:19 12.12.2019
2770 Snow -42 1015 64 1300 2 350 13:55 12.12.2019
2771 Snow -41 1015 57 1500 2 350 13:37 12.12.2019
2772 Snow -41 1015 57 1500 2 350 13:19 12.12.2019
2773 Snow -41 1015 57 1000 2 350 12:55 12.12.2019
2774 Snow -41 1014 57 1000 2 350 12:37 12.12.2019
2775 Snow -41 1014 57 1000 2 350 12:18 12.12.2019
2776 Fog -41 1014 57 900 2 340 11:43 12.12.2019
2777 Fog -41 1014 57 900 2 340 11:22 12.12.2019
2778 Fog -42 1014 64 900 2 350 10:59 12.12.2019
2779 Fog -42 1014 64 900 2 340 10:41 12.12.2019
2780 Fog -42 1014 64 900 2 340 10:23 12.12.2019
2781 Fog -42 1014 64 750 2 330 09:58 12.12.2019
2782 Fog -42 1014 64 800 1 340 09:40 12.12.2019
2783 Fog -42 1014 64 800 1 340 09:21 12.12.2019
2784 Fog -42 1014 64 900 1 350 08:54 12.12.2019
2785 Fog -42 1014 64 900 1 340 08:36 12.12.2019
2786 Fog -42 1014 64 900 1 340 08:18 12.12.2019
2787 Fog -42 1014 64 800 2 350 07:41 12.12.2019
2788 Fog -42 1014 64 800 2 350 07:21 12.12.2019
2789 Fog -42 1014 64 700 1 350 06:43 12.12.2019
2790 Fog -42 1014 64 700 1 350 06:23 12.12.2019
2791 Mist -42 1014 64 1000 1 10 05:35 12.12.2019
2792 Fog -42 1014 64 900 1 350 04:49 12.12.2019
2793 Fog -42 1014 57 500 1 330 02:57 12.12.2019
2794 Fog -42 1014 57 450 1 340 02:37 12.12.2019
2795 Fog -42 1014 57 450 1 340 02:18 12.12.2019
2796 Fog -42 1014 57 500 1 360 01:37 12.12.2019
2797 Fog -42 1014 57 500 1 360 01:18 12.12.2019
2798 Fog -42 1014 64 600 1 340 00:40 12.12.2019
2799 Fog -42 1014 64 600 1 340 00:18 12.12.2019
2800 Fog -42 1014 64 500 1 330 23:42 11.12.2019
2801 Fog -42 1014 64 500 1 330 23:20 11.12.2019
2802 Fog -42 1014 64 450 1 330 22:57 11.12.2019
2803 Fog -42 1015 64 900 1 350 22:38 11.12.2019
2804 Fog -42 1015 64 900 1 350 22:19 11.12.2019
2805 Fog -42 1015 64 800 1 350 21:57 11.12.2019
2806 Fog -42 1015 64 450 1 330 21:37 11.12.2019
2807 Fog -42 1015 64 450 1 330 21:37 11.12.2019
2808 Fog -42 1015 64 450 1 330 21:19 11.12.2019
2809 Fog -42 1015 64 550 1 320 20:56 11.12.2019
2810 Fog -42 1015 64 550 1 310 20:37 11.12.2019
2811 Fog -42 1015 64 550 1 310 20:19 11.12.2019
2812 Fog -41 1015 57 500 1 300 19:57 11.12.2019
2813 Fog -41 1015 64 500 0.78 82 19:38 11.12.2019
2814 Fog -41 1015 64 500 0.78 82 19:18 11.12.2019
2815 Fog -41 1015 57 650 1 310 18:40 11.12.2019
2816 Fog -41 1015 57 650 1 310 18:21 11.12.2019
2817 Fog -41 1015 57 650 1 310 17:57 11.12.2019
2818 Fog -41 1015 57 650 1 310 17:57 11.12.2019
2819 Fog -41 1015 64 650 1 290 17:38 11.12.2019
2820 Fog -41 1015 64 650 1 290 17:18 11.12.2019
2821 Fog -40 1015 58 450 1 330 16:57 11.12.2019
2822 Fog -40 1015 58 450 1 330 16:57 11.12.2019
2823 Fog -40 1015 58 450 1 310 16:38 11.12.2019
2824 Fog -40 1015 58 450 1 310 16:38 11.12.2019
2825 Fog -40 1015 58 450 1 310 16:38 11.12.2019
2826 Fog -40 1015 58 450 1 310 16:20 11.12.2019
2827 Fog -40 1016 58 450 0.49 95 15:59 11.12.2019
2828 Fog -40 1016 58 450 1 300 15:39 11.12.2019
2829 Fog -40 1016 58 450 1 300 15:21 11.12.2019
2830 Fog -40 1016 65 400 1 310 14:56 11.12.2019
2831 Fog -40 1016 65 400 1 290 14:37 11.12.2019
2832 Fog -40 1016 65 400 1 290 14:19 11.12.2019
2833 Fog -40 1016 65 300 0.56 115 13:54 11.12.2019
2834 Fog -40 1016 65 400 0.56 115 13:36 11.12.2019
2835 Fog -40 1016 65 400 0.62 127 13:18 11.12.2019
2836 Fog -40 1016 65 400 0.62 127 13:18 11.12.2019
2837 Fog -40 1016 58 400 1 340 12:54 11.12.2019
2838 Fog -40 1016 65 550 0.62 127 12:36 11.12.2019
2839 Fog -40 1016 65 550 0.62 127 12:18 11.12.2019
2840 Fog -40 1016 65 450 0.62 127 11:55 11.12.2019
2841 Fog -40 1017 65 350 1 330 11:37 11.12.2019
2842 Fog -40 1017 65 350 1 330 11:18 11.12.2019
2843 Fog -39 1017 58 300 0.51 122 10:44 11.12.2019
2844 Fog -39 1017 58 300 0.51 122 10:25 11.12.2019
2845 Fog -39 1017 65 250 0.51 122 09:58 11.12.2019
2846 Fog -39 1017 58 400 0.51 122 09:38 11.12.2019
2847 Fog -39 1017 58 400 0.51 122 09:20 11.12.2019
2848 Fog -40 1017 65 600 0.51 122 08:56 11.12.2019
2849 Fog -39 1017 58 600 0.51 122 08:37 11.12.2019
2850 Fog -39 1017 58 600 0.34 87 08:18 11.12.2019
2851 Fog -39 1017 58 600 0.34 87 07:45 11.12.2019
2852 Fog -39 1017 65 500 0.34 87 07:25 11.12.2019
2853 Fog -39 1017 65 350 0.34 87 06:46 11.12.2019
2854 Fog -39 1017 65 450 0.34 87 06:25 11.12.2019
2855 Fog -39 1018 65 450 0.34 87 05:56 11.12.2019
2856 Fog -39 1018 65 300 0.34 87 05:37 11.12.2019
2857 Fog -39 1018 65 400 0.78 186 04:55 11.12.2019
2858 Fog -39 1018 65 500 0.78 186 03:41 11.12.2019
2859 Fog -39 1019 65 400 0.78 186 02:40 11.12.2019
2860 Fog -39 1019 65 600 0.54 181 01:22 11.12.2019
2861 Fog -39 1019 65 450 0.64 178 00:46 11.12.2019
2862 Fog -39 1019 65 450 0.64 178 00:21 11.12.2019
2863 Fog -39 1019 65 450 0.64 178 23:46 10.12.2019
2864 Fog -39 1019 65 550 0.64 178 23:28 10.12.2019
2865 Fog -39 1019 65 800 0.45 185 22:57 10.12.2019
2866 Mist -40 1019 65 1800 1 290 22:39 10.12.2019
2867 Mist -40 1019 65 1800 1 290 22:21 10.12.2019
2868 Mist -39 1019 65 1800 1 300 21:55 10.12.2019
2869 Mist -39 1019 65 1100 1 310 21:37 10.12.2019
2870 Mist -39 1019 65 1100 1 310 21:18 10.12.2019
2871 Mist -39 1019 65 1500 0.45 185 20:56 10.12.2019
2872 Mist -39 1020 65 3200 0.45 185 20:37 10.12.2019
2873 Mist -39 1020 65 3200 0.34 259 20:18 10.12.2019
2874 Mist -38 1019 65 5000 0.34 259 19:54 10.12.2019
2875 Mist -38 1019 65 5000 0.34 259 19:36 10.12.2019
2876 Mist -38 1019 65 5000 0.34 259 19:18 10.12.2019
2877 Mist -38 1019 65 5000 0.34 259 18:39 10.12.2019
2878 Mist -38 1019 65 5000 0.34 259 18:20 10.12.2019
2879 Mist -38 1019 65 5000 0.34 259 17:57 10.12.2019
2880 Mist -38 1019 65 5000 1 290 17:39 10.12.2019
2881 Mist -38 1019 65 5000 1 290 17:20 10.12.2019
2882 Mist -37 1019 65 5000 0.35 273 16:43 10.12.2019
2883 Clouds -37 1019 65 10000 0.35 273 16:21 10.12.2019
2884 Clouds -37 1019 65 10000 0.35 273 16:21 10.12.2019
2885 Mist -36 1019 66 5000 0.35 273 15:59 10.12.2019
2886 Mist -37 1020 65 5000 0.35 273 15:37 10.12.2019
2887 Mist -37 1020 65 5000 0.35 273 15:18 10.12.2019
2888 Mist -37 1020 65 3200 0.35 273 14:56 10.12.2019
2889 Mist -37 1020 65 3200 0.35 273 14:37 10.12.2019
2890 Mist -37 1020 65 3200 0.35 273 14:37 10.12.2019
2891 Mist -37 1020 65 3200 0.42 327 14:19 10.12.2019
2892 Mist -37 1020 65 3200 0.42 327 13:56 10.12.2019
2893 Mist -37 1020 65 5000 0.42 327 13:38 10.12.2019
2894 Mist -37 1020 65 5000 0.28 294 13:19 10.12.2019
2895 Mist -37 1020 65 5000 0.28 294 12:45 10.12.2019
2896 Mist -37 1020 65 5000 0.28 294 12:45 10.12.2019
2897 Mist -37 1019 65 5000 1 310 12:25 10.12.2019
2898 Mist -37 1019 65 5000 1 280 11:45 10.12.2019
2899 Mist -37 1019 65 2000 1 280 11:25 10.12.2019
2900 Fog -38 1019 65 800 0.6 331 10:57 10.12.2019
2901 Fog -38 1019 65 900 0.6 331 10:39 10.12.2019
2902 Fog -38 1019 65 900 0.6 331 10:39 10.12.2019
2903 Fog -38 1019 65 900 0.6 331 10:21 10.12.2019
2904 Fog -38 1019 58 900 0.6 331 09:56 10.12.2019
2905 Fog -39 1019 65 900 0.6 331 09:38 10.12.2019
2906 Fog -39 1019 65 900 0.6 331 09:20 10.12.2019
2907 Fog -39 1019 65 900 0.6 331 08:57 10.12.2019
2908 Fog -39 1019 65 900 0.6 331 08:57 10.12.2019
2909 Fog -39 1019 65 900 0.6 331 08:38 10.12.2019
2910 Fog -39 1019 65 900 0.86 347 08:19 10.12.2019
2911 Fog -39 1019 65 1600 1 70 07:44 10.12.2019
2912 Fog -39 1018 65 1300 1 60 07:26 10.12.2019
2913 Mist -38 1018 58 1800 1.09 345 06:49 10.12.2019
2914 Mist -39 1018 65 1900 1.09 345 06:24 10.12.2019
2915 Mist -39 1019 65 2000 1.09 345 05:55 10.12.2019
2916 Mist -39 1018 65 2000 1.27 358 04:58 10.12.2019
2917 Mist -40 1018 65 2000 1 300 03:47 10.12.2019
2918 Mist -41 1018 57 2000 1 290 02:48 10.12.2019
2919 Mist -41 1018 57 2000 1 290 02:48 10.12.2019
2920 Fog -42 1018 64 450 1 300 01:51 10.12.2019
2921 Fog -42 1018 57 750 1 300 01:26 10.12.2019
2922 Fog -42 1018 57 750 1 300 01:26 10.12.2019
2923 Fog -42 1018 64 650 1 280 00:51 10.12.2019
2924 Fog -42 1018 64 650 1 280 00:24 10.12.2019
2925 Fog -42 1019 64 400 1 300 23:55 09.12.2019
2926 Fog -42 1019 57 900 1 20 23:36 09.12.2019
2927 Fog -42 1019 57 900 1 20 23:18 09.12.2019
2928 Fog -42 1018 57 900 1 350 22:54 09.12.2019
2929 Fog -42 1018 64 900 1 320 22:36 09.12.2019
2930 Fog -42 1018 64 900 1 320 22:18 09.12.2019
2931 Fog -42 1018 64 900 1 310 21:54 09.12.2019
2932 Fog -42 1018 64 900 2 300 21:36 09.12.2019
2933 Fog -42 1018 64 900 2 300 21:18 09.12.2019
2934 Fog -42 1018 57 900 1 290 20:54 09.12.2019
2935 Fog -42 1018 64 800 1 300 20:36 09.12.2019
2936 Fog -42 1018 64 800 1 300 20:18 09.12.2019
2937 Fog -41 1019 57 600 2 320 19:54 09.12.2019
2938 Fog -41 1019 57 600 1 330 19:36 09.12.2019
2939 Fog -41 1019 57 600 1 330 19:18 09.12.2019
2940 Fog -41 1018 64 800 1 330 18:40 09.12.2019
2941 Fog -41 1018 64 800 1 330 18:20 09.12.2019
2942 Fog -41 1018 57 800 2 330 17:59 09.12.2019
2943 Fog -41 1018 57 800 2 330 17:59 09.12.2019
2944 Fog -41 1018 57 800 2 340 17:41 09.12.2019
2945 Fog -41 1018 57 800 2 340 17:21 09.12.2019
2946 Fog -41 1019 57 800 1 340 16:57 09.12.2019
2947 Fog -41 1018 57 800 2 350 16:39 09.12.2019
2948 Fog -41 1018 57 800 2 350 16:20 09.12.2019
2949 Fog -41 1019 57 800 1 330 15:56 09.12.2019
2950 Fog -41 1019 57 800 2 340 15:38 09.12.2019
2951 Fog -41 1019 57 800 2 340 15:19 09.12.2019
2952 Fog -41 1019 64 800 2 340 14:59 09.12.2019
2953 Fog -41 1019 64 800 2 340 14:40 09.12.2019
2954 Fog -41 1019 64 800 2 340 14:18 09.12.2019
2955 Fog -41 1019 64 800 2 330 13:55 09.12.2019
2956 Fog -41 1019 64 700 2 330 13:36 09.12.2019
2957 Fog -41 1019 64 700 2 330 13:18 09.12.2019
2958 Fog -41 1019 57 700 2 340 12:54 09.12.2019
2959 Fog -41 1019 57 900 2 340 12:36 09.12.2019
2960 Fog -41 1019 57 900 2 340 12:18 09.12.2019
2961 Fog -41 1019 64 900 3 360 11:40 09.12.2019
2962 Fog -41 1019 64 900 3 360 11:22 09.12.2019
2963 Fog -41 1019 64 900 2 350 10:59 09.12.2019
2964 Fog -41 1019 64 800 2 350 10:39 09.12.2019
2965 Fog -41 1019 64 800 2 350 10:19 09.12.2019
2966 Mist -41 1019 64 5000 3 10 09:45 09.12.2019
2967 Mist -41 1019 64 5000 3 360 09:25 09.12.2019
2968 Mist -41 1020 64 5000 3 10 08:57 09.12.2019
2969 Mist -41 1020 64 5000 2 360 08:39 09.12.2019
2970 Mist -41 1020 64 5000 2 360 08:21 09.12.2019
2971 Mist -40 1019 58 2400 2 330 07:52 09.12.2019
2972 Mist -40 1019 65 5000 2 350 07:34 09.12.2019
2973 Mist -40 1019 58 5000 2 360 06:58 09.12.2019
2974 Mist -40 1019 58 3200 3 10 06:32 09.12.2019
2975 Mist -40 1020 58 3200 3 360 05:48 09.12.2019
2976 Mist -40 1019 58 3200 2 350 05:24 09.12.2019
2977 Mist -41 1019 64 3200 3 350 04:28 09.12.2019
2978 Mist -41 1020 57 2000 3 340 02:46 09.12.2019
2979 Mist -41 1020 57 1800 3 350 01:47 09.12.2019
2980 Mist -42 1020 64 1100 2 350 01:23 09.12.2019
2981 Mist -41 1020 57 1500 3 360 00:34 09.12.2019
2982 Mist -41 1020 57 1500 2 350 23:58 08.12.2019
2983 Mist -41 1020 57 1500 2 360 23:37 08.12.2019
2984 Mist -41 1020 57 1500 2 360 23:19 08.12.2019
2985 Mist -41 1020 57 2400 2 350 22:56 08.12.2019
2986 Mist -41 1020 57 2400 3 360 22:38 08.12.2019
2987 Mist -41 1020 57 2400 3 360 22:18 08.12.2019
2988 Mist -41 1020 57 2400 3 360 21:57 08.12.2019
2989 Mist -41 1020 57 2400 2 350 21:38 08.12.2019
2990 Mist -41 1020 57 2400 2 350 21:19 08.12.2019
2991 Mist -41 1020 64 3200 2 350 20:56 08.12.2019
2992 Mist -41 1020 64 3200 2 350 20:37 08.12.2019
2993 Mist -41 1020 64 3200 2 350 20:37 08.12.2019
2994 Mist -41 1020 64 3200 2 350 20:19 08.12.2019
2995 Mist -41 1020 64 1600 2 340 19:56 08.12.2019
2996 Mist -41 1020 57 5000 2 350 19:38 08.12.2019
2997 Mist -41 1020 57 5000 2 350 19:20 08.12.2019
2998 Mist -41 1020 57 5000 2 360 18:55 08.12.2019
2999 Mist -41 1021 57 1800 3 20 18:36 08.12.2019
3000 Mist -41 1021 57 1800 3 20 18:36 08.12.2019
3001 Mist -41 1021 57 1800 3 20 18:18 08.12.2019
3002 Mist -41 1021 64 1800 2 350 17:55 08.12.2019
3003 Mist -41 1020 64 1700 3 350 17:37 08.12.2019
3004 Mist -41 1020 64 1700 3 350 17:19 08.12.2019
3005 Mist -41 1020 64 1400 3 340 16:55 08.12.2019
3006 Mist -41 1020 64 1400 3 350 16:37 08.12.2019
3007 Mist -41 1020 64 1400 3 350 16:18 08.12.2019
3008 Mist -41 1021 64 1500 3 350 15:38 08.12.2019
3009 Mist -41 1021 64 1500 3 350 15:19 08.12.2019
3010 Mist -41 1021 64 1400 2 340 14:58 08.12.2019
3011 Mist -41 1021 57 1400 2 350 14:39 08.12.2019
3012 Mist -41 1021 57 1400 2 350 14:39 08.12.2019
3013 Mist -41 1021 57 1400 2 350 14:21 08.12.2019
3014 Mist -41 1021 57 1200 3 350 13:56 08.12.2019
3015 Mist -41 1021 57 1200 3 350 13:56 08.12.2019
3016 Mist -41 1021 57 1200 3 340 13:38 08.12.2019
3017 Mist -41 1021 57 1200 3 340 13:19 08.12.2019
3018 Mist -41 1021 57 1000 3 350 12:54 08.12.2019
3019 Mist -41 1021 57 1000 3 350 12:36 08.12.2019
3020 Mist -41 1021 57 1000 3 350 12:18 08.12.2019
3021 Mist -41 1021 57 1000 2 350 11:38 08.12.2019
3022 Mist -41 1021 57 1000 2 350 11:20 08.12.2019
3023 Mist -42 1021 64 1000 2 330 10:58 08.12.2019
3024 Mist -42 1022 64 1000 3 340 10:38 08.12.2019
3025 Mist -42 1022 64 1000 3 340 10:20 08.12.2019
3026 Mist -42 1022 64 1000 3 350 09:56 08.12.2019
3027 Mist -42 1022 64 1000 3 350 09:37 08.12.2019
3028 Mist -42 1022 64 1000 3 350 09:19 08.12.2019
3029 Fog -42 1022 64 900 2 350 08:57 08.12.2019
3030 Mist -42 1022 57 2000 3 10 08:37 08.12.2019
3031 Mist -42 1022 57 2000 3 10 08:37 08.12.2019
3032 Mist -42 1022 57 2000 3 10 08:18 08.12.2019
3033 Mist -42 1022 64 2000 3 350 07:42 08.12.2019
3034 Mist -42 1022 64 2000 3 350 07:19 08.12.2019
3035 Mist -42 1022 64 2000 3 340 06:50 08.12.2019
3036 Mist -42 1022 57 2000 3 340 06:22 08.12.2019
3037 Mist -42 1022 57 2000 2 350 05:48 08.12.2019
3038 Mist -42 1022 57 1500 3 340 05:18 08.12.2019
3039 Fog -43 1023 57 900 2 350 03:50 08.12.2019
3040 Fog -43 1023 57 800 3 10 03:22 08.12.2019
3041 Fog -43 1023 57 800 2 350 02:39 08.12.2019
3042 Mist -44 1023 57 1800 2 360 01:55 08.12.2019
3043 Mist -44 1024 57 1500 2 20 01:23 08.12.2019
3044 Mist -44 1024 63 1200 2 360 00:40 08.12.2019
3045 Mist -44 1024 63 1200 2 360 00:20 08.12.2019
3046 Mist -43 1024 57 1200 2 330 23:41 07.12.2019
3047 Mist -43 1024 57 1200 2 330 23:21 07.12.2019
3048 Mist -43 1024 57 1200 2 350 22:57 07.12.2019
3049 Mist -43 1024 57 1200 2 360 22:39 07.12.2019
3050 Mist -43 1024 57 1200 2 360 22:21 07.12.2019
3051 Mist -43 1025 57 1200 2 360 21:56 07.12.2019
3052 Fog -43 1025 57 900 1 360 21:38 07.12.2019
3053 Fog -43 1025 57 900 1 360 21:19 07.12.2019
3054 Fog -43 1025 57 900 2 350 20:59 07.12.2019
3055 Fog -43 1025 64 900 2 350 20:36 07.12.2019
3056 Fog -43 1025 64 900 2 350 20:18 07.12.2019
3057 Fog -42 1025 57 800 2 350 19:56 07.12.2019
3058 Mist -42 1025 57 1100 2 360 19:38 07.12.2019
3059 Mist -42 1025 57 1100 2 360 19:20 07.12.2019
3060 Mist -42 1025 57 1100 2 360 18:44 07.12.2019
3061 Mist -42 1025 64 1100 2 350 18:19 07.12.2019
3062 Mist -42 1026 57 1800 2 20 17:58 07.12.2019
3063 Mist -42 1025 64 1100 2 360 17:40 07.12.2019
3064 Mist -42 1025 64 1100 2 360 17:21 07.12.2019
3065 Mist -42 1025 64 2400 1 30 16:56 07.12.2019
3066 Mist -41 1026 57 1000 2 10 16:38 07.12.2019
3067 Mist -41 1026 57 1000 2 10 16:20 07.12.2019
3068 Mist -41 1026 64 1000 2 10 15:57 07.12.2019
3069 Mist -41 1026 57 5000 1 20 15:38 07.12.2019
3070 Mist -41 1026 57 5000 1 20 15:20 07.12.2019
3071 Fog -41 1027 64 900 2 10 14:42 07.12.2019
3072 Fog -41 1027 64 900 2 10 14:19 07.12.2019
3073 Fog -41 1027 64 900 1 10 13:55 07.12.2019
3074 Fog -41 1027 64 900 2 10 13:37 07.12.2019
3075 Fog -41 1027 64 900 2 10 13:18 07.12.2019
3076 Fog -40 1027 58 900 2 350 12:41 07.12.2019
3077 Fog -40 1027 58 900 2 350 12:22 07.12.2019
3078 Fog -40 1027 65 800 2 350 11:58 07.12.2019
3079 Mist -39 1027 58 1000 1 10 11:40 07.12.2019
3080 Mist -39 1027 58 1000 1 10 11:21 07.12.2019
3081 Mist -39 1027 58 3200 1 10 10:38 07.12.2019
3082 Mist -39 1027 58 3200 1 10 10:20 07.12.2019
3083 Mist -39 1027 65 3200 1 50 09:58 07.12.2019
3084 Mist -39 1027 65 3200 1 40 09:37 07.12.2019
3085 Mist -39 1027 65 3200 1 40 09:18 07.12.2019
3086 Clouds -42 1033 93 0 1.22 152 08:41 07.12.2019
3087 Mist -39 1027 65 3200 1 50 08:21 07.12.2019
3088 Mist -39 1027 65 3200 1 50 07:46 07.12.2019
3089 Mist -39 1027 65 3200 1 50 07:26 07.12.2019
3090 Mist -39 1027 65 2400 1 70 06:50 07.12.2019
3091 Fog -39 1027 65 1000 1 60 06:25 07.12.2019
3092 Fog -39 1026 65 700 1 20 05:38 07.12.2019
3093 Fog -40 1027 65 350 1.03 212 04:19 07.12.2019
3094 Fog -40 1026 65 400 1.03 212 03:44 07.12.2019
3095 Fog -40 1026 58 1000 1 290 02:21 07.12.2019
3096 Mist -40 1026 65 3200 1 300 01:35 07.12.2019
3097 Mist -40 1026 65 5000 1 290 00:57 07.12.2019
3098 Clouds -40 1026 65 10000 2 290 00:21 07.12.2019
3099 Clouds -40 1026 65 10000 2 300 23:56 06.12.2019
3100 Clouds -40 1026 65 10000 2 290 23:38 06.12.2019
3101 Clouds -40 1026 65 10000 2 290 23:18 06.12.2019
3102 Clouds -39 1026 65 10000 2 290 22:39 06.12.2019
3103 Clouds -39 1026 65 10000 2 290 22:20 06.12.2019
3104 Clouds -39 1026 58 10000 1 280 21:58 06.12.2019
3105 Clouds -39 1026 65 10000 2 280 21:39 06.12.2019
3106 Clouds -39 1026 65 10000 2 280 21:20 06.12.2019
3107 Clouds -39 1026 65 10000 2 290 20:43 06.12.2019
3108 Clouds -39 1025 65 10000 1 270 20:25 06.12.2019
3109 Clouds -38 1025 58 10000 2 280 19:59 06.12.2019
3110 Clouds -38 1025 65 10000 2 270 19:40 06.12.2019
3111 Clouds -38 1025 65 10000 2 270 19:22 06.12.2019
3112 Clouds -38 1025 65 10000 2 280 18:57 06.12.2019
3113 Clouds -38 1025 65 10000 2 270 18:39 06.12.2019
3114 Clouds -38 1025 65 10000 2 270 18:20 06.12.2019
3115 Clouds -38 1025 65 10000 2 270 17:57 06.12.2019
3116 Clouds -38 1025 65 10000 2 290 17:38 06.12.2019
3117 Clouds -38 1025 65 10000 2 290 17:20 06.12.2019
3118 Clouds -38 1025 65 10000 2 310 16:55 06.12.2019
3119 Clouds -37 1024 59 10000 2 300 16:37 06.12.2019
3120 Clouds -37 1024 59 10000 2 300 16:18 06.12.2019
3121 Clouds -37 1024 59 10000 1 320 15:41 06.12.2019
3122 Clouds -37 1024 59 10000 1 320 15:19 06.12.2019
3123 Clouds -37 1024 65 10000 2 320 14:57 06.12.2019
3124 Snow -37 1024 65 10000 2 320 14:39 06.12.2019
3125 Snow -37 1024 65 10000 2 320 14:19 06.12.2019
3126 Snow -37 1024 65 10000 3 300 13:44 06.12.2019
3127 Snow -37 1024 65 10000 3 300 13:26 06.12.2019
3128 Snow -37 1024 65 10000 2 310 12:44 06.12.2019
3129 Clouds -37 1024 65 10000 3 300 12:23 06.12.2019
3130 Clouds -37 1023 65 10000 2 280 11:58 06.12.2019
3131 Clouds -37 1023 59 10000 2 270 11:40 06.12.2019
3132 Clouds -37 1023 59 10000 2 270 11:22 06.12.2019
3133 Clouds -37 1023 65 10000 1 270 10:44 06.12.2019
3134 Clouds -37 1023 65 10000 1 270 10:22 06.12.2019
3135 Clouds -38 1022 65 10000 2 240 09:59 06.12.2019
3136 Clouds -39 1022 58 10000 1 250 09:39 06.12.2019
3137 Clouds -39 1022 58 10000 1 250 09:20 06.12.2019
3138 Clouds -39 1022 65 10000 2.73 289 08:57 06.12.2019
3139 Clouds -38 1022 65 10000 2.73 289 08:38 06.12.2019
3140 Clouds -38 1022 65 10000 2.73 289 08:38 06.12.2019
3141 Snow -38 1022 65 10000 2.5 284 08:20 06.12.2019
3142 Snow -37 1021 65 10000 3 280 07:37 06.12.2019
3143 Snow -37 1021 65 10000 3 280 07:19 06.12.2019
3144 Snow -37 1020 59 10000 3 280 06:30 06.12.2019
3145 Snow -37 1020 59 10000 3 290 05:56 06.12.2019
3146 Snow -38 1020 65 10000 2 250 05:38 06.12.2019
3147 Clouds -39 1020 65 10000 4 220 02:19 06.12.2019
3148 Clouds -39 1019 65 10000 3 230 01:43 06.12.2019
3149 Clouds -39 1019 65 10000 4 210 00:48 06.12.2019
3150 Clouds -39 1019 58 10000 4 210 00:22 06.12.2019
3151 Clouds -40 1019 65 10000 3 200 23:50 05.12.2019
3152 Clouds -39 1019 65 10000 4 260 23:20 05.12.2019
3153 Clouds -39 1019 65 10000 3 270 22:58 05.12.2019
3154 Clouds -39 1019 58 10000 3 270 22:38 05.12.2019
3155 Clouds -39 1019 58 10000 3 270 22:18 05.12.2019
3156 Clouds -40 1019 65 10000 3 280 21:55 05.12.2019
3157 Clouds -40 1019 65 10000 4 270 21:37 05.12.2019
3158 Clouds -40 1019 65 10000 4 270 21:18 05.12.2019
3159 Clouds -40 1019 65 10000 3 280 20:54 05.12.2019
3160 Clouds -40 1018 65 10000 3 280 20:36 05.12.2019
3161 Clouds -40 1018 65 10000 3 280 20:18 05.12.2019
3162 Mist -41 1018 64 5000 4 290 19:40 05.12.2019
3163 Mist -41 1018 64 5000 4 290 19:21 05.12.2019
3164 Mist -41 1018 57 5000 3 300 18:58 05.12.2019
3165 Mist -41 1018 57 5000 3 300 18:38 05.12.2019
3166 Mist -41 1018 57 5000 3 300 18:20 05.12.2019
3167 Mist -41 1017 57 5000 3 300 17:40 05.12.2019
3168 Mist -42 1017 64 5000 3 290 17:20 05.12.2019
3169 Mist -42 1017 57 5000 3 290 16:58 05.12.2019
3170 Mist -42 1017 57 5000 3 290 16:39 05.12.2019
3171 Mist -42 1017 57 5000 3 290 16:39 05.12.2019
3172 Mist -42 1017 64 5000 3 290 16:21 05.12.2019
3173 Mist -42 1017 64 5000 2 290 15:58 05.12.2019
3174 Mist -42 1017 64 5000 2 290 15:39 05.12.2019
3175 Mist -42 1017 57 5000 2 290 15:20 05.12.2019
3176 Mist -42 1017 57 5000 2 300 14:56 05.12.2019
3177 Mist -42 1017 57 5000 2 300 14:56 05.12.2019
3178 Mist -42 1016 64 5000 2 300 14:37 05.12.2019
3179 Mist -42 1016 64 5000 2 300 14:19 05.12.2019
3180 Mist -42 1016 64 5000 2 300 14:19 05.12.2019
3181 Mist -42 1017 64 5000 2 290 13:57 05.12.2019
3182 Mist -42 1017 64 5000 2 290 13:38 05.12.2019
3183 Mist -41 1017 57 5000 2 300 13:19 05.12.2019
3184 Mist -41 1017 57 5000 2 290 12:57 05.12.2019
3185 Mist -41 1017 57 5000 2 290 12:38 05.12.2019
3186 Mist -41 1017 64 5000 3 300 12:20 05.12.2019
3187 Mist -41 1017 64 5000 3 300 12:20 05.12.2019
3188 Mist -40 1017 58 5000 3 290 11:39 05.12.2019
3189 Mist -40 1017 58 5000 2 300 11:21 05.12.2019
3190 Mist -40 1017 65 5000 2 310 10:58 05.12.2019
3191 Mist -40 1017 65 5000 2 310 10:40 05.12.2019
3192 Mist -40 1017 65 5000 2 310 10:40 05.12.2019
3193 Clouds -39 1017 58 10000 3 320 10:19 05.12.2019
3194 Snow -39 1017 58 10000 3 320 09:55 05.12.2019
3195 Snow -39 1017 58 10000 3 330 09:37 05.12.2019
3196 Snow -39 1017 58 10000 3 330 09:18 05.12.2019
3197 Snow -39 1017 65 10000 3 330 08:39 05.12.2019
3198 Snow -39 1017 65 10000 3 350 08:20 05.12.2019
3199 Snow -38 1018 65 10000 4 360 07:58 05.12.2019
3200 Snow -38 1018 65 10000 4 360 07:39 05.12.2019
3201 Snow -38 1017 65 10000 4 360 07:20 05.12.2019
3202 Snow -38 1017 65 5000 4 10 06:46 05.12.2019
3203 Snow -38 1017 73 5000 5 10 06:23 05.12.2019
3204 Snow -36 1017 66 5000 3 350 05:49 05.12.2019
3205 Snow -36 1018 66 2400 3 350 05:24 05.12.2019
3206 Snow -36 1018 66 2100 2 350 04:33 05.12.2019
3207 Snow -36 1018 66 2100 2 350 04:33 05.12.2019
3208 Mist -37 1019 65 2000 2 350 03:31 05.12.2019
3209 Mist -38 1020 65 1600 2 350 02:41 05.12.2019
3210 Mist -38 1021 65 1500 2 350 02:21 05.12.2019
3211 Fog -38 1021 65 1000 2 340 01:49 05.12.2019
3212 Fog -39 1022 65 900 2 350 01:22 05.12.2019
3213 Fog -40 1023 65 400 2 360 00:38 05.12.2019
3214 Fog -40 1023 65 400 2 360 00:20 05.12.2019
3215 Fog -40 1023 65 350 1 350 23:45 04.12.2019
3216 Fog -40 1024 65 350 1 360 23:22 04.12.2019
3217 Fog -41 1025 64 350 1 340 22:57 04.12.2019
3218 Fog -40 1026 65 250 1 350 22:38 04.12.2019
3219 Fog -40 1026 65 250 1 350 22:19 04.12.2019
3220 Fog -40 1026 65 300 1 20 21:56 04.12.2019
3221 Fog -40 1026 65 300 1 20 21:56 04.12.2019
3222 Mist -38 1027 65 2400 1 130 21:37 04.12.2019
3223 Mist -38 1027 65 2400 1 130 21:18 04.12.2019
3224 Mist -38 1028 65 2400 2 140 20:56 04.12.2019
3225 Clouds -37 1028 65 10000 2 150 20:38 04.12.2019
3226 Clear -37 1028 65 10000 2 150 20:19 04.12.2019
3227 Clear -37 1029 65 10000 2 170 19:42 04.12.2019
3228 Mist -37 1029 65 5000 2 160 19:24 04.12.2019
3229 Clear -37 1030 65 10000 3 160 18:59 04.12.2019
3230 Clear -37 1030 65 10000 3 160 18:41 04.12.2019
3231 Clear -36 1030 66 10000 2 160 18:22 04.12.2019
3232 Clear -36 1031 66 10000 3 160 17:58 04.12.2019
3233 Mist -37 1031 65 2400 3 150 17:39 04.12.2019
3234 Mist -37 1031 65 2400 3 150 17:19 04.12.2019
3235 Mist -38 1032 65 2400 2 160 16:56 04.12.2019
3236 Clear -37 1032 65 10000 1 190 16:38 04.12.2019
3237 Clear -37 1032 65 10000 1 190 16:19 04.12.2019
3238 Clear -37 1032 65 10000 1 190 16:19 04.12.2019
3239 Clear -36 1033 66 10000 2 200 15:55 04.12.2019
3240 Clear -34 1033 66 10000 2 200 15:36 04.12.2019
3241 Clear -34 1033 66 10000 2 200 15:18 04.12.2019
3242 Clear -35 1034 73 10000 3 200 14:42 04.12.2019
3243 Clear -34 1034 66 10000 4 210 14:23 04.12.2019
3244 Clear -34 1034 66 10000 4 210 14:23 04.12.2019
3245 Clouds -34 1034 66 10000 4 210 13:57 04.12.2019
3246 Clouds -34 1035 66 10000 3 200 13:37 04.12.2019
3247 Clouds -34 1035 66 10000 3 200 13:19 04.12.2019
3248 Clouds -33 1035 67 10000 4 220 12:44 04.12.2019
3249 Clouds -33 1035 67 10000 4 220 12:24 04.12.2019
3250 Clouds -33 1035 67 10000 3 200 11:55 04.12.2019
3251 Clouds -33 1035 67 10000 3 200 11:36 04.12.2019
3252 Clouds -33 1035 67 10000 3 200 11:18 04.12.2019
3253 Clouds -33 1035 67 10000 3 200 10:42 04.12.2019
3254 Clouds -33 1035 67 10000 3 200 10:22 04.12.2019
3255 Clouds -32 1035 67 10000 4 220 09:55 04.12.2019
3256 Clouds -33 1035 74 10000 4 220 09:36 04.12.2019
3257 Clouds -33 1035 74 10000 4 220 09:18 04.12.2019
3258 Clouds -33 1035 74 10000 4 220 09:18 04.12.2019
3259 Clouds -32 1035 67 10000 3 200 08:39 04.12.2019
3260 Clouds -32 1035 74 10000 3 240 08:19 04.12.2019
3261 Clouds -31 1035 67 10000 4 250 07:47 04.12.2019
3262 Clouds -31 1035 67 10000 4 250 07:47 04.12.2019
3263 Clouds -31 1035 67 10000 3 240 07:29 04.12.2019
3264 Clouds -31 1035 67 10000 4 260 06:34 04.12.2019
3265 Clouds -31 1035 74 10000 3 260 05:48 04.12.2019
3266 Clouds -31 1035 74 10000 4 260 04:58 04.12.2019
3267 Clouds -30 1034 67 10000 5 270 03:56 04.12.2019
3268 Clouds -30 1034 67 10000 4 260 02:47 04.12.2019
3269 Clouds -30 1035 67 10000 3 290 00:51 04.12.2019
3270 Clouds -30 1035 67 10000 3 290 00:25 04.12.2019
3271 Clouds -30 1034 67 10000 3 290 23:58 03.12.2019
3272 Clouds -30 1034 67 10000 3 290 23:40 03.12.2019
3273 Clouds -30 1034 67 10000 3 290 23:19 03.12.2019
3274 Clouds -30 1034 67 10000 4 300 22:41 03.12.2019
3275 Clouds -31 1034 74 10000 3 300 22:19 03.12.2019
3276 Clouds -31 1034 74 10000 4 290 21:58 03.12.2019
3277 Clouds -31 1035 67 10000 3 280 21:38 03.12.2019
3278 Clouds -31 1035 67 10000 3 280 21:19 03.12.2019
3279 Clouds -32 1035 74 10000 2 280 20:58 03.12.2019
3280 Clouds -32 1035 74 10000 2 280 20:39 03.12.2019
3281 Clouds -33 1035 74 10000 1 240 20:18 03.12.2019
3282 Clouds -33 1034 67 10000 1 220 19:55 03.12.2019
3283 Clouds -33 1034 67 10000 1 220 19:55 03.12.2019
3284 Clouds -34 1034 73 10000 2 240 19:37 03.12.2019
3285 Clouds -34 1034 73 10000 2 240 19:18 03.12.2019
3286 Clouds -33 1035 67 10000 2 240 18:56 03.12.2019
3287 Clouds -33 1035 67 10000 1 190 18:38 03.12.2019
3288 Clouds -33 1035 67 10000 1 190 18:19 03.12.2019
3289 Clouds -33 1035 67 10000 2.86 266 17:55 03.12.2019
3290 Clouds -33 1035 67 10000 2 290 17:36 03.12.2019
3291 Clouds -33 1035 67 10000 2 290 17:18 03.12.2019
3292 Clouds -33 1035 67 10000 3 280 16:56 03.12.2019
3293 Clouds -33 1035 67 10000 2 270 16:37 03.12.2019
3294 Clouds -33 1035 67 10000 2 270 16:19 03.12.2019
3295 Clouds -33 1035 67 10000 2 280 15:54 03.12.2019
3296 Clouds -33 1035 67 10000 2 300 15:36 03.12.2019
3297 Clouds -33 1035 67 10000 2 300 15:18 03.12.2019
3298 Clouds -34 1035 73 10000 3 280 14:41 03.12.2019
3299 Clouds -34 1035 66 10000 2 270 14:20 03.12.2019
3300 Clouds -34 1035 66 10000 2 270 13:54 03.12.2019
3301 Clouds -34 1036 66 10000 3 280 13:36 03.12.2019
3302 Clouds -34 1036 66 10000 3 280 13:18 03.12.2019
3303 Clouds -35 1036 73 10000 2 280 12:40 03.12.2019
3304 Clouds -35 1036 66 10000 2 270 12:18 03.12.2019
3305 Clouds -35 1036 66 10000 1 280 11:58 03.12.2019
3306 Clouds -35 1036 66 10000 3 280 11:38 03.12.2019
3307 Clouds -35 1036 66 10000 3 280 11:20 03.12.2019
3308 Clouds -35 1036 66 10000 2 270 10:57 03.12.2019
3309 Clouds -35 1036 66 10000 2 270 10:39 03.12.2019
3310 Clouds -35 1036 66 10000 2 270 10:19 03.12.2019
3311 Clouds -35 1036 66 10000 1 270 09:46 03.12.2019
3312 Clouds -35 1035 66 10000 1 270 09:25 03.12.2019
3313 Clouds -35 1035 66 10000 2 260 08:59 03.12.2019
3314 Clouds -35 1035 66 10000 2 260 08:40 03.12.2019
3315 Clouds -35 1035 66 10000 2 270 08:21 03.12.2019
3316 Clouds -35 1035 66 10000 2 290 07:53 03.12.2019
3317 Clouds -35 1035 66 10000 2 270 07:29 03.12.2019
3318 Clouds -35 1035 66 10000 2 260 06:58 03.12.2019
3319 Clouds -35 1035 73 10000 3 270 06:21 03.12.2019
3320 Clouds -35 1035 73 10000 2 260 05:56 03.12.2019
3321 Clouds -35 1035 66 10000 3 280 03:45 03.12.2019
3322 Clouds -35 1035 66 10000 2 290 03:23 03.12.2019
3323 Clouds -35 1035 66 10000 3 290 02:57 03.12.2019
3324 Clouds -35 1035 66 10000 3 290 02:39 03.12.2019
3325 Clouds -35 1035 66 10000 3 270 02:21 03.12.2019
3326 Clouds -36 1035 66 10000 2 270 01:40 03.12.2019
3327 Clouds -36 1035 66 10000 2 300 01:20 03.12.2019
3328 Clouds -35 1034 66 10000 3 300 00:42 03.12.2019
3329 Clouds -35 1034 66 10000 2 300 00:23 03.12.2019
3330 Clouds -35 1034 66 10000 2 290 23:44 02.12.2019
3331 Clouds -35 1034 66 10000 3 290 23:22 02.12.2019
3332 Clouds -35 1034 66 10000 3 300 22:58 02.12.2019
3333 Clouds -35 1034 66 10000 3 300 22:39 02.12.2019
3334 Clouds -35 1033 66 10000 3 300 22:20 02.12.2019
3335 Clouds -35 1033 66 10000 3 300 21:54 02.12.2019
3336 Clouds -35 1033 66 10000 3 300 21:36 02.12.2019
3337 Clouds -35 1033 66 10000 3 300 21:18 02.12.2019
3338 Clouds -35 1033 66 10000 2 290 20:55 02.12.2019
3339 Clouds -35 1033 66 10000 2 290 20:55 02.12.2019
3340 Clouds -35 1033 66 10000 3 290 20:36 02.12.2019
3341 Clouds -35 1033 66 10000 3 290 20:18 02.12.2019
3342 Clouds -35 1033 66 10000 2 290 19:41 02.12.2019
3343 Clouds -35 1033 66 10000 2 290 19:41 02.12.2019
3344 Clouds -35 1032 66 10000 3 310 19:21 02.12.2019
3345 Clouds -35 1032 66 10000 3 310 18:55 02.12.2019
3346 Clouds -35 1032 66 10000 3 300 18:36 02.12.2019
3347 Clouds -35 1032 66 10000 3 300 18:18 02.12.2019
3348 Clouds -35 1032 66 10000 3 300 18:18 02.12.2019
3349 Clouds -35 1033 66 10000 2 300 17:41 02.12.2019
3350 Clouds -35 1032 66 10000 2 300 17:21 02.12.2019
3351 Clouds -35 1032 66 10000 3 290 16:59 02.12.2019
3352 Clouds -35 1032 66 10000 3 290 16:39 02.12.2019
3353 Clouds -35 1032 66 10000 3 290 16:39 02.12.2019
3354 Clouds -35 1032 66 10000 2 300 16:18 02.12.2019
3355 Clouds -35 1032 73 10000 2 300 15:56 02.12.2019
3356 Clouds -35 1032 73 10000 2 300 15:38 02.12.2019
3357 Clouds -35 1032 73 10000 2 300 15:20 02.12.2019
3358 Clouds -35 1032 73 10000 2 300 15:20 02.12.2019
3359 Clouds -34 1032 66 10000 3 290 14:55 02.12.2019
3360 Clouds -34 1032 66 10000 3 290 14:55 02.12.2019
3361 Clouds -34 1032 66 10000 3 290 14:55 02.12.2019
3362 Clouds -34 1032 66 10000 2 300 14:37 02.12.2019
3363 Clouds -34 1032 66 10000 2 300 14:18 02.12.2019
3364 Clouds -34 1032 66 10000 2 310 13:54 02.12.2019
3365 Clouds -34 1032 66 10000 2 300 13:36 02.12.2019
3366 Clouds -34 1032 66 10000 2 300 13:18 02.12.2019
3367 Clouds -34 1032 66 10000 3 300 12:41 02.12.2019
3368 Clouds -34 1031 73 10000 2 300 12:20 02.12.2019
3369 Clouds -34 1031 73 10000 2 290 11:57 02.12.2019
3370 Clouds -34 1031 73 10000 2 300 11:37 02.12.2019
3371 Clouds -34 1031 73 10000 2 300 11:19 02.12.2019
3372 Clouds -34 1031 73 10000 1 280 10:56 02.12.2019
3373 Clouds -33 1031 67 10000 2 290 10:38 02.12.2019
3374 Clouds -33 1031 67 10000 2 290 10:20 02.12.2019
3375 Clouds -33 1030 67 10000 1 290 09:42 02.12.2019
3376 Clouds -33 1030 67 10000 1 290 09:19 02.12.2019
3377 Clouds -33 1030 74 10000 2 280 08:58 02.12.2019
3378 Clouds -33 1030 74 10000 2 280 08:40 02.12.2019
3379 Clouds -33 1029 74 10000 2 290 08:21 02.12.2019
3380 Clouds -33 1029 74 10000 1 280 07:45 02.12.2019
3381 Clouds -33 1029 74 10000 1 280 07:45 02.12.2019
3382 Clouds -33 1029 67 10000 1 330 07:24 02.12.2019
3383 Clouds -33 1029 74 10000 1 320 06:59 02.12.2019
3384 Clouds -33 1029 74 10000 1 320 06:39 02.12.2019
3385 Clouds -32 1029 67 10000 1 260 05:36 02.12.2019
3386 Clouds -33 1029 74 10000 1 270 04:55 02.12.2019
3387 Mist -34 1028 66 5000 2 290 02:56 02.12.2019
3388 Mist -36 1028 66 3200 1 290 02:38 02.12.2019
3389 Mist -37 1027 65 2400 1 320 01:30 02.12.2019
3390 Mist -35 1027 66 2400 1 310 00:59 02.12.2019
3391 Mist -33 1027 67 2400 2 310 00:30 02.12.2019
3392 Mist -35 1027 73 1800 3 290 23:57 01.12.2019
3393 Fog -37 1026 65 1300 2 290 23:38 01.12.2019
3394 Fog -37 1026 65 1300 2 290 23:19 01.12.2019
3395 Fog -38 1026 65 1000 0.64 271 22:56 01.12.2019
3396 Mist -39 1026 65 1800 1 330 22:38 01.12.2019
3397 Mist -39 1026 65 1800 1 330 22:18 01.12.2019
3398 Fog -39 1026 65 1800 1 70 21:56 01.12.2019
3399 Mist -38 1025 65 2400 1 20 21:38 01.12.2019
3400 Mist -38 1025 65 2400 1 20 21:19 01.12.2019
3401 Mist -37 1025 65 5000 2 250 20:56 01.12.2019
3402 Mist -38 1025 73 5000 1 170 20:37 01.12.2019
3403 Mist -38 1025 73 5000 1 170 20:37 01.12.2019
3404 Mist -38 1025 73 5000 1 170 20:37 01.12.2019
3405 Mist -38 1025 73 5000 1 170 20:19 01.12.2019
3406 Mist -38 1025 65 5000 0.48 251 19:55 01.12.2019
3407 Mist -37 1025 65 5000 0.48 251 19:37 01.12.2019
3408 Mist -37 1025 65 5000 0.48 251 19:18 01.12.2019
3409 Mist -37 1024 65 5000 0.48 251 18:55 01.12.2019
3410 Mist -37 1024 65 5000 1 280 18:37 01.12.2019
3411 Mist -37 1024 65 5000 1 280 18:18 01.12.2019
3412 Mist -37 1024 65 5000 1 280 18:18 01.12.2019
3413 Mist -37 1024 65 5000 2 250 17:56 01.12.2019
3414 Mist -37 1024 65 5000 1 260 17:38 01.12.2019
3415 Mist -37 1024 65 5000 1 260 17:19 01.12.2019
3416 Mist -38 1024 65 5000 2 290 16:43 01.12.2019
3417 Mist -38 1024 65 5000 0.24 180 16:24 01.12.2019
3418 Mist -37 1024 65 5000 0.24 180 15:53 01.12.2019
3419 Clouds -37 1024 65 10000 0.24 180 15:33 01.12.2019
3420 Clouds -38 1024 73 10000 0.24 180 14:59 01.12.2019
3421 Clouds -37 1023 65 10000 1 260 14:38 01.12.2019
3422 Clouds -37 1023 65 10000 1 260 14:19 01.12.2019
3423 Clouds -37 1023 65 10000 0.37 231 13:40 01.12.2019
3424 Clouds -37 1023 65 10000 0.37 231 13:40 01.12.2019
3425 Clouds -36 1023 66 10000 0.42 235 13:21 01.12.2019
3426 Clouds -36 1023 66 10000 1 300 12:47 01.12.2019
3427 Clouds -36 1023 73 10000 0.42 235 12:19 01.12.2019
3428 Clouds -36 1023 66 10000 1 140 11:44 01.12.2019
3429 Clouds -36 1022 73 10000 0.42 235 11:24 01.12.2019
3430 Clouds -35 1022 66 10000 0.76 131 10:55 01.12.2019
3431 Clouds -36 1022 73 10000 0.76 131 10:37 01.12.2019
3432 Clouds -36 1022 73 10000 0.76 131 10:18 01.12.2019
3433 Mist -35 1022 66 5000 0.76 131 09:41 01.12.2019
3434 Mist -34 1022 66 5000 1 290 09:21 01.12.2019
3435 Mist -34 1021 66 5000 0.76 131 08:49 01.12.2019
3436 Mist -33 1021 67 5000 0.61 130 08:23 01.12.2019
3437 Mist -34 1021 73 5000 1 10 07:53 01.12.2019
3438 Mist -34 1021 73 5000 0.82 68 07:32 01.12.2019
3439 Mist -33 1021 67 5000 0.82 68 06:58 01.12.2019
3440 Mist -33 1021 67 5000 0.82 68 06:40 01.12.2019
3441 Mist -33 1020 74 5000 0.82 68 05:55 01.12.2019
3442 Mist -32 1020 67 5000 0.44 23 04:53 01.12.2019
3443 Mist -33 1020 74 5000 1 30 04:22 01.12.2019
3444 Mist -34 1020 73 5000 0.44 23 02:43 01.12.2019
3445 Clouds -35 1020 73 10000 1 340 02:24 01.12.2019
3446 Clouds -34 1020 66 10000 1 310 01:53 01.12.2019
3447 Clouds -34 1020 66 10000 2 290 01:26 01.12.2019
3448 Mist -34 1020 73 5000 2 310 00:44 01.12.2019
3449 Mist -33 1020 67 5000 1 310 00:26 01.12.2019
3450 Mist -33 1020 74 5000 1 290 23:45 30.11.2019
3451 Snow -33 1019 74 5000 1.1 9 23:25 30.11.2019
3452 Clouds -33 1019 74 10000 1.6 1 22:58 30.11.2019
3453 Clouds -33 1019 74 10000 1.6 1 22:39 30.11.2019
3454 Clouds -33 1019 74 10000 1.6 1 22:20 30.11.2019
3455 Clouds -33 1019 74 10000 1.6 1 22:20 30.11.2019
3456 Clouds -32 1019 74 10000 1 300 21:47 30.11.2019
3457 Snow -32 1019 74 10000 1 300 21:28 30.11.2019
3458 Snow -32 1019 74 10000 1 300 21:28 30.11.2019
3459 Snow -31 1019 67 10000 1 300 20:58 30.11.2019
3460 Snow -31 1019 67 10000 1 300 20:39 30.11.2019
3461 Snow -31 1019 74 10000 1 280 20:19 30.11.2019
3462 Snow -31 1019 74 10000 1 280 20:19 30.11.2019
3463 Snow -31 1019 74 10000 1 300 19:56 30.11.2019
3464 Snow -31 1019 74 10000 1 320 19:38 30.11.2019
3465 Snow -31 1019 74 10000 1 320 19:20 30.11.2019
3466 Snow -30 1019 67 10000 1 320 18:58 30.11.2019
3467 Snow -30 1019 74 10000 1 330 18:38 30.11.2019
3468 Snow -30 1019 74 10000 1 330 18:20 30.11.2019
3469 Snow -30 1019 74 10000 1 350 17:58 30.11.2019
3470 Snow -30 1018 74 10000 2 360 17:39 30.11.2019
3471 Snow -30 1018 74 10000 2 360 17:20 30.11.2019
3472 Snow -30 1018 74 10000 1 340 16:57 30.11.2019
3473 Snow -30 1018 74 10000 1 340 16:39 30.11.2019
3474 Snow -30 1018 74 10000 1 360 16:20 30.11.2019
3475 Snow -29 1018 75 10000 2 20 15:42 30.11.2019
3476 Snow -29 1018 75 10000 2 20 15:42 30.11.2019
3477 Snow -28 1018 75 10000 3 10 15:19 30.11.2019
3478 Snow -28 1018 75 10000 2 360 14:58 30.11.2019
3479 Snow -28 1018 75 10000 2 360 14:38 30.11.2019
3480 Snow -28 1018 75 10000 2 350 14:19 30.11.2019
3481 Snow -28 1018 75 5000 2 350 13:58 30.11.2019
3482 Snow -28 1018 75 5000 2 340 13:38 30.11.2019
3483 Snow -28 1018 75 5000 2 340 13:19 30.11.2019
3484 Snow -28 1018 75 10000 2 350 12:47 30.11.2019
3485 Snow -28 1018 75 5000 3 360 12:29 30.11.2019
3486 Snow -28 1018 75 5000 3 340 11:58 30.11.2019
3487 Snow -28 1018 75 10000 3 360 11:39 30.11.2019
3488 Snow -28 1018 75 10000 3 360 11:18 30.11.2019
3489 Snow -28 1018 75 5000 3 350 10:45 30.11.2019
3490 Snow -28 1018 75 10000 2 350 10:21 30.11.2019
3491 Snow -28 1018 75 10000 2 350 09:50 30.11.2019
3492 Snow -28 1018 75 10000 3 360 09:30 30.11.2019
3493 Snow -28 1018 75 10000 2 350 08:57 30.11.2019
3494 Snow -29 1018 75 10000 3 350 08:38 30.11.2019
3495 Snow -29 1018 75 10000 3 350 08:19 30.11.2019
3496 Snow -29 1018 68 10000 2 350 07:43 30.11.2019
3497 Snow -30 1018 74 10000 2 340 07:24 30.11.2019
3498 Snow -30 1018 74 10000 2 330 06:46 30.11.2019
3499 Snow -30 1018 74 10000 2 350 06:27 30.11.2019
3500 Clouds -29 1018 68 10000 2 340 05:29 30.11.2019
3501 Clouds -30 1018 74 10000 2 350 03:38 30.11.2019
3502 Clouds -31 1019 74 10000 2 330 02:26 30.11.2019
3503 Clouds -31 1019 74 10000 2 330 02:26 30.11.2019
3504 Clouds -31 1019 74 10000 1 340 01:56 30.11.2019
3505 Clouds -31 1019 74 10000 2 360 01:24 30.11.2019
3506 Clouds -31 1019 74 10000 2 340 00:46 30.11.2019
3507 Clouds -32 1019 74 10000 2 340 00:27 30.11.2019
3508 Clouds -32 1019 74 10000 1 330 23:45 29.11.2019
3509 Clouds -32 1019 74 10000 1 340 23:25 29.11.2019
3510 Clouds -32 1019 74 10000 2 350 22:58 29.11.2019
3511 Clouds -32 1019 74 10000 2 350 22:39 29.11.2019
3512 Clouds -31 1019 74 10000 2 340 22:21 29.11.2019
3513 Clouds -31 1019 74 10000 2 350 21:41 29.11.2019
3514 Clouds -31 1019 74 10000 2 350 21:22 29.11.2019
3515 Clouds -32 1019 74 10000 2 360 20:56 29.11.2019
3516 Clouds -32 1019 67 10000 1 330 20:37 29.11.2019
3517 Clouds -32 1019 67 10000 1 330 20:18 29.11.2019
3518 Clouds -32 1019 74 10000 1 320 19:55 29.11.2019
3519 Clouds -32 1019 74 10000 2 310 19:37 29.11.2019
3520 Clouds -32 1019 74 10000 2 310 19:37 29.11.2019
3521 Clouds -32 1019 74 10000 2 310 19:18 29.11.2019
3522 Clouds -32 1019 74 10000 2 310 19:18 29.11.2019
3523 Clouds -31 1019 74 10000 1 310 18:42 29.11.2019
3524 Clouds -30 1019 67 10000 2 330 18:24 29.11.2019
3525 Clouds -30 1019 74 10000 2 340 17:57 29.11.2019
3526 Clouds -30 1019 74 10000 3 330 17:39 29.11.2019
3527 Clouds -30 1019 74 10000 3 330 17:20 29.11.2019
3528 Clouds -30 1019 74 10000 2 340 16:43 29.11.2019
3529 Clouds -30 1019 74 10000 3 330 16:21 29.11.2019
3530 Clouds -29 1019 75 10000 3 360 15:56 29.11.2019
3531 Clouds -29 1019 75 10000 2 340 15:37 29.11.2019
3532 Clouds -29 1019 75 10000 2 340 15:19 29.11.2019
3533 Clouds -28 1019 75 10000 2 330 14:40 29.11.2019
3534 Snow -28 1019 75 10000 2 330 14:21 29.11.2019
3535 Snow -27 1019 75 10000 2 330 13:57 29.11.2019
3536 Snow -27 1019 75 10000 2 350 13:38 29.11.2019
3537 Snow -27 1019 75 10000 2 350 13:19 29.11.2019
3538 Snow -27 1019 75 10000 2 350 12:43 29.11.2019
3539 Snow -27 1019 75 10000 2 360 12:24 29.11.2019
3540 Snow -28 1019 75 10000 1 10 11:56 29.11.2019
3541 Snow -28 1019 75 5000 2 10 11:38 29.11.2019
3542 Snow -28 1019 75 5000 2 10 11:19 29.11.2019
3543 Snow -28 1020 75 5000 1 10 10:57 29.11.2019
3544 Snow -29 1020 75 5000 1 20 10:39 29.11.2019
3545 Snow -29 1020 75 5000 1 20 10:20 29.11.2019
3546 Snow -29 1020 75 3200 1 360 09:58 29.11.2019
3547 Snow -29 1020 68 5000 0.86 134 09:39 29.11.2019
3548 Snow -29 1020 68 5000 0.86 134 09:20 29.11.2019
3549 Snow -30 1020 74 10000 1 330 08:55 29.11.2019
3550 Snow -30 1020 74 10000 1 340 08:37 29.11.2019
3551 Clouds -30 1020 74 10000 1 340 08:18 29.11.2019
3552 Clouds -32 1020 74 10000 1 340 07:41 29.11.2019
3553 Clouds -32 1020 74 10000 1 340 07:41 29.11.2019
3554 Clouds -32 1020 74 10000 1 340 07:23 29.11.2019
3555 Clouds -32 1021 74 10000 2 360 06:47 29.11.2019
3556 Clouds -31 1021 67 10000 1 340 06:28 29.11.2019
3557 Clouds -31 1021 67 10000 1 20 05:32 29.11.2019
3558 Clouds -31 1021 67 10000 1 20 05:32 29.11.2019
3559 Clouds -31 1021 67 10000 1 20 05:32 29.11.2019
3560 Clouds -32 1021 74 10000 1 10 04:57 29.11.2019
3561 Mist -32 1021 74 5000 1 70 03:41 29.11.2019
3562 Mist -32 1021 74 2400 1 130 03:18 29.11.2019
3563 Mist -32 1021 74 5000 1 130 02:24 29.11.2019
3564 Snow -32 1021 74 10000 1 140 01:45 29.11.2019
3565 Snow -32 1021 74 10000 0.99 32 01:20 29.11.2019
3566 Snow -32 1022 74 10000 1 330 00:40 29.11.2019
3567 Snow -32 1022 74 10000 0.99 32 00:18 29.11.2019
3568 Snow -32 1022 74 10000 0.99 32 00:18 29.11.2019
3569 Snow -32 1022 74 10000 0.99 32 23:42 28.11.2019
3570 Snow -33 1022 74 10000 1 20 23:21 28.11.2019
3571 Snow -33 1021 74 10000 1 20 22:57 28.11.2019
3572 Snow -33 1021 74 10000 2 40 22:37 28.11.2019
3573 Snow -33 1021 74 10000 2 40 22:19 28.11.2019
3574 Snow -31 1021 74 10000 1 350 21:55 28.11.2019
3575 Snow -31 1020 74 10000 2 350 21:36 28.11.2019
3576 Snow -31 1020 74 10000 2 350 21:18 28.11.2019
3577 Snow -30 1020 67 10000 2 360 20:42 28.11.2019
3578 Snow -30 1020 74 10000 2 350 20:22 28.11.2019
3579 Snow -30 1020 74 10000 1 350 19:58 28.11.2019
3580 Snow -30 1020 74 10000 1 350 19:40 28.11.2019
3581 Snow -30 1019 74 10000 2 10 19:21 28.11.2019
3582 Snow -30 1019 74 10000 2 30 18:59 28.11.2019
3583 Snow -30 1019 74 10000 2 30 18:39 28.11.2019
3584 Snow -30 1019 74 10000 1 40 18:18 28.11.2019
3585 Snow -30 1019 74 10000 1 40 18:18 28.11.2019
3586 Snow -29 1019 75 10000 1 350 17:59 28.11.2019
3587 Snow -29 1019 75 10000 1 350 17:41 28.11.2019
3588 Snow -29 1019 75 10000 1 360 17:21 28.11.2019
3589 Snow -29 1019 75 10000 2 360 16:56 28.11.2019
3590 Snow -29 1019 75 10000 2 360 16:55 28.11.2019
3591 Snow -28 1019 75 10000 2 350 16:37 28.11.2019
3592 Snow -28 1019 75 10000 2 350 16:18 28.11.2019
3593 Snow -28 1019 75 3200 2 350 15:41 28.11.2019
3594 Snow -29 1019 75 10000 1 340 15:20 28.11.2019
3595 Snow -29 1019 75 10000 2 350 14:58 28.11.2019
3596 Snow -29 1019 75 10000 2 350 14:39 28.11.2019
3597 Snow -29 1019 75 10000 1 350 14:20 28.11.2019
3598 Snow -29 1019 75 10000 1 350 13:55 28.11.2019
3599 Snow -29 1019 68 10000 2 330 13:37 28.11.2019
3600 Snow -29 1019 68 10000 2 330 13:19 28.11.2019
3601 Snow -29 1019 68 10000 2 330 12:41 28.11.2019
3602 Snow -29 1019 68 10000 1 330 12:23 28.11.2019
3603 Snow -30 1019 74 10000 1 330 11:56 28.11.2019
3604 Snow -30 1019 74 10000 1 340 11:38 28.11.2019
3605 Snow -30 1019 74 10000 1 340 11:20 28.11.2019
3606 Snow -30 1020 74 10000 2 350 10:42 28.11.2019
3607 Snow -30 1020 74 10000 2 350 10:42 28.11.2019
3608 Snow -30 1020 74 10000 1 350 10:22 28.11.2019
3609 Snow -30 1020 67 10000 1 360 09:59 28.11.2019
3610 Snow -30 1020 67 10000 1 360 09:40 28.11.2019
3611 Snow -31 1020 74 10000 2 360 09:20 28.11.2019
3612 Snow -31 1020 74 10000 2 360 09:20 28.11.2019
3613 Snow -31 1020 74 10000 2 10 08:44 28.11.2019
3614 Snow -31 1020 74 10000 2 360 08:23 28.11.2019
3615 Snow -31 1020 67 10000 1 360 07:58 28.11.2019
3616 Snow -31 1020 67 10000 1 360 07:58 28.11.2019
3617 Snow -31 1020 67 10000 1 360 07:58 28.11.2019
3618 Snow -31 1020 67 10000 1 360 07:40 28.11.2019
3619 Snow -31 1020 67 10000 1 360 07:22 28.11.2019
3620 Snow -31 1021 67 10000 1 360 06:43 28.11.2019
3621 Snow -32 1021 74 10000 2 360 06:18 28.11.2019
3622 Snow -32 1021 67 10000 1 10 05:44 28.11.2019
3623 Snow -33 1021 74 10000 2 10 04:54 28.11.2019
3624 Snow -33 1022 67 10000 2 10 02:33 28.11.2019
3625 Snow -34 1022 73 10000 2 350 01:28 28.11.2019
3626 Snow -34 1022 66 10000 3 30 00:42 28.11.2019
3627 Snow -34 1022 66 10000 3 350 00:20 28.11.2019
3628 Snow -34 1022 66 10000 3 20 23:40 27.11.2019
3629 Snow -35 1022 66 10000 3 20 23:21 27.11.2019
3630 Snow -35 1022 66 10000 3 10 22:58 27.11.2019
3631 Snow -35 1023 66 10000 2 350 22:38 27.11.2019
3632 Snow -35 1023 66 10000 2 350 22:19 27.11.2019
3633 Snow -36 1023 73 10000 3 350 21:56 27.11.2019
3634 Snow -36 1023 66 10000 3 350 21:37 27.11.2019
3635 Snow -36 1023 66 10000 3 350 21:19 27.11.2019
3636 Snow -36 1023 66 10000 3 350 21:19 27.11.2019
3637 Snow -36 1023 73 10000 3 340 20:57 27.11.2019
3638 Snow -36 1023 66 10000 2 340 20:38 27.11.2019
3639 Snow -36 1023 66 10000 2 340 20:19 27.11.2019
3640 Snow -36 1023 66 10000 2 10 19:56 27.11.2019
3641 Mist -36 1023 66 5000 2 350 19:38 27.11.2019
3642 Mist -36 1023 66 5000 2 350 19:19 27.11.2019
3643 Mist -36 1023 66 5000 2 350 18:58 27.11.2019
3644 Mist -37 1023 73 5000 2 350 18:36 27.11.2019
3645 Mist -37 1023 73 5000 2 350 18:18 27.11.2019
3646 Snow -37 1023 73 10000 2 360 17:55 27.11.2019
3647 Snow -37 1023 73 10000 2 350 17:37 27.11.2019
3648 Snow -37 1023 73 10000 2 350 17:18 27.11.2019
3649 Snow -37 1023 73 10000 2 340 16:56 27.11.2019
3650 Snow -37 1023 73 10000 2 340 16:55 27.11.2019
3651 Snow -37 1023 73 10000 2 340 16:55 27.11.2019
3652 Snow -37 1023 73 10000 3 350 16:36 27.11.2019
3653 Snow -37 1023 73 10000 3 350 16:18 27.11.2019
3654 Snow -36 1023 66 10000 2 350 15:56 27.11.2019
3655 Snow -36 1024 66 10000 2 350 15:37 27.11.2019
3656 Snow -36 1024 66 10000 2 350 15:19 27.11.2019
3657 Snow -36 1024 66 10000 2 350 14:56 27.11.2019
3658 Snow -36 1024 73 10000 2 350 14:38 27.11.2019
3659 Snow -36 1024 73 10000 2 350 14:19 27.11.2019
3660 Snow -36 1024 73 10000 2 360 13:55 27.11.2019
3661 Snow -35 1024 66 10000 2 350 13:37 27.11.2019
3662 Snow -35 1024 66 10000 2 350 13:18 27.11.2019
3663 Snow -35 1024 73 10000 3 350 12:41 27.11.2019
3664 Snow -35 1024 73 10000 3 350 12:41 27.11.2019
3665 Snow -35 1024 73 10000 3 350 12:21 27.11.2019
3666 Snow -35 1024 66 10000 3 360 11:56 27.11.2019
3667 Snow -35 1024 66 10000 2 350 11:36 27.11.2019
3668 Snow -35 1024 66 10000 3 350 11:18 27.11.2019
3669 Snow -35 1024 66 10000 3 350 11:18 27.11.2019
3670 Snow -35 1024 66 10000 2 350 10:43 27.11.2019
3671 Snow -35 1024 66 10000 2 350 10:24 27.11.2019
3672 Snow -35 1024 66 10000 3 350 09:57 27.11.2019
3673 Snow -35 1024 66 5000 2 350 09:38 27.11.2019
3674 Snow -35 1024 66 5000 2 350 09:18 27.11.2019
3675 Snow -35 1024 66 3200 3 20 08:42 27.11.2019
3676 Snow -35 1024 66 3200 3 20 08:22 27.11.2019
3677 Snow -35 1023 66 3200 3 360 07:47 27.11.2019
3678 Snow -35 1023 66 3200 3 360 07:29 27.11.2019
3679 Snow -35 1023 66 3200 2 350 06:54 27.11.2019
3680 Snow -35 1023 66 5000 3 350 06:36 27.11.2019
3681 Snow -36 1023 73 5000 3 350 05:47 27.11.2019
3682 Snow -36 1023 73 5000 3 350 05:21 27.11.2019
3683 Snow -36 1023 73 3200 3 360 04:48 27.11.2019
3684 Snow -36 1023 66 3200 3 350 04:29 27.11.2019
3685 Snow -36 1024 66 3200 2 350 03:40 27.11.2019
3686 Snow -36 1024 66 3200 2 360 03:19 27.11.2019
3687 Snow -36 1024 66 3200 3 340 02:21 27.11.2019
3688 Snow -36 1024 66 3200 2 10 00:50 27.11.2019
3689 Snow -36 1024 66 5000 2 10 00:30 27.11.2019
3690 Snow -37 1024 73 5000 2 20 23:55 26.11.2019
3691 Snow -36 1024 66 5000 2 350 23:37 26.11.2019
3692 Snow -36 1024 66 5000 2 350 23:18 26.11.2019
3693 Snow -36 1024 73 2100 2 20 22:39 26.11.2019
3694 Snow -36 1024 73 2100 2 20 22:20 26.11.2019
3695 Snow -35 1024 66 2100 1 280 21:59 26.11.2019
3696 Snow -36 1024 73 3200 0.4 205 21:38 26.11.2019
3697 Snow -36 1024 73 3200 0.4 205 21:20 26.11.2019
3698 Snow -36 1024 66 5000 1 300 20:57 26.11.2019
3699 Snow -36 1024 66 5000 1 300 20:37 26.11.2019
3700 Snow -36 1024 66 5000 1 300 20:19 26.11.2019
3701 Snow -36 1024 73 10000 1 320 19:55 26.11.2019
3702 Snow -35 1024 66 10000 0.94 262 19:37 26.11.2019
3703 Snow -35 1024 66 10000 0.94 262 19:19 26.11.2019
3704 Snow -35 1024 66 10000 0.94 262 18:57 26.11.2019
3705 Snow -35 1024 66 10000 1 310 18:39 26.11.2019
3706 Snow -34 1024 66 10000 1 320 18:20 26.11.2019
3707 Snow -34 1024 66 10000 1 320 18:20 26.11.2019
3708 Snow -34 1024 66 10000 1 320 17:57 26.11.2019
3709 Snow -35 1024 73 10000 0.94 262 17:38 26.11.2019
3710 Clouds -34 1024 73 10000 1 190 17:20 26.11.2019
3711 Clouds -34 1024 73 10000 1 190 16:56 26.11.2019
3712 Clouds -33 1024 67 10000 2 240 16:37 26.11.2019
3713 Clouds -33 1024 67 10000 2 240 16:18 26.11.2019
3714 Clouds -33 1024 67 10000 2 230 15:57 26.11.2019
3715 Clouds -33 1024 74 10000 2 220 15:37 26.11.2019
3716 Clouds -33 1024 74 10000 2 220 15:19 26.11.2019
3717 Snow -31 1024 67 10000 3 230 14:45 26.11.2019
3718 Snow -31 1024 67 10000 3 230 14:24 26.11.2019
3719 Snow -31 1025 74 10000 3 230 13:45 26.11.2019
3720 Snow -31 1025 67 10000 1 180 13:25 26.11.2019
3721 Snow -31 1025 74 10000 2 210 12:58 26.11.2019
3722 Snow -31 1024 67 10000 2 210 12:38 26.11.2019
3723 Snow -31 1024 67 10000 2 200 12:19 26.11.2019
3724 Snow -31 1024 67 10000 2 200 11:56 26.11.2019
3725 Clouds -32 1024 67 10000 3 220 11:38 26.11.2019
3726 Clouds -32 1024 67 10000 3 220 11:38 26.11.2019
3727 Clouds -32 1024 67 10000 3 220 11:19 26.11.2019
3728 Clouds -32 1024 67 10000 2 210 10:56 26.11.2019
3729 Clouds -33 1024 74 10000 2 220 10:38 26.11.2019
3730 Clouds -33 1024 74 10000 2 220 10:20 26.11.2019
3731 Clouds -33 1024 74 10000 2 210 09:43 26.11.2019
3732 Clouds -33 1024 74 10000 3 220 09:25 26.11.2019
3733 Clouds -33 1024 67 10000 3 220 08:58 26.11.2019
3734 Clouds -33 1024 74 10000 3 210 08:38 26.11.2019
3735 Clouds -33 1024 74 10000 3 210 08:18 26.11.2019
3736 Clouds -33 1024 74 10000 3 210 07:43 26.11.2019
3737 Clouds -33 1024 74 10000 2 220 07:24 26.11.2019
3738 Clouds -32 1023 74 10000 3 220 06:53 26.11.2019
3739 Clouds -32 1023 74 10000 3 220 06:21 26.11.2019
3740 Clouds -32 1023 67 10000 2 220 05:36 26.11.2019
3741 Clouds -33 1022 67 10000 3 230 03:22 26.11.2019
3742 Clouds -33 1022 67 10000 3 230 01:53 26.11.2019
3743 Clouds -35 1021 66 10000 2.64 273 01:28 26.11.2019
3744 Mist -36 1021 66 3200 1 350 00:48 26.11.2019
3745 Fog -38 1021 65 900 1 140 00:21 26.11.2019
3746 Fog -39 1020 65 550 2.67 272 23:39 25.11.2019
3747 Fog -39 1020 65 550 2.67 272 23:39 25.11.2019
3748 Fog -39 1020 65 550 2.08 268 23:20 25.11.2019
3749 Fog -39 1020 65 450 2.08 268 22:56 25.11.2019
3750 Fog -39 1020 65 500 1 130 22:37 25.11.2019
3751 Fog -39 1020 65 500 1 130 22:37 25.11.2019
3752 Fog -39 1020 65 500 1 130 22:18 25.11.2019
3753 Fog -39 1020 58 450 1 120 21:56 25.11.2019
3754 Fog -39 1020 65 500 2.08 268 21:38 25.11.2019
3755 Fog -39 1020 65 500 2.08 268 21:18 25.11.2019
3756 Fog -39 1019 65 400 1 140 20:55 25.11.2019
3757 Fog -39 1019 65 400 2.08 268 20:36 25.11.2019
3758 Fog -39 1019 65 400 1.46 278 20:18 25.11.2019
3759 Fog -39 1019 65 400 1.5 272 20:18 25.11.2019
3760 Fog -39 1019 65 400 1.5 272 20:18 25.11.2019
3761 Fog -39 1019 65 250 1.5 272 19:54 25.11.2019
3762 Fog -39 1018 65 200 1.5 272 19:36 25.11.2019
3763 Fog -39 1018 65 200 1.5 272 19:18 25.11.2019
3764 Fog -39 1018 65 450 1.5 272 18:55 25.11.2019
3765 Fog -39 1018 65 350 1 250 18:37 25.11.2019
3766 Fog -39 1018 65 350 1 260 18:18 25.11.2019
3767 Fog -39 1018 65 350 1 260 17:55 25.11.2019
3768 Fog -39 1017 65 450 1.5 272 17:36 25.11.2019
3769 Fog -39 1017 65 450 1.5 272 17:36 25.11.2019
3770 Fog -39 1017 65 350 1 240 17:18 25.11.2019
3771 Fog -39 1017 65 600 1 260 16:42 25.11.2019
3772 Fog -39 1017 65 600 1 260 16:23 25.11.2019
3773 Fog -39 1017 58 600 1 280 15:58 25.11.2019
3774 Fog -39 1017 58 600 1 280 15:58 25.11.2019
3775 Fog -39 1017 58 600 1 290 15:39 25.11.2019
3776 Fog -39 1017 58 600 1 290 15:20 25.11.2019
3777 Fog -39 1016 58 700 1 300 14:56 25.11.2019
3778 Fog -39 1016 65 800 1 320 14:37 25.11.2019
3779 Fog -39 1016 65 800 1 320 14:19 25.11.2019
3780 Mist -39 1016 65 1300 1 270 13:39 25.11.2019
3781 Mist -39 1016 65 1300 1 270 13:21 25.11.2019
3782 Mist -38 1016 65 1300 2 340 12:59 25.11.2019
3783 Mist -39 1015 65 1700 2 300 12:40 25.11.2019
3784 Mist -39 1015 65 1700 2 300 12:40 25.11.2019
3785 Mist -39 1015 65 1700 2 300 12:20 25.11.2019
3786 Fog -39 1015 65 1800 1 290 11:56 25.11.2019
3787 Fog -39 1015 65 1800 1 290 11:56 25.11.2019
3788 Fog -38 1015 65 800 1 320 11:38 25.11.2019
3789 Fog -38 1015 65 800 1 320 11:38 25.11.2019
3790 Fog -38 1015 65 800 1 320 11:19 25.11.2019
3791 Mist -38 1015 65 1500 2 330 10:42 25.11.2019
3792 Mist -38 1015 65 3200 2 340 10:23 25.11.2019
3793 Mist -38 1015 73 5000 2 340 09:55 25.11.2019
3794 Mist -38 1015 73 5000 2 340 09:55 25.11.2019
3795 Mist -37 1014 65 5000 2 330 09:37 25.11.2019
3796 Mist -37 1014 65 5000 2 330 09:18 25.11.2019
3797 Mist -37 1014 65 5000 2 330 09:18 25.11.2019
3798 Mist -37 1014 65 3200 1 340 08:39 25.11.2019
3799 Mist -37 1014 65 3200 1 340 08:20 25.11.2019
3800 Mist -37 1014 65 5000 1 360 07:42 25.11.2019
3801 Mist -37 1014 65 5000 1 360 07:24 25.11.2019
3802 Mist -37 1014 73 5000 1 330 06:48 25.11.2019
3803 Mist -37 1014 65 2400 1 360 06:21 25.11.2019
3804 Mist -37 1014 65 1200 1 20 05:38 25.11.2019
3805 Mist -37 1014 65 1500 1 350 04:52 25.11.2019
3806 Fog -39 1014 65 450 1 330 02:52 25.11.2019
3807 Fog -39 1014 65 400 1 310 02:20 25.11.2019
3808 Fog -39 1014 65 450 1 290 01:40 25.11.2019
3809 Fog -39 1014 65 450 1 290 01:21 25.11.2019
3810 Fog -39 1014 65 450 0.54 230 00:23 25.11.2019
3811 Fog -38 1014 65 1000 1 350 23:58 24.11.2019
3812 Mist -37 1014 65 1500 1 310 23:39 24.11.2019
3813 Mist -37 1014 65 1500 1 310 23:19 24.11.2019
3814 Mist -37 1014 65 1800 1 300 22:55 24.11.2019
3815 Mist -37 1015 65 1800 2 300 22:36 24.11.2019
3816 Mist -37 1015 65 1800 2 300 22:18 24.11.2019
3817 Snow -37 1015 65 10000 1 240 21:42 24.11.2019
3818 Snow -37 1015 65 10000 1 240 21:21 24.11.2019
3819 Snow -36 1015 66 10000 1 240 20:59 24.11.2019
3820 Snow -36 1015 66 10000 1 240 20:59 24.11.2019
3821 Snow -36 1015 66 10000 1.05 227 20:40 24.11.2019
3822 Snow -36 1015 66 10000 0.96 231 20:20 24.11.2019
3823 Clouds -36 1015 66 10000 1 290 19:57 24.11.2019
3824 Clouds -36 1016 66 10000 1 270 19:39 24.11.2019
3825 Clouds -36 1016 66 10000 1 270 19:21 24.11.2019
3826 Clouds -35 1016 66 10000 1 280 18:59 24.11.2019
3827 Clouds -35 1016 73 10000 1 300 18:38 24.11.2019
3828 Clouds -35 1016 73 10000 0.97 242 18:20 24.11.2019
3829 Clouds -35 1016 73 10000 0.97 242 17:58 24.11.2019
3830 Clouds -35 1016 73 10000 0.97 242 17:58 24.11.2019
3831 Clouds -34 1016 73 10000 1 120 17:40 24.11.2019
3832 Clouds -34 1016 73 10000 1 120 17:22 24.11.2019
3833 Clouds -34 1017 73 10000 1.27 254 16:59 24.11.2019
3834 Clouds -34 1017 73 10000 1.27 254 16:40 24.11.2019
3835 Clouds -34 1017 73 10000 1.27 254 16:22 24.11.2019
3836 Clouds -34 1017 73 10000 1.27 254 15:56 24.11.2019
3837 Clouds -33 1017 67 10000 1.27 254 15:37 24.11.2019
3838 Clouds -33 1017 67 10000 1.27 254 15:37 24.11.2019
3839 Clouds -33 1017 67 10000 1.27 254 15:19 24.11.2019
3840 Clouds -33 1018 74 10000 1 210 14:39 24.11.2019
3841 Clouds -33 1018 74 10000 1 210 14:19 24.11.2019
3842 Clouds -32 1018 67 10000 1.87 258 13:59 24.11.2019
3843 Clouds -32 1018 74 10000 1 180 13:38 24.11.2019
3844 Clouds -32 1018 74 10000 1 180 13:19 24.11.2019
3845 Clouds -32 1018 74 10000 1.75 262 12:56 24.11.2019
3846 Clouds -31 1018 74 10000 1 260 12:38 24.11.2019
3847 Clouds -30 1018 74 10000 3 240 12:18 24.11.2019
3848 Clouds -29 1018 75 10000 3 240 11:38 24.11.2019
3849 Clouds -29 1018 75 10000 3 240 11:19 24.11.2019
3850 Clouds -28 1019 68 10000 4 230 10:57 24.11.2019
3851 Clouds -28 1019 68 10000 3 230 10:38 24.11.2019
3852 Clouds -28 1019 68 10000 3 230 10:38 24.11.2019
3853 Clouds -28 1019 68 10000 3 230 10:20 24.11.2019
3854 Clouds -28 1019 68 10000 3 230 10:20 24.11.2019
3855 Clouds -29 1019 75 10000 3 220 09:40 24.11.2019
3856 Clouds -28 1019 75 10000 3 230 09:20 24.11.2019
3857 Clouds -28 1019 75 10000 3 220 08:57 24.11.2019
3858 Clouds -27 1019 75 10000 4 230 08:39 24.11.2019
3859 Clouds -27 1019 75 10000 4 230 08:20 24.11.2019
3860 Clouds -26 1019 68 10000 3 230 07:52 24.11.2019
3861 Clouds -26 1019 68 10000 3 230 07:52 24.11.2019
3862 Clouds -26 1019 68 10000 4 230 07:25 24.11.2019
3863 Clouds -26 1019 68 10000 3 220 06:52 24.11.2019
3864 Clouds -26 1019 68 10000 3 240 05:40 24.11.2019
3865 Snow -26 1019 68 10000 3 230 04:42 24.11.2019
3866 Snow -27 1019 75 10000 4 240 02:43 24.11.2019
3867 Clouds -28 1019 75 10000 3 230 01:56 24.11.2019
3868 Clouds -28 1019 75 10000 4 220 01:35 24.11.2019
3869 Clouds -28 1019 75 10000 4 210 00:57 24.11.2019
3870 Clouds -27 1019 75 10000 4 210 00:38 24.11.2019
3871 Clouds -27 1019 75 10000 3 210 00:19 24.11.2019
3872 Clouds -27 1019 75 10000 3 220 23:43 23.11.2019
3873 Clouds -27 1019 75 10000 3 220 23:21 23.11.2019
3874 Clouds -26 1019 75 10000 3 220 22:57 23.11.2019
3875 Clouds -27 1019 75 10000 2 220 22:37 23.11.2019
3876 Clouds -27 1019 75 10000 2 220 22:19 23.11.2019
3877 Clouds -27 1019 82 10000 3 220 21:56 23.11.2019
3878 Clouds -26 1019 75 10000 3 200 21:37 23.11.2019
3879 Clouds -26 1019 75 10000 3 200 21:19 23.11.2019
3880 Clouds -29 1019 75 10000 2 200 20:38 23.11.2019
3881 Clouds -29 1019 75 10000 2 200 20:38 23.11.2019
3882 Clouds -29 1019 75 10000 2 200 20:20 23.11.2019
3883 Clouds -28 1019 75 10000 3 200 19:57 23.11.2019
3884 Clouds -28 1019 75 10000 3 200 19:57 23.11.2019
3885 Clouds -28 1019 75 10000 3 210 19:39 23.11.2019
3886 Clouds -28 1019 75 10000 3 210 19:19 23.11.2019
3887 Clouds -29 1019 75 10000 3 230 18:58 23.11.2019
3888 Clouds -30 1019 74 10000 4 220 18:39 23.11.2019
3889 Clouds -30 1019 82 10000 5 220 18:19 23.11.2019
3890 Clouds -30 1019 74 10000 5 220 17:44 23.11.2019
3891 Clouds -30 1019 74 10000 5 220 17:22 23.11.2019
3892 Clouds -30 1019 74 10000 4 210 16:57 23.11.2019
3893 Clouds -31 1019 74 10000 2 190 16:39 23.11.2019
3894 Clouds -31 1019 74 10000 2 190 16:21 23.11.2019
3895 Clouds -32 1019 74 10000 2 200 15:59 23.11.2019
3896 Clouds -32 1019 74 10000 2 180 15:39 23.11.2019
3897 Clouds -32 1019 74 10000 2 180 15:19 23.11.2019
3898 Clouds -33 1019 74 10000 2 190 14:57 23.11.2019
3899 Clouds -33 1019 74 10000 2 220 14:39 23.11.2019
3900 Clouds -33 1019 74 10000 2 220 14:20 23.11.2019
3901 Clouds -32 1019 67 10000 2 170 13:54 23.11.2019
3902 Clouds -32 1019 67 10000 2 170 13:54 23.11.2019
3903 Clouds -32 1018 74 10000 1 180 13:36 23.11.2019
3904 Clouds -32 1018 74 10000 1 180 13:18 23.11.2019
3905 Clouds -32 1018 74 10000 2 130 12:41 23.11.2019
3906 Clouds -32 1018 74 10000 2 130 12:22 23.11.2019
3907 Clouds -30 1018 74 10000 1 300 11:43 23.11.2019
3908 Clouds -30 1018 74 10000 1 300 11:22 23.11.2019
3909 Clouds -31 1018 74 10000 1.89 281 10:45 23.11.2019
3910 Clouds -30 1018 74 10000 1 290 10:22 23.11.2019
3911 Clouds -30 1018 74 10000 1 310 09:44 23.11.2019
3912 Clouds -29 1018 68 10000 3 300 09:22 23.11.2019
3913 Clouds -29 1018 68 10000 3 290 08:59 23.11.2019
3914 Clouds -29 1017 75 10000 2 280 08:40 23.11.2019
3915 Clouds -29 1017 75 10000 2 280 08:18 23.11.2019
3916 Clouds -28 1017 68 10000 3 290 07:41 23.11.2019
3917 Clouds -28 1017 75 10000 2 290 06:52 23.11.2019
3918 Clouds -28 1017 75 10000 2 290 06:24 23.11.2019
3919 Clouds -28 1017 75 10000 2 290 05:56 23.11.2019
3920 Clouds -28 1017 75 10000 2 310 05:31 23.11.2019
3921 Clouds -28 1017 75 10000 2 310 04:50 23.11.2019
3922 Clouds -28 1017 75 10000 2 300 04:31 23.11.2019
3923 Snow -27 1017 75 10000 1 340 03:25 23.11.2019
3924 Snow -28 1017 82 10000 2 316 02:31 23.11.2019
3925 Snow -28 1017 75 10000 1 10 01:39 23.11.2019
3926 Snow -28 1017 75 10000 1 10 01:39 23.11.2019
3927 Snow -28 1017 75 10000 2 30 00:47 23.11.2019
3928 Snow -28 1017 75 10000 2 350 00:19 23.11.2019
3929 Snow -28 1017 75 10000 2 350 23:54 22.11.2019
3930 Snow -28 1017 75 10000 1 10 23:36 22.11.2019
3931 Snow -28 1017 75 10000 3 340 23:18 22.11.2019
3932 Snow -28 1017 75 10000 3 340 22:42 22.11.2019
3933 Snow -28 1017 75 10000 3 350 22:23 22.11.2019
3934 Snow -29 1017 75 10000 2 10 21:59 22.11.2019
3935 Snow -29 1017 75 10000 2 10 21:40 22.11.2019
3936 Snow -29 1017 75 10000 1 30 21:21 22.11.2019
3937 Snow -29 1017 75 10000 1 340 20:44 22.11.2019
3938 Snow -29 1017 75 10000 2 350 20:23 22.11.2019
3939 Snow -30 1017 74 10000 2 350 19:58 22.11.2019
3940 Snow -30 1017 74 10000 2 350 19:39 22.11.2019
3941 Snow -30 1017 74 10000 2 360 19:20 22.11.2019
3942 Snow -30 1018 74 10000 2 330 18:59 22.11.2019
3943 Snow -31 1018 74 10000 1 20 18:37 22.11.2019
3944 Snow -31 1018 74 10000 1 20 18:19 22.11.2019
3945 Snow -32 1018 74 5000 2 10 17:42 22.11.2019
3946 Snow -32 1018 74 5000 2 10 17:22 22.11.2019
3947 Snow -32 1018 74 10000 1 340 16:48 22.11.2019
3948 Snow -32 1018 67 10000 1 320 16:30 22.11.2019
3949 Snow -33 1018 67 10000 2 360 15:58 22.11.2019
3950 Snow -33 1019 67 10000 1 350 15:38 22.11.2019
3951 Snow -33 1019 67 10000 1 350 15:20 22.11.2019
3952 Snow -33 1019 74 10000 2 330 14:54 22.11.2019
3953 Snow -33 1019 74 10000 1 340 14:36 22.11.2019
3954 Snow -33 1019 74 10000 1 340 14:18 22.11.2019
3955 Clouds -34 1019 73 10000 1 350 13:39 22.11.2019
3956 Clouds -34 1019 73 10000 0.66 168 13:19 22.11.2019
3957 Clouds -34 1019 73 10000 1 300 12:58 22.11.2019
3958 Clouds -34 1019 73 10000 1 300 12:58 22.11.2019
3959 Clouds -34 1019 73 10000 1 300 12:40 22.11.2019
3960 Clouds -34 1019 66 10000 1 300 12:20 22.11.2019
3961 Clouds -35 1019 73 10000 1 300 11:58 22.11.2019
3962 Clouds -34 1019 66 10000 1 300 11:37 22.11.2019
3963 Clouds -34 1019 66 10000 1 300 11:18 22.11.2019
3964 Clouds -34 1019 66 10000 1 300 11:18 22.11.2019
3965 Clouds -34 1019 66 10000 1 300 11:18 22.11.2019
3966 Clouds -34 1019 66 10000 1 320 10:55 22.11.2019
3967 Clouds -34 1019 66 10000 2 330 10:37 22.11.2019
3968 Clouds -34 1019 66 10000 2 330 10:18 22.11.2019
3969 Clouds -34 1019 66 10000 2 320 09:41 22.11.2019
3970 Clouds -34 1019 66 10000 2 340 09:22 22.11.2019
3971 Mist -35 1019 73 5000 1 10 08:58 22.11.2019
3972 Mist -35 1019 73 5000 1 10 08:39 22.11.2019
3973 Mist -34 1019 66 3200 1 330 08:21 22.11.2019
3974 Mist -34 1019 66 3200 1 340 07:43 22.11.2019
3975 Mist -34 1019 66 3200 1 360 07:21 22.11.2019
3976 Mist -34 1019 66 3200 1 360 06:48 22.11.2019
3977 Mist -34 1019 73 5000 1 10 06:27 22.11.2019
3978 Mist -33 1019 67 5000 1 30 05:37 22.11.2019
3979 Mist -34 1019 66 5000 1.16 193 03:26 22.11.2019
3980 Mist -35 1019 66 5000 1 20 02:45 22.11.2019
3981 Mist -35 1019 66 5000 1.16 193 02:26 22.11.2019
3982 Mist -36 1019 66 5000 1.23 210 01:43 22.11.2019
3983 Clouds -36 1019 66 10000 1.16 213 01:18 22.11.2019
3984 Snow -36 1019 73 5000 1.16 213 00:45 22.11.2019
3985 Snow -36 1018 66 5000 1.16 213 00:22 22.11.2019
3986 Clouds -36 1018 66 10000 1 290 23:44 21.11.2019
3987 Clouds -36 1018 66 10000 1 320 23:25 21.11.2019
3988 Clouds -36 1018 66 10000 1 350 22:58 21.11.2019
3989 Snow -35 1017 66 10000 0.59 221 22:38 21.11.2019
3990 Snow -35 1017 66 10000 0.59 221 22:20 21.11.2019
3991 Snow -35 1018 66 5000 0.59 221 21:56 21.11.2019
3992 Clouds -36 1018 66 10000 0.59 221 21:37 21.11.2019
3993 Clouds -36 1018 66 10000 0.59 221 21:18 21.11.2019
3994 Clouds -36 1017 66 10000 1 330 20:57 21.11.2019
3995 Clouds -36 1017 66 10000 0.59 221 20:37 21.11.2019
3996 Clouds -36 1017 66 10000 0.81 186 20:19 21.11.2019
3997 Clouds -36 1017 66 10000 0.81 186 19:58 21.11.2019
3998 Clouds -36 1017 66 10000 0.81 186 19:58 21.11.2019
3999 Clouds -36 1017 66 10000 1 280 19:38 21.11.2019
4000 Clouds -36 1017 66 10000 1 280 19:20 21.11.2019
4001 Clouds -36 1017 66 10000 1 300 18:56 21.11.2019
4002 Clouds -36 1016 66 10000 0.81 186 18:37 21.11.2019
4003 Clouds -36 1016 66 10000 0.81 186 18:18 21.11.2019
4004 Clouds -36 1016 66 10000 1 310 17:41 21.11.2019
4005 Clouds -36 1016 73 10000 1 270 17:22 21.11.2019
4006 Clouds -36 1016 73 10000 1 270 17:22 21.11.2019
4007 Clouds -35 1016 66 10000 1 270 16:59 21.11.2019
4008 Clouds -35 1016 66 10000 1 270 16:40 21.11.2019
4009 Clouds -35 1016 66 10000 1 270 16:21 21.11.2019
4010 Clouds -35 1016 73 10000 1 270 15:56 21.11.2019
4011 Clouds -34 1016 66 10000 1 290 15:37 21.11.2019
4012 Clouds -34 1016 66 10000 1 290 15:19 21.11.2019
4013 Clouds -34 1016 66 10000 1 300 14:39 21.11.2019
4014 Clouds -34 1016 73 10000 1 290 14:21 21.11.2019
4015 Clouds -33 1015 67 10000 1 280 13:59 21.11.2019
4016 Clouds -33 1015 74 10000 2 290 13:38 21.11.2019
4017 Clouds -33 1015 74 10000 2 290 13:19 21.11.2019
4018 Clouds -33 1015 74 10000 2 290 13:19 21.11.2019
4019 Snow -32 1015 67 10000 2 290 12:54 21.11.2019
4020 Snow -32 1015 74 10000 2 290 12:36 21.11.2019
4021 Snow -32 1015 74 10000 2 290 12:18 21.11.2019
4022 Snow -32 1015 74 10000 1 300 11:40 21.11.2019
4023 Snow -31 1015 74 10000 1 320 11:21 21.11.2019
4024 Snow -31 1015 74 10000 1 310 10:57 21.11.2019
4025 Snow -31 1015 74 10000 1 310 10:57 21.11.2019
4026 Snow -30 1015 74 10000 2 300 10:39 21.11.2019
4027 Snow -30 1015 74 10000 2 300 10:20 21.11.2019
4028 Snow -30 1015 74 10000 1 350 09:43 21.11.2019
4029 Snow -30 1015 74 10000 1 310 09:23 21.11.2019
4030 Snow -30 1015 74 10000 1 350 08:59 21.11.2019
4031 Snow -30 1015 74 10000 1 350 08:40 21.11.2019
4032 Snow -30 1015 74 10000 1 350 08:40 21.11.2019
4033 Snow -29 1014 75 5000 1 360 08:18 21.11.2019
4034 Snow -29 1014 75 5000 1 330 07:40 21.11.2019
4035 Snow -29 1015 75 5000 1 330 07:18 21.11.2019
4036 Snow -30 1014 74 5000 1 360 06:51 21.11.2019
4037 Snow -29 1014 75 5000 1 30 06:33 21.11.2019
4038 Snow -29 1014 75 5000 1 20 05:31 21.11.2019
4039 Snow -30 1014 74 10000 1 20 03:32 21.11.2019
4040 Snow -30 1015 74 10000 1.34 139 02:40 21.11.2019
4041 Snow -31 1015 74 10000 1 40 01:53 21.11.2019
4042 Snow -31 1015 74 10000 1 10 01:26 21.11.2019
4043 Snow -31 1015 74 10000 1 30 00:54 21.11.2019
4044 Snow -31 1015 74 10000 1 30 00:54 21.11.2019
4045 Snow -31 1015 74 10000 1 40 00:21 21.11.2019
4046 Snow -31 1015 74 10000 1 350 23:55 20.11.2019
4047 Snow -31 1015 74 10000 1 10 23:37 20.11.2019
4048 Snow -31 1015 74 10000 1 10 23:19 20.11.2019
4049 Snow -31 1016 74 10000 1 10 22:55 20.11.2019
4050 Snow -32 1016 74 10000 1 30 22:36 20.11.2019
4051 Snow -32 1016 74 10000 1 30 22:18 20.11.2019
4052 Snow -32 1016 74 10000 1 30 22:18 20.11.2019
4053 Snow -32 1016 74 10000 1 30 21:54 20.11.2019
4054 Snow -32 1016 74 10000 1 20 21:36 20.11.2019
4055 Snow -32 1016 74 10000 1 20 21:18 20.11.2019
4056 Snow -32 1017 74 10000 1 10 20:54 20.11.2019
4057 Snow -32 1017 74 10000 1 20 20:36 20.11.2019
4058 Clouds -32 1017 74 10000 1 20 20:18 20.11.2019
4059 Clouds -32 1017 67 10000 1 10 19:54 20.11.2019
4060 Mist -32 1017 74 5000 1 20 19:36 20.11.2019
4061 Mist -32 1017 74 5000 1 20 19:18 20.11.2019
4062 Mist -32 1017 74 5000 1 360 18:41 20.11.2019
4063 Mist -32 1017 74 5000 1 360 18:23 20.11.2019
4064 Mist -32 1018 74 5000 1 360 17:59 20.11.2019
4065 Mist -32 1018 74 5000 1 360 17:59 20.11.2019
4066 Mist -32 1018 74 5000 1.75 116 17:40 20.11.2019
4067 Mist -32 1018 74 5000 1.4 132 17:21 20.11.2019
4068 Mist -32 1018 74 5000 1 360 16:59 20.11.2019
4069 Mist -32 1018 74 5000 1 360 16:59 20.11.2019
4070 Mist -32 1018 74 5000 1 360 16:41 20.11.2019
4071 Mist -31 1018 74 5000 1 10 16:20 20.11.2019
4072 Mist -31 1019 74 5000 1 340 15:57 20.11.2019
4073 Mist -31 1019 74 5000 1 340 15:38 20.11.2019
4074 Mist -31 1019 74 5000 1 340 15:19 20.11.2019
4075 Clouds -31 1019 74 10000 1 300 14:56 20.11.2019
4076 Clouds -32 1019 74 10000 1.4 132 14:37 20.11.2019
4077 Clouds -32 1019 74 10000 1.44 148 14:18 20.11.2019
4078 Clouds -31 1019 74 10000 1 320 13:55 20.11.2019
4079 Clouds -31 1019 74 10000 1 320 13:55 20.11.2019
4080 Clouds -31 1019 74 10000 2 310 13:36 20.11.2019
4081 Clouds -31 1019 74 10000 2 310 13:18 20.11.2019
4082 Clouds -30 1020 74 10000 2 320 12:40 20.11.2019
4083 Clouds -30 1020 74 10000 1 330 12:21 20.11.2019
4084 Clouds -30 1020 74 10000 1 330 11:46 20.11.2019
4085 Clouds -29 1020 75 10000 1 330 11:23 20.11.2019
4086 Clouds -29 1020 82 10000 1 320 10:59 20.11.2019
4087 Clouds -27 1020 82 10000 1 150 10:39 20.11.2019
4088 Clouds -27 1020 82 10000 1 150 10:20 20.11.2019
4089 Clouds -26 1020 75 10000 2 160 09:59 20.11.2019
4090 Clouds -26 1020 75 10000 2 160 09:41 20.11.2019
4091 Clouds -26 1021 83 10000 2 170 09:19 20.11.2019
4092 Clouds -26 1021 75 10000 3 150 08:43 20.11.2019
4093 Clouds -26 1021 75 10000 2 160 08:24 20.11.2019
4094 Clouds -26 1021 75 10000 2 150 07:52 20.11.2019
4095 Clouds -25 1021 75 10000 2 150 07:34 20.11.2019
4096 Clouds -25 1021 75 10000 2 150 06:58 20.11.2019
4097 Clouds -25 1021 75 10000 2 140 06:38 20.11.2019
4098 Clouds -25 1021 75 10000 2 140 06:18 20.11.2019
4099 Clouds -24 1021 69 10000 2 150 04:41 20.11.2019
4100 Clouds -25 1022 75 10000 1 180 02:28 20.11.2019
4101 Snow -24 1022 76 10000 1 180 01:37 20.11.2019
4102 Snow -24 1023 83 10000 2 200 00:50 20.11.2019
4103 Snow -24 1023 76 10000 2 190 00:21 20.11.2019
4104 Snow -23 1023 76 10000 2 210 23:41 19.11.2019
4105 Snow -23 1023 76 10000 2 210 23:41 19.11.2019
4106 Snow -23 1023 76 10000 2 210 23:22 19.11.2019
4107 Snow -23 1023 76 10000 2 200 22:56 19.11.2019
4108 Snow -23 1023 76 10000 2 200 22:37 19.11.2019
4109 Snow -23 1023 76 10000 2 200 22:18 19.11.2019
4110 Snow -24 1023 76 10000 2 210 21:54 19.11.2019
4111 Snow -23 1023 76 10000 2 210 21:36 19.11.2019
4112 Snow -23 1023 76 10000 2 210 21:18 19.11.2019
4113 Snow -23 1023 76 10000 2 200 20:54 19.11.2019
4114 Snow -22 1023 69 10000 2 220 20:36 19.11.2019
4115 Snow -22 1023 69 10000 2 220 20:18 19.11.2019
4116 Snow -22 1023 69 10000 2 230 19:41 19.11.2019
4117 Snow -22 1023 69 10000 2 230 19:20 19.11.2019
4118 Snow -22 1023 69 10000 2 230 19:20 19.11.2019
4119 Snow -22 1023 69 10000 2 220 18:58 19.11.2019
4120 Snow -22 1023 69 10000 2 220 18:40 19.11.2019
4121 Snow -22 1024 69 10000 2 230 18:20 19.11.2019
4122 Snow -22 1024 69 10000 2 230 18:20 19.11.2019
4123 Snow -22 1024 69 10000 2 220 17:57 19.11.2019
4124 Snow -23 1024 69 10000 3 220 17:39 19.11.2019
4125 Snow -23 1024 69 10000 3 220 17:20 19.11.2019
4126 Snow -23 1024 69 10000 2 230 16:59 19.11.2019
4127 Snow -23 1024 69 10000 2 230 16:39 19.11.2019
4128 Snow -23 1024 69 10000 2 230 16:39 19.11.2019
4129 Snow -23 1024 69 10000 2 220 16:19 19.11.2019
4130 Snow -23 1024 76 10000 2 220 15:47 19.11.2019
4131 Snow -23 1024 69 10000 3 230 15:26 19.11.2019
4132 Snow -23 1024 69 10000 3 230 14:58 19.11.2019
4133 Snow -23 1025 69 10000 2 240 14:39 19.11.2019
4134 Snow -23 1025 69 10000 2 240 14:20 19.11.2019
4135 Snow -23 1025 69 10000 2 240 13:42 19.11.2019
4136 Snow -23 1025 69 10000 3 240 13:21 19.11.2019
4137 Snow -23 1025 69 10000 4 240 12:56 19.11.2019
4138 Snow -23 1025 69 10000 2 240 12:38 19.11.2019
4139 Snow -23 1025 69 10000 2 240 12:19 19.11.2019
4140 Snow -23 1025 69 10000 3 240 11:55 19.11.2019
4141 Snow -23 1025 69 10000 4 240 11:36 19.11.2019
4142 Snow -23 1025 69 10000 4 240 11:18 19.11.2019
4143 Snow -22 1025 63 10000 3 240 10:44 19.11.2019
4144 Snow -22 1025 69 10000 3 240 10:20 19.11.2019
4145 Snow -22 1025 69 10000 4 230 09:43 19.11.2019
4146 Snow -22 1025 69 10000 4 230 09:21 19.11.2019
4147 Snow -22 1025 69 10000 4 230 08:57 19.11.2019
4148 Snow -22 1025 69 10000 4 230 08:39 19.11.2019
4149 Snow -22 1025 69 10000 4 230 08:20 19.11.2019
4150 Snow -22 1024 69 10000 4 240 07:55 19.11.2019
4151 Snow -22 1024 69 10000 4 240 07:36 19.11.2019
4152 Snow -22 1024 69 10000 4 240 07:18 19.11.2019
4153 Snow -21 1024 70 10000 4 240 06:42 19.11.2019
4154 Snow -21 1024 70 10000 4 240 06:18 19.11.2019
4155 Snow -21 1025 70 10000 3 240 05:18 19.11.2019
4156 Snow -21 1025 70 10000 3 260 03:39 19.11.2019
4157 Snow -21 1025 70 10000 3 260 03:19 19.11.2019
4158 Snow -21 1025 70 10000 3 260 02:45 19.11.2019
4159 Snow -22 1025 76 10000 3 270 01:48 19.11.2019
4160 Snow -21 1025 70 10000 3 280 00:48 19.11.2019
4161 Snow -21 1025 70 10000 3 280 00:19 19.11.2019
4162 Snow -21 1025 70 10000 4 270 23:40 18.11.2019
4163 Snow -21 1025 70 10000 4 270 23:20 18.11.2019
4164 Snow -21 1025 70 10000 4 280 22:46 18.11.2019
4165 Snow -21 1025 70 10000 3 280 22:24 18.11.2019
4166 Snow -21 1025 76 10000 3 270 21:59 18.11.2019
4167 Snow -21 1025 76 10000 3 270 21:40 18.11.2019
4168 Snow -21 1025 76 10000 4 280 21:21 18.11.2019
4169 Snow -21 1025 76 10000 4 270 20:59 18.11.2019
4170 Snow -21 1025 76 10000 4 270 20:41 18.11.2019
4171 Snow -21 1025 76 10000 4 270 20:41 18.11.2019
4172 Snow -21 1025 76 10000 4 270 20:19 18.11.2019
4173 Snow -21 1025 76 10000 4 270 19:58 18.11.2019
4174 Snow -21 1025 76 10000 3 280 19:38 18.11.2019
4175 Snow -21 1025 76 10000 3 280 19:38 18.11.2019
4176 Snow -21 1025 76 10000 3 280 19:38 18.11.2019
4177 Snow -21 1025 76 10000 3 280 19:20 18.11.2019
4178 Snow -21 1025 76 10000 3 280 18:56 18.11.2019
4179 Snow -21 1025 76 10000 2 270 18:38 18.11.2019
4180 Snow -21 1025 76 10000 2 270 18:38 18.11.2019
4181 Snow -21 1025 76 10000 2 270 18:19 18.11.2019
4182 Snow -21 1025 76 10000 2 270 18:19 18.11.2019
4183 Snow -21 1025 76 10000 2 280 17:56 18.11.2019
4184 Snow -21 1025 76 10000 2 280 17:56 18.11.2019
4185 Snow -21 1025 76 10000 2 260 17:37 18.11.2019
4186 Snow -21 1025 76 10000 2 260 17:18 18.11.2019
4187 Snow -21 1025 76 10000 2 260 16:42 18.11.2019
4188 Snow -21 1026 76 10000 2 250 16:24 18.11.2019
4189 Snow -21 1026 76 10000 2 250 15:58 18.11.2019
4190 Snow -21 1026 76 10000 2 260 15:39 18.11.2019
4191 Snow -21 1026 76 10000 2 250 15:39 18.11.2019
4192 Snow -21 1026 76 10000 2 260 15:20 18.11.2019
4193 Snow -21 1026 76 10000 2 260 15:20 18.11.2019
4194 Snow -21 1026 76 10000 2 260 14:56 18.11.2019
4195 Snow -21 1026 76 10000 2 270 14:37 18.11.2019
4196 Snow -21 1026 76 10000 2 270 14:18 18.11.2019
4197 Snow -21 1026 76 10000 2 270 13:42 18.11.2019
4198 Snow -21 1027 76 10000 2 260 13:23 18.11.2019
4199 Snow -21 1027 76 10000 2 260 12:40 18.11.2019
4200 Snow -21 1027 76 10000 2 260 12:20 18.11.2019
4201 Snow -22 1027 83 10000 2 260 11:56 18.11.2019
4202 Snow -22 1027 83 10000 2 250 11:38 18.11.2019
4203 Snow -22 1027 83 10000 2 250 11:19 18.11.2019
4204 Snow -22 1027 83 10000 3 260 10:43 18.11.2019
4205 Snow -22 1027 83 10000 3 270 10:25 18.11.2019
4206 Snow -22 1027 83 10000 2 280 09:57 18.11.2019
4207 Snow -22 1027 76 10000 3 270 09:38 18.11.2019
4208 Snow -22 1027 76 10000 3 270 09:20 18.11.2019
4209 Snow -22 1027 76 10000 3 240 08:55 18.11.2019
4210 Snow -22 1027 76 10000 3 260 08:36 18.11.2019
4211 Snow -22 1027 76 10000 3 260 08:18 18.11.2019
4212 Snow -22 1028 76 10000 2 270 07:44 18.11.2019
4213 Snow -22 1027 76 10000 3 270 07:23 18.11.2019
4214 Snow -21 1027 70 10000 3 280 06:48 18.11.2019
4215 Snow -21 1027 70 10000 3 270 06:28 18.11.2019
4216 Snow -21 1028 70 10000 2 260 05:42 18.11.2019
4217 Snow -22 1028 76 10000 2 270 03:59 18.11.2019
4218 Snow -22 1029 76 10000 3 270 01:40 18.11.2019
4219 Snow -22 1029 76 10000 3 260 00:54 18.11.2019
4220 Snow -22 1029 83 10000 2 280 00:20 18.11.2019
4221 Snow -21 1029 70 10000 3 260 23:41 17.11.2019
4222 Snow -21 1029 76 10000 3 270 23:21 17.11.2019
4223 Snow -21 1029 76 10000 3 260 22:57 17.11.2019
4224 Snow -21 1029 76 10000 3 260 22:57 17.11.2019
4225 Snow -21 1029 76 10000 3 260 22:39 17.11.2019
4226 Snow -21 1029 76 10000 3 260 22:20 17.11.2019
4227 Snow -21 1030 76 10000 3 260 21:56 17.11.2019
4228 Snow -21 1030 76 10000 3 240 21:37 17.11.2019
4229 Snow -21 1030 76 10000 3 240 21:18 17.11.2019
4230 Snow -21 1030 76 10000 2 230 20:55 17.11.2019
4231 Snow -21 1030 76 10000 4 260 20:36 17.11.2019
4232 Snow -21 1030 76 10000 4 260 20:18 17.11.2019
4233 Snow -21 1030 76 10000 5 270 19:55 17.11.2019
4234 Snow -21 1030 76 10000 5 270 19:36 17.11.2019
4235 Snow -21 1030 76 10000 5 270 19:18 17.11.2019
4236 Snow -21 1030 76 10000 5 280 18:54 17.11.2019
4237 Snow -21 1030 76 10000 4 270 18:36 17.11.2019
4238 Snow -21 1030 76 10000 4 270 18:18 17.11.2019
4239 Snow -21 1030 76 10000 4 260 17:56 17.11.2019
4240 Snow -21 1030 76 10000 5 270 17:38 17.11.2019
4241 Snow -21 1030 76 10000 5 270 17:18 17.11.2019
4242 Snow -20 1030 76 10000 5 270 16:42 17.11.2019
4243 Snow -20 1030 76 10000 4 260 16:22 17.11.2019
4244 Snow -20 1031 76 10000 5 260 15:59 17.11.2019
4245 Snow -20 1031 76 10000 5 260 15:41 17.11.2019
4246 Snow -20 1030 83 10000 5 270 15:19 17.11.2019
4247 Snow -20 1031 83 10000 5 260 14:57 17.11.2019
4248 Snow -20 1031 83 10000 5 260 14:39 17.11.2019
4249 Snow -20 1031 83 10000 5 260 14:20 17.11.2019
4250 Snow -19 1031 77 10000 4 260 13:59 17.11.2019
4251 Snow -19 1031 77 10000 4 260 13:40 17.11.2019
4252 Snow -19 1031 77 10000 4 260 13:20 17.11.2019
4253 Snow -19 1031 77 10000 5 260 12:45 17.11.2019
4254 Snow -19 1031 84 10000 5 270 12:24 17.11.2019
4255 Snow -19 1031 84 10000 5 260 11:59 17.11.2019
4256 Snow -19 1030 84 10000 5 260 11:40 17.11.2019
4257 Snow -19 1030 84 10000 5 260 11:21 17.11.2019
4258 Snow -19 1030 84 10000 4 260 10:58 17.11.2019
4259 Snow -19 1030 84 10000 4 260 10:40 17.11.2019
4260 Snow -18 1030 77 10000 4 260 10:21 17.11.2019
4261 Snow -18 1030 77 10000 4 260 09:42 17.11.2019
4262 Snow -18 1030 77 10000 3 260 09:23 17.11.2019
4263 Snow -18 1030 77 10000 3 260 08:44 17.11.2019
4264 Snow -18 1030 77 10000 3 260 08:44 17.11.2019
4265 Snow -18 1030 84 10000 3 280 08:25 17.11.2019
4266 Snow -18 1030 84 10000 4 290 07:58 17.11.2019
4267 Snow -18 1030 84 10000 4 290 07:40 17.11.2019
4268 Snow -18 1030 77 5000 4 300 07:20 17.11.2019
4269 Snow -18 1030 77 5000 3 290 06:53 17.11.2019
4270 Snow -18 1030 77 5000 3 290 06:29 17.11.2019
4271 Snow -18 1029 77 10000 3 300 04:57 17.11.2019
4272 Snow -19 1029 77 10000 4 290 03:59 17.11.2019
4273 Snow -19 1029 77 10000 3 290 03:37 17.11.2019
4274 Snow -19 1029 77 10000 3 290 03:19 17.11.2019
4275 Snow -20 1029 76 10000 2 280 01:54 17.11.2019
4276 Snow -20 1029 76 10000 2 280 00:59 17.11.2019
4277 Snow -20 1029 76 10000 2 280 00:41 17.11.2019
4278 Snow -20 1029 76 10000 2 270 00:21 17.11.2019
4279 Snow -20 1029 76 10000 3 270 23:42 16.11.2019
4280 Snow -20 1029 76 10000 3 270 23:42 16.11.2019
4281 Snow -20 1028 76 10000 3 280 23:19 16.11.2019
4282 Snow -21 1028 76 10000 2 250 22:43 16.11.2019
4283 Snow -22 1028 83 10000 3 210 22:20 16.11.2019
4284 Snow -22 1028 76 10000 3 210 21:59 16.11.2019
4285 Snow -22 1028 76 10000 3 210 21:40 16.11.2019
4286 Snow -22 1028 76 10000 3 210 21:21 16.11.2019
4287 Snow -22 1027 76 10000 3 210 20:58 16.11.2019
4288 Snow -22 1027 76 10000 3 210 20:58 16.11.2019
4289 Snow -22 1027 76 10000 3 210 20:39 16.11.2019
4290 Snow -22 1027 76 10000 3 200 20:19 16.11.2019
4291 Snow -23 1027 83 10000 4 210 19:54 16.11.2019
4292 Snow -23 1027 76 10000 4 210 19:36 16.11.2019
4293 Snow -23 1027 76 10000 4 210 19:18 16.11.2019
4294 Snow -23 1027 76 10000 3 210 18:40 16.11.2019
4295 Snow -23 1027 76 10000 3 210 18:20 16.11.2019
4296 Snow -23 1027 76 10000 4 210 17:55 16.11.2019
4297 Snow -24 1027 76 10000 4 210 17:37 16.11.2019
4298 Snow -24 1027 76 10000 4 210 17:18 16.11.2019
4299 Clouds -24 1027 76 10000 3 220 16:45 16.11.2019
4300 Clear -24 1026 69 10000 3 220 16:27 16.11.2019
4301 Clear -25 1026 69 10000 3 210 15:56 16.11.2019
4302 Clear -25 1026 75 10000 3 200 15:37 16.11.2019
4303 Clear -25 1026 75 10000 3 200 15:19 16.11.2019
4304 Clear -25 1026 75 10000 3 230 14:41 16.11.2019
4305 Clear -25 1026 75 10000 3 230 14:21 16.11.2019
4306 Clear -25 1026 69 10000 2 230 13:57 16.11.2019
4307 Clear -25 1025 69 10000 2 240 13:39 16.11.2019
4308 Clear -25 1025 69 10000 2 240 13:39 16.11.2019
4309 Clear -25 1025 69 10000 2 240 13:19 16.11.2019
4310 Clear -25 1025 75 10000 3 240 12:59 16.11.2019
4311 Clear -25 1025 75 10000 3 240 12:40 16.11.2019
4312 Clear -25 1025 69 10000 3 240 12:20 16.11.2019
4313 Clear -25 1025 69 10000 3 250 11:46 16.11.2019
4314 Clear -24 1025 69 10000 3 260 11:27 16.11.2019
4315 Clear -24 1024 69 10000 3 270 10:58 16.11.2019
4316 Clear -24 1024 69 10000 3 270 10:39 16.11.2019
4317 Clear -24 1024 69 10000 3 260 10:21 16.11.2019
4318 Clear -24 1024 69 10000 3 260 09:45 16.11.2019
4319 Clear -24 1023 69 10000 2 260 09:22 16.11.2019
4320 Clear -24 1023 69 10000 3 260 08:59 16.11.2019
4321 Clear -24 1023 69 10000 3 260 08:39 16.11.2019
4322 Clear -23 1023 69 10000 3 260 08:19 16.11.2019
4323 Clouds -23 1023 69 10000 3 260 08:19 16.11.2019
4324 Clear -23 1022 69 10000 3 260 07:43 16.11.2019
4325 Clear -23 1022 69 10000 4 270 07:21 16.11.2019
4326 Clear -23 1022 69 10000 4 260 06:55 16.11.2019
4327 Clear -23 1022 69 10000 4 260 06:34 16.11.2019
4328 Clear -23 1021 69 10000 4 260 05:40 16.11.2019
4329 Clear -23 1020 69 10000 4 260 04:20 16.11.2019
4330 Clear -23 1020 69 10000 4 260 04:20 16.11.2019
4331 Clear -24 1020 76 10000 3 270 03:26 16.11.2019
4332 Clouds -25 1019 75 10000 3 290 01:55 16.11.2019
4333 Clouds -25 1019 75 10000 2 280 01:27 16.11.2019
4334 Clear -26 1018 83 10000 2 270 00:46 16.11.2019
4335 Clear -25 1018 75 10000 2 270 00:27 16.11.2019
4336 Clear -25 1018 75 10000 2 260 23:40 15.11.2019
4337 Clouds -25 1018 69 10000 2 260 23:21 15.11.2019
4338 Clouds -25 1017 75 10000 3 260 22:58 15.11.2019
4339 Clouds -25 1017 75 10000 3 260 22:38 15.11.2019
4340 Clouds -25 1017 75 10000 3 260 22:18 15.11.2019
4341 Clouds -25 1017 75 10000 3 260 21:54 15.11.2019
4342 Clouds -25 1017 75 10000 3 250 21:36 15.11.2019
4343 Clouds -25 1017 75 10000 3 250 21:18 15.11.2019
4344 Clouds -25 1017 75 10000 2 250 20:54 15.11.2019
4345 Clouds -25 1016 75 10000 2 270 20:36 15.11.2019
4346 Clouds -25 1016 75 10000 2 270 20:18 15.11.2019
4347 Clouds -25 1016 75 10000 2 270 20:18 15.11.2019
4348 Clouds -25 1016 75 10000 2 270 19:56 15.11.2019
4349 Clouds -26 1016 75 10000 2 280 19:36 15.11.2019
4350 Clouds -26 1016 75 10000 2 280 19:18 15.11.2019
4351 Clouds -25 1016 75 10000 1 290 18:41 15.11.2019
4352 Clouds -25 1016 75 10000 2 290 18:23 15.11.2019
4353 Clouds -25 1016 75 10000 2 280 17:55 15.11.2019
4354 Clouds -25 1015 75 10000 2 290 17:37 15.11.2019
4355 Clouds -25 1015 75 10000 2 290 17:18 15.11.2019
4356 Clouds -25 1015 75 10000 3 280 16:40 15.11.2019
4357 Clouds -25 1015 75 10000 3 280 16:40 15.11.2019
4358 Clouds -25 1015 75 10000 3 270 16:22 15.11.2019
4359 Clouds -25 1015 75 10000 3 280 15:59 15.11.2019
4360 Clouds -24 1015 69 10000 4 280 15:36 15.11.2019
4361 Clouds -24 1015 69 10000 4 280 15:18 15.11.2019
4362 Clouds -24 1015 76 10000 4 280 14:55 15.11.2019
4363 Clouds -24 1015 76 10000 3 270 14:37 15.11.2019
4364 Clouds -24 1015 76 10000 3 270 14:37 15.11.2019
4365 Clouds -24 1015 76 10000 3 270 14:18 15.11.2019
4366 Clouds -24 1015 76 10000 3 270 13:54 15.11.2019
4367 Clouds -24 1015 76 10000 3 270 13:54 15.11.2019
4368 Clouds -24 1015 76 10000 3 270 13:36 15.11.2019
4369 Clouds -24 1015 76 10000 3 270 13:18 15.11.2019
4370 Clouds -24 1014 76 10000 2 270 12:56 15.11.2019
4371 Clouds -25 1014 83 10000 2 290 12:37 15.11.2019
4372 Clouds -25 1014 83 10000 2 290 12:18 15.11.2019
4373 Clouds -24 1014 76 10000 2 270 11:39 15.11.2019
4374 Clouds -24 1014 76 10000 2 270 11:21 15.11.2019
4375 Clouds -24 1014 76 10000 2 270 11:21 15.11.2019
4376 Clouds -24 1014 76 10000 2 260 10:58 15.11.2019
4377 Clouds -24 1014 76 10000 2 250 10:39 15.11.2019
4378 Clouds -24 1014 76 10000 2 250 10:20 15.11.2019
4379 Clouds -24 1014 76 10000 1 300 09:41 15.11.2019
4380 Clouds -24 1014 76 10000 1 260 09:21 15.11.2019
4381 Clouds -24 1014 76 10000 2 280 08:58 15.11.2019
4382 Clouds -24 1014 76 10000 2 280 08:39 15.11.2019
4383 Clouds -23 1014 76 10000 2 280 08:20 15.11.2019
4384 Clouds -23 1013 76 10000 2 280 07:42 15.11.2019
4385 Clouds -23 1013 76 10000 2 290 07:23 15.11.2019
4386 Clouds -22 1013 69 10000 3 290 06:36 15.11.2019
4387 Clouds -22 1013 69 10000 3 280 05:52 15.11.2019
4388 Clouds -23 1013 76 10000 4 280 05:31 15.11.2019
4389 Clouds -23 1013 76 10000 2 280 04:53 15.11.2019
4390 Clouds -23 1013 69 10000 3 260 03:39 15.11.2019
4391 Clouds -24 1014 69 10000 3 270 02:34 15.11.2019
4392 Clouds -25 1014 75 10000 2 270 01:55 15.11.2019
4393 Clouds -25 1014 75 10000 2 270 01:32 15.11.2019
4394 Clouds -25 1014 75 10000 2 270 01:32 15.11.2019
4395 Clouds -25 1014 75 10000 3 290 00:40 15.11.2019
4396 Clouds -25 1014 75 10000 3 290 00:21 15.11.2019
4397 Clouds -25 1014 75 10000 2 280 23:46 14.11.2019
4398 Clouds -25 1014 75 10000 2 280 23:26 14.11.2019
4399 Clouds -25 1014 75 10000 3 300 22:42 14.11.2019
4400 Clouds -25 1014 75 10000 3 320 22:23 14.11.2019
4401 Clouds -25 1014 75 10000 3 320 22:23 14.11.2019
4402 Snow -25 1014 75 10000 3 310 21:59 14.11.2019
4403 Snow -25 1014 75 10000 4 300 21:40 14.11.2019
4404 Snow -25 1014 75 10000 4 300 21:40 14.11.2019
4405 Snow -25 1014 75 10000 4 300 21:22 14.11.2019
4406 Snow -24 1015 76 10000 3 300 20:55 14.11.2019
4407 Snow -24 1015 76 10000 3 300 20:55 14.11.2019
4408 Snow -24 1015 76 5000 3 300 20:37 14.11.2019
4409 Snow -24 1015 76 5000 3 300 20:19 14.11.2019
4410 Snow -24 1015 76 10000 3 310 19:56 14.11.2019
4411 Snow -24 1015 76 10000 4 300 19:37 14.11.2019
4412 Snow -24 1015 76 10000 4 300 19:18 14.11.2019
4413 Snow -24 1015 76 10000 2 310 18:42 14.11.2019
4414 Snow -24 1015 76 10000 2 310 18:24 14.11.2019
4415 Snow -24 1015 76 10000 2 310 17:57 14.11.2019
4416 Snow -24 1015 76 10000 3 300 17:38 14.11.2019
4417 Snow -24 1015 76 5000 3 300 17:20 14.11.2019
4418 Snow -24 1015 76 5000 3 300 16:58 14.11.2019
4419 Snow -24 1015 76 5000 3 290 16:37 14.11.2019
4420 Snow -24 1015 76 5000 3 290 16:19 14.11.2019
4421 Snow -24 1015 76 10000 3 290 15:58 14.11.2019
4422 Snow -24 1015 76 10000 3 280 15:38 14.11.2019
4423 Snow -24 1015 76 10000 3 280 15:20 14.11.2019
4424 Snow -24 1015 76 5000 3 300 14:57 14.11.2019
4425 Snow -24 1015 76 5000 2 290 14:38 14.11.2019
4426 Snow -24 1015 76 5000 2 290 14:38 14.11.2019
4427 Snow -24 1015 76 5000 2 290 14:20 14.11.2019
4428 Snow -24 1015 76 5000 2 290 13:42 14.11.2019
4429 Snow -24 1015 76 5000 2 300 13:23 14.11.2019
4430 Snow -24 1015 76 5000 2 300 12:57 14.11.2019
4431 Snow -24 1015 76 3500 2 280 12:38 14.11.2019
4432 Snow -24 1015 76 3500 2 280 12:38 14.11.2019
4433 Snow -24 1015 76 3500 2 280 12:38 14.11.2019
4434 Snow -24 1015 76 3500 2 280 12:20 14.11.2019
4435 Snow -24 1015 76 5000 2 280 11:55 14.11.2019
4436 Snow -24 1015 76 5000 2 290 11:36 14.11.2019
4437 Snow -24 1015 76 5000 2 290 11:18 14.11.2019
4438 Snow -24 1014 76 5000 2 280 10:56 14.11.2019
4439 Snow -24 1014 76 5000 2 280 10:56 14.11.2019
4440 Snow -24 1014 76 5000 2 290 10:37 14.11.2019
4441 Snow -24 1014 76 5000 2 290 10:19 14.11.2019
4442 Snow -24 1014 69 5000 2 260 09:41 14.11.2019
4443 Snow -24 1014 69 5000 2 260 09:23 14.11.2019
4444 Clouds -24 1014 69 10000 2 250 08:56 14.11.2019
4445 Clouds -24 1014 69 10000 2 250 08:38 14.11.2019
4446 Clouds -24 1014 69 10000 2 250 08:19 14.11.2019
4447 Clouds -24 1014 69 10000 2 260 07:41 14.11.2019
4448 Clouds -25 1013 75 10000 2 280 07:22 14.11.2019
4449 Clouds -25 1013 75 10000 2 290 06:46 14.11.2019
4450 Clouds -25 1013 75 10000 1 280 06:20 14.11.2019
4451 Clouds -25 1013 75 10000 1 280 06:20 14.11.2019
4452 Snow -25 1013 75 10000 1 200 05:27 14.11.2019
4453 Snow -25 1016 95 0 1.69 297 04:35 14.11.2019
4454 Snow -26 1013 75 10000 1 250 02:51 14.11.2019
4455 Snow -26 1013 75 10000 2 320 02:29 14.11.2019
4456 Snow -26 1013 75 10000 2 310 01:40 14.11.2019
4457 Snow -26 1014 75 2400 2 290 00:56 14.11.2019
4458 Snow -26 1013 75 10000 3 290 00:37 14.11.2019
4459 Snow -26 1013 75 10000 3 290 00:18 14.11.2019
4460 Snow -27 1014 75 10000 2 290 23:38 13.11.2019
4461 Snow -27 1014 75 10000 2 290 23:19 13.11.2019
4462 Snow -27 1015 75 10000 2 300 22:55 13.11.2019
4463 Snow -28 1015 75 10000 3 300 22:37 13.11.2019
4464 Snow -28 1015 75 10000 3 300 22:37 13.11.2019
4465 Snow -28 1015 75 10000 3 300 22:18 13.11.2019
4466 Snow -28 1015 75 10000 3 290 21:54 13.11.2019
4467 Snow -28 1015 75 10000 2 300 21:36 13.11.2019
4468 Snow -28 1015 75 10000 2 300 21:18 13.11.2019
4469 Snow -28 1016 75 10000 2 290 20:54 13.11.2019
4470 Snow -28 1016 75 10000 3 290 20:36 13.11.2019
4471 Clouds -28 1016 75 10000 3 290 20:18 13.11.2019
4472 Clouds -28 1016 75 10000 3 290 19:41 13.11.2019
4473 Clouds -28 1016 75 10000 2 290 19:19 13.11.2019
4474 Snow -28 1016 82 10000 2 310 18:56 13.11.2019
4475 Snow -27 1016 75 10000 2 300 18:37 13.11.2019
4476 Snow -27 1016 75 10000 2 300 18:19 13.11.2019
4477 Snow -27 1017 82 10000 1 320 17:56 13.11.2019
4478 Snow -26 1017 75 10000 2 330 17:38 13.11.2019
4479 Snow -26 1017 75 10000 2 330 17:19 13.11.2019
4480 Snow -26 1017 75 10000 2 330 16:57 13.11.2019
4481 Snow -26 1017 83 10000 1 320 16:38 13.11.2019
4482 Snow -26 1017 83 10000 1 320 16:20 13.11.2019
4483 Snow -25 1017 75 10000 1 330 15:57 13.11.2019
4484 Snow -25 1017 75 10000 2 330 15:38 13.11.2019
4485 Snow -25 1017 75 10000 2 330 15:18 13.11.2019
4486 Snow -25 1018 75 10000 2 330 14:42 13.11.2019
4487 Snow -25 1018 75 10000 2 330 14:21 13.11.2019
4488 Snow -25 1018 75 5000 1 320 13:56 13.11.2019
4489 Snow -25 1018 75 5000 1 310 13:36 13.11.2019
4490 Snow -25 1018 75 5000 1 310 13:18 13.11.2019
4491 Snow -25 1019 75 10000 1 300 12:42 13.11.2019
4492 Snow -25 1019 83 10000 0.97 8 12:23 13.11.2019
4493 Snow -25 1019 83 10000 0.97 8 11:58 13.11.2019
4494 Snow -25 1019 83 10000 0.97 8 11:38 13.11.2019
4495 Snow -25 1019 83 10000 1.06 23 11:19 13.11.2019
4496 Snow -25 1019 75 10000 1 140 10:57 13.11.2019
4497 Snow -26 1019 75 10000 1 160 10:39 13.11.2019
4498 Snow -26 1019 75 10000 1 160 10:19 13.11.2019
4499 Snow -25 1019 75 10000 1.06 23 09:43 13.11.2019
4500 Snow -25 1019 75 10000 1.06 23 09:21 13.11.2019
4501 Snow -25 1019 75 10000 1.06 23 09:21 13.11.2019
4502 Snow -25 1019 75 10000 1.06 23 09:21 13.11.2019
4503 Snow -25 1019 75 10000 1.06 23 09:21 13.11.2019
4504 Snow -25 1019 75 10000 1.06 23 08:46 13.11.2019
4505 Snow -24 1019 69 10000 1 40 08:28 13.11.2019
4506 Snow -24 1019 69 10000 1 10 07:59 13.11.2019
4507 Snow -24 1019 69 10000 1 10 07:41 13.11.2019
4508 Snow -24 1019 69 10000 1 20 07:20 13.11.2019
4509 Snow -24 1020 69 5000 1 20 06:43 13.11.2019
4510 Snow -24 1020 69 5000 1 20 06:19 13.11.2019
4511 Snow -24 1020 69 5000 1 20 06:19 13.11.2019
4512 Snow -24 1020 69 5000 1 20 06:19 13.11.2019
4513 Snow -24 1020 69 5000 1 20 06:19 13.11.2019
4514 Snow -24 1020 69 5000 1 20 06:19 13.11.2019
4515 Snow -24 1020 69 5000 1 30 05:48 13.11.2019
4516 Snow -24 1020 69 5000 2 20 05:29 13.11.2019
4517 Snow -24 1020 69 5000 2 350 04:19 13.11.2019
4518 Snow -25 1021 75 10000 1 340 01:54 13.11.2019
4519 Snow -25 1021 75 10000 1 360 01:35 13.11.2019
4520 Snow -25 1021 69 10000 1 350 00:43 13.11.2019
4521 Snow -25 1021 69 10000 1 30 23:58 12.11.2019
4522 Snow -25 1022 75 10000 1 20 23:40 12.11.2019
4523 Snow -25 1021 69 10000 1 30 23:40 12.11.2019
4524 Snow -25 1022 75 10000 1 20 23:20 12.11.2019
4525 Snow -25 1022 75 10000 2 10 22:43 12.11.2019
4526 Snow -24 1022 69 10000 2 20 22:20 12.11.2019
4527 Snow -24 1022 69 10000 2 340 21:58 12.11.2019
4528 Snow -24 1022 69 10000 2 340 21:40 12.11.2019
4529 Snow -24 1022 69 10000 2 330 21:22 12.11.2019
4530 Snow -24 1022 69 10000 2 330 20:56 12.11.2019
4531 Snow -24 1022 69 10000 2 330 20:37 12.11.2019
4532 Snow -24 1022 69 10000 2 330 20:18 12.11.2019
4533 Snow -24 1023 69 10000 2 330 19:57 12.11.2019
4534 Snow -24 1023 69 10000 2 340 19:38 12.11.2019
4535 Snow -24 1023 69 10000 2 340 19:19 12.11.2019
4536 Snow -24 1023 69 10000 2 330 18:58 12.11.2019
4537 Snow -24 1023 69 10000 2 330 18:39 12.11.2019
4538 Snow -24 1023 69 10000 2 330 18:21 12.11.2019
4539 Snow -24 1023 69 10000 2 330 18:21 12.11.2019
4540 Snow -24 1023 69 10000 2 320 17:56 12.11.2019
4541 Snow -24 1023 69 10000 3 320 17:37 12.11.2019
4542 Snow -24 1023 69 10000 3 320 17:19 12.11.2019
4543 Snow -24 1023 69 10000 3 320 16:44 12.11.2019
4544 Snow -24 1023 76 10000 3 340 16:25 12.11.2019
4545 Snow -24 1023 69 10000 3 330 15:58 12.11.2019
4546 Snow -24 1023 69 10000 3 320 15:39 12.11.2019
4547 Snow -24 1023 69 10000 3 320 15:20 12.11.2019
4548 Snow -24 1023 69 10000 3 310 14:56 12.11.2019
4549 Snow -24 1023 69 10000 3 320 14:36 12.11.2019
4550 Snow -24 1023 69 10000 3 320 14:36 12.11.2019
4551 Snow -24 1023 69 10000 3 320 14:18 12.11.2019
4552 Snow -24 1023 69 10000 4 320 13:55 12.11.2019
4553 Snow -23 1023 63 10000 4 320 13:36 12.11.2019
4554 Snow -23 1023 63 10000 4 320 13:18 12.11.2019
4555 Snow -23 1023 63 10000 4 310 12:40 12.11.2019
4556 Snow -23 1023 63 10000 4 310 12:19 12.11.2019
4557 Snow -23 1023 63 10000 3 310 11:57 12.11.2019
4558 Clouds -23 1023 63 10000 4 300 11:39 12.11.2019
4559 Clouds -23 1023 63 10000 4 300 11:21 12.11.2019
4560 Clouds -23 1023 63 10000 3 310 10:55 12.11.2019
4561 Clouds -23 1023 63 10000 3 290 10:37 12.11.2019
4562 Clouds -23 1023 63 10000 3 290 10:19 12.11.2019
4563 Clouds -23 1023 63 10000 3 300 09:40 12.11.2019
4564 Clouds -23 1023 63 10000 3 300 09:20 12.11.2019
4565 Clouds -23 1023 63 10000 2 280 08:51 12.11.2019
4566 Clouds -23 1022 63 10000 3 320 08:30 12.11.2019
4567 Clouds -23 1022 63 10000 3 320 07:44 12.11.2019
4568 Clouds -22 1022 57 10000 4 320 07:25 12.11.2019
4569 Clouds -22 1022 57 10000 4 330 06:56 12.11.2019
4570 Clouds -22 1022 63 10000 3 340 06:29 12.11.2019
4571 Clouds -22 1022 57 10000 3 340 05:57 12.11.2019
4572 Clouds -22 1022 57 10000 3 340 05:29 12.11.2019
4573 Clouds -23 1021 63 10000 3 330 04:39 12.11.2019
4574 Clouds -24 1021 69 10000 3 300 02:51 12.11.2019
4575 Clouds -25 1021 75 10000 2 260 01:39 12.11.2019
4576 Clouds -25 1021 69 10000 2 250 01:19 12.11.2019
4577 Clouds -26 1020 75 10000 3 270 00:44 12.11.2019
4578 Clouds -25 1020 69 10000 2 270 00:21 12.11.2019
4579 Clouds -25 1020 69 10000 2 290 23:42 11.11.2019
4580 Clouds -25 1020 69 10000 3 290 23:21 11.11.2019
4581 Clouds -25 1020 69 10000 3 290 23:21 11.11.2019
4582 Clouds -25 1019 75 10000 2 280 22:40 11.11.2019
4583 Clouds -25 1019 75 10000 2 280 22:20 11.11.2019
4584 Clouds -25 1019 75 10000 2 290 21:59 11.11.2019
4585 Clouds -25 1019 75 10000 2 290 21:40 11.11.2019
4586 Clouds -25 1019 69 10000 2 280 21:21 11.11.2019
4587 Clouds -25 1019 69 10000 2 290 20:59 11.11.2019
4588 Clouds -25 1019 69 10000 2 290 20:41 11.11.2019
4589 Clouds -25 1019 69 10000 2 300 20:20 11.11.2019
4590 Clouds -26 1019 75 10000 2 300 19:56 11.11.2019
4591 Clouds -26 1018 75 10000 1 310 19:38 11.11.2019
4592 Clouds -26 1018 75 10000 1 310 19:38 11.11.2019
4593 Clouds -26 1018 75 10000 1 310 19:18 11.11.2019
4594 Clouds -26 1018 75 10000 1 310 19:18 11.11.2019
4595 Clouds -24 1018 69 10000 1 310 18:42 11.11.2019
4596 Clouds -24 1018 69 10000 1 320 18:22 11.11.2019
4597 Clouds -24 1018 69 10000 1 300 18:00 11.11.2019
4598 Clouds -24 1018 69 10000 1 300 17:41 11.11.2019
4599 Clouds -24 1017 69 10000 2 300 17:22 11.11.2019
4600 Clouds -23 1017 63 10000 2 300 16:39 11.11.2019
4601 Clouds -23 1017 63 10000 2 290 16:21 11.11.2019
4602 Clouds -23 1017 63 10000 3 290 15:57 11.11.2019
4603 Clouds -23 1017 63 10000 3 290 15:38 11.11.2019
4604 Clouds -22 1017 57 10000 3 290 15:19 11.11.2019
4605 Clouds -22 1017 57 10000 3 300 14:42 11.11.2019
4606 Clouds -22 1016 57 10000 3 300 14:24 11.11.2019
4607 Clouds -22 1016 57 10000 3 290 13:58 11.11.2019
4608 Clouds -22 1016 57 10000 3 290 13:37 11.11.2019
4609 Clouds -22 1016 57 10000 4 280 13:19 11.11.2019
4610 Clouds -22 1016 57 10000 3 280 12:56 11.11.2019
4611 Clouds -22 1016 57 10000 3 280 12:38 11.11.2019
4612 Clouds -22 1016 63 10000 3 280 12:20 11.11.2019
4613 Clouds -22 1015 63 10000 3 280 11:42 11.11.2019
4614 Clouds -21 1015 58 10000 3 290 11:22 11.11.2019
4615 Clouds -21 1015 58 10000 3 300 10:57 11.11.2019
4616 Clouds -21 1015 58 10000 3 300 10:38 11.11.2019
4617 Clouds -21 1014 58 10000 3 290 10:18 11.11.2019
4618 Clouds -20 1014 58 10000 3 290 09:43 11.11.2019
4619 Clouds -20 1014 58 10000 3 280 09:21 11.11.2019
4620 Clouds -19 1013 53 10000 3 280 08:59 11.11.2019
4621 Clouds -19 1013 53 10000 3 280 08:37 11.11.2019
4622 Clouds -18 1013 54 10000 4 290 08:18 11.11.2019
4623 Snow -18 1013 54 10000 4 290 07:54 11.11.2019
4624 Snow -18 1013 54 10000 4 290 07:36 11.11.2019
4625 Snow -17 1012 54 10000 3 280 07:18 11.11.2019
4626 Snow -17 1012 59 10000 5 290 06:40 11.11.2019
4627 Clouds -16 1011 59 10000 4 290 06:20 11.11.2019
4628 Clouds -16 1011 65 10000 5 280 05:49 11.11.2019
4629 Clouds -16 1010 77 10000 7 290 03:56 11.11.2019
4630 Snow -15 1009 84 5000 2 190 02:55 11.11.2019
4631 Snow -16 1009 84 5000 1 160 02:19 11.11.2019
4632 Snow -17 1009 84 5000 2 160 01:51 11.11.2019
4633 Snow -17 1009 84 5000 1 150 01:31 11.11.2019
4634 Snow -18 1009 84 3200 2 140 00:41 11.11.2019
4635 Snow -19 1009 84 5000 1 150 23:58 10.11.2019
4636 Snow -19 1009 84 5000 1 150 23:39 10.11.2019
4637 Snow -19 1009 84 5000 1 140 23:19 10.11.2019
4638 Snow -19 1009 84 5000 1 110 22:57 10.11.2019
4639 Snow -19 1009 84 5000 1 110 22:38 10.11.2019
4640 Snow -20 1008 83 10000 0.65 314 22:20 10.11.2019
4641 Snow -21 1008 83 10000 1 130 21:57 10.11.2019
4642 Snow -21 1008 83 10000 1 130 21:38 10.11.2019
4643 Snow -22 1008 83 10000 2 150 21:20 10.11.2019
4644 Snow -22 1008 76 10000 2 120 20:43 10.11.2019
4645 Snow -22 1007 83 10000 1 80 20:22 10.11.2019
4646 Snow -22 1007 83 10000 1 80 20:22 10.11.2019
4647 Snow -22 1008 83 10000 1 40 19:57 10.11.2019
4648 Snow -22 1008 83 10000 1 40 19:57 10.11.2019
4649 Snow -22 1008 83 10000 1 40 19:38 10.11.2019
4650 Clouds -22 1007 83 10000 1 50 19:19 10.11.2019
4651 Clouds -21 1007 76 10000 1 340 18:58 10.11.2019
4652 Clouds -21 1007 76 10000 1 340 18:40 10.11.2019
4653 Clouds -22 1007 76 10000 1 330 18:20 10.11.2019
4654 Clouds -22 1007 76 10000 2 350 17:57 10.11.2019
4655 Clouds -22 1006 76 10000 1 340 17:39 10.11.2019
4656 Clouds -22 1006 76 10000 1 340 17:20 10.11.2019
4657 Clouds -23 1006 83 10000 2 330 16:59 10.11.2019
4658 Clouds -23 1006 83 10000 2 330 16:41 10.11.2019
4659 Clouds -23 1006 76 10000 2 350 16:22 10.11.2019
4660 Clouds -23 1006 76 10000 2 350 15:56 10.11.2019
4661 Clouds -23 1006 76 10000 2 350 15:37 10.11.2019
4662 Clouds -23 1005 76 10000 2 10 15:18 10.11.2019
4663 Clouds -24 1005 83 10000 2 360 14:55 10.11.2019
4664 Clouds -24 1005 83 10000 2 360 14:36 10.11.2019
4665 Clouds -23 1005 76 10000 2 340 14:18 10.11.2019
4666 Clouds -23 1005 76 10000 2 330 13:43 10.11.2019
4667 Clouds -23 1005 76 10000 2 340 13:21 10.11.2019
4668 Clouds -23 1004 76 10000 3 340 12:58 10.11.2019
4669 Clouds -23 1004 76 10000 3 340 12:40 10.11.2019
4670 Clouds -23 1004 76 10000 3 350 12:18 10.11.2019
4671 Clouds -23 1004 76 10000 2 340 11:55 10.11.2019
4672 Clouds -23 1004 76 10000 2 340 11:36 10.11.2019
4673 Clouds -23 1004 76 10000 2 340 11:18 10.11.2019
4674 Clouds -23 1004 76 10000 2 340 11:18 10.11.2019
4675 Clouds -23 1004 76 10000 3 340 10:42 10.11.2019
4676 Clouds -23 1004 76 10000 3 340 10:42 10.11.2019
4677 Clouds -24 1004 83 10000 2 330 10:20 10.11.2019
4678 Clouds -24 1004 83 10000 2 340 09:55 10.11.2019
4679 Clouds -24 1004 83 10000 2 340 09:37 10.11.2019
4680 Clouds -24 1004 83 10000 2 340 09:18 10.11.2019
4681 Clouds -24 1004 83 10000 2 350 08:39 10.11.2019
4682 Clouds -24 1004 83 10000 2 350 08:39 10.11.2019
4683 Clouds -23 1004 76 10000 2 340 08:20 10.11.2019
4684 Clouds -23 1004 76 10000 2 350 07:44 10.11.2019
4685 Clouds -24 1004 83 10000 2 350 07:26 10.11.2019
4686 Clouds -24 1004 83 10000 2 340 06:54 10.11.2019
4687 Clouds -24 1004 76 10000 3 340 05:51 10.11.2019
4688 Clouds -25 1004 75 10000 2 20 03:31 10.11.2019
4689 Clouds -26 1005 83 10000 2 20 02:22 10.11.2019
4690 Clouds -27 1005 82 10000 3 30 01:20 10.11.2019
4691 Clouds -27 1005 75 10000 2 30 00:48 10.11.2019
4692 Clouds -27 1005 75 10000 2 50 00:23 10.11.2019
4693 Clouds -27 1006 75 10000 2 10 23:40 09.11.2019
4694 Clouds -28 1006 75 10000 3 10 23:19 09.11.2019
4695 Clouds -28 1006 75 10000 2 350 22:42 09.11.2019
4696 Clouds -28 1006 75 10000 2 350 22:42 09.11.2019
4697 Clouds -28 1006 75 10000 2 10 22:22 09.11.2019
4698 Clouds -28 1006 75 10000 2 10 21:58 09.11.2019
4699 Clouds -28 1006 75 10000 2 10 21:39 09.11.2019
4700 Clouds -29 1006 75 10000 2 20 21:20 09.11.2019
4701 Clouds -29 1007 75 10000 2 360 20:56 09.11.2019
4702 Clouds -29 1007 75 10000 2 360 20:37 09.11.2019
4703 Clear -30 1007 74 10000 2 340 20:18 09.11.2019
4704 Clear -30 1007 67 10000 2 330 19:41 09.11.2019
4705 Clear -31 1007 74 10000 2 340 19:23 09.11.2019
4706 Clear -31 1007 74 10000 2 10 18:59 09.11.2019
4707 Clear -31 1007 74 10000 2 10 18:39 09.11.2019
4708 Clear -31 1008 74 10000 2 330 18:19 09.11.2019
4709 Clear -31 1008 74 10000 2 360 17:43 09.11.2019
4710 Clear -31 1008 74 10000 2 360 17:23 09.11.2019
4711 Clear -31 1009 74 10000 2 20 16:59 09.11.2019
4712 Clear -31 1009 74 10000 2 20 16:40 09.11.2019
4713 Clear -30 1009 74 10000 2 340 16:20 09.11.2019
4714 Clear -30 1009 67 10000 2 350 15:43 09.11.2019
4715 Clear -30 1010 67 10000 2 360 15:24 09.11.2019
4716 Clear -30 1010 74 10000 2 350 14:59 09.11.2019
4717 Clear -30 1010 74 10000 2 350 14:40 09.11.2019
4718 Clear -30 1010 74 10000 2 350 14:18 09.11.2019
4719 Clear -30 1011 74 10000 2 360 13:56 09.11.2019
4720 Clear -30 1011 74 10000 2 360 13:36 09.11.2019
4721 Clear -30 1011 82 10000 2 350 13:18 09.11.2019
4722 Clear -30 1011 82 10000 2 350 12:42 09.11.2019
4723 Clear -29 1012 75 10000 3 330 12:23 09.11.2019
4724 Clear -29 1012 75 10000 3 340 11:56 09.11.2019
4725 Clear -29 1012 75 10000 2 350 11:38 09.11.2019
4726 Clear -29 1012 75 10000 2 350 11:18 09.11.2019
4727 Clear -29 1013 75 10000 2 330 10:41 09.11.2019
4728 Clear -29 1013 75 10000 2 350 10:19 09.11.2019
4729 Clear -29 1013 75 10000 2 350 10:19 09.11.2019
4730 Clear -29 1013 75 10000 2 330 09:56 09.11.2019
4731 Clear -29 1014 75 10000 1 350 09:38 09.11.2019
4732 Clear -29 1014 75 10000 1 350 09:18 09.11.2019
4733 Clear -29 1014 75 10000 2 330 08:43 09.11.2019
4734 Clear -29 1014 75 10000 2 340 08:24 09.11.2019
4735 Clouds -29 1015 75 10000 2 340 07:48 09.11.2019
4736 Clouds -28 1015 75 10000 2 330 07:24 09.11.2019
4737 Clouds -28 1015 75 10000 2 330 06:56 09.11.2019
4738 Clouds -29 1016 75 10000 2 360 06:38 09.11.2019
4739 Clouds -29 1016 75 10000 2 360 06:19 09.11.2019
4740 Mist -29 1016 75 5000 1 350 05:37 09.11.2019
4741 Mist -31 1017 74 5000 2 340 03:57 09.11.2019
4742 Mist -32 1018 67 5000 1 10 02:45 09.11.2019
4743 Mist -33 1018 74 5000 2 10 02:22 09.11.2019
4744 Clear -34 1019 73 10000 1 360 00:57 09.11.2019
4745 Clear -33 1019 67 10000 1 350 00:39 09.11.2019
4746 Clear -33 1019 67 10000 1 350 00:20 09.11.2019
4747 Clear -33 1019 67 10000 1 340 23:40 08.11.2019
4748 Clear -33 1019 74 10000 2 310 23:21 08.11.2019
4749 Clear -33 1019 74 10000 1 320 22:50 08.11.2019
4750 Clear -32 1019 67 10000 1 350 22:22 08.11.2019
4751 Clear -32 1020 67 10000 1 360 21:59 08.11.2019
4752 Clear -32 1020 67 10000 1 360 21:40 08.11.2019
4753 Clear -33 1020 74 10000 2 330 21:22 08.11.2019
4754 Clear -33 1020 74 10000 1 320 20:57 08.11.2019
4755 Clear -32 1020 67 10000 1 330 20:38 08.11.2019
4756 Clouds -32 1020 67 10000 1 330 20:18 08.11.2019
4757 Clouds -32 1020 74 10000 1 310 19:40 08.11.2019
4758 Clouds -32 1020 74 10000 2 300 19:19 08.11.2019
4759 Clouds -31 1020 67 10000 2 280 18:56 08.11.2019
4760 Clouds -31 1020 74 10000 1 280 18:38 08.11.2019
4761 Clouds -31 1020 74 10000 1 280 18:20 08.11.2019
4762 Clouds -31 1020 74 10000 1 330 17:56 08.11.2019
4763 Clouds -31 1020 74 10000 1 350 17:38 08.11.2019
4764 Clouds -31 1020 74 10000 1 350 17:20 08.11.2019
4765 Clouds -31 1020 74 10000 1 340 16:59 08.11.2019
4766 Clouds -31 1020 74 10000 1 340 16:40 08.11.2019
4767 Clouds -30 1020 74 10000 1 320 16:21 08.11.2019
4768 Clouds -30 1020 74 10000 1 310 15:59 08.11.2019
4769 Clouds -30 1020 74 10000 1 310 15:40 08.11.2019
4770 Clouds -30 1020 82 10000 1 310 15:22 08.11.2019
4771 Clouds -30 1020 82 10000 1 310 15:22 08.11.2019
4772 Clouds -29 1020 75 10000 2 300 14:56 08.11.2019
4773 Clouds -29 1020 75 10000 1 300 14:38 08.11.2019
4774 Clouds -29 1020 75 10000 1 300 14:20 08.11.2019
4775 Clouds -29 1020 75 10000 2 280 13:58 08.11.2019
4776 Clouds -29 1020 75 10000 2 280 13:58 08.11.2019
4777 Clouds -28 1020 75 10000 2 290 13:39 08.11.2019
4778 Clouds -28 1020 75 10000 2 290 13:20 08.11.2019
4779 Clouds -27 1020 75 10000 1 320 12:45 08.11.2019
4780 Clouds -27 1020 75 10000 2 330 12:27 08.11.2019
4781 Clouds -27 1020 75 10000 2 340 11:58 08.11.2019
4782 Clouds -27 1020 82 10000 2 330 11:40 08.11.2019
4783 Clouds -27 1020 82 10000 2 330 11:20 08.11.2019
4784 Clouds -26 1020 75 10000 2 340 10:57 08.11.2019
4785 Clouds -26 1020 75 10000 2 340 10:39 08.11.2019
4786 Clouds -26 1020 83 10000 2 320 10:21 08.11.2019
4787 Clouds -25 1020 75 10000 2 340 09:56 08.11.2019
4788 Clouds -25 1019 83 10000 2 10 09:37 08.11.2019
4789 Clouds -25 1019 83 10000 2 10 09:18 08.11.2019
4790 Clouds -24 1019 83 10000 1.21 287 08:44 08.11.2019
4791 Clouds -24 1019 76 10000 1 170 08:20 08.11.2019
4792 Clouds -23 1019 76 10000 1 150 07:44 08.11.2019
4793 Clouds -23 1019 76 10000 1 140 07:23 08.11.2019
4794 Clouds -22 1019 69 10000 1 130 06:56 08.11.2019
4795 Clouds -23 1018 76 10000 1 80 06:37 08.11.2019
4796 Clouds -23 1018 76 10000 1 80 06:19 08.11.2019
4797 Clouds -23 1018 76 10000 1 60 05:26 08.11.2019
4798 Mist -24 1018 76 5000 1 50 04:28 08.11.2019
4799 Clouds -24 1018 76 10000 1 40 03:42 08.11.2019
4800 Clouds -23 1017 69 10000 2.4 289 03:18 08.11.2019
4801 Clouds -24 1017 76 10000 1 310 01:54 08.11.2019
4802 Clouds -24 1017 76 10000 2 300 01:35 08.11.2019
4803 Clouds -24 1017 76 10000 2 300 00:46 08.11.2019
4804 Clouds -24 1017 76 10000 1 310 00:22 08.11.2019
4805 Clouds -24 1016 76 10000 1 290 23:49 07.11.2019
4806 Clouds -24 1016 76 10000 2 310 23:28 07.11.2019
4807 Clouds -24 1016 76 10000 2 280 22:58 07.11.2019
4808 Clouds -24 1016 76 10000 2 280 22:40 07.11.2019
4809 Clouds -24 1015 76 10000 2 280 22:20 07.11.2019
4810 Clouds -23 1015 76 10000 2 300 21:40 07.11.2019
4811 Clouds -23 1015 76 10000 1 290 21:21 07.11.2019
4812 Clouds -23 1015 76 10000 2 310 20:59 07.11.2019
4813 Clouds -23 1015 76 10000 2 310 20:59 07.11.2019
4814 Clouds -23 1015 76 10000 2 310 20:41 07.11.2019
4815 Clouds -23 1015 76 10000 3 320 20:22 07.11.2019
4816 Clouds -23 1014 76 10000 2 290 19:59 07.11.2019
4817 Clouds -23 1014 76 10000 2 290 19:40 07.11.2019
4818 Clouds -22 1014 76 10000 4 290 19:21 07.11.2019
4819 Clouds -23 1014 83 10000 2 290 18:58 07.11.2019
4820 Clouds -23 1014 83 10000 2 290 18:58 07.11.2019
4821 Clouds -22 1014 76 10000 1 300 18:39 07.11.2019
4822 Clouds -22 1014 76 10000 1 300 18:19 07.11.2019
4823 Clouds -22 1013 83 10000 1 300 17:57 07.11.2019
4824 Clouds -22 1013 83 10000 1 300 17:38 07.11.2019
4825 Clouds -21 1013 76 10000 2 310 17:20 07.11.2019
4826 Clouds -21 1013 76 10000 2 310 16:55 07.11.2019
4827 Clouds -21 1013 76 10000 2 290 16:37 07.11.2019
4828 Clouds -21 1013 76 10000 2 290 16:19 07.11.2019
4829 Clouds -21 1012 76 10000 2 270 15:43 07.11.2019
4830 Clouds -21 1012 76 10000 2 270 15:21 07.11.2019
4831 Clouds -21 1012 83 10000 2 240 14:59 07.11.2019
4832 Clouds -21 1012 83 10000 2 250 14:39 07.11.2019
4833 Clouds -21 1012 83 10000 2 250 14:21 07.11.2019
4834 Clouds -21 1012 83 10000 1 270 13:55 07.11.2019
4835 Clouds -21 1012 83 10000 2 260 13:37 07.11.2019
4836 Clouds -21 1012 83 10000 2 260 13:19 07.11.2019
4837 Clouds -21 1012 83 10000 2 270 12:57 07.11.2019
4838 Clouds -21 1012 83 10000 2 270 12:38 07.11.2019
4839 Clouds -21 1012 83 10000 2 270 12:18 07.11.2019
4840 Clouds -20 1011 76 10000 3 260 11:42 07.11.2019
4841 Clouds -20 1011 76 10000 3 260 11:42 07.11.2019
4842 Clouds -20 1011 76 10000 3 260 11:23 07.11.2019
4843 Clouds -19 1011 77 10000 2 280 10:44 07.11.2019
4844 Clouds -19 1011 77 10000 2 280 10:20 07.11.2019
4845 Clouds -19 1011 77 10000 2 280 09:58 07.11.2019
4846 Clouds -19 1010 77 10000 2 270 09:40 07.11.2019
4847 Clouds -19 1010 77 10000 2 270 09:40 07.11.2019
4848 -273 0 0 0 0 0 09:20 07.11.2019
4849 -273 0 0 0 0 0 08:47 07.11.2019
4850 Clouds -18 1010 70 10000 3 290 08:25 07.11.2019
4851 Clouds -18 1010 70 10000 3 290 08:24 07.11.2019
4852 Clouds -18 1010 70 10000 3 290 08:24 07.11.2019
4853 Clouds -18 1010 70 10000 3 290 08:23 07.11.2019
4854 Clouds -17 1010 64 10000 2 280 07:57 07.11.2019
4855 Clouds -17 1010 64 10000 2.23 316 07:39 07.11.2019
4856 Clouds -17 1010 64 10000 2.23 316 07:39 07.11.2019
4857 Clouds -17 1010 64 10000 2.23 316 07:38 07.11.2019
4858 Clouds -17 1010 64 10000 2.23 316 07:20 07.11.2019
4859 Clouds -17 1010 64 10000 1 270 06:45 07.11.2019
4860 Clouds -17 1010 64 10000 1 270 06:24 07.11.2019
4861 Clouds -17 1010 64 10000 2 260 05:49 07.11.2019
4862 Clouds -18 1010 70 10000 3 280 05:30 07.11.2019
4863 Clouds -18 1010 70 10000 3 280 04:51 07.11.2019
4864 Clouds -18 1011 64 10000 3 270 04:29 07.11.2019
4865 Clouds -21 1012 76 10000 4 280 01:28 07.11.2019
4866 Clouds -22 1012 76 10000 5 270 00:30 07.11.2019
4867 Clouds -22 1013 76 10000 4 270 23:58 06.11.2019
4868 Clouds -22 1013 76 10000 3 280 23:40 06.11.2019
4869 Clouds -22 1013 76 10000 3 280 23:18 06.11.2019
4870 Clouds -22 1013 83 10000 4 280 22:40 06.11.2019
4871 Clouds -22 1013 83 10000 4 280 22:20 06.11.2019
4872 Clouds -21 1014 76 10000 4 260 21:57 06.11.2019
4873 Clouds -21 1014 76 10000 4 260 21:39 06.11.2019
4874 Clouds -21 1014 76 10000 4 260 21:39 06.11.2019
4875 Clouds -21 1014 76 10000 4 260 21:20 06.11.2019
4876 Clouds -21 1014 76 10000 5 270 20:57 06.11.2019
4877 Clouds -21 1015 76 10000 5 280 20:39 06.11.2019
4878 Clouds -21 1015 76 10000 5 280 20:39 06.11.2019
4879 Clouds -21 1015 76 10000 5 280 20:20 06.11.2019
4880 Clouds -21 1015 76 10000 4 280 19:57 06.11.2019
4881 Clouds -21 1015 76 10000 5 280 19:37 06.11.2019
4882 Clouds -21 1015 76 10000 5 280 19:19 06.11.2019
4883 Clouds -20 1015 70 10000 5 280 18:55 06.11.2019
4884 Clouds -20 1016 70 10000 4 290 18:37 06.11.2019
4885 Clouds -20 1016 70 10000 4 290 18:18 06.11.2019
4886 Clouds -21 1016 76 10000 4 290 17:42 06.11.2019
4887 Clouds -20 1016 76 10000 5 290 17:23 06.11.2019
4888 Clouds -20 1016 70 10000 4 280 16:57 06.11.2019
4889 Clouds -20 1017 70 10000 4 290 16:39 06.11.2019
4890 Clouds -20 1017 70 10000 4 290 16:21 06.11.2019
4891 Clouds -20 1017 76 10000 3 290 15:58 06.11.2019
4892 Clouds -20 1017 76 10000 3 290 15:38 06.11.2019
4893 Clouds -20 1017 76 10000 3 290 15:38 06.11.2019
4894 Clouds -20 1017 76 10000 3 290 15:38 06.11.2019
4895 Clouds -20 1017 76 10000 3 290 15:19 06.11.2019
4896 Clouds -20 1018 76 10000 3 280 14:57 06.11.2019
4897 Clouds -20 1018 76 10000 3 280 14:39 06.11.2019
4898 Clouds -20 1018 76 10000 3 280 14:39 06.11.2019
4899 Clouds -20 1018 76 10000 3 280 14:21 06.11.2019
4900 Clouds -20 1018 76 10000 3 290 13:59 06.11.2019
4901 Clouds -20 1018 76 10000 3 290 13:37 06.11.2019
4902 Clouds -20 1018 76 10000 3 290 13:19 06.11.2019
4903 Clouds -20 1019 76 10000 3 290 12:55 06.11.2019
4904 Clouds -20 1019 76 10000 3 290 12:37 06.11.2019
4905 Clouds -20 1019 76 10000 3 290 12:18 06.11.2019
4906 Clouds -20 1019 76 10000 3 300 11:56 06.11.2019
4907 Clouds -20 1019 76 10000 2 290 11:36 06.11.2019
4908 Clouds -20 1019 76 10000 2 290 11:18 06.11.2019
4909 Clouds -20 1019 76 10000 1 260 10:55 06.11.2019
4910 Clouds -20 1020 76 10000 1 300 10:37 06.11.2019
4911 Clouds -20 1020 76 10000 1 300 10:18 06.11.2019
4912 Clouds -19 1020 70 10000 1 300 09:41 06.11.2019
4913 Clouds -19 1020 70 10000 2 290 09:21 06.11.2019
4914 Clouds -19 1020 70 10000 3 280 08:56 06.11.2019
4915 Clouds -18 1020 70 10000 4 290 08:37 06.11.2019
4916 Clouds -18 1020 70 10000 4 290 08:18 06.11.2019
4917 Clouds -18 1020 70 10000 4 290 07:46 06.11.2019
4918 Clouds -18 1020 70 10000 5 290 07:28 06.11.2019
4919 Clouds -18 1020 70 10000 5 290 06:53 06.11.2019
4920 Clouds -18 1020 70 10000 5 280 06:34 06.11.2019
4921 Clouds -18 1020 70 10000 5 290 05:51 06.11.2019
4922 Clouds -19 1020 77 10000 4 290 03:48 06.11.2019
4923 Clouds -19 1020 77 10000 3 290 01:59 06.11.2019
4924 Clouds -19 1020 84 10000 3 290 00:48 06.11.2019
4925 Clouds -19 1020 84 10000 3 290 00:48 06.11.2019
4926 Clouds -18 1020 77 10000 3 290 00:26 06.11.2019
4927 Clouds -18 1020 84 10000 2 290 23:41 05.11.2019
4928 Clouds -17 1020 77 10000 2 280 23:22 05.11.2019
4929 Clouds -17 1020 77 10000 2 270 22:59 05.11.2019
4930 Clouds -17 1020 77 10000 2 270 22:41 05.11.2019
4931 Clouds -17 1020 84 10000 2 270 22:19 05.11.2019
4932 Clouds -17 1020 84 10000 2 290 21:55 05.11.2019
4933 Clouds -17 1020 84 10000 2 290 21:37 05.11.2019
4934 Clouds -17 1020 84 10000 2 290 21:19 05.11.2019
4935 Clouds -17 1020 84 10000 3 300 20:56 05.11.2019
4936 Clouds -17 1020 84 10000 1 280 20:37 05.11.2019
4937 Clouds -17 1020 84 10000 1 280 20:19 05.11.2019
4938 Clouds -17 1020 84 10000 2 290 19:42 05.11.2019
4939 Clouds -16 1020 84 10000 2 300 19:23 05.11.2019
4940 Clouds -16 1020 84 10000 2 300 18:58 05.11.2019
4941 Clouds -16 1020 84 10000 2 300 18:40 05.11.2019
4942 Clouds -16 1020 84 10000 2 300 18:21 05.11.2019
4943 Clouds -15 1020 77 10000 3 300 17:59 05.11.2019
4944 Clouds -15 1020 77 10000 4 310 17:39 05.11.2019
4945 Clouds -15 1020 77 10000 4 310 17:20 05.11.2019
4946 Clouds -15 1020 77 10000 3 300 16:57 05.11.2019
4947 Clouds -15 1020 77 10000 3 300 16:39 05.11.2019
4948 Clouds -16 1020 84 10000 1 280 16:19 05.11.2019
4949 Clouds -16 1020 84 10000 1 280 16:19 05.11.2019
4950 Clouds -15 1020 77 10000 2 280 15:39 05.11.2019
4951 Clouds -15 1020 84 10000 2 290 15:20 05.11.2019
4952 Clouds -15 1020 84 10000 2 290 15:20 05.11.2019
4953 Clouds -14 1020 77 10000 2 280 14:59 05.11.2019
4954 Clouds -14 1020 77 10000 2 280 14:40 05.11.2019
4955 Clouds -14 1019 77 10000 2 300 14:21 05.11.2019
4956 Clouds -14 1019 77 10000 3 290 13:58 05.11.2019
4957 Clouds -14 1019 77 10000 3 290 13:39 05.11.2019
4958 Clouds -14 1020 77 10000 2 290 13:21 05.11.2019
4959 Clouds -14 1020 77 10000 3 290 12:40 05.11.2019
4960 Clouds -14 1019 77 10000 3 290 12:21 05.11.2019
4961 Clouds -14 1019 77 10000 3 290 12:21 05.11.2019
4962 Clouds -14 1019 77 10000 3 290 11:56 05.11.2019
4963 Clouds -13 1019 71 10000 4 280 11:37 05.11.2019
4964 Clouds -13 1019 71 10000 4 280 11:19 05.11.2019
4965 Clouds -13 1019 71 10000 3 290 10:48 05.11.2019
4966 Clouds -13 1019 71 10000 4 280 10:27 05.11.2019
4967 Clouds -13 1019 71 10000 4 280 10:27 05.11.2019
4968 Clouds -13 1019 71 10000 4 280 09:59 05.11.2019
4969 Clouds -13 1019 71 10000 4 280 09:59 05.11.2019
4970 Clouds -13 1019 71 10000 4 280 09:41 05.11.2019
4971 Clouds -13 1019 78 10000 5 270 09:20 05.11.2019
4972 Clouds -12 1019 72 10000 4 270 08:57 05.11.2019
4973 Clouds -12 1019 78 10000 3 270 08:37 05.11.2019
4974 Clouds -12 1019 78 10000 3 270 08:19 05.11.2019
4975 Clouds -12 1019 78 10000 4 290 07:45 05.11.2019
4976 Clouds -11 1019 72 10000 5 280 07:26 05.11.2019
4977 Clouds -11 1019 72 10000 4 280 06:52 05.11.2019
4978 Clouds -11 1019 72 10000 4 290 06:30 05.11.2019
4979 Clouds -11 1019 72 10000 4 280 05:44 05.11.2019
4980 Clouds -11 1019 72 10000 5 280 05:20 05.11.2019
4981 Clouds -12 1019 78 10000 6 280 04:22 05.11.2019
4982 Clouds -11 1019 72 10000 5 290 03:29 05.11.2019
4983 Snow -11 1019 72 10000 5 290 02:43 05.11.2019
4984 Clouds -11 1019 78 10000 3 290 01:55 05.11.2019
4985 Clouds -12 1019 78 10000 2 280 00:46 05.11.2019
4986 Clouds -11 1019 78 10000 3 270 00:26 05.11.2019
4987 Clouds -11 1019 78 10000 4 270 23:42 04.11.2019
4988 Snow -11 1019 78 10000 3 280 23:19 04.11.2019
4989 Snow -11 1019 78 10000 3 280 22:57 04.11.2019
4990 Snow -11 1019 78 10000 3 280 22:57 04.11.2019
4991 Snow -11 1019 78 10000 3 280 22:39 04.11.2019
4992 Snow -11 1019 78 10000 4 280 22:20 04.11.2019
4993 Snow -11 1019 78 10000 4 280 22:20 04.11.2019
4994 Snow -11 1019 78 10000 4 280 22:20 04.11.2019
4995 Snow -11 1018 78 10000 3 290 21:55 04.11.2019
4996 Snow -10 1018 72 10000 4 300 21:37 04.11.2019
4997 Snow -10 1018 72 10000 4 300 21:18 04.11.2019
4998 Snow -10 1018 72 10000 4 300 21:18 04.11.2019
4999 Snow -10 1018 72 10000 3 300 20:55 04.11.2019
5000 Snow -10 1019 72 10000 3 290 20:37 04.11.2019
5001 Snow -10 1019 72 10000 3 290 20:19 04.11.2019
5002 Snow -10 1019 72 10000 3 290 19:56 04.11.2019
5003 Snow -10 1019 72 10000 3 290 19:38 04.11.2019
5004 Snow -10 1019 72 10000 3 290 19:20 04.11.2019
5005 Snow -10 1019 72 10000 3 290 18:54 04.11.2019
5006 Snow -10 1019 78 10000 3 290 18:36 04.11.2019
5007 Snow -10 1019 78 10000 3 290 18:18 04.11.2019
5008 Clouds -10 1019 78 10000 4 310 17:38 04.11.2019
5009 Clouds -10 1019 78 10000 4 310 17:19 04.11.2019
5010 Snow -10 1019 78 10000 4 310 16:55 04.11.2019
5011 Snow -10 1019 78 10000 4 310 16:55 04.11.2019
5012 Snow -10 1019 78 10000 4 310 16:55 04.11.2019
5013 Snow -9 1019 72 10000 4 320 16:36 04.11.2019
5014 Snow -9 1019 72 10000 4 320 16:18 04.11.2019
5015 Snow -10 1019 85 5000 4 310 15:41 04.11.2019
5016 Snow -9 1019 78 10000 4 310 15:22 04.11.2019
5017 Snow -9 1019 78 10000 5 310 14:59 04.11.2019
5018 Snow -9 1019 78 10000 5 310 14:41 04.11.2019
5019 Clouds -9 1019 78 10000 4 320 14:21 04.11.2019
5020 Snow -9 1019 85 10000 5 320 13:58 04.11.2019
5021 Snow -9 1019 85 10000 5 320 13:40 04.11.2019
5022 Snow -10 1019 92 3200 4 320 13:21 04.11.2019
5023 Snow -10 1019 92 3200 4 320 13:21 04.11.2019
5024 Snow -10 1019 92 2400 4 320 12:57 04.11.2019
5025 Snow -10 1019 92 2400 4 320 12:57 04.11.2019
5026 Snow -10 1019 92 1500 3 330 12:39 04.11.2019
5027 Snow -10 1019 92 1500 3 330 12:20 04.11.2019
5028 Snow -10 1019 92 1500 2 330 11:55 04.11.2019
5029 Snow -10 1019 92 1500 2 330 11:37 04.11.2019
5030 Snow -10 1019 92 1500 2 330 11:18 04.11.2019
5031 Snow -10 1019 92 1500 3 330 10:41 04.11.2019
5032 Snow -10 1019 92 1500 3 330 10:23 04.11.2019
5033 Snow -10 1019 92 1300 3 330 09:46 04.11.2019
5034 Snow -10 1019 85 1400 4 330 09:28 04.11.2019
5035 Snow -10 1019 92 2000 4 330 08:59 04.11.2019
5036 Snow -10 1019 92 2000 3 350 08:38 04.11.2019
5037 Snow -10 1019 92 2000 3 350 08:19 04.11.2019
5038 Snow -10 1019 92 2000 3 350 07:44 04.11.2019
5039 Snow -10 1019 85 2000 3 350 07:24 04.11.2019
5040 Snow -10 1019 85 2400 4 350 06:57 04.11.2019
5041 Snow -10 1019 85 2000 4 350 06:33 04.11.2019
5042 Snow -10 1019 85 2000 4 350 05:49 04.11.2019
5043 Snow -10 1019 92 2000 4 350 04:44 04.11.2019
5044 Snow -10 1019 92 2000 4 360 04:21 04.11.2019
5045 Snow -10 1019 92 2000 4 360 04:21 04.11.2019
5046 Snow -10 1019 92 2000 5 360 02:32 04.11.2019
5047 Snow -9 1019 92 2400 4 360 01:22 04.11.2019
5048 Snow -9 1019 92 2100 4 10 00:41 04.11.2019
5049 Snow -9 1019 92 2400 4 10 00:20 04.11.2019
5050 Snow -8 1019 92 1800 3 10 23:43 03.11.2019
5051 Snow -8 1019 92 3200 3 30 23:22 03.11.2019
5052 Snow -8 1019 92 2400 3 20 22:59 03.11.2019
5053 Snow -8 1019 92 2400 3 20 22:41 03.11.2019
5054 Snow -8 1019 92 2400 2 30 22:20 03.11.2019
5055 Snow -8 1019 92 1500 2 40 21:58 03.11.2019
5056 Snow -8 1019 92 1500 2 40 21:40 03.11.2019
5057 Snow -8 1019 92 3200 2 50 21:20 03.11.2019
5058 Snow -8 1019 92 3200 2 60 20:56 03.11.2019
5059 Snow -8 1019 92 10000 2 90 20:36 03.11.2019
5060 Snow -8 1019 92 10000 2 90 20:18 03.11.2019
5061 Snow -8 1019 92 10000 2 60 19:55 03.11.2019
5062 Snow -8 1019 92 10000 2 70 19:37 03.11.2019
5063 Snow -8 1019 92 10000 2 70 19:19 03.11.2019
5064 Snow -8 1019 92 10000 2 90 18:39 03.11.2019
5065 Snow -8 1019 92 10000 2 90 18:19 03.11.2019
5066 Snow -7 1019 85 10000 2 90 17:58 03.11.2019
5067 Snow -7 1019 85 10000 2 90 17:40 03.11.2019
5068 Snow -7 1019 85 10000 2 90 17:19 03.11.2019
5069 Snow -7 1019 85 10000 2 70 16:55 03.11.2019
5070 Snow -7 1019 92 10000 2 90 16:37 03.11.2019
5071 Snow -7 1019 92 10000 2 90 16:19 03.11.2019
5072 Snow -7 1019 92 10000 2 110 15:56 03.11.2019
5073 Snow -7 1019 92 10000 3 110 15:38 03.11.2019
5074 Snow -7 1019 92 10000 3 110 15:20 03.11.2019
5075 Snow -7 1019 85 10000 2 110 14:40 03.11.2019
5076 Snow -7 1019 85 10000 2 110 14:19 03.11.2019
5077 Snow -7 1019 85 10000 2 110 14:19 03.11.2019
5078 Snow -7 1019 85 10000 2 110 14:19 03.11.2019
5079 Snow -7 1019 85 10000 2 110 14:19 03.11.2019
5080 Snow -7 1019 85 10000 1 110 13:56 03.11.2019
5081 Snow -6 1019 73 10000 2 150 13:37 03.11.2019
5082 Snow -6 1019 73 10000 2 150 13:18 03.11.2019
5083 Snow -7 1019 79 10000 2.09 157 12:38 03.11.2019
5084 Snow -7 1019 79 10000 2.09 157 12:19 03.11.2019
5085 Clouds -7 1019 79 10000 1 340 11:56 03.11.2019
5086 Clouds -7 1019 79 10000 1 330 11:37 03.11.2019
5087 Clouds -7 1019 79 10000 1 330 11:19 03.11.2019
5088 Clouds -6 1019 62 10000 1 170 10:40 03.11.2019
5089 Clouds -7 1018 73 10000 1 110 10:22 03.11.2019
5090 Clouds -7 1018 73 10000 1 110 10:22 03.11.2019
5091 Clouds -7 1018 73 10000 1 110 10:22 03.11.2019
5092 Clouds -7 1018 73 10000 1 110 10:22 03.11.2019
5093 Clouds -7 1019 67 10000 1 160 09:58 03.11.2019
5094 Clouds -7 1019 67 10000 1 160 09:40 03.11.2019
5095 Clouds -7 1019 62 10000 1 150 09:21 03.11.2019
5096 Clouds -7 1018 62 10000 2 150 08:43 03.11.2019
5097 Clouds -7 1018 62 10000 2 160 08:24 03.11.2019
5098 Clouds -7 1018 62 10000 2 160 08:24 03.11.2019
5099 Clouds -7 1018 57 10000 3 160 07:47 03.11.2019
5100 Clouds -8 1019 57 10000 3 160 07:28 03.11.2019
5101 Clouds -8 1019 57 10000 3 160 06:54 03.11.2019
5102 Clouds -8 1018 57 10000 2 170 06:35 03.11.2019
5103 Clouds -9 1018 61 10000 3 160 05:40 03.11.2019
5104 Clouds -9 1019 61 10000 4 190 05:18 03.11.2019
5105 Clouds -9 1018 61 10000 4 150 04:45 03.11.2019
5106 Clouds -11 1019 78 10000 3 110 03:39 03.11.2019
5107 Clouds -13 1020 84 10000 2 110 02:45 03.11.2019
5108 Clouds -13 1020 78 10000 2 110 02:20 03.11.2019
5109 Clouds -15 1021 84 10000 3 130 01:43 03.11.2019
5110 Clouds -15 1021 84 10000 3 130 01:21 03.11.2019
5111 Clouds -15 1022 84 10000 2 130 00:46 03.11.2019
5112 Clouds -16 1022 91 10000 2 130 00:27 03.11.2019
5113 Clouds -16 1023 84 10000 1 140 23:58 02.11.2019
5114 Clouds -16 1023 84 10000 2 130 23:38 02.11.2019
5115 Clouds -16 1023 84 10000 2 130 23:19 02.11.2019
5116 Clouds -16 1023 84 10000 2 130 23:19 02.11.2019
5117 Clouds -16 1023 84 10000 3 140 22:56 02.11.2019
5118 Clouds -16 1024 84 10000 2 130 22:37 02.11.2019
5119 Clouds -16 1024 84 10000 2 130 22:19 02.11.2019
5120 Clouds -16 1024 84 10000 2 130 22:19 02.11.2019
5121 Clouds -16 1024 84 10000 3 140 21:56 02.11.2019
5122 Clouds -16 1025 84 10000 2 140 21:38 02.11.2019
5123 Clouds -16 1025 84 10000 2 140 21:18 02.11.2019
5124 Clouds -17 1025 84 10000 2 140 20:59 02.11.2019
5125 Clouds -17 1025 84 10000 2 140 20:39 02.11.2019
5126 Clouds -17 1025 84 10000 2 140 20:20 02.11.2019
5127 Clouds -17 1025 84 10000 2 140 20:20 02.11.2019
5128 Clouds -17 1026 84 10000 3 140 19:55 02.11.2019
5129 Clouds -17 1026 84 10000 3 120 19:36 02.11.2019
5130 Clouds -17 1026 84 10000 3 120 19:18 02.11.2019
5131 Clouds -18 1026 91 10000 2 120 18:42 02.11.2019
5132 Clouds -21 1026 83 10000 1 60 18:24 02.11.2019
5133 Clouds -21 1027 83 10000 1 350 17:59 02.11.2019
5134 Clouds -21 1027 83 10000 1 40 17:39 02.11.2019
5135 Clouds -21 1027 83 10000 1 40 17:21 02.11.2019
5136 Clouds -19 1027 84 10000 1.87 160 16:57 02.11.2019
5137 Clouds -19 1027 91 10000 1.87 160 16:38 02.11.2019
5138 Clouds -19 1027 91 10000 1.87 160 16:19 02.11.2019
5139 Clouds -18 1028 84 10000 1 190 15:42 02.11.2019
5140 Clouds -17 1028 84 10000 2 170 15:20 02.11.2019
5141 Clouds -16 1028 84 10000 2 170 14:43 02.11.2019
5142 Clouds -16 1029 84 10000 3 180 14:24 02.11.2019
5143 Clear -17 1029 91 10000 2 150 13:58 02.11.2019
5144 Clear -17 1029 91 10000 2 150 13:39 02.11.2019
5145 Clear -17 1029 84 10000 1 170 13:20 02.11.2019
5146 Clear -16 1029 84 10000 2 180 12:56 02.11.2019
5147 Clear -16 1029 84 10000 3 160 12:37 02.11.2019
5148 Clear -16 1029 84 10000 3 160 12:18 02.11.2019
5149 Clear -15 1029 84 10000 2 150 11:41 02.11.2019
5150 Clear -16 1030 84 10000 3 200 11:23 02.11.2019
5151 Clouds -14 1030 77 10000 2 200 10:55 02.11.2019
5152 Clouds -13 1030 78 10000 3 200 10:36 02.11.2019
5153 Clouds -13 1030 78 10000 3 200 10:18 02.11.2019
5154 Clouds -13 1030 78 10000 2 210 09:40 02.11.2019
5155 Clouds -12 1030 78 10000 2 190 09:21 02.11.2019
5156 Clouds -11 1030 72 10000 2 200 08:50 02.11.2019
5157 Clouds -11 1030 72 10000 2 210 08:23 02.11.2019
5158 Clouds -11 1030 72 10000 3 220 07:52 02.11.2019
5159 Clouds -11 1030 72 10000 3 240 07:33 02.11.2019
5160 Clouds -11 1030 72 10000 3 240 06:59 02.11.2019
5161 Clouds -11 1030 72 10000 3 240 06:41 02.11.2019
5162 Clouds -11 1030 72 10000 3 230 06:20 02.11.2019
5163 Clouds -12 1030 72 10000 3 190 05:33 02.11.2019
5164 Clear -13 1030 71 10000 3 200 04:23 02.11.2019
5165 Clear -13 1030 71 10000 3 210 03:50 02.11.2019
5166 Clear -14 1029 71 10000 1 230 02:50 02.11.2019
5167 Clear -15 1029 77 10000 2.75 255 01:57 02.11.2019
5168 Clear -17 1029 84 10000 2 270 01:27 02.11.2019
5169 Clear -18 1028 84 10000 2 250 00:55 02.11.2019
5170 Clear -18 1028 84 10000 2 260 00:28 02.11.2019
5171 Clear -17 1028 77 10000 1 260 23:50 01.11.2019
5172 Clear -17 1028 77 10000 1 190 23:25 01.11.2019
5173 Clear -17 1027 84 10000 2 260 22:59 01.11.2019
5174 Clear -17 1027 84 10000 2 260 22:41 01.11.2019
5175 Clear -17 1027 84 10000 2 270 22:20 01.11.2019
5176 Clear -17 1027 84 10000 2 270 21:42 01.11.2019
5177 Clear -17 1026 84 10000 2 270 21:24 01.11.2019
5178 Clear -18 1026 84 10000 2 250 20:59 01.11.2019
5179 Clear -18 1026 84 10000 2 250 20:40 01.11.2019
5180 Clouds -17 1026 77 10000 1 220 20:21 01.11.2019
5181 Clouds -18 1026 84 10000 2 240 19:57 01.11.2019
5182 Clouds -17 1025 84 10000 1 280 19:39 01.11.2019
5183 Clouds -17 1025 84 10000 1 280 19:20 01.11.2019
5184 Clouds -17 1025 77 10000 1 310 18:40 01.11.2019
5185 Clouds -17 1025 84 10000 2 310 18:21 01.11.2019
5186 Clouds -16 1025 77 10000 2 280 17:56 01.11.2019
5187 Clouds -16 1025 84 10000 3 290 17:38 01.11.2019
5188 Clouds -16 1025 84 10000 3 290 17:19 01.11.2019
5189 Clouds -16 1024 84 10000 3 290 16:39 01.11.2019
5190 Clouds -16 1024 84 10000 3 290 16:20 01.11.2019
5191 Clouds -16 1024 84 10000 3 290 16:20 01.11.2019
5192 Clouds -16 1024 84 10000 4 290 15:56 01.11.2019
5193 Clouds -16 1024 84 10000 3 290 15:38 01.11.2019
5194 Clouds -16 1024 84 10000 3 290 15:19 01.11.2019
5195 Clouds -15 1023 77 10000 2 280 14:43 01.11.2019
5196 Clouds -15 1023 84 10000 2 300 14:24 01.11.2019
5197 Clouds -15 1023 84 10000 2 310 13:57 01.11.2019
5198 Clouds -15 1023 77 10000 2.88 297 13:39 01.11.2019
5199 Clouds -15 1023 77 10000 2.98 296 13:20 01.11.2019
5200 Clouds -14 1022 77 10000 3 310 12:44 01.11.2019
5201 Clouds -14 1022 77 10000 3 300 12:26 01.11.2019
5202 Clouds -13 1022 78 10000 3 290 11:59 01.11.2019
5203 Clouds -13 1022 78 10000 3 290 11:40 01.11.2019
5204 Clouds -13 1022 78 10000 4 290 11:22 01.11.2019
5205 Clouds -13 1022 78 10000 4 300 10:42 01.11.2019
5206 Clouds -12 1021 78 10000 2 280 10:24 01.11.2019
5207 Clouds -12 1021 78 10000 3 270 09:58 01.11.2019
5208 Clouds -12 1021 78 10000 3 270 09:40 01.11.2019
5209 Clouds -11 1020 78 10000 3 270 09:20 01.11.2019
5210 Clouds -11 1020 78 10000 2 250 08:45 01.11.2019
5211 Clouds -10 1019 78 10000 2 260 08:22 01.11.2019
5212 Clouds -10 1019 78 10000 3 250 07:57 01.11.2019
5213 Clouds -9 1019 72 10000 3 250 07:38 01.11.2019
5214 Clouds -9 1019 72 10000 3 250 07:20 01.11.2019
5215 Clouds -9 1018 72 10000 3 250 06:47 01.11.2019
5216 Clouds -9 1018 72 10000 2 250 06:22 01.11.2019
5217 Clouds -9 1018 72 10000 3 250 05:44 01.11.2019
5218 Clouds -9 1018 72 10000 3 250 05:44 01.11.2019
5219 Clouds -9 1017 78 10000 3 260 04:28 01.11.2019
5220 Clouds -9 1017 78 10000 4 280 03:24 01.11.2019
5221 Clouds -9 1016 78 10000 5 270 01:37 01.11.2019
5222 Clouds -9 1016 78 10000 4 270 00:42 01.11.2019
5223 Clouds -9 1016 78 10000 4 260 00:19 01.11.2019
5224 Clouds -8 1015 78 10000 4 260 23:43 31.10.2019
5225 Clouds -8 1015 78 10000 4 260 23:23 31.10.2019
5226 Snow -7 1015 79 10000 4 240 22:57 31.10.2019
5227 Snow -7 1015 79 10000 4 240 22:57 31.10.2019
5228 Snow -7 1015 79 10000 4 240 22:39 31.10.2019
5229 Snow -7 1015 79 10000 5 230 22:20 31.10.2019
5230 Clouds -7 1015 85 10000 5 230 21:44 31.10.2019
5231 Clouds -6 1014 79 10000 4 210 21:21 31.10.2019
5232 Snow -7 1014 85 10000 3 210 20:57 31.10.2019
5233 Snow -7 1014 85 10000 3 210 20:39 31.10.2019
5234 Clouds -7 1014 85 10000 3 210 20:21 31.10.2019
5235 Clouds -7 1014 79 10000 3 210 19:42 31.10.2019
5236 Clouds -7 1014 79 10000 3 200 19:22 31.10.2019
5237 Clouds -6 1014 79 10000 3 210 18:58 31.10.2019
5238 Clouds -6 1013 79 10000 4 220 18:39 31.10.2019
5239 Clouds -6 1013 79 10000 4 220 18:20 31.10.2019
5240 Clouds -6 1013 85 10000 4 230 17:43 31.10.2019
5241 Clouds -5 1013 79 10000 4 230 17:22 31.10.2019
5242 Snow -5 1013 85 10000 5 240 16:59 31.10.2019
5243 Snow -5 1012 85 10000 4 250 16:40 31.10.2019
5244 Snow -5 1012 85 10000 4 250 16:20 31.10.2019
5245 Snow -4 1012 85 10000 5 250 15:56 31.10.2019
5246 Snow -4 1012 85 10000 5 260 15:38 31.10.2019
5247 Snow -4 1012 85 10000 5 260 15:19 31.10.2019
5248 Snow -4 1012 92 5000 5 260 14:56 31.10.2019
5249 Snow -4 1012 92 5000 4 240 14:38 31.10.2019
5250 Snow -4 1012 92 5000 4 240 14:38 31.10.2019
5251 Snow -4 1012 92 5000 4 240 14:20 31.10.2019
5252 Snow -4 1011 92 5000 2 200 13:55 31.10.2019
5253 Snow -5 1011 92 3200 2 200 13:37 31.10.2019
5254 Snow -5 1011 92 3200 2 200 13:19 31.10.2019
5255 Snow -5 1011 92 1500 3 210 12:43 31.10.2019
5256 Snow -6 1011 92 3200 2 190 12:24 31.10.2019
5257 Snow -6 1010 85 5000 2 190 11:58 31.10.2019
5258 Snow -6 1010 85 5000 2 190 11:40 31.10.2019
5259 Snow -6 1010 85 10000 1 190 11:18 31.10.2019
5260 Snow -7 1010 85 10000 1 160 10:57 31.10.2019
5261 Snow -8 1010 85 10000 1 180 10:38 31.10.2019
5262 Snow -8 1010 85 10000 1 180 10:19 31.10.2019
5263 Snow -9 1009 92 10000 2 180 09:43 31.10.2019
5264 Snow -9 1009 85 10000 1 180 09:19 31.10.2019
5265 Snow -9 1008 92 10000 2 180 08:54 31.10.2019
5266 Snow -8 1008 85 10000 2 180 08:34 31.10.2019
5267 Snow -8 1008 85 10000 2 180 07:58 31.10.2019
5268 Snow -7 1007 85 10000 2 150 07:39 31.10.2019
5269 Snow -7 1007 85 10000 2 150 07:21 31.10.2019
5270 Snow -6 1006 79 10000 1 130 06:38 31.10.2019
5271 Snow -6 1006 79 10000 1 130 06:19 31.10.2019
5272 Clouds -8 1005 92 10000 0.89 151 04:35 31.10.2019
5273 Clouds -8 1004 92 10000 1 70 02:45 31.10.2019
5274 Clouds -8 1004 85 10000 1 80 01:53 31.10.2019
5275 Clouds -9 1004 100 10000 2 90 00:40 31.10.2019
5276 Clouds -9 1003 92 10000 2 70 00:22 31.10.2019
5277 Clouds -9 1003 92 10000 2 50 23:33 30.10.2019
5278 Clouds -9 1002 92 10000 1 50 22:55 30.10.2019
5279 Clouds -9 1002 92 10000 2 30 22:37 30.10.2019
5280 Clouds -9 1002 92 10000 2 30 22:18 30.10.2019
5281 Clouds -8 1002 92 10000 1 60 21:54 30.10.2019
5282 Clouds -8 1002 92 10000 2 60 21:36 30.10.2019
5283 Clouds -8 1002 92 10000 2 60 21:18 30.10.2019
5284 Clouds -8 1002 92 10000 2 40 20:42 30.10.2019
5285 Clouds -8 1002 92 10000 2 40 20:42 30.10.2019
5286 Clouds -8 1002 92 10000 2 50 20:22 30.10.2019
5287 Clouds -8 1001 92 10000 1 40 19:59 30.10.2019
5288 Clouds -7 1001 92 10000 2 60 19:39 30.10.2019
5289 Clouds -7 1001 92 10000 2 60 19:20 30.10.2019
5290 Clouds -8 1001 92 10000 2 30 18:58 30.10.2019
5291 Clouds -8 1001 92 10000 2 20 18:37 30.10.2019
5292 Clouds -8 1001 92 10000 2 20 18:18 30.10.2019
5293 Clouds -9 1001 92 10000 2 350 17:42 30.10.2019
5294 Clouds -8 1001 85 10000 1 350 17:20 30.10.2019
5295 Clouds -8 1001 92 10000 2 20 16:59 30.10.2019
5296 Clouds -8 1001 92 10000 2 20 16:41 30.10.2019
5297 Clouds -7 1001 92 10000 2 60 16:22 30.10.2019
5298 Clouds -7 1001 85 10000 2 50 15:57 30.10.2019
5299 Clouds -7 1001 92 10000 2 60 15:38 30.10.2019
5300 Clouds -7 1001 92 10000 2 60 15:19 30.10.2019
5301 Clouds -7 1001 85 10000 2 70 14:56 30.10.2019
5302 Clouds -7 1000 92 10000 3 70 14:38 30.10.2019
5303 Clouds -7 1000 92 10000 3 70 14:20 30.10.2019
5304 Clouds -7 1001 92 10000 2 70 13:54 30.10.2019
5305 Clouds -7 1001 92 10000 2 70 13:36 30.10.2019
5306 Clouds -7 1001 92 10000 2 70 13:18 30.10.2019
5307 Clouds -7 1000 92 10000 2 70 12:42 30.10.2019
5308 Clouds -7 1000 92 10000 2 70 12:23 30.10.2019
5309 Clouds -7 1000 92 10000 2 70 11:54 30.10.2019
5310 Clouds -7 1000 92 10000 2 90 11:36 30.10.2019
5311 Clouds -7 1000 92 10000 2 90 11:36 30.10.2019
5312 Clouds -7 1000 92 10000 2 90 11:18 30.10.2019
5313 Clouds -6 1000 85 10000 3 80 10:41 30.10.2019
5314 Clouds -6 1000 85 10000 3 80 10:23 30.10.2019
5315 Clouds -6 1000 85 10000 3 80 09:42 30.10.2019
5316 Clouds -6 999 85 10000 2 70 09:22 30.10.2019
5317 Clouds -6 999 85 10000 2 70 08:57 30.10.2019
5318 Clouds -6 999 85 10000 3 60 08:39 30.10.2019
5319 Clouds -6 999 85 10000 3 60 08:19 30.10.2019
5320 Clouds -6 999 85 10000 3 60 07:43 30.10.2019
5321 Clouds -6 999 85 10000 3 50 06:59 30.10.2019
5322 Clouds -6 999 85 10000 3 50 06:41 30.10.2019
5323 Clouds -6 999 85 10000 3 30 05:58 30.10.2019
5324 Clouds -6 999 85 10000 3 60 05:40 30.10.2019
5325 Clouds -6 1000 85 10000 3 60 04:42 30.10.2019
5326 Clouds -7 1000 85 10000 3 60 03:43 30.10.2019
5327 Clouds -8 1001 85 10000 3 80 02:50 30.10.2019
5328 Clouds -9 1001 92 10000 2 60 01:55 30.10.2019
5329 Clouds -11 1001 92 10000 2 350 00:55 30.10.2019
5330 Clouds -10 1001 85 10000 2 10 00:28 30.10.2019
5331 Clouds -11 1001 92 10000 3 360 23:42 29.10.2019
5332 Clouds -11 1001 92 10000 3 20 23:22 29.10.2019
5333 Clouds -11 1002 92 10000 3 30 22:48 29.10.2019
5334 Clouds -11 1002 92 10000 2 60 22:20 29.10.2019
5335 Clouds -12 1002 92 10000 2 60 21:58 29.10.2019
5336 Clouds -12 1002 92 10000 2 60 21:40 29.10.2019
5337 Clouds -12 1002 92 10000 1 360 21:20 29.10.2019
5338 Clouds -11 1002 92 10000 2 90 20:56 29.10.2019
5339 Clouds -10 1003 92 10000 2 60 20:37 29.10.2019
5340 Clouds -10 1003 92 10000 2 60 20:19 29.10.2019
5341 Clouds -10 1003 92 10000 2 70 19:55 29.10.2019
5342 Clouds -9 1003 92 10000 2 90 19:37 29.10.2019
5343 Clouds -9 1003 92 10000 2 90 19:18 29.10.2019
5344 Clouds -9 1003 92 10000 2 80 18:55 29.10.2019
5345 Clouds -9 1003 92 10000 2 70 18:36 29.10.2019
5346 Clouds -9 1003 92 10000 2 70 18:18 29.10.2019
5347 Clouds -9 1003 92 10000 2 70 17:54 29.10.2019
5348 Clouds -9 1004 92 10000 2 80 17:36 29.10.2019
5349 Clouds -9 1004 92 10000 2 80 17:18 29.10.2019
5350 Clouds -10 1004 92 10000 2 350 16:39 29.10.2019
5351 Clouds -10 1004 92 10000 2 350 16:19 29.10.2019
5352 Clouds -10 1004 92 10000 1 330 15:55 29.10.2019
5353 Clouds -10 1004 92 10000 1 340 15:37 29.10.2019
5354 Clouds -10 1004 92 10000 1 340 15:19 29.10.2019
5355 Clouds -10 1004 92 10000 1 350 14:55 29.10.2019
5356 Snow -10 1004 92 10000 1 20 14:36 29.10.2019
5357 Snow -10 1004 92 10000 1 20 14:18 29.10.2019
5358 Snow -10 1004 92 10000 2 350 13:40 29.10.2019
5359 Snow -11 1005 100 10000 2 350 13:21 29.10.2019
5360 Snow -11 1005 92 10000 1 350 12:45 29.10.2019
5361 Clouds -11 1005 92 10000 1 30 12:25 29.10.2019
5362 Clouds -13 1005 100 10000 1 30 11:59 29.10.2019
5363 Clouds -13 1005 100 10000 1 30 11:40 29.10.2019
5364 Clouds -13 1006 100 10000 1 40 11:19 29.10.2019
5365 Clouds -11 1006 92 10000 1 30 10:57 29.10.2019
5366 Clouds -10 1006 92 10000 1 360 10:38 29.10.2019
5367 Clouds -10 1006 92 10000 1 360 10:20 29.10.2019
5368 Clouds -10 1006 92 10000 2 340 09:54 29.10.2019
5369 Clouds -9 1005 92 10000 2 340 09:36 29.10.2019
5370 Clouds -9 1005 92 10000 2 340 09:18 29.10.2019
5371 Clouds -8 1006 92 10000 2 340 08:43 29.10.2019
5372 Clouds -7 1006 85 10000 2 330 08:23 29.10.2019
5373 Clouds -6 1006 79 10000 1 320 07:54 29.10.2019
5374 Clouds -7 1006 85 10000 1 360 07:36 29.10.2019
5375 Clouds -7 1006 85 10000 1 360 07:18 29.10.2019
5376 Clouds -7 1006 85 10000 1 20 06:42 29.10.2019
5377 Snow -7 1006 85 10000 2 10 06:20 29.10.2019
5378 Snow -7 1007 85 10000 1 50 05:50 29.10.2019
5379 Snow -7 1007 85 10000 1 60 05:19 29.10.2019
5380 Snow -7 1007 85 5000 1 90 03:55 29.10.2019
5381 Snow -8 1008 92 5000 2 90 02:32 29.10.2019
5382 Snow -8 1008 92 5000 1 110 01:43 29.10.2019
5383 Snow -8 1008 92 3200 1 110 01:18 29.10.2019
5384 Snow -8 1009 92 2400 1 110 00:31 29.10.2019
5385 Snow -8 1009 92 10000 0.73 91 23:43 28.10.2019
5386 Snow -8 1009 92 10000 1 150 23:20 28.10.2019
5387 Snow -8 1009 92 10000 1 160 22:57 28.10.2019
5388 Snow -8 1009 92 10000 1 160 22:37 28.10.2019
5389 Snow -8 1009 92 10000 1 160 22:18 28.10.2019
5390 Snow -8 1009 92 10000 1 160 21:55 28.10.2019
5391 Snow -7 1009 85 10000 1 160 21:37 28.10.2019
5392 Snow -7 1009 85 10000 1 160 21:18 28.10.2019
5393 Snow -7 1009 85 10000 1 160 21:18 28.10.2019
5394 Snow -7 1009 85 10000 1 180 20:44 28.10.2019
5395 Snow -7 1010 85 10000 1 180 20:24 28.10.2019
5396 Snow -7 1010 92 10000 1 170 19:59 28.10.2019
5397 Snow -7 1010 92 10000 1 170 19:39 28.10.2019
5398 Snow -7 1010 92 10000 1 170 19:21 28.10.2019
5399 Snow -7 1010 92 10000 1 180 18:58 28.10.2019
5400 Snow -7 1010 85 10000 1 170 18:39 28.10.2019
5401 Snow -7 1010 85 10000 1 170 18:21 28.10.2019
5402 Snow -7 1010 85 10000 1 250 17:56 28.10.2019
5403 Snow -7 1010 92 10000 1 250 17:38 28.10.2019
5404 Snow -7 1010 92 10000 1 250 17:19 28.10.2019
5405 Snow -7 1011 85 10000 1 210 16:57 28.10.2019
5406 Snow -7 1011 85 10000 1 210 16:39 28.10.2019
5407 Snow -7 1011 85 10000 1 210 16:20 28.10.2019
5408 Snow -7 1011 85 10000 1 190 15:58 28.10.2019
5409 Snow -7 1011 85 10000 1 190 15:39 28.10.2019
5410 Snow -7 1011 85 10000 1 180 15:20 28.10.2019
5411 Snow -7 1011 85 10000 1 200 14:57 28.10.2019
5412 Snow -7 1011 85 10000 1 190 14:38 28.10.2019
5413 Snow -7 1011 85 10000 1 190 14:18 28.10.2019
5414 Snow -7 1011 85 10000 2 220 13:55 28.10.2019
5415 Snow -7 1011 85 10000 2 250 13:37 28.10.2019
5416 Snow -7 1011 85 10000 2 250 13:18 28.10.2019
5417 Snow -7 1011 85 10000 2 250 13:18 28.10.2019
5418 Snow -7 1011 92 10000 3 260 12:42 28.10.2019
5419 Snow -7 1011 92 10000 3 240 12:20 28.10.2019
5420 Snow -6 1011 92 10000 1 280 11:40 28.10.2019
5421 Snow -6 1011 92 10000 1 280 11:21 28.10.2019
5422 Snow -6 1011 85 10000 1 200 10:58 28.10.2019
5423 Snow -6 1011 92 10000 1 160 10:38 28.10.2019
5424 Snow -6 1011 92 10000 1 160 10:20 28.10.2019
5425 Snow -6 1011 92 10000 1 140 09:56 28.10.2019
5426 Snow -6 1011 85 10000 0.73 53 09:37 28.10.2019
5427 Snow -6 1011 85 10000 0.73 53 09:18 28.10.2019
5428 Snow -6 1011 85 10000 0.73 53 08:56 28.10.2019
5429 Snow -6 1011 85 10000 0.73 53 08:56 28.10.2019
5430 Snow -6 1011 92 10000 1 240 08:37 28.10.2019
5431 Snow -6 1011 92 10000 1 240 08:18 28.10.2019
5432 Snow -6 1011 85 10000 0.64 17 07:55 28.10.2019
5433 Snow -6 1011 85 10000 0.64 17 07:36 28.10.2019
5434 Snow -6 1011 85 10000 0.64 17 07:18 28.10.2019
5435 Snow -6 1010 85 10000 1 10 06:39 28.10.2019
5436 Snow -7 1010 92 10000 1 310 05:33 28.10.2019
5437 Snow -7 1010 92 10000 2 350 03:45 28.10.2019
5438 Snow -7 1010 85 10000 2 330 02:46 28.10.2019
5439 Snow -7 1011 92 10000 1 320 01:52 28.10.2019
5440 Snow -7 1011 85 10000 1 330 00:53 28.10.2019
5441 Snow -8 1011 100 10000 2 340 00:26 28.10.2019
5442 Snow -8 1011 100 10000 2 340 23:46 27.10.2019
5443 Clouds -8 1011 100 10000 2 330 23:22 27.10.2019
5444 Clouds -8 1011 100 10000 2 340 22:57 27.10.2019
5445 Clouds -8 1011 100 10000 2 340 22:57 27.10.2019
5446 Clouds -7 1011 85 10000 1 340 22:39 27.10.2019
5447 Clouds -7 1011 85 10000 1 340 22:20 27.10.2019
5448 Clouds -7 1011 92 10000 1 330 21:57 27.10.2019
5449 Clouds -7 1011 92 10000 2 350 21:39 27.10.2019
5450 Clouds -7 1011 92 10000 2 350 21:20 27.10.2019
5451 Clouds -7 1011 92 10000 1 30 20:54 27.10.2019
5452 Clouds -7 1011 92 10000 2 70 20:36 27.10.2019
5453 Clouds -7 1011 92 10000 2 70 20:18 27.10.2019
5454 Clouds -7 1011 92 10000 3 70 19:40 27.10.2019
5455 Clouds -7 1011 92 10000 1 60 19:20 27.10.2019
5456 Clouds -7 1012 85 10000 1 40 18:57 27.10.2019
5457 Clouds -7 1012 85 10000 1 60 18:39 27.10.2019
5458 Clouds -7 1012 85 10000 1 60 18:21 27.10.2019
5459 Clouds -7 1012 85 10000 1 110 17:57 27.10.2019
5460 Clouds -8 1012 92 10000 1.43 83 17:38 27.10.2019
5461 Clouds -8 1012 92 10000 1.53 89 17:19 27.10.2019
5462 Clouds -8 1012 92 10000 3 180 16:57 27.10.2019
5463 Clouds -7 1012 92 10000 3 180 16:38 27.10.2019
5464 Clouds -7 1012 92 10000 3 180 16:20 27.10.2019
5465 Clouds -7 1012 92 10000 3 160 15:55 27.10.2019
5466 Clouds -7 1012 92 10000 3 170 15:37 27.10.2019
5467 Clouds -7 1012 92 10000 3 170 15:19 27.10.2019
5468 Clouds -6 1012 85 10000 2 120 14:42 27.10.2019
5469 Clouds -7 1012 92 10000 1 100 14:20 27.10.2019
5470 Clouds -7 1012 92 10000 2 70 13:57 27.10.2019
5471 Clouds -7 1012 92 10000 2 60 13:38 27.10.2019
5472 Clouds -7 1012 92 10000 2 60 13:19 27.10.2019
5473 Clouds -8 1012 92 10000 2 30 12:45 27.10.2019
5474 Clouds -8 1013 92 10000 3 20 12:24 27.10.2019
5475 Clouds -8 1013 92 10000 3 10 11:59 27.10.2019
5476 Clouds -8 1013 92 10000 3 10 11:41 27.10.2019
5477 Clouds -8 1013 92 10000 3 20 11:21 27.10.2019
5478 Snow -8 1013 92 10000 3 10 10:44 27.10.2019
5479 Snow -8 1013 92 10000 3 10 10:25 27.10.2019
5480 Clouds -8 1013 92 10000 3 20 09:56 27.10.2019
5481 Clouds -8 1012 92 10000 3 10 09:38 27.10.2019
5482 Clouds -8 1012 92 10000 3 10 09:18 27.10.2019
5483 Clouds -8 1012 92 10000 3 10 09:18 27.10.2019
5484 Clouds -8 1012 92 10000 3 10 08:42 27.10.2019
5485 Clouds -8 1012 85 10000 2 360 08:22 27.10.2019
5486 Clouds -9 1012 92 10000 1 360 07:59 27.10.2019
5487 Clouds -9 1012 92 10000 1 360 07:41 27.10.2019
5488 Clouds -9 1012 92 10000 1 360 07:20 27.10.2019
5489 Clouds -10 1012 92 10000 1 350 06:47 27.10.2019
5490 Clouds -10 1012 92 10000 1 360 06:26 27.10.2019
5491 Clouds -11 1013 85 10000 1 340 05:39 27.10.2019
5492 Clouds -11 1013 85 10000 1 350 04:51 27.10.2019
5493 Clouds -15 1013 92 10000 1 360 02:55 27.10.2019
5494 Clouds -16 1013 84 10000 1 350 01:49 27.10.2019
5495 Clouds -17 1013 84 10000 1 330 01:20 27.10.2019
5496 Mist -17 1013 91 5000 1 20 00:46 27.10.2019
5497 Clear -16 1012 84 10000 1 360 00:22 27.10.2019
5498 Clear -16 1012 84 10000 1 360 23:55 26.10.2019
5499 Clear -16 1012 84 10000 2 10 23:37 26.10.2019
5500 Clear -16 1012 84 10000 2 10 23:19 26.10.2019
5501 Clear -16 1012 84 10000 2 360 22:55 26.10.2019
5502 Mist -16 1012 91 1600 2 10 22:36 26.10.2019
5503 Mist -16 1012 91 1600 2 10 22:18 26.10.2019
5504 Clear -15 1012 84 10000 2 20 21:42 26.10.2019
5505 Clear -15 1012 84 10000 2 20 21:42 26.10.2019
5506 Clear -15 1012 92 10000 2 30 21:21 26.10.2019
5507 Clear -15 1012 92 10000 2 10 20:46 26.10.2019
5508 Clear -15 1012 92 10000 2 10 20:46 26.10.2019
5509 Clear -15 1012 92 10000 2 350 20:20 26.10.2019
5510 Clear -14 1012 84 10000 2 350 19:59 26.10.2019
5511 Clear -14 1012 84 10000 2 350 19:40 26.10.2019
5512 Clear -14 1012 92 10000 2 360 19:20 26.10.2019
5513 Clear -14 1012 92 10000 2 10 18:56 26.10.2019
5514 Clear -14 1012 92 10000 2 10 18:56 26.10.2019
5515 Clear -14 1011 92 10000 2 360 18:38 26.10.2019
5516 Clear -14 1011 92 10000 2 360 18:18 26.10.2019
5517 Clear -14 1012 92 10000 2 10 17:56 26.10.2019
5518 Clear -13 1011 92 10000 2 350 17:37 26.10.2019
5519 Clear -13 1011 92 10000 2 350 17:18 26.10.2019
5520 Clouds -11 1012 92 10000 2 330 16:43 26.10.2019
5521 Clouds -11 1012 92 10000 2 340 16:24 26.10.2019
5522 Clouds -11 1012 92 10000 2 360 15:44 26.10.2019
5523 Clouds -11 1012 92 10000 2 330 15:21 26.10.2019
5524 Clouds -11 1012 92 10000 2 330 14:58 26.10.2019
5525 Clouds -11 1012 92 10000 3 330 14:37 26.10.2019
5526 Clouds -11 1012 92 10000 3 330 14:18 26.10.2019
5527 Clear -11 1012 92 10000 3 330 13:42 26.10.2019
5528 Clear -10 1014 93 0 1.99 106 13:22 26.10.2019
5529 Clear -10 1014 93 0 1.99 106 13:22 26.10.2019
5530 Clear -11 1012 92 10000 3 330 12:49 26.10.2019
5531 Clouds -10 1012 92 10000 2 340 12:26 26.10.2019
5532 Clouds -10 1012 92 10000 2 340 11:57 26.10.2019
5533 Clouds -10 1012 92 10000 2 340 11:38 26.10.2019
5534 Clouds -10 1012 92 10000 2 340 11:20 26.10.2019
5535 Clouds -9 1012 85 10000 3 350 10:45 26.10.2019
5536 Clouds -9 1012 85 10000 2 340 10:24 26.10.2019
5537 Clouds -9 1012 85 10000 2 360 09:48 26.10.2019
5538 Clear -9 1012 85 10000 2 350 09:28 26.10.2019
5539 Clear -10 1012 85 10000 2 330 08:47 26.10.2019
5540 Clear -9 1012 85 10000 2 340 08:26 26.10.2019
5541 Clear -8 1012 78 10000 2 320 07:57 26.10.2019
5542 Clear -9 1012 85 10000 3 360 07:33 26.10.2019
5543 Clear -8 1012 78 10000 2 330 06:48 26.10.2019
5544 Clear -8 1012 78 10000 2 340 06:29 26.10.2019
5545 Clear -8 1013 78 10000 1 330 05:21 26.10.2019
5546 Clear -9 1013 85 10000 1 360 04:58 26.10.2019
5547 Snow -12 1013 92 10000 1 330 03:25 26.10.2019
5548 Mist -14 1014 92 5000 2 330 02:23 26.10.2019
5549 Snow -14 1014 92 10000 2 320 01:44 26.10.2019
5550 Snow -13 1014 92 10000 2 320 00:33 26.10.2019
5551 Snow -13 1014 92 10000 1 340 23:47 25.10.2019
5552 Snow -13 1014 92 10000 1 350 23:21 25.10.2019
5553 Snow -13 1015 92 10000 1 10 22:54 25.10.2019
5554 Snow -11 1015 92 10000 2 80 22:36 25.10.2019
5555 Snow -11 1015 92 10000 2 80 22:18 25.10.2019
5556 Snow -11 1015 92 10000 1 80 21:54 25.10.2019
5557 Snow -11 1015 92 10000 1 80 21:54 25.10.2019
5558 Snow -10 1015 92 10000 2 80 21:36 25.10.2019
5559 Snow -10 1015 92 10000 2 80 21:18 25.10.2019
5560 Snow -10 1015 92 5000 2 80 20:42 25.10.2019
5561 Snow -9 1016 92 5000 2 80 20:19 25.10.2019
5562 Snow -9 1016 92 5000 1 70 19:47 25.10.2019
5563 Snow -9 1016 92 5000 1 90 19:27 25.10.2019
5564 Snow -9 1016 92 5000 1 90 18:48 25.10.2019
5565 Snow -9 1017 92 5000 1 90 18:29 25.10.2019
5566 Snow -9 1017 92 10000 1 80 17:59 25.10.2019
5567 Snow -9 1017 92 5000 1 80 17:36 25.10.2019
5568 Snow -9 1017 92 5000 1 80 17:36 25.10.2019
5569 Snow -9 1017 92 5000 1 80 17:18 25.10.2019
5570 Snow -9 1017 92 10000 1 100 16:46 25.10.2019
5571 Snow -9 1018 92 10000 1 100 16:22 25.10.2019
5572 Snow -9 1018 92 10000 1 100 15:55 25.10.2019
5573 Snow -9 1018 92 10000 1 90 15:37 25.10.2019
5574 Snow -9 1018 92 10000 1 90 15:18 25.10.2019
5575 Snow -9 1018 92 10000 1 90 14:42 25.10.2019
5576 Snow -9 1019 92 10000 2 100 14:23 25.10.2019
5577 Snow -9 1019 92 10000 2 90 13:56 25.10.2019
5578 Snow -9 1019 92 10000 2 100 13:37 25.10.2019
5579 Snow -9 1019 92 10000 2 100 13:18 25.10.2019
5580 Snow -9 1019 92 10000 2 100 13:18 25.10.2019
5581 Snow -9 1019 92 5000 1 100 12:41 25.10.2019
5582 Snow -9 1020 92 5000 2 100 12:22 25.10.2019
5583 Snow -9 1020 92 5000 2 90 11:58 25.10.2019
5584 Snow -8 1020 85 5000 3 90 11:38 25.10.2019
5585 Snow -8 1020 85 5000 3 90 11:18 25.10.2019
5586 Snow -8 1020 85 5000 2 90 10:41 25.10.2019
5587 Snow -8 1020 85 10000 2 90 10:22 25.10.2019
5588 Snow -8 1020 85 5000 2 90 09:57 25.10.2019
5589 Snow -8 1021 85 3200 2 100 09:38 25.10.2019
5590 Snow -8 1021 85 3200 2 100 09:19 25.10.2019
5591 Snow -8 1021 85 10000 3 90 08:48 25.10.2019
5592 Snow -8 1021 85 10000 2 70 08:29 25.10.2019
5593 Snow -8 1021 85 10000 2 70 07:55 25.10.2019
5594 Snow -8 1021 85 5000 2 80 07:34 25.10.2019
5595 Snow -8 1022 85 5000 2 80 06:42 25.10.2019
5596 Snow -8 1023 85 10000 2 80 05:51 25.10.2019
5597 Snow -8 1023 85 5000 2 80 05:33 25.10.2019
5598 Snow -8 1023 85 5000 2 70 04:52 25.10.2019
5599 Snow -9 1024 85 10000 1 90 03:36 25.10.2019
5600 Snow -11 1024 92 10000 1 40 01:54 25.10.2019
5601 Snow -11 1025 92 10000 1 60 00:57 25.10.2019
5602 Snow -11 1025 92 10000 1 50 00:20 25.10.2019
5603 Snow -11 1025 92 5000 0.33 42 23:40 24.10.2019
5604 Snow -10 1025 92 5000 1 330 23:22 24.10.2019
5605 Snow -10 1025 92 5000 1 320 22:55 24.10.2019
5606 Snow -10 1025 92 5000 1 320 22:55 24.10.2019
5607 Snow -10 1025 92 5000 1 320 22:37 24.10.2019
5608 Snow -10 1025 92 5000 1 320 22:18 24.10.2019
5609 Snow -10 1025 92 3200 1 340 21:56 24.10.2019
5610 Snow -9 1025 92 3200 1 320 21:37 24.10.2019
5611 Snow -9 1025 92 3200 1 320 21:18 24.10.2019
5612 Snow -9 1025 92 3200 0.41 39 20:56 24.10.2019
5613 Snow -9 1025 92 3200 0.41 39 20:56 24.10.2019
5614 Snow -9 1026 85 5000 2 350 20:37 24.10.2019
5615 Snow -9 1026 85 5000 2 350 20:19 24.10.2019
5616 Snow -10 1026 92 10000 1 330 19:43 24.10.2019
5617 Snow -10 1026 92 10000 1 310 19:23 24.10.2019
5618 Snow -10 1026 92 10000 1 300 18:58 24.10.2019
5619 Snow -10 1026 92 10000 1 250 18:39 24.10.2019
5620 Snow -10 1026 92 10000 1 250 18:21 24.10.2019
5621 Snow -10 1026 92 10000 1 320 17:57 24.10.2019
5622 Snow -10 1026 92 10000 1 310 17:38 24.10.2019
5623 Snow -10 1026 92 10000 1 310 17:38 24.10.2019
5624 Snow -10 1026 92 10000 1 310 17:19 24.10.2019
5625 Snow -10 1026 92 10000 1 310 17:19 24.10.2019
5626 Snow -10 1026 92 10000 1 290 16:54 24.10.2019
5627 Snow -10 1026 92 10000 1 280 16:36 24.10.2019
5628 Snow -10 1026 92 10000 1 280 16:18 24.10.2019
5629 Snow -10 1027 92 10000 1 300 15:54 24.10.2019
5630 Snow -10 1027 85 10000 2 310 15:36 24.10.2019
5631 Snow -10 1027 85 10000 2 310 15:18 24.10.2019
5632 Snow -10 1027 85 10000 2 310 14:41 24.10.2019
5633 Clouds -10 1027 92 10000 2 300 14:22 24.10.2019
5634 Clouds -9 1027 85 10000 2 340 13:57 24.10.2019
5635 Clouds -8 1027 85 10000 2 10 13:37 24.10.2019
5636 Clouds -8 1027 85 10000 2 10 13:18 24.10.2019
5637 Snow -8 1027 85 10000 2 10 12:55 24.10.2019
5638 Snow -8 1027 85 10000 1 340 12:37 24.10.2019
5639 Snow -8 1027 85 10000 1 340 12:18 24.10.2019
5640 Snow -8 1027 85 10000 1 330 11:54 24.10.2019
5641 Snow -8 1027 85 10000 1 330 11:54 24.10.2019
5642 Snow -8 1027 78 10000 1 330 11:36 24.10.2019
5643 Snow -8 1027 78 10000 1 330 11:18 24.10.2019
5644 Snow -8 1027 78 10000 2 340 10:41 24.10.2019
5645 Snow -7 1027 73 10000 1 350 10:23 24.10.2019
5646 Snow -7 1027 73 10000 1 350 10:23 24.10.2019
5647 Snow -7 1027 73 10000 1 20 09:39 24.10.2019
5648 Snow -7 1027 73 10000 1 30 09:19 24.10.2019
5649 Snow -7 1027 73 10000 1 30 08:58 24.10.2019
5650 Snow -7 1027 73 10000 2 30 08:38 24.10.2019
5651 Snow -7 1027 73 10000 2 30 08:19 24.10.2019
5652 Snow -7 1027 73 10000 1 50 07:47 24.10.2019
5653 Clouds -7 1027 73 10000 2 20 07:23 24.10.2019
5654 Clouds -7 1027 73 10000 2 20 07:23 24.10.2019
5655 Snow -7 1027 73 10000 2 360 06:53 24.10.2019
5656 Clouds -7 1027 73 10000 2 10 06:34 24.10.2019
5657 Clouds -7 1028 79 10000 1 30 05:54 24.10.2019
5658 Clouds -7 1028 79 10000 1 30 05:54 24.10.2019
5659 Snow -7 1028 73 10000 1 340 05:30 24.10.2019
5660 Clouds -7 1028 79 10000 1 330 04:22 24.10.2019
5661 Clouds -7 1028 79 10000 1 330 04:22 24.10.2019
5662 Snow -7 1028 79 10000 1 310 03:33 24.10.2019
5663 Snow -8 1029 85 10000 1 290 02:37 24.10.2019
5664 Snow -8 1029 85 10000 1 290 02:18 24.10.2019
5665 Snow -8 1029 85 10000 0.94 17 01:30 24.10.2019
5666 Snow -8 1029 85 10000 1 300 00:55 24.10.2019
5667 Snow -8 1029 85 10000 1 300 00:25 24.10.2019
5668 Snow -8 1029 85 10000 2 310 23:45 23.10.2019
5669 Snow -8 1029 85 10000 1 300 23:27 23.10.2019
5670 Snow -8 1029 85 10000 2 290 22:58 23.10.2019
5671 Clouds -8 1029 85 10000 1 290 22:39 23.10.2019
5672 Clouds -8 1029 85 10000 1 290 22:19 23.10.2019
5673 Clouds -8 1029 85 10000 2 290 21:58 23.10.2019
5674 Clouds -8 1029 85 10000 2 290 21:40 23.10.2019
5675 Clouds -8 1029 85 10000 1 280 21:21 23.10.2019
5676 Clouds -8 1029 85 10000 1 280 20:59 23.10.2019
5677 Clouds -8 1029 85 10000 1 280 20:40 23.10.2019
5678 Clouds -8 1029 85 10000 1 280 20:40 23.10.2019
5679 Clouds -7 1029 79 10000 2 280 20:21 23.10.2019
5680 Clouds -7 1029 79 10000 2 270 19:59 23.10.2019
5681 Clouds -7 1029 79 10000 2 270 19:41 23.10.2019
5682 Clouds -7 1030 79 10000 1 260 19:19 23.10.2019
5683 Clouds -7 1030 85 10000 1 230 18:57 23.10.2019
5684 Clouds -7 1030 85 10000 1 270 18:38 23.10.2019
5685 Clouds -7 1030 85 10000 1 270 18:19 23.10.2019
5686 Clouds -7 1030 85 10000 1 270 18:19 23.10.2019
5687 Clouds -7 1030 85 10000 1 240 17:46 23.10.2019
5688 Clouds -7 1030 85 10000 0.64 324 17:21 23.10.2019
5689 Snow -7 1030 79 10000 1 280 16:58 23.10.2019
5690 Snow -7 1030 79 10000 1 280 16:40 23.10.2019
5691 Snow -7 1030 79 10000 1 320 16:20 23.10.2019
5692 Snow -7 1030 79 10000 1 350 15:54 23.10.2019
5693 Snow -7 1030 79 10000 2 360 15:36 23.10.2019
5694 Snow -7 1030 79 10000 2 360 15:18 23.10.2019
5695 Snow -7 1030 85 10000 2 10 14:54 23.10.2019
5696 Snow -7 1030 85 10000 2 360 14:36 23.10.2019
5697 Snow -7 1030 85 10000 2 360 14:18 23.10.2019
5698 Snow -7 1030 85 10000 1 350 13:42 23.10.2019
5699 Snow -7 1030 85 10000 1 20 13:23 23.10.2019
5700 Snow -7 1030 85 10000 2 30 12:57 23.10.2019
5701 Snow -7 1030 85 10000 2 30 12:38 23.10.2019
5702 Snow -7 1030 85 10000 2 30 12:18 23.10.2019
5703 Snow -6 1029 79 10000 2 20 11:57 23.10.2019
5704 Clouds -6 1029 79 10000 2 20 11:39 23.10.2019
5705 Clouds -6 1029 79 10000 2 20 11:39 23.10.2019
5706 Clouds -6 1029 79 10000 2 20 11:20 23.10.2019
5707 Clouds -6 1029 79 10000 2 360 10:46 23.10.2019
5708 Clouds -6 1029 79 10000 2 320 10:26 23.10.2019
5709 Clouds -6 1029 79 10000 2 320 09:58 23.10.2019
5710 Clouds -6 1028 79 10000 3 350 09:39 23.10.2019
5711 Clouds -6 1028 79 10000 3 350 09:20 23.10.2019
5712 Clouds -6 1028 79 10000 3 310 08:43 23.10.2019
5713 Clouds -6 1028 79 10000 4 300 08:25 23.10.2019
5714 Clouds -6 1028 79 10000 4 280 07:47 23.10.2019
5715 Clouds -6 1028 79 10000 4 300 07:25 23.10.2019
5716 Clouds -6 1028 79 10000 4 310 06:48 23.10.2019
5717 Clouds -6 1028 79 10000 3 300 06:22 23.10.2019
5718 Clouds -6 1028 79 10000 3 290 05:55 23.10.2019
5719 Clouds -6 1027 79 10000 4 280 04:59 23.10.2019
5720 Clouds -6 1027 79 10000 2 300 03:35 23.10.2019
5721 Clouds -6 1026 79 10000 2 270 02:41 23.10.2019
5722 Clouds -8 1025 85 10000 2.43 290 01:34 23.10.2019
5723 Clouds -7 1025 79 10000 2 270 00:56 23.10.2019
5724 Clouds -7 1025 79 10000 2 270 00:29 23.10.2019
5725 Clouds -7 1025 85 10000 2 270 23:41 22.10.2019
5726 Clouds -7 1025 85 10000 2 260 23:19 22.10.2019
5727 Clouds -6 1024 79 10000 3 280 22:58 22.10.2019
5728 Clouds -6 1024 79 10000 3 280 22:40 22.10.2019
5729 Clouds -5 1024 73 10000 3 280 22:21 22.10.2019
5730 Clouds -4 1024 73 10000 3 290 21:56 22.10.2019
5731 Clouds -4 1023 79 10000 3 280 21:38 22.10.2019
5732 Clouds -4 1023 79 10000 3 280 21:18 22.10.2019
5733 Clouds -4 1023 79 10000 3 280 20:58 22.10.2019
5734 Clouds -4 1023 79 10000 3 280 20:39 22.10.2019
5735 Clouds -4 1023 85 10000 3 260 20:21 22.10.2019
5736 Clouds -5 1023 92 10000 2 220 19:55 22.10.2019
5737 Clouds -5 1023 85 10000 3 220 19:37 22.10.2019
5738 Clouds -5 1023 85 10000 3 220 19:19 22.10.2019
5739 Clouds -5 1023 85 10000 2 220 18:41 22.10.2019
5740 Clouds -5 1023 92 10000 2 230 18:22 22.10.2019
5741 Clouds -6 1022 92 10000 3 240 17:59 22.10.2019
5742 Clouds -6 1022 92 10000 1 230 17:39 22.10.2019
5743 Clouds -6 1022 92 10000 1 230 17:20 22.10.2019
5744 Clouds -6 1022 92 10000 1 230 17:20 22.10.2019
5745 Clouds -6 1022 92 10000 1 230 17:20 22.10.2019
5746 Clouds -6 1022 92 10000 2 240 16:57 22.10.2019
5747 Clouds -6 1022 85 10000 2 230 16:39 22.10.2019
5748 Clouds -6 1022 85 10000 2 230 16:19 22.10.2019
5749 Clouds -6 1021 92 10000 3 270 15:58 22.10.2019
5750 Clouds -6 1021 92 10000 3 270 15:39 22.10.2019
5751 Clouds -6 1021 92 10000 2 260 15:18 22.10.2019
5752 Clouds -6 1021 92 10000 2 280 14:43 22.10.2019
5753 Clouds -5 1021 85 10000 2 290 14:20 22.10.2019
5754 Clouds -5 1021 85 10000 2 300 13:43 22.10.2019
5755 Clouds -5 1020 85 10000 2 290 13:23 22.10.2019
5756 Clouds -4 1020 85 10000 3 320 12:59 22.10.2019
5757 Clouds -4 1020 85 10000 3 320 12:41 22.10.2019
5758 Clouds -4 1020 85 10000 2 290 12:21 22.10.2019
5759 Clouds -4 1020 85 10000 2 280 11:57 22.10.2019
5760 Clouds -4 1019 85 10000 2 300 11:38 22.10.2019
5761 Clouds -4 1019 85 10000 2 300 11:20 22.10.2019
5762 Clouds -4 1019 85 10000 1 300 10:57 22.10.2019
5763 Clouds -3 1019 86 10000 1 300 10:37 22.10.2019
5764 Clouds -3 1019 86 10000 1 300 10:18 22.10.2019
5765 Clouds -3 1019 86 10000 1 300 10:18 22.10.2019
5766 Clouds -3 1018 86 10000 1 320 09:55 22.10.2019
5767 Clouds -3 1018 86 10000 3 330 09:36 22.10.2019
5768 Clouds -3 1018 86 10000 3 330 09:18 22.10.2019
5769 Clouds -3 1018 86 10000 5 310 08:42 22.10.2019
5770 Clouds -3 1018 86 10000 5 310 08:42 22.10.2019
5771 Clouds -3 1018 86 10000 4 310 08:21 22.10.2019
5772 Clouds -3 1018 86 10000 4 310 08:21 22.10.2019
5773 Clouds -3 1017 86 10000 4 300 07:48 22.10.2019
5774 Clouds -3 1017 86 10000 5 320 07:26 22.10.2019
5775 Clouds -3 1017 92 10000 4 310 06:51 22.10.2019
5776 Clouds -4 1017 100 10000 2 340 06:31 22.10.2019
5777 Clouds -4 1017 92 10000 2 340 05:57 22.10.2019
5778 Clouds -5 1017 100 10000 3 310 05:21 22.10.2019
5779 Clouds -7 1016 92 10000 1.7 306 02:47 22.10.2019
5780 Clouds -8 1016 100 10000 1.72 307 02:28 22.10.2019
5781 Clouds -9 1016 92 10000 1 290 01:28 22.10.2019
5782 Clouds -9 1016 92 10000 1 300 00:57 22.10.2019
5783 Clouds -9 1016 92 10000 1 290 00:39 22.10.2019
5784 Clouds -9 1016 92 10000 1 290 00:20 22.10.2019
5785 Clouds -9 1016 92 10000 1 280 23:55 21.10.2019
5786 Clouds -10 1016 92 10000 1 290 23:37 21.10.2019
5787 Clouds -10 1016 92 10000 1 290 23:18 21.10.2019
5788 Clouds -10 1016 92 10000 1 290 23:18 21.10.2019
5789 Clouds -10 1015 92 10000 1 270 22:56 21.10.2019
5790 Clouds -10 1015 92 10000 1 270 22:37 21.10.2019
5791 Clouds -10 1015 92 10000 1 270 22:19 21.10.2019
5792 Clouds -10 1015 92 10000 1 300 21:41 21.10.2019
5793 Clouds -10 1015 92 10000 1 290 21:23 21.10.2019
5794 Clouds -10 1015 92 10000 1 290 20:59 21.10.2019
5795 Clouds -10 1015 92 10000 1 290 20:41 21.10.2019
5796 Clouds -10 1015 92 10000 1 300 20:21 21.10.2019
5797 Clouds -10 1015 100 10000 1 310 19:59 21.10.2019
5798 Clouds -10 1015 100 10000 1 310 19:41 21.10.2019
5799 Clouds -10 1015 92 10000 1 310 19:22 21.10.2019
5800 Clouds -11 1015 92 10000 1 310 18:56 21.10.2019
5801 Mist -10 1015 92 5000 1 310 18:38 21.10.2019
5802 Mist -10 1015 92 5000 1 310 18:19 21.10.2019
5803 Mist -10 1015 92 5000 1 320 17:57 21.10.2019
5804 Mist -11 1015 92 5000 1 310 17:38 21.10.2019
5805 Mist -11 1015 92 5000 1 310 17:19 21.10.2019
5806 Mist -10 1015 92 5000 1 300 16:57 21.10.2019
5807 Mist -10 1015 92 5000 1 310 16:38 21.10.2019
5808 Mist -10 1015 92 5000 1 310 16:20 21.10.2019
5809 Mist -9 1015 92 5000 1.77 347 15:47 21.10.2019
5810 Mist -9 1015 92 5000 1.77 347 15:25 21.10.2019
5811 Mist -9 1015 92 5000 1 340 14:58 21.10.2019
5812 Mist -9 1015 92 5000 1 340 14:39 21.10.2019
5813 Fog -9 1015 100 600 1 320 14:20 21.10.2019
5814 Fog -9 1015 92 450 1.31 17 13:57 21.10.2019
5815 Fog -8 1015 92 350 1.31 17 13:38 21.10.2019
5816 Fog -8 1015 92 350 1.31 17 13:19 21.10.2019
5817 Fog -8 1015 92 350 1.31 17 13:19 21.10.2019
5818 Fog -8 1015 92 250 1.31 17 12:42 21.10.2019
5819 Fog -7 1015 92 200 1 360 12:22 21.10.2019
5820 Mist -7 1015 92 1000 1 10 11:57 21.10.2019
5821 Clear -6 1015 92 10000 1 350 11:39 21.10.2019
5822 Clear -6 1015 92 10000 1 350 11:20 21.10.2019
5823 Clear -6 1015 92 10000 1 350 11:20 21.10.2019
5824 Clear -5 1015 92 10000 1 340 10:57 21.10.2019
5825 Clear -5 1015 100 10000 1 360 10:38 21.10.2019
5826 Clear -5 1015 100 10000 1 360 10:19 21.10.2019
5827 Clouds -4 1014 92 10000 1 10 09:46 21.10.2019
5828 Clouds -3 1014 92 10000 1 10 09:26 21.10.2019
5829 Clouds -3 1014 92 10000 1 10 08:57 21.10.2019
5830 Clouds -3 1014 92 10000 1 20 08:37 21.10.2019
5831 -273 0 0 0 0 0 08:19 21.10.2019
5832 Mist -3 1014 92 5000 1 50 07:39 21.10.2019
5833 Mist -3 1014 92 5000 1 50 07:21 21.10.2019
5834 Mist -4 1014 100 5000 2 30 06:57 21.10.2019
5835 Mist -3 1014 92 5000 2 20 06:36 21.10.2019
5836 Mist -3 1015 92 5000 2 10 05:57 21.10.2019
5837 Mist -4 1015 92 2000 1 350 04:46 21.10.2019
5838 Mist -5 1015 92 1200 1 350 03:38 21.10.2019
5839 Fog -6 1015 92 400 1 350 02:25 21.10.2019
5840 Fog -7 1015 100 350 2 360 01:59 21.10.2019
5841 Fog -7 1015 100 150 2 350 01:37 21.10.2019
5842 Fog -8 1015 100 200 2 350 00:50 21.10.2019
5843 Fog -8 1015 92 450 1 340 00:27 21.10.2019
5844 Mist -8 1015 100 5000 2 340 23:43 20.10.2019
5845 Mist -8 1015 92 5000 2 330 23:22 20.10.2019
5846 Mist -8 1015 100 1800 2 340 22:57 20.10.2019
5847 Fog -7 1015 92 1200 2 330 22:39 20.10.2019
5848 Fog -7 1015 92 1200 2 330 22:19 20.10.2019
5849 Mist -8 1015 100 5000 2 330 21:59 20.10.2019
5850 Mist -7 1015 92 10000 2 340 21:39 20.10.2019
5851 Mist -7 1015 92 10000 2 340 21:21 20.10.2019
5852 Clear -8 1015 92 10000 2 330 20:42 20.10.2019
5853 Clear -8 1016 92 10000 2 340 20:20 20.10.2019
5854 Clear -8 1016 92 10000 2 330 19:57 20.10.2019
5855 Clear -8 1016 92 10000 2 340 19:39 20.10.2019
5856 Clear -8 1016 92 10000 2 340 19:39 20.10.2019
5857 Clear -8 1016 92 10000 2 340 19:20 20.10.2019
5858 Clear -8 1016 100 10000 2 340 18:58 20.10.2019
5859 Clear -8 1016 100 10000 2 340 18:40 20.10.2019
5860 Clear -8 1016 100 10000 2 340 18:20 20.10.2019
5861 Clear -7 1016 92 10000 2 330 17:56 20.10.2019
5862 Clear -8 1016 100 10000 2 350 17:37 20.10.2019
5863 Clear -8 1016 100 10000 2 350 17:18 20.10.2019
5864 Clear -7 1016 92 10000 2 350 16:42 20.10.2019
5865 Clear -7 1016 92 10000 2 350 16:42 20.10.2019
5866 Clear -7 1016 92 10000 2 350 16:23 20.10.2019
5867 Clear -6 1016 92 10000 2 330 15:58 20.10.2019
5868 Clear -6 1016 100 10000 2 350 15:38 20.10.2019
5869 Clear -6 1016 100 10000 2 350 15:20 20.10.2019
5870 Clear -5 1016 92 10000 1 360 14:57 20.10.2019
5871 Clear -5 1016 100 10000 2 350 14:37 20.10.2019
5872 Clear -5 1016 100 10000 2 350 14:19 20.10.2019
5873 Clear -5 1016 100 10000 2 340 13:55 20.10.2019
5874 Clear -5 1016 100 10000 3 340 13:36 20.10.2019
5875 Clear -5 1016 100 10000 3 340 13:18 20.10.2019
5876 Clear -4 1016 92 10000 2 350 12:56 20.10.2019
5877 Clear -4 1017 100 10000 3 360 12:37 20.10.2019
5878 Clear -4 1017 100 10000 3 360 12:19 20.10.2019
5879 Clear -3 1017 92 10000 2 350 11:55 20.10.2019
5880 Clear -3 1017 92 10000 2 350 11:37 20.10.2019
5881 Clear -3 1017 92 10000 2 350 11:18 20.10.2019
5882 Clear -3 1017 100 10000 2 350 10:41 20.10.2019
5883 Clear -2 1017 92 10000 2 350 10:22 20.10.2019
5884 Clear -1 1017 92 10000 2 350 09:57 20.10.2019
5885 Clear 0 1017 91 10000 2 360 09:39 20.10.2019
5886 Clear 0 1017 86 10000 2 360 09:21 20.10.2019
5887 Clear 0 1017 85 10000 2 20 08:48 20.10.2019
5888 Clear 0 1017 85 10000 2 20 08:48 20.10.2019
5889 Clear 0 1017 85 10000 2 10 08:23 20.10.2019
5890 Clear -1 1017 100 10000 1 360 07:50 20.10.2019
5891 Mist -1 1017 92 2400 1 360 07:30 20.10.2019
5892 Fog -2 1017 100 900 1 10 06:57 20.10.2019
5893 Mist -3 1017 100 5000 1 360 06:20 20.10.2019
5894 Clear -4 1018 100 10000 0.67 150.628 04:27 20.10.2019
5895 Clear -4 1018 92 10000 0.67 150.628 03:46 20.10.2019
5896 Clear -5 1018 92 10000 1 320 03:20 20.10.2019
5897 Clear -6 1018 100 10000 1.1 218.741 02:40 20.10.2019
5898 Clear -6 1018 100 10000 1 270 01:58 20.10.2019
5899 Clear -7 1018 92 10000 1 280 01:23 20.10.2019
5900 Clear -7 1017 100 10000 2 310 00:56 20.10.2019
5901 Clear -7 1017 100 10000 1 290 00:38 20.10.2019
5902 Clear -7 1017 100 10000 1 290 00:19 20.10.2019
5903 Clear -7 1017 100 10000 1.26 251.737 23:42 19.10.2019
5904 Clear -5 1017 92 10000 1 270 23:22 19.10.2019
5905 Clear -6 1017 100 10000 2 280 22:56 19.10.2019
5906 Clear -5 1017 100 10000 1 190 22:38 19.10.2019
5907 Clear -5 1017 100 10000 1 190 22:20 19.10.2019
5908 Clear -4 1017 92 10000 2 230 21:46 19.10.2019
5909 Clear -4 1016 100 10000 2 230 21:23 19.10.2019
5910 Clear -4 1016 100 10000 2 250 20:46 19.10.2019
5911 Clear -3 1016 100 10000 3 230 20:23 19.10.2019
5912 Clear -2 1016 92 10000 2 270 19:59 19.10.2019
5913 Clear -2 1016 92 10000 2 270 19:40 19.10.2019
5914 Clear -2 1016 100 10000 2 260 19:22 19.10.2019
5915 Clear 0 1015 92 10000 2 280 18:43 19.10.2019
5916 Clouds 1 1015 86 10000 2 240 18:24 19.10.2019
5917 Clouds 2 1015 95 10000 2 250 17:57 19.10.2019
5918 Clouds 1 1015 95 10000 3 260 17:37 19.10.2019
5919 Clouds 1 1015 95 10000 3 260 17:19 19.10.2019
5920 Clouds 0 1015 95 10000 2 270 16:39 19.10.2019
5921 Clouds 0 1015 95 10000 2 270 16:20 19.10.2019
5922 Clouds 0 1014 95 10000 2 220 15:56 19.10.2019
5923 Clouds 0 1014 95 10000 3 230 15:38 19.10.2019
5924 Clouds 0 1014 93 10000 3 230 15:19 19.10.2019
5925 Clouds -1 1014 92 10000 2 190 14:38 19.10.2019
5926 Clouds -1 1014 92 10000 2 190 14:20 19.10.2019
5927 Clouds -1 1014 92 10000 2 190 14:19 19.10.2019
5928 Clouds -1 1013 92 10000 2 220 13:55 19.10.2019
5929 Clouds -2 1013 100 10000 3 230 13:36 19.10.2019
5930 Clouds -2 1013 100 10000 3 230 13:18 19.10.2019
5931 Clouds -2 1013 100 10000 3 230 13:18 19.10.2019
5932 Mist -2 1013 100 5000 3 250 12:39 19.10.2019
5933 Mist -2 1013 100 5000 3 250 12:21 19.10.2019
5934 Mist -2 1012 100 2400 3 280 11:57 19.10.2019
5935 Mist -2 1012 100 2400 3 290 11:39 19.10.2019
5936 Mist -2 1012 100 2400 3 290 11:21 19.10.2019
5937 Clear -1 1011 92 10000 3 300 10:41 19.10.2019
5938 Clear -1 1011 92 10000 3 300 10:23 19.10.2019
5939 Clear 0 1011 92 10000 3 280 09:59 19.10.2019
5940 Clear 1 1010 86 10000 2.53 252.56 09:41 19.10.2019
5941 Clear 1 1010 86 10000 1.37 167.131 09:22 19.10.2019
5942 Clear 1 1010 80 10000 1 30 08:56 19.10.2019
5943 Clear 1 1010 80 10000 1 30 08:56 19.10.2019
5944 Clear 1 1010 86 10000 2 330 08:37 19.10.2019
5945 Clear 1 1010 86 10000 2 330 08:19 19.10.2019
5946 Clouds 0 1010 90 10000 2 340 07:41 19.10.2019
5947 Clouds 0 1010 90 10000 2 340 07:23 19.10.2019
5948 Clouds 0 1010 90 10000 2 360 06:36 19.10.2019
5949 Clouds 0 1010 87 10000 1 30 05:51 19.10.2019
5950 Clouds -1 1010 100 10000 2 140 04:54 19.10.2019
5951 Clouds -2 1011 92 10000 2 90 03:22 19.10.2019
5952 Mist -3 1012 100 1500 2 90 02:34 19.10.2019
5953 Fog -3 1012 100 1200 2 90 01:50 19.10.2019
5954 Fog -3 1011 100 900 2 100 00:59 19.10.2019
5955 Fog -3 1011 100 900 2 100 00:41 19.10.2019
5956 Fog -3 1011 100 900 2 80 00:21 19.10.2019
5957 Fog -3 1012 100 700 2 90 23:39 18.10.2019
5958 Fog -3 1012 100 700 2 90 23:21 18.10.2019
5959 Fog -3 1012 100 800 2 100 22:55 18.10.2019
5960 Fog -2 1012 92 700 2 70 22:37 18.10.2019
5961 Fog -2 1012 92 700 2 70 22:37 18.10.2019
5962 Fog -2 1012 92 700 2 70 22:18 18.10.2019
5963 Fog -2 1012 92 700 2 100 21:55 18.10.2019
5964 Fog -2 1012 100 650 1 110 21:36 18.10.2019
5965 Fog -2 1012 100 650 1 110 21:18 18.10.2019
5966 Fog -2 1012 100 600 2 120 20:43 18.10.2019
5967 Fog -2 1012 100 800 1 90 20:24 18.10.2019
5968 Fog -2 1012 100 550 2 100 19:58 18.10.2019
5969 Fog -2 1012 100 550 2 100 19:40 18.10.2019
5970 Fog -2 1012 100 550 2 100 19:40 18.10.2019
5971 Fog -2 1012 100 500 2 90 19:22 18.10.2019
5972 Fog -2 1012 100 500 2 80 18:59 18.10.2019
5973 Fog -2 1012 100 500 2 80 18:59 18.10.2019
5974 Fog -2 1012 100 550 2 90 18:41 18.10.2019
5975 Fog -2 1012 100 550 2 90 18:23 18.10.2019
5976 Fog -2 1012 100 600 2 80 17:56 18.10.2019
5977 Fog -1 1012 92 500 2 90 17:37 18.10.2019
5978 Fog -1 1012 92 500 2 90 17:19 18.10.2019
5979 Mist -1 1012 100 1000 2 100 16:42 18.10.2019
5980 Mist -1 1012 100 1300 2 110 16:21 18.10.2019
5981 Mist -1 1012 100 1300 1 100 15:58 18.10.2019
5982 Mist -1 1012 100 1300 2 100 15:38 18.10.2019
5983 Mist -1 1012 100 1300 2 100 15:20 18.10.2019
5984 Mist -1 1012 100 1300 2 100 15:20 18.10.2019
5985 Mist -1 1012 100 1300 2 110 14:57 18.10.2019
5986 Mist -1 1012 100 1300 3 90 14:38 18.10.2019
5987 Mist -1 1012 100 1300 3 90 14:38 18.10.2019
5988 Mist -1 1012 100 1300 3 90 14:19 18.10.2019
5989 Mist -1 1012 100 5000 2 100 13:56 18.10.2019
5990 Mist 0 1012 97 5000 3 100 13:37 18.10.2019
5991 Mist 0 1012 97 5000 3 100 13:18 18.10.2019
5992 Mist -1 1012 100 3200 2 20 12:55 18.10.2019
5993 Fog -1 1011 100 800 2 40 12:37 18.10.2019
5994 Fog -1 1011 100 800 2 40 12:18 18.10.2019
5995 Fog -1 1012 100 650 2 350 11:42 18.10.2019
5996 Fog -1 1012 100 750 2 10 11:21 18.10.2019
5997 -273 0 0 0 0 0 10:59 18.10.2019
5998 Mist -1 1012 100 1000 2 30 10:59 18.10.2019
5999 Mist -1 1012 100 1000 2 30 10:41 18.10.2019
6000 Mist -1 1012 92 3200 1 40 10:22 18.10.2019
6001 Clouds -1 1012 92 10000 2 20 09:57 18.10.2019
6002 Clouds -1 1012 92 10000 2 20 09:39 18.10.2019
6003 Clouds -1 1012 92 10000 2 20 09:39 18.10.2019
6004 Clouds -1 1011 92 10000 2 50 09:19 18.10.2019
6005 Clouds -1 1012 92 10000 2 60 08:45 18.10.2019
6006 Clouds -1 1012 92 10000 1 40 08:25 18.10.2019
6007 Clouds -1 1012 92 10000 1 40 08:25 18.10.2019
6008 Clouds -1 1012 92 10000 2 40 07:57 18.10.2019
6009 Clouds -2 1012 92 10000 2 30 07:38 18.10.2019
6010 Clouds -2 1012 92 10000 2 50 06:56 18.10.2019
6011 Clouds -2 1012 92 10000 1 70 06:36 18.10.2019
6012 Clouds -2 1012 92 10000 1 70 06:18 18.10.2019
6013 Clouds -2 1012 92 10000 1 50 05:52 18.10.2019
6014 Clouds -3 1013 92 10000 1.43 88.999 05:19 18.10.2019
6015 Clouds -3 1012 92 10000 2 40 03:38 18.10.2019
6016 Clouds -3 1012 92 10000 2 30 02:54 18.10.2019
6017 Clouds -3 1012 92 10000 2 360 02:32 18.10.2019
6018 Clouds -3 1012 92 10000 2 360 02:32 18.10.2019
6019 Clouds -4 1012 100 10000 2 360 01:40 18.10.2019
6020 Clouds -4 1012 100 10000 1 350 01:21 18.10.2019
6021 Clouds -4 1012 100 10000 1 350 00:43 18.10.2019
6022 Clouds -4 1012 100 10000 1 350 00:20 18.10.2019
6023 Clouds -4 1012 100 10000 3 320 23:40 17.10.2019
6024 Clouds -3 1011 92 10000 3 340 23:21 17.10.2019
6025 Clouds -3 1011 92 10000 4 330 22:57 17.10.2019
6026 Clouds -3 1011 92 10000 3 340 22:39 17.10.2019
6027 Clouds -3 1011 92 10000 3 340 22:19 17.10.2019
6028 Clouds -3 1011 100 10000 4 340 21:57 17.10.2019
6029 Clouds -3 1011 100 10000 4 340 21:57 17.10.2019
6030 Clouds -2 1011 92 10000 4 330 21:39 17.10.2019
6031 Clouds -2 1011 92 10000 4 330 21:20 17.10.2019
6032 Clouds -2 1010 92 10000 4 340 20:58 17.10.2019
6033 Clouds -2 1010 100 10000 3 330 20:39 17.10.2019
6034 Clouds -2 1010 100 10000 3 330 20:19 17.10.2019
6035 Clear -2 1009 100 10000 3 340 19:58 17.10.2019
6036 Clear -1 1009 100 10000 3 360 19:39 17.10.2019
6037 Clear -1 1009 100 10000 3 360 19:19 17.10.2019
6038 Clear -1 1009 92 10000 2 350 18:43 17.10.2019
6039 Clear -1 1008 92 10000 3 340 18:21 17.10.2019
6040 Clear -1 1008 92 10000 3 330 18:00 17.10.2019
6041 Clouds -1 1008 92 10000 3 330 17:41 17.10.2019
6042 Clouds -1 1008 92 10000 3 340 17:23 17.10.2019
6043 Clouds -1 1008 100 10000 2 350 16:56 17.10.2019
6044 Clouds -1 1008 100 10000 2 350 16:38 17.10.2019
6045 Clouds -1 1008 100 10000 2 350 16:18 17.10.2019
6046 Clouds 0 1008 97 10000 1 360 15:55 17.10.2019
6047 Clouds 0 1008 97 10000 1 360 15:55 17.10.2019
6048 Clouds 0 1008 97 10000 1 340 15:37 17.10.2019
6049 Clouds 0 1008 97 10000 1 340 15:19 17.10.2019
6050 Clouds 0 1009 97 10000 2 320 14:42 17.10.2019
6051 Rain 0 1009 97 10000 1 80 14:23 17.10.2019
6052 Rain 0 1009 97 10000 1 30 13:56 17.10.2019
6053 Clouds 0 1010 97 10000 1 50 13:38 17.10.2019
6054 Clouds 0 1010 97 10000 1 50 13:18 17.10.2019
6055 Clouds 0 1010 97 10000 2 10 12:41 17.10.2019
6056 Clouds 1 1009 80 10000 1 100 12:21 17.10.2019
6057 Clouds 1 1010 80 10000 1 70 11:59 17.10.2019
6058 Clouds 1 1010 80 10000 1 70 11:59 17.10.2019
6059 Clouds 1 1010 80 10000 2 80 11:40 17.10.2019
6060 Clouds 1 1010 80 10000 2 80 11:19 17.10.2019
6061 Clouds 1 1010 80 10000 2 90 10:55 17.10.2019
6062 Clouds 1 1011 80 10000 2 70 10:37 17.10.2019
6063 Clouds 1 1011 80 10000 2 70 10:18 17.10.2019
6064 Clouds 1 1011 80 10000 1 70 09:42 17.10.2019
6065 Clouds 1 1011 80 10000 2 10 09:23 17.10.2019
6066 Clouds 1 1012 80 10000 2 20 08:59 17.10.2019
6067 Clouds 1 1012 80 10000 2 20 08:41 17.10.2019
6068 Clouds 1 1012 74 10000 2 30 08:21 17.10.2019
6069 Clouds 1 1012 74 10000 2 30 07:56 17.10.2019
6070 Clouds 0 1012 97 10000 1 50 07:37 17.10.2019
6071 Clouds 0 1012 97 10000 1 50 07:18 17.10.2019
6072 Clouds 0 1012 97 10000 1 50 07:18 17.10.2019
6073 Clouds 0 1012 97 10000 1 30 06:40 17.10.2019
6074 Clouds 0 1012 92 10000 1 30 06:21 17.10.2019
6075 Clouds 0 1012 92 10000 2 90 05:54 17.10.2019
6076 Clouds 0 1012 92 10000 2 50 05:32 17.10.2019
6077 Clouds 0 1012 92 10000 2 50 05:32 17.10.2019
6078 Clouds 0 1013 92 10000 1 50 04:53 17.10.2019
6079 Clouds -1 1013 80 10000 2 70 03:55 17.10.2019
6080 Clouds -2 1013 86 10000 1 60 02:37 17.10.2019
6081 Clouds -2 1013 86 10000 1 70 01:27 17.10.2019
6082 Clouds -2 1013 86 10000 2 100 00:38 17.10.2019
6083 Clouds -2 1013 86 10000 2 100 00:19 17.10.2019
6084 Clouds -2 1013 86 10000 2 110 23:42 16.10.2019
6085 Clouds -2 1013 86 10000 2 110 23:21 16.10.2019
6086 Snow -2 1013 86 10000 2 110 22:56 16.10.2019
6087 Snow -2 1013 86 10000 2 110 22:56 16.10.2019
6088 Snow -3 1013 92 10000 2 110 22:37 16.10.2019
6089 Snow -3 1013 92 10000 2 110 22:19 16.10.2019
6090 Snow -3 1013 92 10000 3 110 21:56 16.10.2019
6091 Snow -3 1013 92 10000 2 110 21:37 16.10.2019
6092 Snow -3 1013 92 10000 2 110 21:19 16.10.2019
6093 Snow -3 1013 92 10000 2 110 21:19 16.10.2019
6094 Snow -2 1013 79 10000 3 120 20:57 16.10.2019
6095 Snow -3 1013 86 10000 3 120 20:38 16.10.2019
6096 Snow -3 1013 86 10000 3 120 20:20 16.10.2019
6097 Snow -2 1013 79 10000 3 120 19:57 16.10.2019
6098 Snow -2 1013 79 10000 4 130 19:38 16.10.2019
6099 Snow -2 1013 79 10000 4 130 19:20 16.10.2019
6100 Clouds -2 1014 79 10000 3 120 18:39 16.10.2019
6101 Clouds -2 1014 79 10000 3 120 18:39 16.10.2019
6102 Clouds -2 1014 79 10000 3 120 18:19 16.10.2019
6103 Clouds -2 1014 74 10000 3 130 17:58 16.10.2019
6104 Clouds -2 1014 74 10000 3 130 17:58 16.10.2019
6105 Clouds -2 1015 74 10000 3 140 17:39 16.10.2019
6106 Clouds -2 1015 74 10000 3 140 17:21 16.10.2019
6107 Clouds -2 1015 74 10000 4 140 16:59 16.10.2019
6108 Clouds -2 1015 74 10000 4 140 16:41 16.10.2019
6109 Clouds -2 1015 74 10000 4 140 16:41 16.10.2019
6110 Clouds -2 1015 74 10000 3 130 16:20 16.10.2019
6111 Clouds -2 1016 74 10000 4 130 15:56 16.10.2019
6112 Clouds -2 1016 74 10000 4 130 15:56 16.10.2019
6113 Clouds -4 1017 91 0 2.85 145 15:37 16.10.2019
6114 Clouds -2 1017 74 10000 3 140 15:18 16.10.2019
6115 Clouds -2 1017 74 10000 3 140 14:56 16.10.2019
6116 Clouds -2 1017 74 10000 3 140 14:38 16.10.2019
6117 Clouds -2 1017 74 10000 3 140 14:18 16.10.2019
6118 Clouds -2 1017 74 10000 3 140 13:56 16.10.2019
6119 Clouds -2 1017 74 10000 3 140 13:37 16.10.2019
6120 Clouds -2 1017 74 10000 3 140 13:19 16.10.2019
6121 Clouds -2 1017 74 10000 3 130 12:41 16.10.2019
6122 Clouds -2 1017 74 10000 2 170 12:19 16.10.2019
6123 Clouds -2 1018 74 10000 2 180 11:44 16.10.2019
6124 Clouds -2 1018 74 10000 2 180 11:19 16.10.2019
6125 Clouds -2 1017 74 10000 3 160 10:41 16.10.2019
6126 Clouds -2 1017 68 10000 3 170 10:22 16.10.2019
6127 Clouds -2 1018 74 10000 2 160 09:58 16.10.2019
6128 Clouds -2 1018 74 10000 2 160 09:58 16.10.2019
6129 Clouds -2 1018 74 10000 2 150 09:39 16.10.2019
6130 Clouds -2 1018 74 10000 2 150 09:39 16.10.2019
6131 Clouds -2 1018 74 10000 2 150 09:20 16.10.2019
6132 Clouds -2 1018 74 10000 2 150 08:44 16.10.2019
6133 Clouds -2 1018 79 10000 3 150 08:26 16.10.2019
6134 Clouds -2 1018 79 10000 2 150 07:56 16.10.2019
6135 Clouds -2 1018 79 10000 3 150 07:38 16.10.2019
6136 Clouds -2 1018 79 10000 3 150 07:20 16.10.2019
6137 Snow -2 1018 79 10000 3 150 06:40 16.10.2019
6138 Snow -2 1018 79 10000 3 150 06:19 16.10.2019
6139 Clouds -3 1018 79 10000 1 260 03:46 16.10.2019
6140 Clouds -4 1018 79 10000 1 280 02:50 16.10.2019
6141 Clouds -4 1017 79 10000 1 280 01:20 16.10.2019
6142 Clouds -4 1017 79 10000 1 320 00:57 16.10.2019
6143 Clouds -4 1017 73 10000 3 320 00:37 16.10.2019
6144 Clouds -4 1017 79 10000 3 280 23:42 15.10.2019
6145 Clouds -4 1017 79 10000 2 300 23:22 15.10.2019
6146 Clouds -4 1016 79 10000 3 320 22:58 15.10.2019
6147 Clouds -4 1016 79 10000 3 320 22:40 15.10.2019
6148 Clouds -4 1016 79 10000 3 320 22:21 15.10.2019
6149 Clouds -4 1016 79 10000 3 310 21:57 15.10.2019
6150 Clouds -4 1016 79 10000 3 300 21:38 15.10.2019
6151 Clouds -4 1016 79 10000 3 300 21:20 15.10.2019
6152 Clouds -4 1016 79 10000 3 300 21:20 15.10.2019
6153 Snow -4 1016 79 10000 3 290 20:58 15.10.2019
6154 Snow -4 1016 79 10000 3 290 20:58 15.10.2019
6155 Snow -4 1016 79 10000 3 290 20:40 15.10.2019
6156 Snow -4 1016 79 10000 3 290 20:40 15.10.2019
6157 Snow -4 1016 79 10000 3 300 20:21 15.10.2019
6158 Snow -3 1015 73 10000 3 290 19:59 15.10.2019
6159 Snow -3 1015 73 10000 3 290 19:41 15.10.2019
6160 Snow -3 1015 73 10000 2 300 19:20 15.10.2019
6161 Snow -3 1015 73 10000 3 310 18:55 15.10.2019
6162 -273 0 0 0 0 0 18:55 15.10.2019
6163 Snow -3 1015 73 10000 3 290 18:37 15.10.2019
6164 Snow -3 1015 73 10000 3 290 18:19 15.10.2019
6165 -273 0 0 0 0 0 17:42 15.10.2019
6166 Snow -3 1015 73 10000 3 300 17:42 15.10.2019
6167 Snow -3 1015 73 10000 4 300 17:21 15.10.2019
6168 Snow -3 1015 73 10000 4 300 16:59 15.10.2019
6169 Snow -3 1015 73 10000 4 300 16:41 15.10.2019
6170 Snow -3 1015 73 10000 3 300 16:21 15.10.2019
6171 Snow -3 1014 79 10000 5 290 15:55 15.10.2019
6172 Snow -3 1014 86 10000 3 310 15:37 15.10.2019
6173 Snow -3 1014 86 10000 3 310 15:19 15.10.2019
6174 -273 0 0 0 0 0 14:54 15.10.2019
6175 Clouds -6 1015 87 0 3.522 294 14:36 15.10.2019
6176 Clouds -6 1015 87 0 3.522 294 14:18 15.10.2019
6177 Clouds -6 1015 87 0 3.522 294 13:43 15.10.2019
6178 Clouds -6 1015 87 0 3.522 294 13:20 15.10.2019
6179 Clouds -6 1015 87 0 3.522 294 12:46 15.10.2019
6180 Snow -4 1013 88 0 3.487 283 12:23 15.10.2019
6181 Snow -4 1013 88 0 3.487 283 11:59 15.10.2019
6182 Snow -4 1013 88 0 3.487 283 11:40 15.10.2019
6183 Snow -4 1013 88 0 3.487 283 11:20 15.10.2019
6184 Snow -4 1013 88 0 3.487 283 10:46 15.10.2019
6185 Clouds -5 1013 89 0 4.02 290.174 10:24 15.10.2019
6186 Clouds -5 1013 89 0 4.02 290.174 09:59 15.10.2019
6187 Clouds -5 1013 89 0 4.02 290.174 09:40 15.10.2019
6188 Clouds -3 1012 83 0 4.76 289.502 09:21 15.10.2019
6189 Clouds -3 1012 83 0 4.76 289.502 09:21 15.10.2019
6190 Clouds -3 1012 85 0 4.84 291.859 08:58 15.10.2019
6191 Clouds -3 1012 85 0 4.84 291.859 08:39 15.10.2019
6192 Clouds -3 1012 85 0 4.84 291.859 08:19 15.10.2019
6193 Clouds -3 1012 85 0 4.84 291.859 08:19 15.10.2019
6194 Clouds -3 1012 85 0 4.84 291.859 07:43 15.10.2019
6195 Clouds -3 1012 85 0 4.84 291.859 07:43 15.10.2019
6196 Clouds -3 1012 85 0 4.84 291.859 07:22 15.10.2019
6197 Clouds -3 1012 85 0 4.84 291.859 06:56 15.10.2019
6198 Clouds -3 1012 85 0 4.84 291.859 06:37 15.10.2019
6199 Clouds -2 1011 86 0 4.23 291.65 05:56 15.10.2019
6200 Clouds -2 1011 86 0 4.23 291.65 05:36 15.10.2019
6201 Clouds -2 1011 86 0 4.23 291.65 04:48 15.10.2019
6202 Clouds -2 1011 86 0 4.23 291.65 04:18 15.10.2019
6203 Clouds -2 1011 86 0 4.23 291.65 03:34 15.10.2019
6204 Clouds -4 1011 87 0 3.59 284.872 01:52 15.10.2019
6205 Clouds -3 1010 88 0 3.63 284.864 01:31 15.10.2019
6206 Clouds -3 1010 88 0 3.63 284.864 00:59 15.10.2019
6207 Clouds -3 1010 88 0 3.63 284.864 00:25 15.10.2019
6208 Clouds -5 1009 94 0 2.91 268.191 23:58 14.10.2019
6209 Clouds -5 1009 94 0 2.91 268.191 23:37 14.10.2019
6210 Clouds -5 1009 94 0 2.91 268.191 23:37 14.10.2019
6211 Clouds -5 1009 94 0 2.91 268.191 23:18 14.10.2019
6212 Clouds -5 1009 94 0 2.91 268.191 22:39 14.10.2019
6213 Clouds -5 1009 94 0 2.91 268.191 22:20 14.10.2019
6214 Clouds -5 1009 94 0 2.91 268.191 21:58 14.10.2019
6215 Clouds -5 1009 94 0 2.91 268.191 21:39 14.10.2019
6216 Clouds -5 1010 95 0 2.74 264.057 21:20 14.10.2019
6217 Clouds -5 1009 95 0 2.69 262.973 20:57 14.10.2019
6218 Clouds -5 1009 95 0 2.69 262.973 20:57 14.10.2019
6219 Clouds -5 1009 95 0 2.69 262.973 20:38 14.10.2019
6220 Clouds -5 1009 95 0 2.69 262.973 20:38 14.10.2019
6221 Clouds -5 1009 95 0 2.69 262.973 20:18 14.10.2019
6222 Clouds -5 1009 93 0 2.72 255 19:43 14.10.2019
6223 Clouds -5 1009 93 0 2.72 255 19:25 14.10.2019
6224 Clouds -5 1009 95 0 2.69 262.973 18:59 14.10.2019
6225 -273 0 0 0 0 0 18:59 14.10.2019
6226 Clouds -5 1009 95 0 2.69 262.973 18:40 14.10.2019
6227 Clouds -6 1010 95 0 2.32 261.102 18:20 14.10.2019
6228 Clouds -6 1010 95 0 2.32 261.102 17:58 14.10.2019
6229 Clouds -6 1010 95 0 2.32 261.102 17:40 14.10.2019
6230 Clouds -6 1010 95 0 2.32 261.102 17:21 14.10.2019
6231 Clouds -6 1010 95 0 2.32 261.102 17:21 14.10.2019
6232 Clouds -6 1010 95 0 2.32 261.102 16:44 14.10.2019
6233 Clouds -6 1010 95 0 2.32 261.102 16:22 14.10.2019
6234 -273 0 0 0 0 0 15:57 14.10.2019
6235 Clouds -6 1010 95 0 2.32 261.102 15:38 14.10.2019
6236 Clouds -6 1010 94 0 2.26 265.007 15:20 14.10.2019
6237 Clouds -6 1010 94 0 2.26 265.007 14:43 14.10.2019
6238 Clouds -6 1010 94 0 2.26 265.007 14:24 14.10.2019
6239 Clouds -6 1010 94 0 2.26 265.007 13:56 14.10.2019
6240 Clouds -6 1010 94 0 2.26 265.007 13:37 14.10.2019
6241 Clouds -7 1010 95 0 2.33 265.153 13:18 14.10.2019
6242 Clouds -7 1010 95 0 2.33 265.153 12:40 14.10.2019
6243 Clouds -7 1010 95 0 2.33 265.153 12:40 14.10.2019
6244 Clouds -7 1010 93 0 2.69 269.851 12:19 14.10.2019
6245 Clouds -7 1010 93 0 2.69 269.851 11:46 14.10.2019
6246 Clouds -7 1010 93 0 2.69 269.851 11:27 14.10.2019
6247 Clouds -7 1010 93 0 2.69 269.851 10:58 14.10.2019
6248 Clouds -7 1010 93 0 2.69 269.851 10:58 14.10.2019
6249 Clouds -7 1010 93 0 2.69 269.851 10:39 14.10.2019
6250 Clouds -7 1010 93 0 2.69 269.851 10:20 14.10.2019
6251 Clouds -7 1010 93 0 2.69 269.851 09:55 14.10.2019
6252 Clouds -7 1010 93 0 2.69 269.851 09:36 14.10.2019
6253 Clouds -4 1011 78 0 4.24 285.546 09:18 14.10.2019
6254 Clouds -4 1011 78 0 4.24 285.546 08:43 14.10.2019
6255 Clouds -4 1011 78 0 4.24 285.546 08:22 14.10.2019
6256 Clouds -4 1011 78 0 4.24 285.546 07:42 14.10.2019
6257 Clouds -4 1011 78 0 4.24 285.546 07:19 14.10.2019
6258 Clouds -4 1011 78 0 4.24 285.546 06:48 14.10.2019
6259 Clouds -4 1012 80 0 4.93 275.332 06:20 14.10.2019
6260 Clouds -4 1012 80 0 4.93 275.332 05:49 14.10.2019
6261 Clouds -4 1012 80 0 4.93 275.332 04:43 14.10.2019
6262 Clouds -4 1012 80 0 4.93 275.332 03:28 14.10.2019
6263 Clouds -8 1014 85 0 4.37 288.161 02:49 14.10.2019
6264 Clouds -7 1014 86 0 4.24 287.003 01:24 14.10.2019
6265 Clouds -7 1014 86 0 4.24 287.003 00:58 14.10.2019
6266 Clouds -10 1015 91 0 3.81 280.002 00:20 14.10.2019
6267 Clouds -10 1015 91 0 3.81 280.002 23:45 13.10.2019
6268 Clouds -10 1015 91 0 3.81 280.002 23:20 13.10.2019
6269 Clouds -10 1015 91 0 3.81 280.002 22:58 13.10.2019
6270 Clouds -10 1015 91 0 3.81 280.002 22:40 13.10.2019
6271 Clouds -10 1015 91 0 3.81 280.002 22:21 13.10.2019
6272 Clouds -10 1015 91 0 3.81 280.002 21:58 13.10.2019
6273 Clouds -10 1015 91 0 3.81 280.002 21:37 13.10.2019
6274 Clouds -10 1016 92 0 4.48 283.245 21:19 13.10.2019
6275 Clouds -10 1016 92 0 4.48 283.245 20:57 13.10.2019
6276 Clouds -10 1016 92 0 4.48 283.245 20:57 13.10.2019
6277 Clouds -10 1016 92 0 4.35 287.078 20:38 13.10.2019
6278 Clouds -10 1016 92 0 4.35 287.078 20:20 13.10.2019
6279 Clouds -10 1016 92 0 4.35 287.078 19:58 13.10.2019
6280 Clouds -10 1016 92 0 4.35 287.078 19:39 13.10.2019
6281 Clouds -10 1016 92 0 4.35 287.078 19:21 13.10.2019
6282 Clouds -10 1016 92 0 4.35 287.078 18:57 13.10.2019
6283 -273 0 0 0 0 0 18:56 13.10.2019
6284 Clouds -10 1016 92 0 4.35 287.078 18:56 13.10.2019
6285 Clouds -10 1016 92 0 4.35 287.078 18:56 13.10.2019
6286 Clouds -10 1016 92 0 4.35 287.078 18:36 13.10.2019
6287 Clouds -10 1016 92 0 4.85 292.102 18:18 13.10.2019
6288 Clouds -10 1016 92 0 4.85 292.102 17:44 13.10.2019
6289 Clouds -10 1016 92 0 4.85 292.102 17:44 13.10.2019
6290 Clouds -10 1016 92 0 4.85 292.102 17:26 13.10.2019
6291 Clouds -10 1016 92 0 4.85 292.102 16:58 13.10.2019
6292 Clouds -10 1016 92 0 4.85 292.102 16:40 13.10.2019
6293 Clouds -10 1016 92 0 4.85 292.102 16:18 13.10.2019
6294 Clouds -10 1016 92 0 4.85 292.102 15:56 13.10.2019
6295 Clouds -10 1016 92 0 4.85 292.102 15:37 13.10.2019
6296 Clouds -10 1016 92 0 4.85 292.102 15:37 13.10.2019
6297 Clouds -10 1018 92 0 4.99 294.207 15:18 13.10.2019
6298 Clouds -10 1018 92 0 4.99 294.207 14:56 13.10.2019
6299 Clouds -10 1018 92 0 4.99 294.207 14:38 13.10.2019
6300 Clouds -10 1018 92 0 4.99 294.207 14:19 13.10.2019
6301 Clouds -10 1018 92 0 4.99 294.207 13:41 13.10.2019
6302 Clouds -9 1017 92 0 4.99 294.375 13:22 13.10.2019
6303 Clouds -9 1017 92 0 4.99 294.375 12:59 13.10.2019
6304 Clouds -9 1017 92 0 4.99 294.375 12:39 13.10.2019
6305 Clear -8 1017 90 0 4.9 298.133 12:20 13.10.2019
6306 Clear -8 1017 90 0 4.9 298.133 11:58 13.10.2019
6307 Clear -8 1017 90 0 4.9 298.133 11:39 13.10.2019
6308 Clear -8 1017 90 0 4.9 298.133 11:20 13.10.2019
6309 Clear -8 1017 90 0 4.9 298.133 10:56 13.10.2019
6310 Clear -8 1017 90 0 4.9 298.133 10:38 13.10.2019
6311 Clear -8 1017 90 0 4.9 298.133 10:19 13.10.2019
6312 Clear -8 1017 90 0 4.9 298.133 09:39 13.10.2019
6313 Clouds -6 1016 79 0 5.48 296.593 09:21 13.10.2019
6314 Clouds -6 1016 79 0 5.6 298.593 08:44 13.10.2019
6315 Clouds -6 1016 79 0 5.6 298.593 08:26 13.10.2019
6316 Clouds -6 1016 79 0 5.6 298.593 07:52 13.10.2019
6317 Clouds -6 1016 79 0 5.6 298.593 07:33 13.10.2019
6318 Clouds -6 1016 79 0 5.6 298.593 07:33 13.10.2019
6319 Clouds -6 1016 79 0 5.6 298.593 06:54 13.10.2019
6320 Clouds -6 1016 79 0 5.6 298.593 06:24 13.10.2019
6321 Clouds -6 1016 79 0 5.6 298.593 06:24 13.10.2019
6322 Clouds -6 1016 79 0 5.6 298.593 06:24 13.10.2019
6323 Clouds -7 1016 78 0 5.56 297.952 05:22 13.10.2019
6324 Clouds -7 1016 78 0 5.56 297.952 04:34 13.10.2019
6325 Clouds -7 1016 78 0 5.56 297.952 04:34 13.10.2019
6326 Clouds -7 1016 78 0 5.56 297.952 03:24 13.10.2019
6327 Clouds -9 1016 86 0 6.01 298.98 02:31 13.10.2019
6328 Clouds -9 1016 86 0 6.01 298.98 02:31 13.10.2019
6329 Clouds -9 1016 86 0 6.01 298.98 01:37 13.10.2019
6330 Clouds -9 1016 85 0 6.03 299.194 00:56 13.10.2019
6331 Clouds -9 1016 85 0 6.03 299.194 00:56 13.10.2019
6332 Clouds -9 1016 85 0 6.03 299.194 00:38 13.10.2019
6333 Clouds -10 1016 90 0 5.92 298.969 00:19 13.10.2019
6334 Clouds -10 1016 90 0 5.92 298.969 23:42 12.10.2019
6335 Clouds -10 1016 90 0 5.92 298.969 23:42 12.10.2019
6336 Clouds -10 1016 90 0 5.92 298.969 23:23 12.10.2019
6337 Clouds -10 1016 90 0 5.92 298.969 22:59 12.10.2019
6338 Clouds -10 1016 90 0 5.92 298.969 22:40 12.10.2019
6339 Clouds -10 1016 90 0 5.92 298.969 22:22 12.10.2019
6340 Clouds -10 1016 90 0 5.92 298.969 21:58 12.10.2019
6341 Clouds -10 1016 90 0 5.92 298.969 21:58 12.10.2019
6342 Clouds -10 1016 90 0 5.92 298.969 21:39 12.10.2019
6343 Clouds -9 1015 90 0 5.88 295.668 21:21 12.10.2019
6344 Clouds -8 1015 87 0 5.55 298.666 20:54 12.10.2019
6345 Clouds -8 1015 87 0 5.55 298.666 20:36 12.10.2019
6346 Clouds -8 1015 87 0 5.55 298.666 20:18 12.10.2019
6347 Clouds -8 1015 87 0 5.55 298.666 19:36 12.10.2019
6348 Clouds -8 1015 87 0 5.55 298.666 19:18 12.10.2019
6349 Clouds -8 1015 87 0 5.55 298.666 18:42 12.10.2019
6350 Clouds -8 1014 85 0 5.22 300.335 18:24 12.10.2019
6351 Clouds -8 1014 85 0 5.22 300.335 17:46 12.10.2019
6352 Clouds -8 1014 85 0 5.22 300.335 17:21 12.10.2019
6353 Clouds -8 1014 85 0 5.22 300.335 16:59 12.10.2019
6354 Clouds -8 1014 85 0 5.22 300.335 16:59 12.10.2019
6355 Clouds -8 1014 85 0 5.22 300.335 16:40 12.10.2019
6356 Clouds -8 1014 85 0 5.22 300.335 16:21 12.10.2019
6357 Clouds -8 1014 85 0 5.22 300.335 15:56 12.10.2019
6358 Clouds -8 1014 85 0 5.22 300.335 15:37 12.10.2019
6359 Clouds -8 1013 87 0 4.95 293.547 15:18 12.10.2019
6360 Clouds -8 1013 87 0 4.95 293.547 14:39 12.10.2019
6361 Clouds -8 1013 87 0 4.95 293.547 14:20 12.10.2019
6362 Clouds -8 1013 87 0 4.95 293.547 14:20 12.10.2019
6363 Clouds -8 1013 87 0 4.95 293.547 13:50 12.10.2019
6364 Clouds -8 1013 88 0 4.68 295.175 13:32 12.10.2019
6365 Clouds -8 1013 88 0 4.68 295.175 12:55 12.10.2019
6366 Clouds -8 1013 88 0 4.68 295.175 12:37 12.10.2019
6367 Clouds -8 1012 90 0 3.98 296.134 12:19 12.10.2019
6368 Clouds -8 1012 90 0 3.98 296.134 11:43 12.10.2019
6369 Clouds -8 1012 90 0 3.98 296.134 11:43 12.10.2019
6370 Clouds -8 1012 90 0 3.98 296.134 11:23 12.10.2019
6371 Clouds -8 1012 90 0 3.98 296.134 10:58 12.10.2019
6372 Clouds -8 1012 90 0 3.98 296.134 10:39 12.10.2019
6373 Clouds -8 1012 90 0 3.98 296.134 10:20 12.10.2019
6374 Clouds -8 1012 90 0 3.98 296.134 10:20 12.10.2019
6375 Clouds -8 1012 90 0 3.98 296.134 09:57 12.10.2019
6376 Clouds -8 1012 90 0 3.98 296.134 09:57 12.10.2019
6377 Clouds -8 1012 90 0 3.98 296.134 09:37 12.10.2019
6378 Clouds -7 1010 80 0 4.96 299.695 09:19 12.10.2019
6379 Clouds -7 1011 79 0 4.57 301.076 08:44 12.10.2019
6380 Clouds -7 1011 79 0 4.57 301.076 08:23 12.10.2019
6381 Clouds -7 1011 79 0 4.57 301.076 07:50 12.10.2019
6382 Clouds -7 1011 79 0 4.57 301.076 07:30 12.10.2019
6383 Clouds -7 1011 79 0 4.57 301.076 06:27 12.10.2019
6384 Clouds -9 1010 79 0 5.69 295.344 05:42 12.10.2019
6385 Clouds -9 1010 79 0 5.69 295.344 04:34 12.10.2019
6386 Clouds -9 1010 79 0 5.69 295.344 03:53 12.10.2019
6387 Clouds -9 1009 80 0 6.35 294.984 02:45 12.10.2019
6388 Clouds -9 1009 81 0 6.31 294.413 01:32 12.10.2019
6389 Clouds -9 1009 81 0 6.31 294.413 00:55 12.10.2019
6390 Clouds -9 1009 81 0 6.31 294.413 00:55 12.10.2019
6391 Clouds -9 1009 81 0 6.31 294.413 00:37 12.10.2019
6392 Clouds -9 1008 83 0 6.14 298.884 23:55 11.10.2019
6393 Clouds -9 1008 83 0 6.14 298.884 23:36 11.10.2019
6394 Clouds -9 1008 83 0 6.14 298.884 23:18 11.10.2019
6395 Clouds -9 1008 83 0 6.14 298.884 22:37 11.10.2019
6396 Clouds -9 1008 83 0 6.14 298.884 22:19 11.10.2019
6397 Clouds -9 1008 83 0 6.14 298.884 21:42 11.10.2019
6398 Clouds -8 1007 83 0 6.6 296.814 21:21 11.10.2019
6399 Clouds -8 1006 82 0 6.51 296.002 20:57 11.10.2019
6400 Clouds -8 1006 82 0 6.51 296.002 20:38 11.10.2019
6401 Clouds -8 1006 82 0 6.51 296.002 20:38 11.10.2019
6402 Clouds -8 1006 82 0 6.51 296.002 20:19 11.10.2019
6403 Clouds -8 1006 82 0 6.51 296.002 19:55 11.10.2019
6404 Clouds -8 1006 82 0 6.51 296.002 19:36 11.10.2019
6405 Clouds -8 1006 82 0 6.51 296.002 19:18 11.10.2019
6406 Clouds -8 1006 82 0 6.51 296.002 19:18 11.10.2019
6407 Clouds -8 1006 82 0 6.51 296.002 19:18 11.10.2019
6408 Clouds -8 1006 82 0 6.51 296.002 19:18 11.10.2019
6409 Clouds -8 1006 82 0 6.51 296.002 18:54 11.10.2019
6410 Clouds -8 1006 82 0 6.51 296.002 18:36 11.10.2019
6411 Clouds -8 1006 82 0 6.51 296.002 18:36 11.10.2019
6412 Clouds -8 1007 83 0 6.76 297.539 18:18 11.10.2019
6413 Clouds -8 1007 83 0 6.76 297.539 17:54 11.10.2019
6414 Clouds -8 1007 83 0 6.76 297.539 17:36 11.10.2019
6415 Clouds -8 1007 83 0 6.76 297.539 17:18 11.10.2019
6416 Clouds -8 1007 83 0 6.76 297.539 17:18 11.10.2019
6417 Clouds -8 1007 83 0 6.76 297.539 16:40 11.10.2019
6418 Clouds -8 1007 83 0 6.76 297.539 16:19 11.10.2019
6419 Clouds -8 1007 83 0 6.76 297.539 15:58 11.10.2019
6420 Clouds -8 1007 83 0 6.76 297.539 15:38 11.10.2019
6421 Clouds -8 1008 83 0 6.1 297.17 15:18 11.10.2019
6422 Clouds -8 1008 83 0 6.1 297.17 14:46 11.10.2019
6423 Clouds -8 1008 83 0 6.1 297.17 14:28 11.10.2019
6424 Clouds -8 1008 83 0 6.1 297.17 13:47 11.10.2019
6425 Clouds -8 1008 83 0 5.93 295.618 13:27 11.10.2019
6426 Clouds -8 1008 83 0 5.93 295.618 12:59 11.10.2019
6427 Clouds -8 1008 83 0 5.93 295.618 12:41 11.10.2019
6428 Clouds -7 1008 84 0 5.59 302.353 12:22 11.10.2019
6429 Clouds -7 1008 84 0 5.59 302.353 11:59 11.10.2019
6430 Clouds -7 1008 84 0 5.59 302.353 11:40 11.10.2019
6431 Clouds -7 1008 84 0 5.59 302.353 11:21 11.10.2019
6432 Clouds -7 1008 84 0 5.59 302.353 10:56 11.10.2019
6433 Clouds -7 1008 84 0 5.59 302.353 10:38 11.10.2019
6434 Clouds -7 1008 84 0 5.59 302.353 10:20 11.10.2019
6435 Clouds -7 1008 84 0 5.59 302.353 09:54 11.10.2019
6436 Clouds -7 1008 84 0 5.59 302.353 09:54 11.10.2019
6437 Clouds -8 1009 85 0 5.46 298.541 09:36 11.10.2019
6438 Clouds -5 1009 79 0 5.37 299.754 09:18 11.10.2019
6439 Clouds -5 1009 79 0 5.37 299.754 08:40 11.10.2019
6440 Clouds -5 1009 79 0 5.37 299.754 08:21 11.10.2019
6441 Clouds -5 1009 79 0 5.37 299.754 07:59 11.10.2019
6442 Clouds -5 1009 79 0 5.37 299.754 07:40 11.10.2019
6443 Clouds -5 1009 79 0 5.37 299.754 07:20 11.10.2019
6444 Clouds -5 1009 79 0 5.37 299.754 06:44 11.10.2019
6445 Clouds -4 1009 82 0 4.35 301.203 06:21 11.10.2019
6446 Clouds -4 1009 82 0 4.35 301.203 05:37 11.10.2019
6447 Clouds -4 1009 82 0 4.35 301.203 04:59 11.10.2019
6448 Clouds -4 1009 82 0 4.35 301.203 04:24 11.10.2019
6449 Clouds -7 1010 89 0 2.98 293.194 01:58 11.10.2019
6450 Clouds -7 1010 89 0 2.84 294.929 00:42 11.10.2019
6451 Clouds -9 1010 93 0 3.2 291.688 00:23 11.10.2019
6452 Clouds -9 1010 93 0 3.2 291.688 00:23 11.10.2019
6453 Clouds -9 1010 93 0 3.2 291.688 23:42 10.10.2019
6454 Clouds -9 1010 93 0 3.2 291.688 23:21 10.10.2019
6455 Clouds -9 1010 93 0 3.2 291.688 22:57 10.10.2019
6456 Clouds -9 1010 93 0 3.2 291.688 22:38 10.10.2019
6457 Clouds -9 1010 93 0 3.2 291.688 22:19 10.10.2019
6458 Clouds -9 1010 93 0 3.2 291.688 21:56 10.10.2019
6459 Clouds -9 1010 93 0 3.2 291.688 21:56 10.10.2019
6460 Clouds -9 1010 93 0 3.2 291.688 21:38 10.10.2019
6461 Clouds -9 1011 93 0 3.63 284.53 21:20 10.10.2019
6462 Clouds -9 1010 93 0 3.72 288.377 20:41 10.10.2019
6463 Clouds -9 1010 93 0 3.72 288.377 20:21 10.10.2019
6464 Clouds -9 1010 93 0 3.72 288.377 19:58 10.10.2019
6465 Clouds -9 1010 93 0 3.72 288.377 19:40 10.10.2019
6466 Clouds -9 1010 93 0 3.72 288.377 19:20 10.10.2019
6467 Clouds -9 1010 93 0 3.72 288.377 18:56 10.10.2019
6468 Clouds -9 1010 93 0 3.72 288.377 18:38 10.10.2019
6469 Clouds -9 1010 93 0 3.25 284.1 18:19 10.10.2019
6470 Clouds -9 1010 93 0 3.25 284.1 17:41 10.10.2019
6471 Clouds -9 1010 93 0 3.25 284.1 17:20 10.10.2019
6472 Clouds -9 1010 93 0 3.25 284.1 16:59 10.10.2019
6473 Clouds -9 1010 93 0 3.25 284.1 16:41 10.10.2019
6474 Clouds -9 1010 93 0 3.25 284.1 16:22 10.10.2019
6475 Clouds -9 1010 93 0 3.25 284.1 15:44 10.10.2019
6476 Clouds -9 1010 93 0 3.25 284.1 15:25 10.10.2019
6477 Clouds -9 1011 93 0 3.25 278.549 14:59 10.10.2019
6478 Clouds -9 1011 93 0 3.25 278.549 14:38 10.10.2019
6479 Clouds -9 1011 93 0 3.25 278.549 14:38 10.10.2019
6480 Snow -4 1010 79 10000 3 280 14:19 10.10.2019
6481 Snow -4 1010 79 10000 3 280 13:59 10.10.2019
6482 Snow -4 1010 79 10000 3 270 13:40 10.10.2019
6483 Snow -4 1010 79 10000 3 270 13:19 10.10.2019
6484 Snow -4 1010 79 10000 3 270 13:19 10.10.2019
6485 Snow -4 1010 79 10000 3 270 12:56 10.10.2019
6486 Snow -4 1010 79 10000 3 270 12:38 10.10.2019
6487 Snow -4 1010 79 10000 3 270 12:19 10.10.2019
6488 -273 0 0 0 0 0 11:55 10.10.2019
6489 Snow -4 1010 79 10000 3 270 11:36 10.10.2019
6490 Snow -4 1010 79 10000 3 270 11:18 10.10.2019
6491 Clouds -4 1010 79 10000 2 270 10:44 10.10.2019
6492 Clouds -4 1010 79 10000 2 280 10:25 10.10.2019
6493 Clouds -3 1009 73 10000 3 270 09:55 10.10.2019
6494 Clouds -3 1009 73 10000 4 270 09:37 10.10.2019
6495 Clouds -3 1009 73 10000 4 270 09:19 10.10.2019
6496 Clouds -3 1009 73 10000 3 280 08:41 10.10.2019
6497 Clouds -3 1009 73 10000 3 270 08:22 10.10.2019
6498 Clouds -3 1008 79 10000 4 250 07:58 10.10.2019
6499 Clouds -3 1008 73 10000 4 240 07:38 10.10.2019
6500 Clouds -3 1008 73 10000 4 240 07:19 10.10.2019
6501 Clouds -3 1008 73 10000 4 240 06:45 10.10.2019
6502 Clouds -3 1008 79 10000 4 250 05:57 10.10.2019
6503 Clouds -3 1008 73 10000 4 240 05:23 10.10.2019
6504 Clouds -4 1007 79 10000 4 250 04:37 10.10.2019
6505 Clouds -4 1006 85 10000 3 260 02:54 10.10.2019
6506 Clouds -4 1006 85 10000 3 270 01:42 10.10.2019
6507 Clouds -4 1006 85 10000 4 290 01:23 10.10.2019
6508 Clouds -4 1005 85 10000 6 280 00:45 10.10.2019
6509 Snow -4 1005 92 10000 5 280 00:19 10.10.2019
6510 Snow -3 1005 92 10000 4 280 23:39 09.10.2019
6511 Snow -3 1005 92 10000 4 280 23:19 09.10.2019
6512 Snow -3 1004 92 10000 4 280 22:43 09.10.2019
6513 Snow -2 1004 92 10000 4 280 22:24 09.10.2019
6514 Snow -2 1004 100 10000 3 290 21:59 09.10.2019
6515 Snow -2 1003 100 10000 2 270 21:39 09.10.2019
6516 Snow -2 1003 100 10000 2 270 21:20 09.10.2019
6517 Snow -2 1003 92 10000 2 280 20:56 09.10.2019
6518 Snow -2 1003 92 10000 3 280 20:37 09.10.2019
6519 Snow -2 1003 92 10000 3 280 20:18 09.10.2019
6520 Snow -2 1003 100 10000 3 290 19:45 09.10.2019
6521 Snow -2 1003 100 5000 3 300 19:24 09.10.2019
6522 Snow -2 1002 100 5000 3 300 18:58 09.10.2019
6523 Snow -2 1002 100 5000 3 300 18:38 09.10.2019
6524 Snow -2 1002 100 5000 3 300 18:18 09.10.2019
6525 Snow -2 1002 100 5000 3 300 17:55 09.10.2019
6526 Snow -2 1002 100 2400 3 310 17:37 09.10.2019
6527 Snow -2 1002 100 2400 3 310 17:18 09.10.2019
6528 Snow -1 1001 92 2400 4 310 16:41 09.10.2019
6529 Snow -1 1001 92 2400 4 320 16:23 09.10.2019
6530 Snow -1 1001 92 1500 4 310 15:58 09.10.2019
6531 Snow -1 1001 92 2400 4 320 15:39 09.10.2019
6532 Snow -1 1001 92 2400 4 320 15:20 09.10.2019
6533 Snow -1 1001 92 5000 4 320 14:58 09.10.2019
6534 Snow -1 1001 92 5000 4 320 14:40 09.10.2019
6535 Snow -1 1001 92 5000 4 330 14:18 09.10.2019
6536 Snow -1 1001 100 10000 4 330 13:40 09.10.2019
6537 Snow -1 1001 100 10000 4 330 13:21 09.10.2019
6538 Snow -1 1001 100 3200 5 330 12:59 09.10.2019
6539 Snow -1 1001 100 3200 5 330 12:59 09.10.2019
6540 Snow -1 1001 100 3200 5 330 12:40 09.10.2019
6541 Snow -1 1001 100 1500 5 330 12:21 09.10.2019
6542 Snow -1 1001 100 2100 5 340 11:55 09.10.2019
6543 Snow -1 1001 100 2100 5 340 11:37 09.10.2019
6544 Snow -1 1001 100 2100 5 340 11:19 09.10.2019
6545 Snow -1 1001 100 1200 5 340 10:43 09.10.2019
6546 Snow -1 1001 100 1200 5 340 10:43 09.10.2019
6547 Snow -1 1001 100 1500 5 350 10:21 09.10.2019
6548 Snow -1 1001 100 1500 5 350 10:21 09.10.2019
6549 Snow 0 1001 95 1500 5 350 09:58 09.10.2019
6550 Snow 0 1001 95 1500 5 350 09:40 09.10.2019
6551 Snow 0 1001 95 1500 5 350 09:40 09.10.2019
6552 Snow 0 1001 95 1500 5 350 09:40 09.10.2019
6553 Snow 0 1001 94 1500 6 360 09:18 09.10.2019
6554 Snow 0 1001 94 1500 6 360 08:41 09.10.2019
6555 Snow 0 1001 94 1500 7 360 08:21 09.10.2019
6556 Snow 0 1001 94 1100 6 360 07:56 09.10.2019
6557 Snow 0 1001 94 1500 6 360 07:37 09.10.2019
6558 Snow 0 1001 94 1500 6 360 07:19 09.10.2019
6559 Snow 0 1001 94 1500 6 360 07:19 09.10.2019
6560 Snow 0 1001 94 1500 6 360 06:49 09.10.2019
6561 Snow 0 1001 93 2100 6 360 05:56 09.10.2019
6562 Snow 1 1001 80 3200 6 360 05:28 09.10.2019
6563 Snow 1 1002 80 10000 6 20 04:24 09.10.2019
6564 Clouds 0 1002 94 10000 6 20 02:52 09.10.2019
6565 Snow 0 1003 94 3200 5 20 01:43 09.10.2019
6566 Snow 0 1003 94 3200 5 20 01:20 09.10.2019
6567 Snow 0 1003 94 3200 5 20 01:20 09.10.2019
6568 Snow 0 1003 94 5000 5 20 00:56 09.10.2019
6569 Snow 0 1003 94 5000 4 30 00:38 09.10.2019
6570 Snow 0 1003 96 5000 4 30 00:19 09.10.2019
6571 Snow 0 1003 96 10000 5 20 23:39 08.10.2019
6572 Snow 0 1003 96 10000 5 20 23:19 08.10.2019
6573 Snow 0 1003 96 10000 5 20 22:56 08.10.2019
6574 Snow -1 1003 100 3200 5 20 22:38 08.10.2019
6575 Snow -1 1003 100 3200 5 20 22:19 08.10.2019
6576 Snow -1 1004 92 10000 5 20 21:57 08.10.2019
6577 Snow -1 1004 92 10000 5 20 21:57 08.10.2019
6578 Snow -1 1004 92 10000 5 20 21:39 08.10.2019
6579 Snow -1 1004 92 10000 5 20 21:19 08.10.2019
6580 Snow -1 1004 92 10000 5 20 21:19 08.10.2019
6581 Clouds -1 1004 92 10000 4 10 20:56 08.10.2019
6582 Clouds -2 1004 92 10000 3 350 20:37 08.10.2019
6583 Clouds -2 1004 92 10000 3 350 20:19 08.10.2019
6584 Clouds -2 1004 92 10000 3 350 19:56 08.10.2019
6585 Clouds -2 1005 92 10000 3 350 19:37 08.10.2019
6586 Clouds -2 1005 92 10000 3 350 19:19 08.10.2019
6587 Clouds -2 1005 92 10000 3 360 18:46 08.10.2019
6588 Clouds -2 1005 92 10000 3 350 18:27 08.10.2019
6589 Clouds -2 1005 92 10000 3 340 17:59 08.10.2019
6590 Clouds -2 1005 92 10000 3 340 17:40 08.10.2019
6591 Clouds -2 1005 92 10000 3 340 17:40 08.10.2019
6592 Clouds -2 1005 92 10000 3 340 17:40 08.10.2019
6593 Clouds -2 1005 92 10000 3 350 17:20 08.10.2019
6594 Clouds -2 1005 86 10000 2 350 16:56 08.10.2019
6595 Clouds -2 1005 92 10000 3 350 16:38 08.10.2019
6596 Clouds -2 1005 92 10000 3 350 16:20 08.10.2019
6597 Clouds -2 1005 86 10000 2 350 15:40 08.10.2019
6598 -273 0 0 0 0 0 15:21 08.10.2019
6599 Clouds -1 1005 86 10000 2 10 14:57 08.10.2019
6600 Clouds -1 1005 86 10000 2 360 14:39 08.10.2019
6601 Clouds -1 1005 86 10000 2 360 14:20 08.10.2019
6602 Clouds -1 1005 86 10000 3 360 13:56 08.10.2019
6603 Clouds 1 1005 80 10000 3 350 13:37 08.10.2019
6604 Clouds 1 1005 80 10000 3 350 13:18 08.10.2019
6605 Clouds 1 1005 80 10000 3 350 12:42 08.10.2019
6606 Clouds 0 1005 83 10000 2 20 12:21 08.10.2019
6607 Clouds 0 1005 83 10000 2 20 12:21 08.10.2019
6608 Clouds 1 1005 80 10000 2 50 11:59 08.10.2019
6609 Clouds 1 1005 80 10000 2 50 11:40 08.10.2019
6610 Clouds 2 1005 74 10000 2 50 11:21 08.10.2019
6611 Clouds 2 1005 74 10000 2 80 10:55 08.10.2019
6612 Clouds 2 1005 74 10000 2 80 10:36 08.10.2019
6613 Clouds 2 1005 74 10000 2 80 10:18 08.10.2019
6614 Clouds 2 1004 74 10000 2 90 09:41 08.10.2019
6615 Clouds 2 1004 74 10000 2 90 09:41 08.10.2019
6616 Clouds 2 1004 74 10000 3 90 09:23 08.10.2019
6617 Clouds 2 1004 74 10000 3 70 08:57 08.10.2019
6618 Clouds 3 1004 69 10000 2 100 08:39 08.10.2019
6619 Clouds 3 1004 69 10000 2 100 08:21 08.10.2019
6620 Clouds 3 1004 69 10000 2 90 07:41 08.10.2019
6621 Clouds 3 1004 69 10000 2 90 07:20 08.10.2019
6622 Clouds 3 1004 69 10000 2 90 07:20 08.10.2019
6623 Clouds 2 1004 74 10000 3 90 06:47 08.10.2019
6624 Clouds 2 1004 74 10000 2 100 06:26 08.10.2019
6625 Clouds 2 1004 74 10000 2 100 05:45 08.10.2019
6626 -273 0 0 0 0 0 05:24 08.10.2019
6627 Clouds 0 1004 73 10000 2 120 03:32 08.10.2019
6628 Clouds 0 1004 85 10000 2 120 02:47 08.10.2019
6629 Snow 0 1005 85 10000 2 110 02:29 08.10.2019
6630 Snow 0 1005 85 10000 2 110 01:43 08.10.2019
6631 Snow 0 1005 82 10000 2 170 01:19 08.10.2019
6632 Clouds -1 1005 92 10000 2 160 00:38 08.10.2019
6633 Clouds -1 1005 92 10000 2 160 00:19 08.10.2019
6634 Clouds -1 1005 86 10000 2 130 23:39 07.10.2019
6635 Clouds -1 1005 86 10000 2 130 23:19 07.10.2019
6636 Clouds -1 1005 86 10000 1 160 22:55 07.10.2019
6637 Clouds -1 1005 86 10000 1 160 22:55 07.10.2019
6638 Clouds -1 1005 86 10000 2 180 22:37 07.10.2019
6639 Clouds -1 1005 86 10000 2 180 22:19 07.10.2019
6640 Clouds -1 1005 80 10000 1 180 21:55 07.10.2019
6641 Clouds -1 1005 80 10000 2 160 21:37 07.10.2019
6642 Clouds -1 1005 80 10000 2 160 21:18 07.10.2019
6643 Clouds -2 1005 86 10000 0.98 146.782 20:57 07.10.2019
6644 Clear -2 1005 86 10000 1 160 20:38 07.10.2019
6645 Clear -2 1005 86 10000 1 160 20:19 07.10.2019
6646 Clear -3 1006 86 10000 0.98 146.782 19:55 07.10.2019
6647 Clear -3 1006 86 10000 0.98 146.782 19:54 07.10.2019
6648 Clear -3 1006 86 10000 0.98 146.782 19:54 07.10.2019
6649 Clear -3 1006 86 10000 0.98 146.782 19:36 07.10.2019
6650 Clear -3 1006 86 10000 0.98 146.782 19:18 07.10.2019
6651 Clear -3 1006 86 10000 0.98 146.782 18:42 07.10.2019
6652 Clear -3 1006 79 10000 1 310 18:19 07.10.2019
6653 Clear -4 1007 85 10000 2 300 17:58 07.10.2019
6654 Clear -4 1007 85 10000 2 300 17:40 07.10.2019
6655 Clear -4 1007 85 10000 2 300 17:40 07.10.2019
6656 Clear -4 1007 85 10000 2 300 17:40 07.10.2019
6657 Clear -4 1007 85 10000 1 280 17:19 07.10.2019
6658 Clear -4 1007 85 10000 1 300 16:46 07.10.2019
6659 Clear -4 1007 85 10000 1 300 16:46 07.10.2019
6660 Clear -3 1007 79 10000 1 300 16:28 07.10.2019
6661 Clear -4 1007 85 10000 2 310 15:58 07.10.2019
6662 Clear -4 1008 85 10000 1 300 15:39 07.10.2019
6663 Clear -4 1008 85 10000 1 300 15:21 07.10.2019
6664 Clear -3 1008 79 10000 2 320 14:41 07.10.2019
6665 Clear -2 1008 79 10000 1 10 14:23 07.10.2019
6666 Clear -1 1008 74 10000 1 20 13:45 07.10.2019
6667 Clear 0 1008 67 10000 2 30 13:21 07.10.2019
6668 Clear 0 1008 67 10000 2 20 12:59 07.10.2019
6669 Clear 1 1008 64 10000 2 60 12:40 07.10.2019
6670 Clear 1 1008 64 10000 2 60 12:40 07.10.2019
6671 Clear 1 1008 64 10000 2 60 12:21 07.10.2019
6672 Clear 1 1008 64 10000 2 60 12:21 07.10.2019
6673 Clear 1 1008 64 10000 2 60 12:21 07.10.2019
6674 Clear 1 1008 64 10000 2 90 11:59 07.10.2019
6675 Clear 1 1008 64 10000 2 90 11:40 07.10.2019
6676 Clear 2 1008 59 10000 2 80 11:21 07.10.2019
6677 Clear 2 1008 59 10000 2 80 10:58 07.10.2019
6678 Clear 3 1008 55 10000 2 90 10:39 07.10.2019
6679 -273 0 0 0 0 0 10:20 07.10.2019
6680 Clear 3 1008 55 10000 2 80 09:40 07.10.2019
6681 Clear 3 1008 51 10000 2 80 09:22 07.10.2019
6682 Clear 4 1008 48 10000 3 70 08:44 07.10.2019
6683 Clear 4 1008 48 10000 3 60 08:21 07.10.2019
6684 Clear 4 1008 48 10000 3 20 07:59 07.10.2019
6685 Clear 4 1008 48 10000 3 30 07:40 07.10.2019
6686 Clear 4 1008 48 10000 3 30 07:20 07.10.2019
6687 Clear 3 1008 47 10000 3 40 06:44 07.10.2019
6688 Clear 3 1009 51 10000 3 30 06:22 07.10.2019
6689 Clear 1 1009 59 10000 3 10 05:27 07.10.2019
6690 Clear 0 1009 64 10000 2 20 04:56 07.10.2019
6691 Clear 0 1010 64 10000 3 30 04:19 07.10.2019
6692 Clear -1 1010 74 10000 3 20 03:39 07.10.2019
6693 Clear -1 1010 74 10000 3 20 03:39 07.10.2019
6694 Clear -1 1010 74 10000 3 20 03:18 07.10.2019
6695 Clear -3 1010 86 10000 2 10 02:20 07.10.2019
6696 Clear -3 1010 86 10000 2 360 01:42 07.10.2019
6697 Clear -4 1010 85 10000 2 350 01:18 07.10.2019
6698 Clear -5 1010 92 10000 2 350 00:36 07.10.2019
6699 Clear -5 1010 92 10000 2 350 00:18 07.10.2019
6700 Clear -5 1010 92 10000 2 340 23:42 06.10.2019
6701 Clear -5 1010 92 10000 3 360 23:21 06.10.2019
6702 Clear -4 1010 85 10000 2 10 22:58 06.10.2019
6703 Clear -4 1010 85 10000 2 10 22:40 06.10.2019
6704 Clear -4 1010 92 10000 2 10 22:21 06.10.2019
6705 Clear -4 1010 92 10000 2 360 21:57 06.10.2019
6706 Clear -4 1010 92 10000 3 10 21:37 06.10.2019
6707 Clear -4 1010 92 10000 3 10 21:37 06.10.2019
6708 Clear -4 1010 92 10000 3 10 21:19 06.10.2019
6709 Clear -4 1010 92 10000 3 360 20:57 06.10.2019
6710 Clear -3 1011 86 10000 3 350 20:38 06.10.2019
6711 Clear -3 1011 86 10000 3 350 20:20 06.10.2019
6712 Clear -3 1011 86 10000 3 360 19:57 06.10.2019
6713 Clear -3 1011 86 10000 3 360 19:37 06.10.2019
6714 Clear -3 1011 86 10000 3 360 19:19 06.10.2019
6715 Clear -3 1011 86 10000 2 350 18:56 06.10.2019
6716 Clear -3 1011 86 10000 3 350 18:38 06.10.2019
6717 Clear -3 1011 86 10000 3 350 18:19 06.10.2019
6718 Clear -4 1011 92 10000 2 350 17:43 06.10.2019
6719 Clear -4 1011 92 10000 2 360 17:21 06.10.2019
6720 Clear -4 1011 92 10000 2 350 16:59 06.10.2019
6721 Clear -4 1011 92 10000 2 350 16:41 06.10.2019
6722 Clear -3 1011 86 10000 2 360 16:23 06.10.2019
6723 Clear -3 1011 86 10000 2 350 15:45 06.10.2019
6724 Clear -3 1011 86 10000 2 350 15:45 06.10.2019
6725 Clear -3 1011 86 10000 2 360 15:23 06.10.2019
6726 Clear -1 1011 80 10000 2 60 14:58 06.10.2019
6727 Clear -1 1011 80 10000 2 60 14:40 06.10.2019
6728 Clear -1 1011 80 10000 2 70 14:22 06.10.2019
6729 Clear -1 1011 80 10000 2 90 13:55 06.10.2019
6730 Clear -1 1011 80 10000 2 100 13:37 06.10.2019
6731 Clear -1 1011 80 10000 2 100 13:19 06.10.2019
6732 Clear -1 1011 80 10000 1 100 12:55 06.10.2019
6733 Clear -1 1011 80 10000 1 120 12:37 06.10.2019
6734 Clear -1 1011 80 10000 1 120 12:19 06.10.2019
6735 Clear 0 1011 82 10000 3 130 11:43 06.10.2019
6736 Clear 0 1011 82 10000 3 110 11:24 06.10.2019
6737 Clear 0 1011 82 10000 3 110 11:24 06.10.2019
6738 Clear 0 1011 82 10000 3 110 10:58 06.10.2019
6739 Clear 1 1010 69 10000 2 120 10:39 06.10.2019
6740 Clear 1 1010 69 10000 2 120 10:21 06.10.2019
6741 Clear 1 1010 69 10000 4 110 09:42 06.10.2019
6742 Clear 1 1010 69 10000 4 120 09:21 06.10.2019
6743 Clear 1 1010 69 10000 4 100 08:57 06.10.2019
6744 Clear 2 1010 64 10000 4 120 08:38 06.10.2019
6745 Clear 2 1010 64 10000 4 120 08:19 06.10.2019
6746 Clouds 2 1010 64 10000 3 120 07:41 06.10.2019
6747 Clouds 2 1010 64 10000 3 110 06:59 06.10.2019
6748 Clouds 1 1011 69 10000 3 110 06:18 06.10.2019
6749 Clouds 0 1011 66 10000 3 100 04:44 06.10.2019
6750 Clouds -1 1012 74 10000 2 100 02:56 06.10.2019
6751 Clouds -2 1012 79 10000 2 100 02:37 06.10.2019
6752 Clouds -2 1012 79 10000 2 100 01:57 06.10.2019
6753 Clouds -2 1012 79 10000 3 110 01:37 06.10.2019
6754 Clouds -2 1012 79 10000 3 110 01:18 06.10.2019
6755 Clouds -2 1012 79 10000 3 90 00:45 06.10.2019
6756 Clouds -2 1012 79 10000 4 100 00:21 06.10.2019